Wetterdaten: Montag, 06.03.2017
Datum Zeit Temp. A. Temp. A. max Feuchte A. Luftdruck Regen Wind Richtung Richtung Sonnenschein ET UV Solar Taupunkt Windchill Windböen
06.03.2017 00:00 1,8 °C 1,8 °C 89 % 1004,0 hPa 0,0 mm 5,8 km/h (2 Bft) SW 227 ° 0 min 0,000 mm 0,0 UV-I 0 W/m² 0,2 °C 0,1 °C 8,0 km/h (2 Bft)
06.03.2017 00:01 1,8 °C 1,8 °C 89 % 1004,1 hPa 0,0 mm 6,3 km/h (2 Bft) W-SW 240 ° 0 min 0,000 mm 0,0 UV-I 0 W/m² 0,2 °C -0,1 °C 11,3 km/h (2 Bft)
06.03.2017 00:02 1,8 °C 1,8 °C 89 % 1004,1 hPa 0,0 mm 5,2 km/h (1 Bft) SW 217 ° 0 min 0,000 mm 0,0 UV-I 0 W/m² 0,2 °C 0,4 °C 11,3 km/h (2 Bft)
06.03.2017 00:03 1,8 °C 1,8 °C 90 % 1004,2 hPa 0,0 mm 5,5 km/h (1 Bft) W-SW 248 ° 0 min 0,000 mm 0,0 UV-I 0 W/m² 0,3 °C 0,2 °C 6,4 km/h (2 Bft)
06.03.2017 00:04 1,8 °C 1,8 °C 90 % 1004,2 hPa 0,0 mm 2,7 km/h (1 Bft) W-SW 246 ° 0 min 0,000 mm 0,0 UV-I 0 W/m² 0,3 °C 1,8 °C 4,8 km/h (1 Bft)
06.03.2017 00:05 1,8 °C 1,8 °C 90 % 1004,2 hPa 0,0 mm 4,2 km/h (1 Bft) SW 219 ° 0 min 0,000 mm 0,0 UV-I 0 W/m² 0,3 °C 1,8 °C 6,4 km/h (2 Bft)
06.03.2017 00:06 1,8 °C 1,9 °C 90 % 1004,2 hPa 0,0 mm 6,6 km/h (2 Bft) W-SW 254 ° 0 min 0,000 mm 0,0 UV-I 0 W/m² 0,3 °C -0,2 °C 9,7 km/h (2 Bft)
06.03.2017 00:07 1,9 °C 1,9 °C 89 % 1004,1 hPa 0,0 mm 4,8 km/h (1 Bft) W 276 ° 0 min 0,000 mm 0,0 UV-I 0 W/m² 0,3 °C 0,7 °C 6,4 km/h (2 Bft)
06.03.2017 00:08 1,9 °C 1,9 °C 89 % 1004,1 hPa 0,0 mm 7,0 km/h (2 Bft) W-SW 237 ° 0 min 0,000 mm 0,0 UV-I 0 W/m² 0,3 °C -0,2 °C 11,3 km/h (2 Bft)
06.03.2017 00:09 1,9 °C 1,9 °C 89 % 1004,2 hPa 0,0 mm 6,6 km/h (2 Bft) W 268 ° 0 min 0,000 mm 0,0 UV-I 0 W/m² 0,3 °C -0,1 °C 9,7 km/h (2 Bft)
06.03.2017 00:10 1,9 °C 1,9 °C 89 % 1004,2 hPa 0,0 mm 7,7 km/h (2 Bft) W 267 ° 0 min 0,000 mm 0,0 UV-I 0 W/m² 0,3 °C -0,4 °C 11,3 km/h (2 Bft)
06.03.2017 00:11 1,9 °C 1,9 °C 89 % 1004,3 hPa 0,0 mm 9,3 km/h (2 Bft) W 266 ° 0 min 0,000 mm 0,0 UV-I 0 W/m² 0,3 °C -0,9 °C 14,5 km/h (3 Bft)
06.03.2017 00:12 1,9 °C 1,9 °C 89 % 1004,3 hPa 0,0 mm 8,5 km/h (2 Bft) W-NW 284 ° 0 min 0,000 mm 0,0 UV-I 0 W/m² 0,3 °C -0,7 °C 12,9 km/h (3 Bft)
06.03.2017 00:13 1,9 °C 1,9 °C 89 % 1004,3 hPa 0,0 mm 6,1 km/h (2 Bft) W-NW 302 ° 0 min 0,000 mm 0,0 UV-I 0 W/m² 0,3 °C 0,1 °C 11,3 km/h (2 Bft)
06.03.2017 00:14 1,9 °C 1,9 °C 89 % 1004,3 hPa 0,0 mm 9,0 km/h (2 Bft) W-SW 256 ° 0 min 0,000 mm 0,0 UV-I 0 W/m² 0,3 °C -0,8 °C 12,9 km/h (3 Bft)
06.03.2017 00:15 1,9 °C 1,9 °C 89 % 1004,4 hPa 0,0 mm 8,1 km/h (2 Bft) W-SW 252 ° 0 min 0,000 mm 0,0 UV-I 0 W/m² 0,3 °C -0,5 °C 11,3 km/h (2 Bft)
06.03.2017 00:16 1,9 °C 1,9 °C 90 % 1004,4 hPa 0,0 mm 9,7 km/h (2 Bft) W-SW 245 ° 0 min 0,000 mm 0,0 UV-I 0 W/m² 0,4 °C -1,0 °C 12,9 km/h (3 Bft)
06.03.2017 00:17 1,9 °C 1,9 °C 90 % 1004,4 hPa 0,0 mm 10,1 km/h (2 Bft) W-SW 246 ° 0 min 0,000 mm 0,0 UV-I 0 W/m² 0,4 °C -1,1 °C 16,1 km/h (3 Bft)
06.03.2017 00:18 1,9 °C 1,9 °C 90 % 1004,4 hPa 0,0 mm 8,0 km/h (2 Bft) W 259 ° 0 min 0,000 mm 0,0 UV-I 0 W/m² 0,4 °C -0,5 °C 12,9 km/h (3 Bft)
06.03.2017 00:19 2,0 °C 2,0 °C 89 % 1004,5 hPa 0,0 mm 8,9 km/h (2 Bft) W 268 ° 0 min 0,000 mm 0,0 UV-I 0 W/m² 0,4 °C -0,6 °C 14,5 km/h (3 Bft)
06.03.2017 00:20 2,1 °C 2,1 °C 89 % 1004,5 hPa 0,0 mm 6,7 km/h (2 Bft) W 261 ° 0 min 0,000 mm 0,0 UV-I 0 W/m² 0,5 °C 0,1 °C 11,3 km/h (2 Bft)
06.03.2017 00:21 2,1 °C 2,1 °C 89 % 1004,5 hPa 0,0 mm 6,8 km/h (2 Bft) W 270 ° 0 min 0,000 mm 0,0 UV-I 0 W/m² 0,5 °C 0,1 °C 9,7 km/h (2 Bft)
06.03.2017 00:22 2,1 °C 2,1 °C 89 % 1004,5 hPa 0,0 mm 8,0 km/h (2 Bft) W-SW 252 ° 0 min 0,000 mm 0,0 UV-I 0 W/m² 0,5 °C -0,3 °C 12,9 km/h (3 Bft)
06.03.2017 00:23 2,1 °C 2,1 °C 89 % 1004,5 hPa 0,0 mm 7,7 km/h (2 Bft) W 260 ° 0 min 0,000 mm 0,0 UV-I 0 W/m² 0,5 °C -0,2 °C 11,3 km/h (2 Bft)
06.03.2017 00:24 2,1 °C 2,1 °C 89 % 1004,5 hPa 0,0 mm 5,8 km/h (2 Bft) W 269 ° 0 min 0,000 mm 0,0 UV-I 0 W/m² 0,5 °C 0,5 °C 12,9 km/h (3 Bft)
06.03.2017 00:25 2,2 °C 2,2 °C 89 % 1004,5 hPa 0,0 mm 5,9 km/h (2 Bft) W-SW 244 ° 0 min 0,000 mm 0,0 UV-I 0 W/m² 0,6 °C 0,5 °C 14,5 km/h (3 Bft)
06.03.2017 00:26 2,2 °C 2,2 °C 89 % 1004,4 hPa 0,0 mm 11,9 km/h (2 Bft) W 261 ° 0 min 0,000 mm 0,0 UV-I 0 W/m² 0,6 °C -1,1 °C 16,1 km/h (3 Bft)
06.03.2017 00:27 2,2 °C 2,2 °C 89 % 1004,4 hPa 0,0 mm 9,6 km/h (2 Bft) W-SW 251 ° 0 min 0,000 mm 0,0 UV-I 0 W/m² 0,6 °C -0,6 °C 14,5 km/h (3 Bft)
06.03.2017 00:28 2,2 °C 2,2 °C 89 % 1004,4 hPa 0,2 mm 13,3 km/h (3 Bft) W-SW 248 ° 0 min 0,000 mm 0,0 UV-I 0 W/m² 0,6 °C -1,4 °C 19,3 km/h (3 Bft)
06.03.2017 00:29 2,2 °C 2,2 °C 89 % 1004,4 hPa 0,0 mm 5,7 km/h (1 Bft) W 262 ° 0 min 0,000 mm 0,0 UV-I 0 W/m² 0,6 °C 0,6 °C 9,7 km/h (2 Bft)
06.03.2017 00:30 2,2 °C 2,2 °C 89 % 1004,4 hPa 0,0 mm 5,5 km/h (1 Bft) W 267 ° 0 min 0,000 mm 0,0 UV-I 0 W/m² 0,6 °C 0,7 °C 9,7 km/h (2 Bft)
06.03.2017 00:31 2,2 °C 2,3 °C 89 % 1004,4 hPa 0,0 mm 7,9 km/h (2 Bft) W 261 ° 0 min 0,000 mm 0,0 UV-I 0 W/m² 0,6 °C -0,1 °C 11,3 km/h (2 Bft)
06.03.2017 00:32 2,2 °C 2,2 °C 89 % 1004,6 hPa 0,0 mm 10,8 km/h (2 Bft) W-SW 244 ° 0 min 0,000 mm 0,0 UV-I 0 W/m² 0,6 °C -0,9 °C 16,1 km/h (3 Bft)
06.03.2017 00:33 2,2 °C 2,2 °C 89 % 1004,6 hPa 0,0 mm 10,3 km/h (2 Bft) NW 306 ° 0 min 0,000 mm 0,0 UV-I 0 W/m² 0,6 °C -0,8 °C 14,5 km/h (3 Bft)
06.03.2017 00:34 2,2 °C 2,2 °C 89 % 1004,6 hPa 0,0 mm 7,1 km/h (2 Bft) W 267 ° 0 min 0,000 mm 0,0 UV-I 0 W/m² 0,6 °C 0,1 °C 14,5 km/h (3 Bft)
06.03.2017 00:35 2,2 °C 2,2 °C 89 % 1004,6 hPa 0,0 mm 5,8 km/h (2 Bft) S-SW 211 ° 0 min 0,000 mm 0,0 UV-I 0 W/m² 0,6 °C 0,6 °C 11,3 km/h (2 Bft)
06.03.2017 00:36 2,2 °C 2,2 °C 89 % 1004,7 hPa 0,0 mm 7,2 km/h (2 Bft) SW 231 ° 0 min 0,000 mm 0,0 UV-I 0 W/m² 0,6 °C 0,1 °C 11,3 km/h (2 Bft)
06.03.2017 00:37 2,2 °C 2,3 °C 89 % 1004,7 hPa 0,0 mm 5,7 km/h (1 Bft) W-SW 246 ° 0 min 0,000 mm 0,0 UV-I 0 W/m² 0,6 °C 0,6 °C 8,0 km/h (2 Bft)
06.03.2017 00:38 2,2 °C 2,3 °C 89 % 1004,7 hPa 0,0 mm 6,1 km/h (2 Bft) W-SW 257 ° 0 min 0,000 mm 0,0 UV-I 0 W/m² 0,6 °C 0,5 °C 11,3 km/h (2 Bft)
06.03.2017 00:39 2,2 °C 2,3 °C 89 % 1004,8 hPa 0,0 mm 10,6 km/h (2 Bft) W-SW 252 ° 0 min 0,000 mm 0,0 UV-I 0 W/m² 0,6 °C -0,8 °C 12,9 km/h (3 Bft)
06.03.2017 00:40 2,2 °C 2,3 °C 89 % 1004,9 hPa 0,0 mm 9,3 km/h (2 Bft) W-SW 255 ° 0 min 0,000 mm 0,0 UV-I 0 W/m² 0,6 °C -0,5 °C 12,9 km/h (3 Bft)
06.03.2017 00:41 2,2 °C 2,2 °C 89 % 1004,9 hPa 0,0 mm 6,7 km/h (2 Bft) SW 227 ° 0 min 0,000 mm 0,0 UV-I 0 W/m² 0,6 °C 0,3 °C 11,3 km/h (2 Bft)
06.03.2017 00:42 2,2 °C 2,2 °C 89 % 1004,9 hPa 0,0 mm 5,9 km/h (2 Bft) S-SW 210 ° 0 min 0,000 mm 0,0 UV-I 0 W/m² 0,6 °C 0,5 °C 8,0 km/h (2 Bft)
06.03.2017 00:43 2,2 °C 2,2 °C 89 % 1005,0 hPa 0,0 mm 5,8 km/h (2 Bft) SW 236 ° 0 min 0,000 mm 0,0 UV-I 0 W/m² 0,6 °C 0,6 °C 11,3 km/h (2 Bft)
06.03.2017 00:44 2,2 °C 2,2 °C 90 % 1005,0 hPa 0,0 mm 8,5 km/h (2 Bft) W-SW 257 ° 0 min 0,000 mm 0,0 UV-I 0 W/m² 0,7 °C -0,3 °C 14,5 km/h (3 Bft)
06.03.2017 00:45 2,2 °C 2,2 °C 90 % 1005,1 hPa 0,0 mm 7,4 km/h (2 Bft) W-SW 248 ° 0 min 0,000 mm 0,0 UV-I 0 W/m² 0,7 °C 0,0 °C 12,9 km/h (3 Bft)
06.03.2017 00:46 2,2 °C 2,2 °C 90 % 1005,1 hPa 0,0 mm 9,4 km/h (2 Bft) W-SW 248 ° 0 min 0,000 mm 0,0 UV-I 0 W/m² 0,7 °C -0,5 °C 14,5 km/h (3 Bft)
06.03.2017 00:47 2,2 °C 2,2 °C 90 % 1005,3 hPa 0,0 mm 11,8 km/h (2 Bft) W-SW 240 ° 0 min 0,000 mm 0,0 UV-I 0 W/m² 0,7 °C -1,1 °C 16,1 km/h (3 Bft)
06.03.2017 00:48 2,1 °C 2,2 °C 90 % 1005,2 hPa 0,0 mm 7,1 km/h (2 Bft) SW 215 ° 0 min 0,000 mm 0,0 UV-I 0 W/m² 0,6 °C 0,0 °C 11,3 km/h (2 Bft)
06.03.2017 00:49 2,1 °C 2,2 °C 90 % 1005,2 hPa 0,0 mm 12,3 km/h (3 Bft) W-SW 257 ° 0 min 0,000 mm 0,0 UV-I 0 W/m² 0,6 °C -1,3 °C 19,3 km/h (3 Bft)
06.03.2017 00:50 2,1 °C 2,1 °C 90 % 1005,5 hPa 0,2 mm 20,3 km/h (4 Bft) W-SW 257 ° 0 min 0,000 mm 0,0 UV-I 0 W/m² 0,6 °C -2,6 °C 27,4 km/h (4 Bft)
06.03.2017 00:51 2,1 °C 2,2 °C 90 % 1005,5 hPa 0,0 mm 21,1 km/h (4 Bft) W 259 ° 0 min 0,000 mm 0,0 UV-I 0 W/m² 0,6 °C -2,7 °C 27,4 km/h (4 Bft)
06.03.2017 00:52 2,1 °C 2,2 °C 90 % 1005,5 hPa 0,0 mm 17,0 km/h (3 Bft) SW 236 ° 0 min 0,000 mm 0,0 UV-I 0 W/m² 0,6 °C -2,2 °C 25,7 km/h (4 Bft)
06.03.2017 00:53 2,1 °C 2,2 °C 90 % 1005,4 hPa 0,0 mm 14,7 km/h (3 Bft) W-SW 246 ° 0 min 0,000 mm 0,0 UV-I 0 W/m² 0,6 °C -1,8 °C 19,3 km/h (3 Bft)
06.03.2017 00:54 2,1 °C 2,1 °C 90 % 1005,4 hPa 0,0 mm 18,0 km/h (3 Bft) W-SW 242 ° 0 min 0,000 mm 0,0 UV-I 0 W/m² 0,6 °C -2,3 °C 29,0 km/h (5 Bft)
06.03.2017 00:55 2,1 °C 2,1 °C 90 % 1005,4 hPa 0,0 mm 15,4 km/h (3 Bft) W-NW 288 ° 0 min 0,000 mm 0,0 UV-I 0 W/m² 0,6 °C -1,9 °C 25,7 km/h (4 Bft)
06.03.2017 00:56 2,1 °C 2,1 °C 90 % 1005,4 hPa 0,0 mm 14,7 km/h (3 Bft) W 261 ° 0 min 0,000 mm 0,0 UV-I 0 W/m² 0,6 °C -1,8 °C 25,7 km/h (4 Bft)
06.03.2017 00:57 2,1 °C 2,1 °C 90 % 1005,4 hPa 0,0 mm 11,5 km/h (2 Bft) W-NW 297 ° 0 min 0,000 mm 0,0 UV-I 0 W/m² 0,6 °C -1,2 °C 17,7 km/h (3 Bft)
06.03.2017 00:58 2,1 °C 2,1 °C 89 % 1005,5 hPa 0,0 mm 14,6 km/h (3 Bft) W-SW 240 ° 0 min 0,000 mm 0,0 UV-I 0 W/m² 0,5 °C -1,8 °C 24,1 km/h (4 Bft)
06.03.2017 00:59 2,1 °C 2,1 °C 89 % 1005,5 hPa 0,0 mm 20,7 km/h (4 Bft) W 259 ° 0 min 0,000 mm 0,0 UV-I 0 W/m² 0,5 °C -2,7 °C 33,8 km/h (5 Bft)
06.03.2017 01:00 2,1 °C 2,1 °C 89 % 1005,5 hPa 0,0 mm 17,1 km/h (3 Bft) W 270 ° 0 min 0,000 mm 0,0 UV-I 0 W/m² 0,5 °C -2,2 °C 27,4 km/h (4 Bft)
06.03.2017 01:01 2,1 °C 2,2 °C 89 % 1005,6 hPa 0,0 mm 25,3 km/h (4 Bft) W-SW 251 ° 0 min 0,000 mm 0,0 UV-I 0 W/m² 0,5 °C -3,2 °C 37,0 km/h (5 Bft)
06.03.2017 01:02 2,1 °C 2,1 °C 89 % 1005,6 hPa 0,0 mm 22,3 km/h (4 Bft) W-SW 258 ° 0 min 0,000 mm 0,0 UV-I 0 W/m² 0,5 °C -2,9 °C 32,2 km/h (5 Bft)
06.03.2017 01:03 2,1 °C 2,1 °C 89 % 1005,7 hPa 0,0 mm 16,4 km/h (3 Bft) W-SW 258 ° 0 min 0,000 mm 0,0 UV-I 0 W/m² 0,5 °C -2,1 °C 24,1 km/h (4 Bft)
06.03.2017 01:04 2,1 °C 2,1 °C 89 % 1005,6 hPa 0,0 mm 17,1 km/h (3 Bft) W 280 ° 0 min 0,000 mm 0,0 UV-I 0 W/m² 0,5 °C -2,2 °C 20,9 km/h (4 Bft)
06.03.2017 01:05 2,1 °C 2,1 °C 89 % 1005,7 hPa 0,0 mm 21,2 km/h (4 Bft) W-SW 240 ° 0 min 0,000 mm 0,0 UV-I 0 W/m² 0,5 °C -2,8 °C 32,2 km/h (5 Bft)
06.03.2017 01:06 2,0 °C 2,1 °C 89 % 1005,7 hPa 0,0 mm 21,2 km/h (4 Bft) W-SW 256 ° 0 min 0,000 mm 0,0 UV-I 0 W/m² 0,4 °C -2,9 °C 29,0 km/h (5 Bft)
06.03.2017 01:07 2,0 °C 2,1 °C 89 % 1005,7 hPa 0,0 mm 19,2 km/h (3 Bft) W-SW 248 ° 0 min 0,000 mm 0,0 UV-I 0 W/m² 0,4 °C -2,6 °C 27,4 km/h (4 Bft)
06.03.2017 01:08 2,0 °C 2,0 °C 90 % 1005,8 hPa 0,0 mm 15,4 km/h (3 Bft) W 259 ° 0 min 0,000 mm 0,0 UV-I 0 W/m² 0,5 °C -2,0 °C 22,5 km/h (4 Bft)
06.03.2017 01:09 2,0 °C 2,0 °C 90 % 1005,8 hPa 0,0 mm 13,3 km/h (3 Bft) W 276 ° 0 min 0,000 mm 0,0 UV-I 0 W/m² 0,5 °C -1,6 °C 19,3 km/h (3 Bft)
06.03.2017 01:10 1,9 °C 2,0 °C 90 % 1005,9 hPa 0,0 mm 23,1 km/h (4 Bft) W-SW 245 ° 0 min 0,000 mm 0,0 UV-I 0 W/m² 0,4 °C -3,2 °C 32,2 km/h (5 Bft)
06.03.2017 01:11 1,9 °C 1,9 °C 90 % 1006,0 hPa 0,0 mm 20,1 km/h (4 Bft) W-SW 250 ° 0 min 0,000 mm 0,0 UV-I 0 W/m² 0,4 °C -2,9 °C 35,4 km/h (5 Bft)
06.03.2017 01:12 1,9 °C 1,9 °C 90 % 1005,9 hPa 0,0 mm 15,3 km/h (3 Bft) W-SW 245 ° 0 min 0,000 mm 0,0 UV-I 0 W/m² 0,4 °C -2,1 °C 22,5 km/h (4 Bft)
06.03.2017 01:13 1,9 °C 1,9 °C 90 % 1006,1 hPa 0,0 mm 23,8 km/h (4 Bft) SW 232 ° 0 min 0,000 mm 0,0 UV-I 0 W/m² 0,4 °C -3,3 °C 33,8 km/h (5 Bft)
06.03.2017 01:14 1,9 °C 1,9 °C 90 % 1006,1 hPa 0,0 mm 16,2 km/h (3 Bft) W-SW 250 ° 0 min 0,000 mm 0,0 UV-I 0 W/m² 0,4 °C -2,3 °C 20,9 km/h (4 Bft)
06.03.2017 01:15 1,8 °C 1,9 °C 90 % 1006,1 hPa 0,0 mm 17,7 km/h (3 Bft) W-SW 244 ° 0 min 0,000 mm 0,0 UV-I 0 W/m² 0,3 °C -2,6 °C 29,0 km/h (5 Bft)
06.03.2017 01:16 1,8 °C 1,8 °C 90 % 1006,0 hPa 0,0 mm 14,8 km/h (3 Bft) W 261 ° 0 min 0,000 mm 0,0 UV-I 0 W/m² 0,3 °C -2,2 °C 19,3 km/h (3 Bft)
06.03.2017 01:17 1,8 °C 1,8 °C 90 % 1006,1 hPa 0,0 mm 22,4 km/h (4 Bft) W 267 ° 0 min 0,000 mm 0,0 UV-I 0 W/m² 0,3 °C -3,3 °C 35,4 km/h (5 Bft)
06.03.2017 01:18 1,8 °C 1,8 °C 90 % 1006,2 hPa 0,0 mm 21,5 km/h (4 Bft) W 277 ° 0 min 0,000 mm 0,0 UV-I 0 W/m² 0,3 °C -3,2 °C 35,4 km/h (5 Bft)
06.03.2017 01:19 1,8 °C 1,8 °C 90 % 1006,2 hPa 0,0 mm 16,5 km/h (3 Bft) W-SW 252 ° 0 min 0,000 mm 0,0 UV-I 0 W/m² 0,3 °C -2,4 °C 30,6 km/h (5 Bft)
06.03.2017 01:20 1,8 °C 1,8 °C 90 % 1006,2 hPa 0,0 mm 22,5 km/h (4 Bft) W-SW 249 ° 0 min 0,000 mm 0,0 UV-I 0 W/m² 0,3 °C -3,3 °C 30,6 km/h (5 Bft)
06.03.2017 01:21 1,8 °C 1,8 °C 90 % 1006,3 hPa 0,0 mm 24,0 km/h (4 Bft) W-SW 248 ° 0 min 0,000 mm 0,0 UV-I 0 W/m² 0,3 °C -3,5 °C 30,6 km/h (5 Bft)
06.03.2017 01:22 1,8 °C 1,8 °C 90 % 1006,3 hPa 0,0 mm 18,1 km/h (3 Bft) W-NW 296 ° 0 min 0,000 mm 0,0 UV-I 0 W/m² 0,3 °C -2,7 °C 30,6 km/h (5 Bft)
06.03.2017 01:23 1,8 °C 1,8 °C 90 % 1006,3 hPa 0,0 mm 16,6 km/h (3 Bft) SW 219 ° 0 min 0,000 mm 0,0 UV-I 0 W/m² 0,3 °C -2,5 °C 24,1 km/h (4 Bft)
06.03.2017 01:24 1,7 °C 1,8 °C 90 % 1006,4 hPa 0,0 mm 15,4 km/h (3 Bft) SW 232 ° 0 min 0,000 mm 0,0 UV-I 0 W/m² 0,2 °C -2,4 °C 22,5 km/h (4 Bft)
06.03.2017 01:25 1,7 °C 1,8 °C 90 % 1006,4 hPa 0,0 mm 17,1 km/h (3 Bft) W 268 ° 0 min 0,000 mm 0,0 UV-I 0 W/m² 0,2 °C -2,7 °C 32,2 km/h (5 Bft)
06.03.2017 01:26 1,8 °C 1,8 °C 90 % 1006,3 hPa 0,0 mm 22,5 km/h (4 Bft) W 261 ° 0 min 0,000 mm 0,0 UV-I 0 W/m² 0,3 °C -3,3 °C 33,8 km/h (5 Bft)
06.03.2017 01:27 1,7 °C 1,8 °C 89 % 1006,3 hPa 0,0 mm 27,7 km/h (4 Bft) W-SW 248 ° 0 min 0,000 mm 0,0 UV-I 0 W/m² 0,1 °C -4,0 °C 41,8 km/h (6 Bft)
06.03.2017 01:28 1,7 °C 1,8 °C 89 % 1006,5 hPa 0,0 mm 29,2 km/h (5 Bft) W 273 ° 0 min 0,000 mm 0,0 UV-I 0 W/m² 0,1 °C -4,2 °C 54,7 km/h (7 Bft)
06.03.2017 01:29 1,8 °C 1,8 °C 89 % 1006,4 hPa 0,0 mm 18,6 km/h (3 Bft) W 266 ° 0 min 0,000 mm 0,0 UV-I 0 W/m² 0,2 °C -2,8 °C 25,7 km/h (4 Bft)
06.03.2017 01:30 1,8 °C 1,8 °C 89 % 1006,5 hPa 0,0 mm 23,3 km/h (4 Bft) W-SW 255 ° 0 min 0,000 mm 0,0 UV-I 0 W/m² 0,2 °C -3,4 °C 32,2 km/h (5 Bft)
06.03.2017 01:31 1,8 °C 1,8 °C 89 % 1006,5 hPa 0,0 mm 18,0 km/h (3 Bft) W-SW 251 ° 0 min 0,000 mm 0,0 UV-I 0 W/m² 0,2 °C -2,7 °C 32,2 km/h (5 Bft)
06.03.2017 01:32 1,8 °C 1,8 °C 89 % 1006,6 hPa 0,0 mm 19,7 km/h (3 Bft) W 279 ° 0 min 0,000 mm 0,0 UV-I 0 W/m² 0,2 °C -2,9 °C 27,4 km/h (4 Bft)
06.03.2017 01:33 1,8 °C 1,8 °C 88 % 1006,6 hPa 0,0 mm 14,6 km/h (3 Bft) W-SW 239 ° 0 min 0,000 mm 0,0 UV-I 0 W/m² 0,0 °C -2,1 °C 20,9 km/h (4 Bft)
06.03.2017 01:34 1,8 °C 1,8 °C 88 % 1006,5 hPa 0,0 mm 16,6 km/h (3 Bft) W-SW 238 ° 0 min 0,000 mm 0,0 UV-I 0 W/m² 0,0 °C -2,5 °C 22,5 km/h (4 Bft)
06.03.2017 01:35 1,8 °C 1,9 °C 88 % 1006,6 hPa 0,0 mm 13,8 km/h (3 Bft) W 276 ° 0 min 0,000 mm 0,0 UV-I 0 W/m² 0,0 °C -2,0 °C 19,3 km/h (3 Bft)
06.03.2017 01:36 1,8 °C 1,8 °C 89 % 1006,6 hPa 0,0 mm 12,9 km/h (3 Bft) W-SW 244 ° 0 min 0,000 mm 0,0 UV-I 0 W/m² 0,2 °C -1,8 °C 19,3 km/h (3 Bft)
06.03.2017 01:37 1,8 °C 1,8 °C 89 % 1006,7 hPa 0,0 mm 15,4 km/h (3 Bft) W-SW 251 ° 0 min 0,000 mm 0,0 UV-I 0 W/m² 0,2 °C -2,3 °C 22,5 km/h (4 Bft)
06.03.2017 01:38 1,8 °C 1,8 °C 89 % 1006,7 hPa 0,0 mm 16,2 km/h (3 Bft) W-SW 255 ° 0 min 0,000 mm 0,0 UV-I 0 W/m² 0,2 °C -2,4 °C 20,9 km/h (4 Bft)
06.03.2017 01:39 1,8 °C 1,8 °C 89 % 1006,8 hPa 0,0 mm 19,4 km/h (3 Bft) W 272 ° 0 min 0,000 mm 0,0 UV-I 0 W/m² 0,2 °C -2,9 °C 29,0 km/h (5 Bft)
06.03.2017 01:40 1,8 °C 1,8 °C 89 % 1006,8 hPa 0,0 mm 17,2 km/h (3 Bft) W-SW 243 ° 0 min 0,000 mm 0,0 UV-I 0 W/m² 0,2 °C -2,6 °C 20,9 km/h (4 Bft)
06.03.2017 01:41 1,8 °C 1,8 °C 89 % 1006,7 hPa 0,0 mm 13,8 km/h (3 Bft) W-NW 298 ° 0 min 0,000 mm 0,0 UV-I 0 W/m² 0,2 °C -2,0 °C 19,3 km/h (3 Bft)
06.03.2017 01:42 1,8 °C 1,8 °C 89 % 1006,7 hPa 0,0 mm 19,2 km/h (3 Bft) SW 234 ° 0 min 0,000 mm 0,0 UV-I 0 W/m² 0,2 °C -2,9 °C 25,7 km/h (4 Bft)
06.03.2017 01:43 1,8 °C 1,8 °C 89 % 1006,8 hPa 0,0 mm 20,5 km/h (4 Bft) W-SW 251 ° 0 min 0,000 mm 0,0 UV-I 0 W/m² 0,2 °C -3,0 °C 27,4 km/h (4 Bft)
06.03.2017 01:44 1,7 °C 1,8 °C 89 % 1006,7 hPa 0,0 mm 22,3 km/h (4 Bft) W-SW 240 ° 0 min 0,000 mm 0,0 UV-I 0 W/m² 0,1 °C -3,4 °C 30,6 km/h (5 Bft)
06.03.2017 01:45 1,8 °C 1,8 °C 88 % 1006,7 hPa 0,0 mm 13,6 km/h (3 Bft) W-SW 254 ° 0 min 0,000 mm 0,0 UV-I 0 W/m² 0,0 °C -1,9 °C 19,3 km/h (3 Bft)
06.03.2017 01:46 1,8 °C 1,8 °C 88 % 1006,8 hPa 0,0 mm 12,5 km/h (3 Bft) W 270 ° 0 min 0,000 mm 0,0 UV-I 0 W/m² 0,0 °C -1,7 °C 17,7 km/h (3 Bft)
06.03.2017 01:47 1,8 °C 1,8 °C 88 % 1006,8 hPa 0,0 mm 13,4 km/h (3 Bft) W 273 ° 0 min 0,000 mm 0,0 UV-I 0 W/m² 0,0 °C -1,9 °C 17,7 km/h (3 Bft)
06.03.2017 01:48 1,8 °C 1,8 °C 88 % 1006,8 hPa 0,0 mm 13,1 km/h (3 Bft) W-SW 252 ° 0 min 0,000 mm 0,0 UV-I 0 W/m² 0,0 °C -1,8 °C 25,7 km/h (4 Bft)
06.03.2017 01:49 1,8 °C 1,8 °C 88 % 1006,8 hPa 0,0 mm 14,1 km/h (3 Bft) W 259 ° 0 min 0,000 mm 0,0 UV-I 0 W/m² 0,0 °C -2,0 °C 17,7 km/h (3 Bft)
06.03.2017 01:50 1,8 °C 1,8 °C 88 % 1006,9 hPa 0,0 mm 10,4 km/h (2 Bft) W 281 ° 0 min 0,000 mm 0,0 UV-I 0 W/m² 0,0 °C -1,3 °C 14,5 km/h (3 Bft)
06.03.2017 01:51 1,8 °C 1,8 °C 88 % 1006,8 hPa 0,0 mm 11,6 km/h (2 Bft) W 264 ° 0 min 0,000 mm 0,0 UV-I 0 W/m² 0,0 °C -1,5 °C 17,7 km/h (3 Bft)
06.03.2017 01:52 1,7 °C 1,8 °C 89 % 1006,8 hPa 0,0 mm 12,5 km/h (3 Bft) W 271 ° 0 min 0,000 mm 0,0 UV-I 0 W/m² 0,1 °C -1,8 °C 17,7 km/h (3 Bft)
06.03.2017 01:53 1,7 °C 1,7 °C 89 % 1006,8 hPa 0,0 mm 17,8 km/h (3 Bft) W-SW 246 ° 0 min 0,000 mm 0,0 UV-I 0 W/m² 0,1 °C -2,8 °C 29,0 km/h (5 Bft)
06.03.2017 01:54 1,7 °C 1,7 °C 88 % 1006,7 hPa 0,0 mm 15,0 km/h (3 Bft) W-SW 249 ° 0 min 0,000 mm 0,0 UV-I 0 W/m² -0,1 °C -2,3 °C 22,5 km/h (4 Bft)
06.03.2017 01:55 1,7 °C 1,7 °C 88 % 1006,7 hPa 0,0 mm 15,4 km/h (3 Bft) W-SW 254 ° 0 min 0,000 mm 0,0 UV-I 0 W/m² -0,1 °C -2,4 °C 20,9 km/h (4 Bft)
06.03.2017 01:56 1,7 °C 1,7 °C 88 % 1006,7 hPa 0,0 mm 14,6 km/h (3 Bft) W-SW 244 ° 0 min 0,000 mm 0,0 UV-I 0 W/m² -0,1 °C -2,2 °C 17,7 km/h (3 Bft)
06.03.2017 01:57 1,7 °C 1,7 °C 88 % 1006,8 hPa 0,0 mm 11,1 km/h (2 Bft) W-SW 256 ° 0 min 0,000 mm 0,0 UV-I 0 W/m² -0,1 °C -1,5 °C 16,1 km/h (3 Bft)
06.03.2017 01:58 1,7 °C 1,7 °C 88 % 1006,7 hPa 0,0 mm 13,9 km/h (3 Bft) W 268 ° 0 min 0,000 mm 0,0 UV-I 0 W/m² -0,1 °C -2,1 °C 20,9 km/h (4 Bft)
06.03.2017 01:59 1,7 °C 1,7 °C 88 % 1006,7 hPa 0,0 mm 10,7 km/h (2 Bft) W-SW 248 ° 0 min 0,000 mm 0,0 UV-I 0 W/m² -0,1 °C -1,5 °C 20,9 km/h (4 Bft)
06.03.2017 02:00 1,7 °C 1,7 °C 87 % 1006,7 hPa 0,0 mm 16,8 km/h (3 Bft) W 273 ° 0 min 0,000 mm 0,0 UV-I 0 W/m² -0,2 °C -2,6 °C 22,5 km/h (4 Bft)
06.03.2017 02:01 1,7 °C 1,7 °C 87 % 1006,8 hPa 0,0 mm 13,7 km/h (3 Bft) W 269 ° 0 min 0,025 mm 0,0 UV-I 0 W/m² -0,2 °C -2,1 °C 24,1 km/h (4 Bft)
06.03.2017 02:02 1,7 °C 1,7 °C 87 % 1006,8 hPa 0,0 mm 14,4 km/h (3 Bft) W-SW 257 ° 0 min 0,000 mm 0,0 UV-I 0 W/m² -0,2 °C -2,2 °C 19,3 km/h (3 Bft)
06.03.2017 02:03 1,7 °C 1,7 °C 87 % 1006,8 hPa 0,0 mm 22,7 km/h (4 Bft) W-SW 257 ° 0 min 0,000 mm 0,0 UV-I 0 W/m² -0,2 °C -3,5 °C 30,6 km/h (5 Bft)
06.03.2017 02:04 1,7 °C 1,7 °C 87 % 1006,8 hPa 0,0 mm 20,5 km/h (4 Bft) W-SW 246 ° 0 min 0,000 mm 0,0 UV-I 0 W/m² -0,2 °C -3,2 °C 29,0 km/h (5 Bft)
06.03.2017 02:05 1,7 °C 1,7 °C 87 % 1006,8 hPa 0,0 mm 11,5 km/h (2 Bft) SW 232 ° 0 min 0,000 mm 0,0 UV-I 0 W/m² -0,2 °C -1,6 °C 19,3 km/h (3 Bft)
06.03.2017 02:06 1,7 °C 1,7 °C 86 % 1006,8 hPa 0,0 mm 16,9 km/h (3 Bft) W 264 ° 0 min 0,000 mm 0,0 UV-I 0 W/m² -0,4 °C -2,6 °C 24,1 km/h (4 Bft)
06.03.2017 02:07 1,7 °C 1,7 °C 86 % 1006,8 hPa 0,0 mm 14,3 km/h (3 Bft) W-SW 257 ° 0 min 0,000 mm 0,0 UV-I 0 W/m² -0,4 °C -2,2 °C 22,5 km/h (4 Bft)
06.03.2017 02:08 1,7 °C 1,7 °C 86 % 1006,8 hPa 0,0 mm 14,6 km/h (3 Bft) W 274 ° 0 min 0,000 mm 0,0 UV-I 0 W/m² -0,4 °C -2,2 °C 20,9 km/h (4 Bft)
06.03.2017 02:09 1,7 °C 1,7 °C 86 % 1006,8 hPa 0,0 mm 19,6 km/h (3 Bft) W-SW 242 ° 0 min 0,000 mm 0,0 UV-I 0 W/m² -0,4 °C -3,0 °C 29,0 km/h (5 Bft)
06.03.2017 02:10 1,7 °C 1,7 °C 86 % 1006,8 hPa 0,0 mm 13,3 km/h (3 Bft) W-SW 252 ° 0 min 0,000 mm 0,0 UV-I 0 W/m² -0,4 °C -2,0 °C 17,7 km/h (3 Bft)
06.03.2017 02:11 1,7 °C 1,7 °C 86 % 1006,8 hPa 0,0 mm 16,6 km/h (3 Bft) W-SW 237 ° 0 min 0,000 mm 0,0 UV-I 0 W/m² -0,4 °C -2,6 °C 22,5 km/h (4 Bft)
06.03.2017 02:12 1,7 °C 1,7 °C 87 % 1006,8 hPa 0,0 mm 16,0 km/h (3 Bft) W 281 ° 0 min 0,000 mm 0,0 UV-I 0 W/m² -0,2 °C -2,5 °C 22,5 km/h (4 Bft)
06.03.2017 02:13 1,7 °C 1,7 °C 87 % 1006,8 hPa 0,0 mm 21,1 km/h (4 Bft) W-SW 255 ° 0 min 0,000 mm 0,0 UV-I 0 W/m² -0,2 °C -3,2 °C 29,0 km/h (5 Bft)
06.03.2017 02:14 1,6 °C 1,7 °C 87 % 1006,8 hPa 0,0 mm 13,6 km/h (3 Bft) W-SW 237 ° 0 min 0,000 mm 0,0 UV-I 0 W/m² -0,3 °C -2,2 °C 19,3 km/h (3 Bft)
06.03.2017 02:15 1,6 °C 1,7 °C 87 % 1006,8 hPa 0,0 mm 21,9 km/h (4 Bft) W 267 ° 0 min 0,000 mm 0,0 UV-I 0 W/m² -0,3 °C -3,5 °C 30,6 km/h (5 Bft)
06.03.2017 02:16 1,6 °C 1,7 °C 87 % 1006,8 hPa 0,0 mm 18,0 km/h (3 Bft) W-SW 246 ° 0 min 0,000 mm 0,0 UV-I 0 W/m² -0,3 °C -2,9 °C 25,7 km/h (4 Bft)
06.03.2017 02:17 1,6 °C 1,7 °C 87 % 1006,8 hPa 0,0 mm 16,7 km/h (3 Bft) W-SW 249 ° 0 min 0,000 mm 0,0 UV-I 0 W/m² -0,3 °C -2,7 °C 25,7 km/h (4 Bft)
06.03.2017 02:18 1,6 °C 1,6 °C 87 % 1006,8 hPa 0,0 mm 15,2 km/h (3 Bft) SW 226 ° 0 min 0,000 mm 0,0 UV-I 0 W/m² -0,3 °C -2,5 °C 24,1 km/h (4 Bft)
06.03.2017 02:19 1,6 °C 1,6 °C 87 % 1006,7 hPa 0,0 mm 14,6 km/h (3 Bft) W-SW 244 ° 0 min 0,000 mm 0,0 UV-I 0 W/m² -0,3 °C -2,4 °C 22,5 km/h (4 Bft)
06.03.2017 02:20 1,6 °C 1,6 °C 87 % 1006,8 hPa 0,0 mm 15,0 km/h (3 Bft) SW 221 ° 0 min 0,000 mm 0,0 UV-I 0 W/m² -0,3 °C -2,4 °C 22,5 km/h (4 Bft)
06.03.2017 02:21 1,6 °C 1,6 °C 87 % 1006,8 hPa 0,0 mm 12,3 km/h (3 Bft) W 261 ° 0 min 0,000 mm 0,0 UV-I 0 W/m² -0,3 °C -1,9 °C 22,5 km/h (4 Bft)
06.03.2017 02:22 1,6 °C 1,7 °C 86 % 1006,8 hPa 0,0 mm 13,5 km/h (3 Bft) W 269 ° 0 min 0,000 mm 0,0 UV-I 0 W/m² -0,5 °C -2,2 °C 19,3 km/h (3 Bft)
06.03.2017 02:23 1,6 °C 1,6 °C 86 % 1006,8 hPa 0,0 mm 14,9 km/h (3 Bft) W 269 ° 0 min 0,000 mm 0,0 UV-I 0 W/m² -0,5 °C -2,4 °C 27,4 km/h (4 Bft)
06.03.2017 02:24 1,6 °C 1,6 °C 86 % 1006,7 hPa 0,0 mm 24,7 km/h (4 Bft) W 259 ° 0 min 0,000 mm 0,0 UV-I 0 W/m² -0,5 °C -3,8 °C 30,6 km/h (5 Bft)
06.03.2017 02:25 1,7 °C 1,7 °C 86 % 1006,8 hPa 0,0 mm 15,8 km/h (3 Bft) W-SW 257 ° 0 min 0,000 mm 0,0 UV-I 0 W/m² -0,4 °C -2,5 °C 22,5 km/h (4 Bft)
06.03.2017 02:26 1,7 °C 1,7 °C 86 % 1006,8 hPa 0,0 mm 15,4 km/h (3 Bft) W-SW 248 ° 0 min 0,000 mm 0,0 UV-I 0 W/m² -0,4 °C -2,4 °C 20,9 km/h (4 Bft)
06.03.2017 02:27 1,7 °C 1,7 °C 86 % 1006,9 hPa 0,0 mm 14,5 km/h (3 Bft) W 265 ° 0 min 0,000 mm 0,0 UV-I 0 W/m² -0,4 °C -2,2 °C 17,7 km/h (3 Bft)
06.03.2017 02:28 1,7 °C 1,7 °C 86 % 1007,0 hPa 0,0 mm 17,7 km/h (3 Bft) W-SW 242 ° 0 min 0,000 mm 0,0 UV-I 0 W/m² -0,4 °C -2,8 °C 29,0 km/h (5 Bft)
06.03.2017 02:29 1,7 °C 1,7 °C 86 % 1006,9 hPa 0,0 mm 13,3 km/h (3 Bft) W 269 ° 0 min 0,000 mm 0,0 UV-I 0 W/m² -0,4 °C -2,0 °C 17,7 km/h (3 Bft)
06.03.2017 02:30 1,7 °C 1,7 °C 85 % 1007,0 hPa 0,0 mm 13,9 km/h (3 Bft) W 270 ° 0 min 0,000 mm 0,0 UV-I 0 W/m² -0,5 °C -2,1 °C 17,7 km/h (3 Bft)
06.03.2017 02:31 1,7 °C 1,7 °C 86 % 1007,0 hPa 0,0 mm 12,8 km/h (3 Bft) W-SW 242 ° 0 min 0,000 mm 0,0 UV-I 0 W/m² -0,4 °C -1,9 °C 17,7 km/h (3 Bft)
06.03.2017 02:32 1,7 °C 1,7 °C 86 % 1007,0 hPa 0,0 mm 12,5 km/h (3 Bft) W-SW 251 ° 0 min 0,000 mm 0,0 UV-I 0 W/m² -0,4 °C -1,8 °C 19,3 km/h (3 Bft)
06.03.2017 02:33 1,7 °C 1,7 °C 86 % 1007,0 hPa 0,0 mm 13,5 km/h (3 Bft) W-SW 256 ° 0 min 0,000 mm 0,0 UV-I 0 W/m² -0,4 °C -2,0 °C 19,3 km/h (3 Bft)
06.03.2017 02:34 1,7 °C 1,7 °C 85 % 1007,0 hPa 0,0 mm 10,3 km/h (2 Bft) W-SW 242 ° 0 min 0,000 mm 0,0 UV-I 0 W/m² -0,5 °C -1,4 °C 16,1 km/h (3 Bft)
06.03.2017 02:35 1,7 °C 1,7 °C 86 % 1007,0 hPa 0,0 mm 22,7 km/h (4 Bft) SW 228 ° 0 min 0,000 mm 0,0 UV-I 0 W/m² -0,4 °C -3,5 °C 33,8 km/h (5 Bft)
06.03.2017 02:36 1,7 °C 1,7 °C 85 % 1007,0 hPa 0,0 mm 15,4 km/h (3 Bft) W-SW 238 ° 0 min 0,000 mm 0,0 UV-I 0 W/m² -0,5 °C -2,4 °C 19,3 km/h (3 Bft)
06.03.2017 02:37 1,7 °C 1,7 °C 85 % 1006,9 hPa 0,0 mm 10,1 km/h (2 Bft) W-SW 252 ° 0 min 0,000 mm 0,0 UV-I 0 W/m² -0,5 °C -1,3 °C 17,7 km/h (3 Bft)
06.03.2017 02:38 1,7 °C 1,7 °C 84 % 1006,9 hPa 0,0 mm 13,4 km/h (3 Bft) W-NW 294 ° 0 min 0,000 mm 0,0 UV-I 0 W/m² -0,7 °C -2,0 °C 19,3 km/h (3 Bft)
06.03.2017 02:39 1,7 °C 1,7 °C 85 % 1007,0 hPa 0,0 mm 17,8 km/h (3 Bft) W 272 ° 0 min 0,000 mm 0,0 UV-I 0 W/m² -0,5 °C -2,8 °C 25,7 km/h (4 Bft)
06.03.2017 02:40 1,7 °C 1,7 °C 85 % 1007,0 hPa 0,0 mm 13,9 km/h (3 Bft) W-NW 296 ° 0 min 0,000 mm 0,0 UV-I 0 W/m² -0,5 °C -2,1 °C 20,9 km/h (4 Bft)
06.03.2017 02:41 1,7 °C 1,7 °C 85 % 1006,9 hPa 0,0 mm 16,8 km/h (3 Bft) W-SW 237 ° 0 min 0,000 mm 0,0 UV-I 0 W/m² -0,5 °C -2,6 °C 25,7 km/h (4 Bft)
06.03.2017 02:42 1,7 °C 1,7 °C 84 % 1007,0 hPa 0,0 mm 10,5 km/h (2 Bft) W-NW 294 ° 0 min 0,000 mm 0,0 UV-I 0 W/m² -0,7 °C -1,4 °C 14,5 km/h (3 Bft)
06.03.2017 02:43 1,7 °C 1,7 °C 84 % 1006,9 hPa 0,0 mm 15,2 km/h (3 Bft) W 263 ° 0 min 0,000 mm 0,0 UV-I 0 W/m² -0,7 °C -2,4 °C 20,9 km/h (4 Bft)
06.03.2017 02:44 1,7 °C 1,7 °C 84 % 1006,9 hPa 0,0 mm 16,4 km/h (3 Bft) W-SW 248 ° 0 min 0,000 mm 0,0 UV-I 0 W/m² -0,7 °C -2,6 °C 24,1 km/h (4 Bft)
06.03.2017 02:45 1,8 °C 1,8 °C 84 % 1007,0 hPa 0,0 mm 13,8 km/h (3 Bft) W-NW 289 ° 0 min 0,000 mm 0,0 UV-I 0 W/m² -0,6 °C -2,0 °C 20,9 km/h (4 Bft)
06.03.2017 02:46 1,7 °C 1,8 °C 84 % 1007,0 hPa 0,0 mm 12,7 km/h (3 Bft) W 259 ° 0 min 0,000 mm 0,0 UV-I 0 W/m² -0,7 °C -1,9 °C 22,5 km/h (4 Bft)
06.03.2017 02:47 1,8 °C 1,8 °C 84 % 1007,0 hPa 0,0 mm 12,6 km/h (3 Bft) W 269 ° 0 min 0,000 mm 0,0 UV-I 0 W/m² -0,6 °C -1,7 °C 22,5 km/h (4 Bft)
06.03.2017 02:48 1,7 °C 1,8 °C 84 % 1007,0 hPa 0,0 mm 15,3 km/h (3 Bft) NW 307 ° 0 min 0,000 mm 0,0 UV-I 0 W/m² -0,7 °C -2,4 °C 20,9 km/h (4 Bft)
06.03.2017 02:49 1,7 °C 1,8 °C 84 % 1007,0 hPa 0,0 mm 15,2 km/h (3 Bft) W 269 ° 0 min 0,000 mm 0,0 UV-I 0 W/m² -0,7 °C -2,4 °C 19,3 km/h (3 Bft)
06.03.2017 02:50 1,7 °C 1,7 °C 84 % 1007,0 hPa 0,0 mm 13,1 km/h (3 Bft) W-SW 241 ° 0 min 0,000 mm 0,0 UV-I 0 W/m² -0,7 °C -2,0 °C 17,7 km/h (3 Bft)
06.03.2017 02:51 1,7 °C 1,7 °C 84 % 1007,1 hPa 0,0 mm 14,1 km/h (3 Bft) W-SW 243 ° 0 min 0,000 mm 0,0 UV-I 0 W/m² -0,7 °C -2,2 °C 20,9 km/h (4 Bft)
06.03.2017 02:52 1,7 °C 1,7 °C 84 % 1007,1 hPa 0,0 mm 14,6 km/h (3 Bft) W-SW 238 ° 0 min 0,000 mm 0,0 UV-I 0 W/m² -0,7 °C -2,2 °C 17,7 km/h (3 Bft)
06.03.2017 02:53 1,7 °C 1,7 °C 85 % 1007,1 hPa 0,0 mm 9,9 km/h (2 Bft) SW 225 ° 0 min 0,000 mm 0,0 UV-I 0 W/m² -0,5 °C -1,3 °C 14,5 km/h (3 Bft)
06.03.2017 02:54 1,7 °C 1,7 °C 84 % 1007,1 hPa 0,0 mm 16,2 km/h (3 Bft) W 267 ° 0 min 0,000 mm 0,0 UV-I 0 W/m² -0,7 °C -2,5 °C 20,9 km/h (4 Bft)
06.03.2017 02:55 1,7 °C 1,7 °C 84 % 1007,0 hPa 0,0 mm 16,6 km/h (3 Bft) W-SW 240 ° 0 min 0,000 mm 0,0 UV-I 0 W/m² -0,7 °C -2,6 °C 24,1 km/h (4 Bft)
06.03.2017 02:56 1,7 °C 1,7 °C 84 % 1007,1 hPa 0,0 mm 14,0 km/h (3 Bft) SW 232 ° 0 min 0,000 mm 0,0 UV-I 0 W/m² -0,7 °C -2,1 °C 17,7 km/h (3 Bft)
06.03.2017 02:57 1,7 °C 1,7 °C 85 % 1007,0 hPa 0,0 mm 15,0 km/h (3 Bft) W 272 ° 0 min 0,000 mm 0,0 UV-I 0 W/m² -0,5 °C -2,3 °C 22,5 km/h (4 Bft)
06.03.2017 02:58 1,7 °C 1,7 °C 85 % 1007,1 hPa 0,0 mm 13,4 km/h (3 Bft) W-SW 238 ° 0 min 0,000 mm 0,0 UV-I 0 W/m² -0,5 °C -2,0 °C 19,3 km/h (3 Bft)
06.03.2017 02:59 1,7 °C 1,7 °C 84 % 1007,0 hPa 0,0 mm 10,5 km/h (2 Bft) W 261 ° 0 min 0,000 mm 0,0 UV-I 0 W/m² -0,7 °C -1,4 °C 17,7 km/h (3 Bft)
06.03.2017 03:00 1,7 °C 1,7 °C 84 % 1007,1 hPa 0,0 mm 12,0 km/h (2 Bft) W 261 ° 0 min 0,000 mm 0,0 UV-I 0 W/m² -0,7 °C -1,7 °C 17,7 km/h (3 Bft)
06.03.2017 03:01 1,7 °C 1,7 °C 84 % 1007,1 hPa 0,0 mm 17,4 km/h (3 Bft) W-SW 244 ° 0 min 0,026 mm 0,0 UV-I 0 W/m² -0,7 °C -2,7 °C 24,1 km/h (4 Bft)
06.03.2017 03:02 1,7 °C 1,7 °C 84 % 1007,1 hPa 0,0 mm 13,4 km/h (3 Bft) W 265 ° 0 min 0,000 mm 0,0 UV-I 0 W/m² -0,7 °C -2,0 °C 17,7 km/h (3 Bft)
06.03.2017 03:03 1,7 °C 1,7 °C 84 % 1007,1 hPa 0,0 mm 11,8 km/h (2 Bft) W-SW 240 ° 0 min 0,000 mm 0,0 UV-I 0 W/m² -0,7 °C -1,7 °C 16,1 km/h (3 Bft)
06.03.2017 03:04 1,7 °C 1,7 °C 84 % 1007,1 hPa 0,0 mm 7,0 km/h (2 Bft) W 260 ° 0 min 0,000 mm 0,0 UV-I 0 W/m² -0,7 °C -0,4 °C 14,5 km/h (3 Bft)
06.03.2017 03:05 1,7 °C 1,7 °C 84 % 1007,1 hPa 0,0 mm 12,7 km/h (3 Bft) SW 235 ° 0 min 0,000 mm 0,0 UV-I 0 W/m² -0,7 °C -1,9 °C 16,1 km/h (3 Bft)
06.03.2017 03:06 1,7 °C 1,7 °C 84 % 1007,1 hPa 0,0 mm 12,4 km/h (3 Bft) SW 234 ° 0 min 0,000 mm 0,0 UV-I 0 W/m² -0,7 °C -1,8 °C 19,3 km/h (3 Bft)
06.03.2017 03:07 1,7 °C 1,7 °C 84 % 1007,1 hPa 0,0 mm 7,8 km/h (2 Bft) W-SW 242 ° 0 min 0,000 mm 0,0 UV-I 0 W/m² -0,7 °C -0,7 °C 11,3 km/h (2 Bft)
06.03.2017 03:08 1,7 °C 1,7 °C 84 % 1007,1 hPa 0,0 mm 7,6 km/h (2 Bft) W-SW 252 ° 0 min 0,000 mm 0,0 UV-I 0 W/m² -0,7 °C -0,6 °C 12,9 km/h (3 Bft)
06.03.2017 03:09 1,7 °C 1,7 °C 84 % 1007,1 hPa 0,0 mm 9,5 km/h (2 Bft) W-SW 257 ° 0 min 0,000 mm 0,0 UV-I 0 W/m² -0,7 °C -1,2 °C 12,9 km/h (3 Bft)
06.03.2017 03:10 1,7 °C 1,7 °C 84 % 1007,1 hPa 0,0 mm 11,5 km/h (2 Bft) W 266 ° 0 min 0,000 mm 0,0 UV-I 0 W/m² -0,7 °C -1,6 °C 14,5 km/h (3 Bft)
06.03.2017 03:11 1,7 °C 1,7 °C 84 % 1007,2 hPa 0,0 mm 9,7 km/h (2 Bft) W 266 ° 0 min 0,000 mm 0,0 UV-I 0 W/m² -0,7 °C -1,2 °C 16,1 km/h (3 Bft)
06.03.2017 03:12 1,7 °C 1,7 °C 84 % 1007,1 hPa 0,0 mm 10,4 km/h (2 Bft) W-SW 241 ° 0 min 0,000 mm 0,0 UV-I 0 W/m² -0,7 °C -1,4 °C 16,1 km/h (3 Bft)
06.03.2017 03:13 1,7 °C 1,7 °C 84 % 1007,1 hPa 0,0 mm 8,6 km/h (2 Bft) SW 232 ° 0 min 0,000 mm 0,0 UV-I 0 W/m² -0,7 °C -0,9 °C 14,5 km/h (3 Bft)
06.03.2017 03:14 1,7 °C 1,7 °C 84 % 1007,1 hPa 0,0 mm 11,7 km/h (2 Bft) W-SW 251 ° 0 min 0,000 mm 0,0 UV-I 0 W/m² -0,7 °C -1,7 °C 16,1 km/h (3 Bft)
06.03.2017 03:15 1,7 °C 1,7 °C 84 % 1007,1 hPa 0,0 mm 11,4 km/h (2 Bft) W-SW 246 ° 0 min 0,000 mm 0,0 UV-I 0 W/m² -0,7 °C -1,6 °C 14,5 km/h (3 Bft)
06.03.2017 03:16 1,7 °C 1,7 °C 84 % 1007,0 hPa 0,0 mm 8,6 km/h (2 Bft) S-SW 209 ° 0 min 0,000 mm 0,0 UV-I 0 W/m² -0,7 °C -0,9 °C 16,1 km/h (3 Bft)
06.03.2017 03:17 1,7 °C 1,7 °C 84 % 1007,0 hPa 0,0 mm 9,5 km/h (2 Bft) S-SW 210 ° 0 min 0,000 mm 0,0 UV-I 0 W/m² -0,7 °C -1,2 °C 14,5 km/h (3 Bft)
06.03.2017 03:18 1,7 °C 1,7 °C 83 % 1007,0 hPa 0,0 mm 9,7 km/h (2 Bft) SW 232 ° 0 min 0,000 mm 0,0 UV-I 0 W/m² -0,9 °C -1,2 °C 16,1 km/h (3 Bft)
06.03.2017 03:19 1,7 °C 1,7 °C 83 % 1007,0 hPa 0,0 mm 10,1 km/h (2 Bft) W-SW 243 ° 0 min 0,000 mm 0,0 UV-I 0 W/m² -0,9 °C -1,3 °C 16,1 km/h (3 Bft)
06.03.2017 03:20 1,7 °C 1,7 °C 84 % 1007,0 hPa 0,0 mm 10,2 km/h (2 Bft) W-SW 241 ° 0 min 0,000 mm 0,0 UV-I 0 W/m² -0,7 °C -1,3 °C 19,3 km/h (3 Bft)
06.03.2017 03:21 1,7 °C 1,7 °C 84 % 1007,0 hPa 0,0 mm 10,5 km/h (2 Bft) W 259 ° 0 min 0,000 mm 0,0 UV-I 0 W/m² -0,7 °C -1,4 °C 12,9 km/h (3 Bft)
06.03.2017 03:22 1,7 °C 1,7 °C 84 % 1007,0 hPa 0,0 mm 12,8 km/h (3 Bft) W 264 ° 0 min 0,000 mm 0,0 UV-I 0 W/m² -0,7 °C -1,9 °C 20,9 km/h (4 Bft)
06.03.2017 03:23 1,7 °C 1,7 °C 83 % 1006,9 hPa 0,0 mm 11,1 km/h (2 Bft) S-SW 208 ° 0 min 0,000 mm 0,0 UV-I 0 W/m² -0,9 °C -1,5 °C 16,1 km/h (3 Bft)
06.03.2017 03:24 1,7 °C 1,7 °C 83 % 1007,0 hPa 0,0 mm 11,1 km/h (2 Bft) S-SW 201 ° 0 min 0,000 mm 0,0 UV-I 0 W/m² -0,9 °C -1,5 °C 19,3 km/h (3 Bft)
06.03.2017 03:25 1,8 °C 1,8 °C 83 % 1007,0 hPa 0,0 mm 8,6 km/h (2 Bft) W 259 ° 0 min 0,000 mm 0,0 UV-I 0 W/m² -0,8 °C -0,8 °C 16,1 km/h (3 Bft)
06.03.2017 03:26 1,8 °C 1,8 °C 83 % 1006,9 hPa 0,0 mm 10,5 km/h (2 Bft) W-SW 255 ° 0 min 0,000 mm 0,0 UV-I 0 W/m² -0,8 °C -1,3 °C 19,3 km/h (3 Bft)
06.03.2017 03:27 1,8 °C 1,8 °C 83 % 1006,9 hPa 0,0 mm 16,0 km/h (3 Bft) SW 216 ° 0 min 0,000 mm 0,0 UV-I 0 W/m² -0,8 °C -2,4 °C 19,3 km/h (3 Bft)
06.03.2017 03:28 1,8 °C 1,8 °C 83 % 1006,9 hPa 0,0 mm 11,5 km/h (2 Bft) W-SW 252 ° 0 min 0,000 mm 0,0 UV-I 0 W/m² -0,8 °C -1,5 °C 20,9 km/h (4 Bft)
06.03.2017 03:29 1,8 °C 1,8 °C 82 % 1006,9 hPa 0,0 mm 18,6 km/h (3 Bft) W 267 ° 0 min 0,000 mm 0,0 UV-I 0 W/m² -0,9 °C -2,8 °C 27,4 km/h (4 Bft)
06.03.2017 03:30 1,8 °C 1,8 °C 82 % 1007,0 hPa 0,0 mm 13,4 km/h (3 Bft) W-SW 252 ° 0 min 0,000 mm 0,0 UV-I 0 W/m² -0,9 °C -1,9 °C 19,3 km/h (3 Bft)
06.03.2017 03:31 1,8 °C 1,8 °C 82 % 1006,9 hPa 0,0 mm 16,0 km/h (3 Bft) W-SW 258 ° 0 min 0,000 mm 0,0 UV-I 0 W/m² -0,9 °C -2,4 °C 20,9 km/h (4 Bft)
06.03.2017 03:32 1,8 °C 1,8 °C 82 % 1006,9 hPa 0,0 mm 15,1 km/h (3 Bft) W 260 ° 0 min 0,000 mm 0,0 UV-I 0 W/m² -0,9 °C -2,2 °C 22,5 km/h (4 Bft)
06.03.2017 03:33 1,8 °C 1,8 °C 82 % 1006,9 hPa 0,0 mm 14,6 km/h (3 Bft) W-SW 244 ° 0 min 0,000 mm 0,0 UV-I 0 W/m² -0,9 °C -2,1 °C 27,4 km/h (4 Bft)
06.03.2017 03:34 1,8 °C 1,8 °C 82 % 1006,9 hPa 0,0 mm 12,8 km/h (3 Bft) W-SW 251 ° 0 min 0,000 mm 0,0 UV-I 0 W/m² -0,9 °C -1,8 °C 17,7 km/h (3 Bft)
06.03.2017 03:35 1,8 °C 1,8 °C 82 % 1006,8 hPa 0,0 mm 15,1 km/h (3 Bft) W-NW 283 ° 0 min 0,000 mm 0,0 UV-I 0 W/m² -0,9 °C -2,2 °C 20,9 km/h (4 Bft)
06.03.2017 03:36 1,8 °C 1,9 °C 82 % 1006,9 hPa 0,0 mm 15,1 km/h (3 Bft) W 267 ° 0 min 0,000 mm 0,0 UV-I 0 W/m² -0,9 °C -2,2 °C 24,1 km/h (4 Bft)
06.03.2017 03:37 1,8 °C 1,9 °C 81 % 1006,9 hPa 0,0 mm 12,4 km/h (3 Bft) W 261 ° 0 min 0,000 mm 0,0 UV-I 0 W/m² -1,1 °C -1,7 °C 19,3 km/h (3 Bft)
06.03.2017 03:38 1,9 °C 1,9 °C 81 % 1006,9 hPa 0,0 mm 15,8 km/h (3 Bft) W-SW 244 ° 0 min 0,000 mm 0,0 UV-I 0 W/m² -1,0 °C -2,2 °C 20,9 km/h (4 Bft)
06.03.2017 03:39 1,9 °C 1,9 °C 82 % 1006,9 hPa 0,0 mm 14,2 km/h (3 Bft) W-SW 245 ° 0 min 0,000 mm 0,0 UV-I 0 W/m² -0,8 °C -1,9 °C 22,5 km/h (4 Bft)
06.03.2017 03:40 1,9 °C 1,9 °C 81 % 1006,8 hPa 0,0 mm 14,0 km/h (3 Bft) SW 232 ° 0 min 0,000 mm 0,0 UV-I 0 W/m² -1,0 °C -1,9 °C 22,5 km/h (4 Bft)
06.03.2017 03:41 1,9 °C 1,9 °C 81 % 1006,8 hPa 0,0 mm 14,3 km/h (3 Bft) W-SW 251 ° 0 min 0,000 mm 0,0 UV-I 0 W/m² -1,0 °C -1,9 °C 24,1 km/h (4 Bft)
06.03.2017 03:42 1,9 °C 1,9 °C 80 % 1006,8 hPa 0,0 mm 18,0 km/h (3 Bft) W 267 ° 0 min 0,000 mm 0,0 UV-I 0 W/m² -1,2 °C -2,6 °C 24,1 km/h (4 Bft)
06.03.2017 03:43 2,0 °C 2,0 °C 80 % 1006,9 hPa 0,0 mm 17,8 km/h (3 Bft) W-SW 247 ° 0 min 0,000 mm 0,0 UV-I 0 W/m² -1,1 °C -2,4 °C 25,7 km/h (4 Bft)
06.03.2017 03:44 2,0 °C 2,0 °C 80 % 1006,8 hPa 0,0 mm 15,3 km/h (3 Bft) W 273 ° 0 min 0,000 mm 0,0 UV-I 0 W/m² -1,1 °C -2,0 °C 22,5 km/h (4 Bft)
06.03.2017 03:45 2,1 °C 2,1 °C 80 % 1006,9 hPa 0,0 mm 12,0 km/h (2 Bft) W 281 ° 0 min 0,000 mm 0,0 UV-I 0 W/m² -1,0 °C -1,3 °C 17,7 km/h (3 Bft)
06.03.2017 03:46 2,1 °C 2,1 °C 80 % 1006,8 hPa 0,0 mm 17,4 km/h (3 Bft) W-SW 241 ° 0 min 0,000 mm 0,0 UV-I 0 W/m² -1,0 °C -2,2 °C 30,6 km/h (5 Bft)
06.03.2017 03:47 2,1 °C 2,1 °C 79 % 1007,0 hPa 0,0 mm 10,5 km/h (2 Bft) W-SW 256 ° 0 min 0,000 mm 0,0 UV-I 0 W/m² -1,2 °C -0,9 °C 24,1 km/h (4 Bft)
06.03.2017 03:48 2,1 °C 2,1 °C 79 % 1006,9 hPa 0,0 mm 15,4 km/h (3 Bft) W-SW 250 ° 0 min 0,000 mm 0,0 UV-I 0 W/m² -1,2 °C -1,9 °C 20,9 km/h (4 Bft)
06.03.2017 03:49 2,1 °C 2,1 °C 79 % 1006,9 hPa 0,0 mm 16,8 km/h (3 Bft) SW 219 ° 0 min 0,000 mm 0,0 UV-I 0 W/m² -1,2 °C -2,1 °C 27,4 km/h (4 Bft)
06.03.2017 03:50 2,1 °C 2,1 °C 79 % 1006,9 hPa 0,0 mm 13,5 km/h (3 Bft) SW 227 ° 0 min 0,000 mm 0,0 UV-I 0 W/m² -1,2 °C -1,6 °C 19,3 km/h (3 Bft)
06.03.2017 03:51 2,2 °C 2,2 °C 79 % 1006,9 hPa 0,0 mm 12,4 km/h (3 Bft) W-SW 254 ° 0 min 0,000 mm 0,0 UV-I 0 W/m² -1,1 °C -1,2 °C 19,3 km/h (3 Bft)
06.03.2017 03:52 2,1 °C 2,2 °C 79 % 1006,8 hPa 0,0 mm 17,4 km/h (3 Bft) W 272 ° 0 min 0,000 mm 0,0 UV-I 0 W/m² -1,2 °C -2,2 °C 25,7 km/h (4 Bft)
06.03.2017 03:53 2,2 °C 2,2 °C 78 % 1006,8 hPa 0,0 mm 11,7 km/h (2 Bft) W 261 ° 0 min 0,000 mm 0,0 UV-I 0 W/m² -1,2 °C -1,1 °C 14,5 km/h (3 Bft)
06.03.2017 03:54 2,1 °C 2,2 °C 78 % 1006,8 hPa 0,0 mm 12,9 km/h (3 Bft) W 265 ° 0 min 0,000 mm 0,0 UV-I 0 W/m² -1,3 °C -1,4 °C 24,1 km/h (4 Bft)
06.03.2017 03:55 2,2 °C 2,2 °C 78 % 1006,8 hPa 0,0 mm 18,4 km/h (3 Bft) SW 236 ° 0 min 0,000 mm 0,0 UV-I 0 W/m² -1,2 °C -2,2 °C 24,1 km/h (4 Bft)
06.03.2017 03:56 2,2 °C 2,2 °C 78 % 1006,8 hPa 0,0 mm 20,8 km/h (4 Bft) W 269 ° 0 min 0,000 mm 0,0 UV-I 0 W/m² -1,2 °C -2,6 °C 25,7 km/h (4 Bft)
06.03.2017 03:57 2,2 °C 2,2 °C 78 % 1006,8 hPa 0,0 mm 13,4 km/h (3 Bft) W-SW 251 ° 0 min 0,000 mm 0,0 UV-I 0 W/m² -1,2 °C -1,4 °C 27,4 km/h (4 Bft)
06.03.2017 03:58 2,2 °C 2,2 °C 78 % 1006,8 hPa 0,0 mm 16,6 km/h (3 Bft) W 263 ° 0 min 0,000 mm 0,0 UV-I 0 W/m² -1,2 °C -2,0 °C 20,9 km/h (4 Bft)
06.03.2017 03:59 2,2 °C 2,2 °C 78 % 1006,8 hPa 0,0 mm 12,7 km/h (3 Bft) W 260 ° 0 min 0,000 mm 0,0 UV-I 0 W/m² -1,2 °C -1,3 °C 19,3 km/h (3 Bft)
06.03.2017 04:00 2,2 °C 2,2 °C 78 % 1006,9 hPa 0,0 mm 13,0 km/h (3 Bft) W-SW 237 ° 0 min 0,000 mm 0,0 UV-I 0 W/m² -1,2 °C -1,3 °C 19,3 km/h (3 Bft)
06.03.2017 04:01 2,2 °C 2,2 °C 78 % 1006,9 hPa 0,0 mm 11,8 km/h (2 Bft) SW 236 ° 0 min 0,025 mm 0,0 UV-I 0 W/m² -1,2 °C -1,1 °C 14,5 km/h (3 Bft)
06.03.2017 04:02 2,1 °C 2,2 °C 78 % 1006,8 hPa 0,0 mm 13,5 km/h (3 Bft) W-NW 284 ° 0 min 0,000 mm 0,0 UV-I 0 W/m² -1,3 °C -1,6 °C 19,3 km/h (3 Bft)
06.03.2017 04:03 2,1 °C 2,2 °C 77 % 1006,7 hPa 0,0 mm 18,5 km/h (3 Bft) SW 227 ° 0 min 0,000 mm 0,0 UV-I 0 W/m² -1,5 °C -2,4 °C 29,0 km/h (5 Bft)
06.03.2017 04:04 2,2 °C 2,2 °C 77 % 1006,7 hPa 0,0 mm 13,3 km/h (3 Bft) W 260 ° 0 min 0,000 mm 0,0 UV-I 0 W/m² -1,4 °C -1,4 °C 20,9 km/h (4 Bft)
06.03.2017 04:05 2,2 °C 2,2 °C 77 % 1006,7 hPa 0,0 mm 12,3 km/h (3 Bft) W-SW 248 ° 0 min 0,000 mm 0,0 UV-I 0 W/m² -1,4 °C -1,2 °C 16,1 km/h (3 Bft)
06.03.2017 04:06 2,2 °C 2,2 °C 77 % 1006,7 hPa 0,0 mm 8,5 km/h (2 Bft) W-SW 255 ° 0 min 0,000 mm 0,0 UV-I 0 W/m² -1,4 °C -0,3 °C 12,9 km/h (3 Bft)
06.03.2017 04:07 2,2 °C 2,2 °C 77 % 1006,6 hPa 0,0 mm 13,4 km/h (3 Bft) W 272 ° 0 min 0,000 mm 0,0 UV-I 0 W/m² -1,4 °C -1,4 °C 17,7 km/h (3 Bft)
06.03.2017 04:08 2,2 °C 2,2 °C 77 % 1006,6 hPa 0,0 mm 9,3 km/h (2 Bft) W-SW 254 ° 0 min 0,000 mm 0,0 UV-I 0 W/m² -1,4 °C -0,5 °C 12,9 km/h (3 Bft)
06.03.2017 04:09 2,1 °C 2,2 °C 77 % 1006,6 hPa 0,0 mm 7,5 km/h (2 Bft) W-SW 250 ° 0 min 0,000 mm 0,0 UV-I 0 W/m² -1,5 °C -0,1 °C 11,3 km/h (2 Bft)
06.03.2017 04:10 2,1 °C 2,1 °C 77 % 1006,5 hPa 0,0 mm 11,1 km/h (2 Bft) W 263 ° 0 min 0,000 mm 0,0 UV-I 0 W/m² -1,5 °C -1,1 °C 17,7 km/h (3 Bft)
06.03.2017 04:11 2,1 °C 2,1 °C 76 % 1006,5 hPa 0,0 mm 13,0 km/h (3 Bft) W 266 ° 0 min 0,000 mm 0,0 UV-I 0 W/m² -1,7 °C -1,5 °C 20,9 km/h (4 Bft)
06.03.2017 04:12 2,1 °C 2,1 °C 76 % 1006,5 hPa 0,0 mm 13,1 km/h (3 Bft) S-SW 210 ° 0 min 0,000 mm 0,0 UV-I 0 W/m² -1,7 °C -1,5 °C 27,4 km/h (4 Bft)
06.03.2017 04:13 2,1 °C 2,1 °C 77 % 1006,5 hPa 0,0 mm 11,5 km/h (2 Bft) W-SW 252 ° 0 min 0,000 mm 0,0 UV-I 0 W/m² -1,5 °C -1,2 °C 20,9 km/h (4 Bft)
06.03.2017 04:14 2,1 °C 2,1 °C 76 % 1006,6 hPa 0,0 mm 10,9 km/h (2 Bft) W 259 ° 0 min 0,000 mm 0,0 UV-I 0 W/m² -1,7 °C -1,0 °C 16,1 km/h (3 Bft)
06.03.2017 04:15 2,1 °C 2,1 °C 76 % 1006,6 hPa 0,0 mm 10,7 km/h (2 Bft) W-SW 240 ° 0 min 0,000 mm 0,0 UV-I 0 W/m² -1,7 °C -1,0 °C 20,9 km/h (4 Bft)
06.03.2017 04:16 2,1 °C 2,1 °C 76 % 1006,6 hPa 0,0 mm 13,1 km/h (3 Bft) W-SW 237 ° 0 min 0,000 mm 0,0 UV-I 0 W/m² -1,7 °C -1,5 °C 16,1 km/h (3 Bft)
06.03.2017 04:17 2,1 °C 2,1 °C 76 % 1006,6 hPa 0,0 mm 14,1 km/h (3 Bft) W 263 ° 0 min 0,000 mm 0,0 UV-I 0 W/m² -1,7 °C -1,7 °C 19,3 km/h (3 Bft)
06.03.2017 04:18 2,1 °C 2,1 °C 76 % 1006,7 hPa 0,0 mm 12,7 km/h (3 Bft) SW 234 ° 0 min 0,000 mm 0,0 UV-I 0 W/m² -1,7 °C -1,4 °C 17,7 km/h (3 Bft)
06.03.2017 04:19 2,1 °C 2,1 °C 76 % 1006,7 hPa 0,0 mm 15,9 km/h (3 Bft) SW 229 ° 0 min 0,000 mm 0,0 UV-I 0 W/m² -1,7 °C -2,0 °C 20,9 km/h (4 Bft)
06.03.2017 04:20 2,1 °C 2,1 °C 76 % 1006,7 hPa 0,0 mm 13,5 km/h (3 Bft) W-SW 237 ° 0 min 0,000 mm 0,0 UV-I 0 W/m² -1,7 °C -1,6 °C 17,7 km/h (3 Bft)
06.03.2017 04:21 2,1 °C 2,1 °C 76 % 1006,7 hPa 0,0 mm 7,9 km/h (2 Bft) W 271 ° 0 min 0,000 mm 0,0 UV-I 0 W/m² -1,7 °C -0,2 °C 12,9 km/h (3 Bft)
06.03.2017 04:22 2,1 °C 2,1 °C 76 % 1006,7 hPa 0,0 mm 10,9 km/h (2 Bft) W-SW 257 ° 0 min 0,000 mm 0,0 UV-I 0 W/m² -1,7 °C -1,0 °C 19,3 km/h (3 Bft)
06.03.2017 04:23 2,1 °C 2,1 °C 76 % 1006,7 hPa 0,0 mm 12,1 km/h (2 Bft) W 267 ° 0 min 0,000 mm 0,0 UV-I 0 W/m² -1,7 °C -1,3 °C 16,1 km/h (3 Bft)
06.03.2017 04:24 2,1 °C 2,1 °C 76 % 1006,7 hPa 0,0 mm 7,8 km/h (2 Bft) W 259 ° 0 min 0,000 mm 0,0 UV-I 0 W/m² -1,7 °C -0,2 °C 12,9 km/h (3 Bft)
06.03.2017 04:25 2,1 °C 2,1 °C 76 % 1006,7 hPa 0,0 mm 11,5 km/h (2 Bft) W 267 ° 0 min 0,000 mm 0,0 UV-I 0 W/m² -1,7 °C -1,2 °C 16,1 km/h (3 Bft)
06.03.2017 04:26 2,1 °C 2,1 °C 76 % 1006,7 hPa 0,0 mm 14,0 km/h (3 Bft) W-SW 257 ° 0 min 0,000 mm 0,0 UV-I 0 W/m² -1,7 °C -1,6 °C 22,5 km/h (4 Bft)
06.03.2017 04:27 2,1 °C 2,2 °C 76 % 1006,7 hPa 0,0 mm 12,1 km/h (2 Bft) W-SW 238 ° 0 min 0,000 mm 0,0 UV-I 0 W/m² -1,7 °C -1,3 °C 16,1 km/h (3 Bft)
06.03.2017 04:28 2,1 °C 2,1 °C 76 % 1006,7 hPa 0,0 mm 9,7 km/h (2 Bft) S 190 ° 0 min 0,000 mm 0,0 UV-I 0 W/m² -1,7 °C -0,7 °C 17,7 km/h (3 Bft)
06.03.2017 04:29 2,1 °C 2,2 °C 76 % 1006,7 hPa 0,0 mm 9,9 km/h (2 Bft) S 189 ° 0 min 0,000 mm 0,0 UV-I 0 W/m² -1,7 °C -0,8 °C 17,7 km/h (3 Bft)
06.03.2017 04:30 2,1 °C 2,2 °C 76 % 1006,7 hPa 0,0 mm 8,5 km/h (2 Bft) SW 217 ° 0 min 0,000 mm 0,0 UV-I 0 W/m² -1,7 °C -0,4 °C 19,3 km/h (3 Bft)
06.03.2017 04:31 2,2 °C 2,2 °C 76 % 1006,8 hPa 0,0 mm 9,1 km/h (2 Bft) W 259 ° 0 min 0,000 mm 0,0 UV-I 0 W/m² -1,6 °C -0,5 °C 16,1 km/h (3 Bft)
06.03.2017 04:32 2,2 °C 2,2 °C 76 % 1006,8 hPa 0,0 mm 18,6 km/h (3 Bft) W-SW 242 ° 0 min 0,000 mm 0,0 UV-I 0 W/m² -1,6 °C -2,3 °C 25,7 km/h (4 Bft)
06.03.2017 04:33 2,2 °C 2,2 °C 76 % 1006,8 hPa 0,0 mm 10,1 km/h (2 Bft) W-SW 238 ° 0 min 0,000 mm 0,0 UV-I 0 W/m² -1,6 °C -0,7 °C 19,3 km/h (3 Bft)
06.03.2017 04:34 2,2 °C 2,2 °C 76 % 1006,8 hPa 0,0 mm 10,8 km/h (2 Bft) W-SW 244 ° 0 min 0,000 mm 0,0 UV-I 0 W/m² -1,6 °C -0,9 °C 17,7 km/h (3 Bft)
06.03.2017 04:35 2,1 °C 2,2 °C 76 % 1006,8 hPa 0,0 mm 10,8 km/h (2 Bft) SW 233 ° 0 min 0,000 mm 0,0 UV-I 0 W/m² -1,7 °C -1,0 °C 14,5 km/h (3 Bft)
06.03.2017 04:36 2,1 °C 2,1 °C 76 % 1006,9 hPa 0,0 mm 12,7 km/h (3 Bft) W 263 ° 0 min 0,000 mm 0,0 UV-I 0 W/m² -1,7 °C -1,4 °C 17,7 km/h (3 Bft)
06.03.2017 04:37 2,1 °C 2,1 °C 77 % 1006,9 hPa 0,0 mm 15,6 km/h (3 Bft) W-SW 248 ° 0 min 0,000 mm 0,0 UV-I 0 W/m² -1,5 °C -1,9 °C 22,5 km/h (4 Bft)
06.03.2017 04:38 2,1 °C 2,1 °C 76 % 1007,0 hPa 0,0 mm 10,7 km/h (2 Bft) SW 233 ° 0 min 0,000 mm 0,0 UV-I 0 W/m² -1,7 °C -1,0 °C 20,9 km/h (4 Bft)
06.03.2017 04:39 2,1 °C 2,1 °C 76 % 1006,9 hPa 0,0 mm 8,8 km/h (2 Bft) W-SW 251 ° 0 min 0,000 mm 0,0 UV-I 0 W/m² -1,7 °C -0,5 °C 14,5 km/h (3 Bft)
06.03.2017 04:40 2,1 °C 2,1 °C 76 % 1006,9 hPa 0,0 mm 9,1 km/h (2 Bft) S-SW 195 ° 0 min 0,000 mm 0,0 UV-I 0 W/m² -1,7 °C -0,6 °C 14,5 km/h (3 Bft)
06.03.2017 04:41 2,1 °C 2,1 °C 76 % 1006,9 hPa 0,0 mm 10,3 km/h (2 Bft) S 178 ° 0 min 0,000 mm 0,0 UV-I 0 W/m² -1,7 °C -0,9 °C 17,7 km/h (3 Bft)
06.03.2017 04:42 2,1 °C 2,1 °C 77 % 1006,9 hPa 0,0 mm 16,4 km/h (3 Bft) W 260 ° 0 min 0,000 mm 0,0 UV-I 0 W/m² -1,5 °C -2,1 °C 22,5 km/h (4 Bft)
06.03.2017 04:43 2,1 °C 2,1 °C 77 % 1006,9 hPa 0,0 mm 13,7 km/h (3 Bft) W-SW 252 ° 0 min 0,000 mm 0,0 UV-I 0 W/m² -1,5 °C -1,6 °C 20,9 km/h (4 Bft)
06.03.2017 04:44 2,1 °C 2,1 °C 78 % 1006,9 hPa 0,0 mm 10,0 km/h (2 Bft) W 259 ° 0 min 0,000 mm 0,0 UV-I 0 W/m² -1,3 °C -0,8 °C 17,7 km/h (3 Bft)
06.03.2017 04:45 2,0 °C 2,1 °C 79 % 1007,0 hPa 0,0 mm 9,6 km/h (2 Bft) W-NW 285 ° 0 min 0,000 mm 0,0 UV-I 0 W/m² -1,2 °C -0,8 °C 17,7 km/h (3 Bft)
06.03.2017 04:46 2,0 °C 2,0 °C 79 % 1007,0 hPa 0,0 mm 17,5 km/h (3 Bft) W 263 ° 0 min 0,000 mm 0,0 UV-I 0 W/m² -1,2 °C -2,4 °C 24,1 km/h (4 Bft)
06.03.2017 04:47 1,9 °C 2,0 °C 80 % 1007,1 hPa 0,0 mm 13,4 km/h (3 Bft) W-SW 258 ° 0 min 0,000 mm 0,0 UV-I 0 W/m² -1,2 °C -1,8 °C 17,7 km/h (3 Bft)
06.03.2017 04:48 1,9 °C 1,9 °C 80 % 1007,1 hPa 0,0 mm 16,3 km/h (3 Bft) W-NW 290 ° 0 min 0,000 mm 0,0 UV-I 0 W/m² -1,2 °C -2,3 °C 22,5 km/h (4 Bft)
06.03.2017 04:49 1,8 °C 1,9 °C 80 % 1007,1 hPa 0,0 mm 16,0 km/h (3 Bft) W-SW 257 ° 0 min 0,000 mm 0,0 UV-I 0 W/m² -1,3 °C -2,4 °C 27,4 km/h (4 Bft)
06.03.2017 04:50 1,8 °C 1,8 °C 81 % 1007,2 hPa 0,0 mm 15,1 km/h (3 Bft) W 266 ° 0 min 0,000 mm 0,0 UV-I 0 W/m² -1,1 °C -2,2 °C 25,7 km/h (4 Bft)
06.03.2017 04:51 1,7 °C 1,8 °C 83 % 1007,2 hPa 0,0 mm 16,7 km/h (3 Bft) SW 221 ° 0 min 0,000 mm 0,0 UV-I 0 W/m² -0,9 °C -2,6 °C 27,4 km/h (4 Bft)
06.03.2017 04:52 1,7 °C 1,7 °C 83 % 1007,1 hPa 0,0 mm 15,9 km/h (3 Bft) W 261 ° 0 min 0,000 mm 0,0 UV-I 0 W/m² -0,9 °C -2,5 °C 24,1 km/h (4 Bft)
06.03.2017 04:53 1,6 °C 1,7 °C 84 % 1007,2 hPa 0,0 mm 15,1 km/h (3 Bft) SW 215 ° 0 min 0,000 mm 0,0 UV-I 0 W/m² -0,8 °C -2,5 °C 20,9 km/h (4 Bft)
06.03.2017 04:54 1,4 °C 1,6 °C 85 % 1007,2 hPa 0,0 mm 13,3 km/h (3 Bft) W-SW 253 ° 0 min 0,000 mm 0,0 UV-I 0 W/m² -0,8 °C -2,4 °C 19,3 km/h (3 Bft)
06.03.2017 04:55 1,4 °C 1,5 °C 85 % 1007,2 hPa 0,0 mm 8,9 km/h (2 Bft) W 275 ° 0 min 0,000 mm 0,0 UV-I 0 W/m² -0,8 °C -1,4 °C 19,3 km/h (3 Bft)
06.03.2017 04:56 1,3 °C 1,4 °C 86 % 1007,2 hPa 0,0 mm 13,0 km/h (3 Bft) SW 217 ° 0 min 0,000 mm 0,0 UV-I 0 W/m² -0,8 °C -2,4 °C 20,9 km/h (4 Bft)
06.03.2017 04:57 1,2 °C 1,3 °C 86 % 1007,3 hPa 0,0 mm 13,5 km/h (3 Bft) W 260 ° 0 min 0,000 mm 0,0 UV-I 0 W/m² -0,9 °C -2,7 °C 19,3 km/h (3 Bft)
06.03.2017 04:58 1,1 °C 1,2 °C 87 % 1007,3 hPa 0,0 mm 10,8 km/h (2 Bft) W-SW 248 ° 0 min 0,000 mm 0,0 UV-I 0 W/m² -0,8 °C -2,2 °C 14,5 km/h (3 Bft)
06.03.2017 04:59 1,1 °C 1,1 °C 87 % 1007,3 hPa 0,0 mm 12,9 km/h (3 Bft) W-SW 257 ° 0 min 0,000 mm 0,0 UV-I 0 W/m² -0,8 °C -2,7 °C 16,1 km/h (3 Bft)
06.03.2017 05:00 1,0 °C 1,1 °C 88 % 1007,3 hPa 0,0 mm 12,4 km/h (3 Bft) W-SW 252 ° 0 min 0,026 mm 0,0 UV-I 0 W/m² -0,8 °C -2,7 °C 22,5 km/h (4 Bft)
06.03.2017 05:01 0,9 °C 1,0 °C 88 % 1007,3 hPa 0,0 mm 13,9 km/h (3 Bft) W 272 ° 0 min 0,000 mm 0,0 UV-I 0 W/m² -0,9 °C -3,1 °C 19,3 km/h (3 Bft)
06.03.2017 05:02 0,8 °C 0,9 °C 89 % 1007,4 hPa 0,0 mm 10,1 km/h (2 Bft) SW 229 ° 0 min 0,000 mm 0,0 UV-I 0 W/m² -0,8 °C -2,4 °C 14,5 km/h (3 Bft)
06.03.2017 05:03 0,8 °C 0,8 °C 89 % 1007,4 hPa 0,0 mm 10,0 km/h (2 Bft) S-SW 192 ° 0 min 0,000 mm 0,0 UV-I 0 W/m² -0,8 °C -2,4 °C 16,1 km/h (3 Bft)
06.03.2017 05:04 0,8 °C 0,8 °C 89 % 1007,5 hPa 0,0 mm 11,9 km/h (2 Bft) W-NW 288 ° 0 min 0,000 mm 0,0 UV-I 0 W/m² -0,8 °C -2,8 °C 16,1 km/h (3 Bft)
06.03.2017 05:05 0,8 °C 0,8 °C 89 % 1007,5 hPa 0,0 mm 12,0 km/h (2 Bft) SW 234 ° 0 min 0,000 mm 0,0 UV-I 0 W/m² -0,8 °C -2,8 °C 14,5 km/h (3 Bft)
06.03.2017 05:06 0,7 °C 0,8 °C 90 % 1007,5 hPa 0,0 mm 10,3 km/h (2 Bft) W-SW 247 ° 0 min 0,000 mm 0,0 UV-I 0 W/m² -0,7 °C -2,6 °C 14,5 km/h (3 Bft)
06.03.2017 05:07 0,7 °C 0,7 °C 90 % 1007,4 hPa 0,0 mm 9,5 km/h (2 Bft) W-SW 238 ° 0 min 0,000 mm 0,0 UV-I 0 W/m² -0,7 °C -2,3 °C 14,5 km/h (3 Bft)
06.03.2017 05:08 0,7 °C 0,7 °C 90 % 1007,4 hPa 0,0 mm 9,4 km/h (2 Bft) W-SW 250 ° 0 min 0,000 mm 0,0 UV-I 0 W/m² -0,7 °C -2,3 °C 17,7 km/h (3 Bft)
06.03.2017 05:09 0,7 °C 0,7 °C 90 % 1007,4 hPa 0,0 mm 8,8 km/h (2 Bft) W 263 ° 0 min 0,000 mm 0,0 UV-I 0 W/m² -0,7 °C -2,2 °C 12,9 km/h (3 Bft)
06.03.2017 05:10 0,7 °C 0,7 °C 90 % 1007,3 hPa 0,0 mm 6,3 km/h (2 Bft) W-SW 246 ° 0 min 0,000 mm 0,0 UV-I 0 W/m² -0,7 °C -1,3 °C 12,9 km/h (3 Bft)
06.03.2017 05:11 0,7 °C 0,7 °C 90 % 1007,3 hPa 0,0 mm 9,4 km/h (2 Bft) W-SW 258 ° 0 min 0,000 mm 0,0 UV-I 0 W/m² -0,7 °C -2,3 °C 14,5 km/h (3 Bft)
06.03.2017 05:12 0,7 °C 0,7 °C 90 % 1007,3 hPa 0,0 mm 10,8 km/h (2 Bft) SW 230 ° 0 min 0,000 mm 0,0 UV-I 0 W/m² -0,7 °C -2,7 °C 20,9 km/h (4 Bft)
06.03.2017 05:13 0,7 °C 0,7 °C 90 % 1007,4 hPa 0,0 mm 8,9 km/h (2 Bft) W-SW 243 ° 0 min 0,000 mm 0,0 UV-I 0 W/m² -0,7 °C -2,2 °C 14,5 km/h (3 Bft)
06.03.2017 05:14 0,7 °C 0,7 °C 90 % 1007,4 hPa 0,0 mm 9,6 km/h (2 Bft) W-SW 258 ° 0 min 0,000 mm 0,0 UV-I 0 W/m² -0,7 °C -2,4 °C 19,3 km/h (3 Bft)
06.03.2017 05:15 0,7 °C 0,7 °C 90 % 1007,4 hPa 0,0 mm 11,9 km/h (2 Bft) W 263 ° 0 min 0,000 mm 0,0 UV-I 0 W/m² -0,7 °C -2,9 °C 19,3 km/h (3 Bft)
06.03.2017 05:16 0,7 °C 0,7 °C 90 % 1007,4 hPa 0,0 mm 5,7 km/h (1 Bft) SW 232 ° 0 min 0,000 mm 0,0 UV-I 0 W/m² -0,7 °C -1,1 °C 9,7 km/h (2 Bft)
06.03.2017 05:17 0,7 °C 0,7 °C 91 % 1007,4 hPa 0,0 mm 6,6 km/h (2 Bft) W-SW 254 ° 0 min 0,000 mm 0,0 UV-I 0 W/m² -0,6 °C -1,4 °C 11,3 km/h (2 Bft)
06.03.2017 05:18 0,6 °C 0,7 °C 91 % 1007,5 hPa 0,0 mm 7,6 km/h (2 Bft) W-SW 244 ° 0 min 0,000 mm 0,0 UV-I 0 W/m² -0,7 °C -1,9 °C 12,9 km/h (3 Bft)
06.03.2017 05:19 0,6 °C 0,6 °C 91 % 1007,5 hPa 0,0 mm 7,3 km/h (2 Bft) SW 236 ° 0 min 0,000 mm 0,0 UV-I 0 W/m² -0,7 °C -1,8 °C 11,3 km/h (2 Bft)
06.03.2017 05:20 0,6 °C 0,6 °C 91 % 1007,5 hPa 0,0 mm 6,8 km/h (2 Bft) W 279 ° 0 min 0,000 mm 0,0 UV-I 0 W/m² -0,7 °C -1,6 °C 9,7 km/h (2 Bft)
06.03.2017 05:21 0,6 °C 0,6 °C 91 % 1007,5 hPa 0,0 mm 6,7 km/h (2 Bft) W-SW 251 ° 0 min 0,000 mm 0,0 UV-I 0 W/m² -0,7 °C -1,6 °C 9,7 km/h (2 Bft)
06.03.2017 05:22 0,6 °C 0,6 °C 91 % 1007,5 hPa 0,0 mm 4,3 km/h (1 Bft) W-SW 246 ° 0 min 0,000 mm 0,0 UV-I 0 W/m² -0,7 °C 0,6 °C 6,4 km/h (2 Bft)
06.03.2017 05:23 0,6 °C 0,6 °C 91 % 1007,5 hPa 0,0 mm 7,0 km/h (2 Bft) W-SW 249 ° 0 min 0,000 mm 0,0 UV-I 0 W/m² -0,7 °C -1,7 °C 12,9 km/h (3 Bft)
06.03.2017 05:24 0,6 °C 0,6 °C 91 % 1007,5 hPa 0,0 mm 7,8 km/h (2 Bft) W 277 ° 0 min 0,000 mm 0,0 UV-I 0 W/m² -0,7 °C -2,0 °C 11,3 km/h (2 Bft)
06.03.2017 05:25 0,6 °C 0,6 °C 91 % 1007,4 hPa 0,0 mm 6,4 km/h (2 Bft) W-SW 245 ° 0 min 0,000 mm 0,0 UV-I 0 W/m² -0,7 °C -1,5 °C 9,7 km/h (2 Bft)
06.03.2017 05:26 0,6 °C 0,6 °C 91 % 1007,4 hPa 0,0 mm 12,2 km/h (2 Bft) W-SW 237 ° 0 min 0,000 mm 0,0 UV-I 0 W/m² -0,7 °C -3,1 °C 16,1 km/h (3 Bft)
06.03.2017 05:27 0,6 °C 0,6 °C 91 % 1007,4 hPa 0,0 mm 12,5 km/h (3 Bft) W 265 ° 0 min 0,000 mm 0,0 UV-I 0 W/m² -0,7 °C -3,2 °C 17,7 km/h (3 Bft)
06.03.2017 05:28 0,6 °C 0,6 °C 91 % 1007,5 hPa 0,0 mm 9,9 km/h (2 Bft) W 260 ° 0 min 0,000 mm 0,0 UV-I 0 W/m² -0,7 °C -2,6 °C 12,9 km/h (3 Bft)
06.03.2017 05:29 0,6 °C 0,6 °C 91 % 1007,5 hPa 0,0 mm 10,5 km/h (2 Bft) W-SW 254 ° 0 min 0,000 mm 0,0 UV-I 0 W/m² -0,7 °C -2,7 °C 14,5 km/h (3 Bft)
06.03.2017 05:30 0,6 °C 0,6 °C 91 % 1007,6 hPa 0,0 mm 15,1 km/h (3 Bft) W-SW 246 ° 0 min 0,000 mm 0,0 UV-I 0 W/m² -0,7 °C -3,7 °C 17,7 km/h (3 Bft)
06.03.2017 05:31 0,6 °C 0,6 °C 91 % 1007,6 hPa 0,0 mm 7,4 km/h (2 Bft) W-SW 255 ° 0 min 0,000 mm 0,0 UV-I 0 W/m² -0,7 °C -1,8 °C 11,3 km/h (2 Bft)
06.03.2017 05:32 0,6 °C 0,6 °C 91 % 1007,5 hPa 0,0 mm 7,4 km/h (2 Bft) W-SW 258 ° 0 min 0,000 mm 0,0 UV-I 0 W/m² -0,7 °C -1,8 °C 11,3 km/h (2 Bft)
06.03.2017 05:33 0,6 °C 0,6 °C 91 % 1007,6 hPa 0,0 mm 7,5 km/h (2 Bft) W-SW 248 ° 0 min 0,000 mm 0,0 UV-I 0 W/m² -0,7 °C -1,9 °C 11,3 km/h (2 Bft)
06.03.2017 05:34 0,6 °C 0,6 °C 91 % 1007,5 hPa 0,0 mm 5,6 km/h (1 Bft) SW 216 ° 0 min 0,000 mm 0,0 UV-I 0 W/m² -0,7 °C -1,2 °C 9,7 km/h (2 Bft)
06.03.2017 05:35 0,6 °C 0,6 °C 91 % 1007,5 hPa 0,0 mm 6,3 km/h (2 Bft) SW 236 ° 0 min 0,000 mm 0,0 UV-I 0 W/m² -0,7 °C -1,5 °C 8,0 km/h (2 Bft)
06.03.2017 05:36 0,6 °C 0,6 °C 91 % 1007,6 hPa 0,0 mm 5,1 km/h (1 Bft) W-SW 242 ° 0 min 0,000 mm 0,0 UV-I 0 W/m² -0,7 °C -1,0 °C 6,4 km/h (2 Bft)
06.03.2017 05:37 0,6 °C 0,6 °C 91 % 1007,6 hPa 0,0 mm 4,2 km/h (1 Bft) SW 231 ° 0 min 0,000 mm 0,0 UV-I 0 W/m² -0,7 °C 0,6 °C 4,8 km/h (1 Bft)
06.03.2017 05:38 0,6 °C 0,6 °C 91 % 1007,5 hPa 0,0 mm 7,9 km/h (2 Bft) W-SW 247 ° 0 min 0,000 mm 0,0 UV-I 0 W/m² -0,7 °C -2,0 °C 11,3 km/h (2 Bft)
06.03.2017 05:39 0,6 °C 0,6 °C 91 % 1007,5 hPa 0,0 mm 5,2 km/h (1 Bft) SW 225 ° 0 min 0,000 mm 0,0 UV-I 0 W/m² -0,7 °C -1,0 °C 11,3 km/h (2 Bft)
06.03.2017 05:40 0,6 °C 0,6 °C 91 % 1007,5 hPa 0,0 mm 9,2 km/h (2 Bft) S-SW 195 ° 0 min 0,000 mm 0,0 UV-I 0 W/m² -0,7 °C -2,4 °C 14,5 km/h (3 Bft)
06.03.2017 05:41 0,6 °C 0,6 °C 91 % 1007,5 hPa 0,0 mm 5,2 km/h (1 Bft) SW 227 ° 0 min 0,000 mm 0,0 UV-I 0 W/m² -0,7 °C -1,0 °C 6,4 km/h (2 Bft)
06.03.2017 05:42 0,6 °C 0,6 °C 90 % 1007,5 hPa 0,0 mm 5,1 km/h (1 Bft) SW 224 ° 0 min 0,000 mm 0,0 UV-I 0 W/m² -0,8 °C -1,0 °C 8,0 km/h (2 Bft)
06.03.2017 05:43 0,6 °C 0,6 °C 90 % 1007,5 hPa 0,0 mm 3,7 km/h (1 Bft) S-SW 204 ° 0 min 0,000 mm 0,0 UV-I 0 W/m² -0,8 °C 0,6 °C 4,8 km/h (1 Bft)
06.03.2017 05:44 0,6 °C 0,6 °C 90 % 1007,5 hPa 0,0 mm 5,8 km/h (2 Bft) W-SW 246 ° 0 min 0,000 mm 0,0 UV-I 0 W/m² -0,8 °C -1,3 °C 11,3 km/h (2 Bft)
06.03.2017 05:45 0,6 °C 0,6 °C 90 % 1007,5 hPa 0,0 mm 3,8 km/h (1 Bft) W-SW 258 ° 0 min 0,000 mm 0,0 UV-I 0 W/m² -0,8 °C 0,6 °C 4,8 km/h (1 Bft)
06.03.2017 05:46 0,5 °C 0,6 °C 90 % 1007,5 hPa 0,0 mm 7,1 km/h (2 Bft) W 259 ° 0 min 0,000 mm 0,0 UV-I 0 W/m² -0,9 °C -1,9 °C 9,7 km/h (2 Bft)
06.03.2017 05:47 0,5 °C 0,5 °C 90 % 1007,4 hPa 0,0 mm 5,2 km/h (1 Bft) W-SW 252 ° 0 min 0,000 mm 0,0 UV-I 0 W/m² -0,9 °C -1,1 °C 8,0 km/h (2 Bft)
06.03.2017 05:48 0,5 °C 0,5 °C 90 % 1007,4 hPa 0,0 mm 5,5 km/h (1 Bft) W-SW 247 ° 0 min 0,000 mm 0,0 UV-I 0 W/m² -0,9 °C -1,2 °C 6,4 km/h (2 Bft)
06.03.2017 05:49 0,4 °C 0,5 °C 90 % 1007,4 hPa 0,0 mm 3,8 km/h (1 Bft) W-SW 242 ° 0 min 0,000 mm 0,0 UV-I 0 W/m² -1,0 °C 0,4 °C 6,4 km/h (2 Bft)
06.03.2017 05:50 0,4 °C 0,4 °C 90 % 1007,4 hPa 0,0 mm 5,2 km/h (1 Bft) W-SW 251 ° 0 min 0,000 mm 0,0 UV-I 0 W/m² -1,0 °C -1,2 °C 9,7 km/h (2 Bft)
06.03.2017 05:51 0,4 °C 0,4 °C 90 % 1007,3 hPa 0,0 mm 5,7 km/h (1 Bft) W-SW 254 ° 0 min 0,000 mm 0,0 UV-I 0 W/m² -1,0 °C -1,4 °C 8,0 km/h (2 Bft)
06.03.2017 05:52 0,4 °C 0,4 °C 90 % 1007,4 hPa 0,0 mm 5,3 km/h (1 Bft) W-SW 256 ° 0 min 0,000 mm 0,0 UV-I 0 W/m² -1,0 °C -1,3 °C 9,7 km/h (2 Bft)
06.03.2017 05:53 0,4 °C 0,4 °C 90 % 1007,4 hPa 0,0 mm 4,5 km/h (1 Bft) SW 234 ° 0 min 0,000 mm 0,0 UV-I 0 W/m² -1,0 °C 0,4 °C 6,4 km/h (2 Bft)
06.03.2017 05:54 0,3 °C 0,4 °C 90 % 1007,4 hPa 0,0 mm 8,1 km/h (2 Bft) W 261 ° 0 min 0,000 mm 0,0 UV-I 0 W/m² -1,1 °C -2,4 °C 12,9 km/h (3 Bft)
06.03.2017 05:55 0,4 °C 0,4 °C 90 % 1007,3 hPa 0,0 mm 7,7 km/h (2 Bft) W 261 ° 0 min 0,000 mm 0,0 UV-I 0 W/m² -1,0 °C -2,2 °C 11,3 km/h (2 Bft)
06.03.2017 05:56 0,4 °C 0,4 °C 90 % 1007,4 hPa 0,0 mm 6,2 km/h (2 Bft) W 269 ° 0 min 0,000 mm 0,0 UV-I 0 W/m² -1,0 °C -1,6 °C 9,7 km/h (2 Bft)
06.03.2017 05:57 0,4 °C 0,4 °C 90 % 1007,3 hPa 0,0 mm 7,4 km/h (2 Bft) W 279 ° 0 min 0,000 mm 0,0 UV-I 0 W/m² -1,0 °C -2,1 °C 11,3 km/h (2 Bft)
06.03.2017 05:58 0,4 °C 0,4 °C 90 % 1007,5 hPa 0,0 mm 7,2 km/h (2 Bft) W-SW 258 ° 0 min 0,000 mm 0,0 UV-I 0 W/m² -1,0 °C -2,0 °C 11,3 km/h (2 Bft)
06.03.2017 05:59 0,4 °C 0,4 °C 89 % 1007,5 hPa 0,0 mm 8,3 km/h (2 Bft) SW 215 ° 0 min 0,000 mm 0,0 UV-I 0 W/m² -1,2 °C -2,4 °C 12,9 km/h (3 Bft)
06.03.2017 06:00 0,4 °C 0,4 °C 89 % 1007,5 hPa 0,0 mm 7,9 km/h (2 Bft) W-SW 250 ° 0 min 0,000 mm 0,0 UV-I 0 W/m² -1,2 °C -2,2 °C 14,5 km/h (3 Bft)
06.03.2017 06:01 0,4 °C 0,4 °C 89 % 1007,5 hPa 0,0 mm 7,0 km/h (2 Bft) S-SW 203 ° 0 min 0,000 mm 0,0 UV-I 0 W/m² -1,2 °C -1,9 °C 12,9 km/h (3 Bft)
06.03.2017 06:02 0,4 °C 0,4 °C 89 % 1007,5 hPa 0,0 mm 8,1 km/h (2 Bft) W-SW 251 ° 0 min 0,000 mm 0,0 UV-I 0 W/m² -1,2 °C -2,3 °C 14,5 km/h (3 Bft)
06.03.2017 06:03 0,4 °C 0,5 °C 89 % 1007,5 hPa 0,0 mm 10,3 km/h (2 Bft) W 264 ° 0 min 0,000 mm 0,0 UV-I 0 W/m² -1,2 °C -2,9 °C 19,3 km/h (3 Bft)
06.03.2017 06:04 0,6 °C 0,6 °C 89 % 1007,5 hPa 0,0 mm 16,0 km/h (3 Bft) W-SW 244 ° 0 min 0,000 mm 0,0 UV-I 0 W/m² -1,0 °C -3,9 °C 24,1 km/h (4 Bft)
06.03.2017 06:05 0,6 °C 0,6 °C 88 % 1007,4 hPa 0,0 mm 11,8 km/h (2 Bft) S-SW 209 ° 0 min 0,000 mm 0,0 UV-I 0 W/m² -1,2 °C -3,0 °C 17,7 km/h (3 Bft)
06.03.2017 06:06 0,6 °C 0,6 °C 88 % 1007,4 hPa 0,0 mm 6,4 km/h (2 Bft) SW 234 ° 0 min 0,000 mm 0,0 UV-I 0 W/m² -1,2 °C -1,5 °C 8,0 km/h (2 Bft)
06.03.2017 06:07 0,6 °C 0,6 °C 88 % 1007,4 hPa 0,0 mm 8,0 km/h (2 Bft) SW 234 ° 0 min 0,000 mm 0,0 UV-I 0 W/m² -1,2 °C -2,0 °C 11,3 km/h (2 Bft)
06.03.2017 06:08 0,6 °C 0,6 °C 87 % 1007,3 hPa 0,0 mm 8,6 km/h (2 Bft) SW 226 ° 0 min 0,000 mm 0,0 UV-I 0 W/m² -1,3 °C -2,2 °C 14,5 km/h (3 Bft)
06.03.2017 06:09 0,7 °C 0,7 °C 87 % 1007,3 hPa 0,0 mm 10,9 km/h (2 Bft) W-SW 254 ° 0 min 0,000 mm 0,0 UV-I 0 W/m² -1,2 °C -2,7 °C 20,9 km/h (4 Bft)
06.03.2017 06:10 0,7 °C 0,7 °C 87 % 1007,3 hPa 0,0 mm 9,1 km/h (2 Bft) W-SW 246 ° 0 min 0,000 mm 0,0 UV-I 0 W/m² -1,2 °C -2,2 °C 16,1 km/h (3 Bft)
06.03.2017 06:11 0,7 °C 0,7 °C 87 % 1007,3 hPa 0,0 mm 6,5 km/h (2 Bft) W-SW 246 ° 0 min 0,000 mm 0,0 UV-I 0 W/m² -1,2 °C -1,4 °C 11,3 km/h (2 Bft)
06.03.2017 06:12 0,7 °C 0,7 °C 86 % 1007,3 hPa 0,0 mm 10,9 km/h (2 Bft) SW 229 ° 0 min 0,000 mm 0,0 UV-I 0 W/m² -1,4 °C -2,7 °C 12,9 km/h (3 Bft)
06.03.2017 06:13 0,7 °C 0,7 °C 86 % 1007,3 hPa 0,0 mm 7,2 km/h (2 Bft) W 260 ° 0 min 0,000 mm 0,0 UV-I 0 W/m² -1,4 °C -1,7 °C 11,3 km/h (2 Bft)
06.03.2017 06:14 0,7 °C 0,8 °C 86 % 1007,3 hPa 0,0 mm 6,3 km/h (2 Bft) W-SW 240 ° 0 min 0,000 mm 0,0 UV-I 0 W/m² -1,4 °C -1,3 °C 11,3 km/h (2 Bft)
06.03.2017 06:15 0,7 °C 0,7 °C 86 % 1007,4 hPa 0,0 mm 9,6 km/h (2 Bft) SW 235 ° 0 min 0,000 mm 0,0 UV-I 0 W/m² -1,4 °C -2,4 °C 16,1 km/h (3 Bft)
06.03.2017 06:16 0,7 °C 0,7 °C 86 % 1007,4 hPa 0,0 mm 8,5 km/h (2 Bft) W 259 ° 0 min 0,000 mm 0,0 UV-I 0 W/m² -1,4 °C -2,1 °C 16,1 km/h (3 Bft)
06.03.2017 06:17 0,7 °C 0,7 °C 86 % 1007,4 hPa 0,0 mm 10,2 km/h (2 Bft) W-SW 254 ° 0 min 0,000 mm 0,0 UV-I 0 W/m² -1,4 °C -2,5 °C 16,1 km/h (3 Bft)
06.03.2017 06:18 0,7 °C 0,7 °C 86 % 1007,4 hPa 0,0 mm 6,9 km/h (2 Bft) W 262 ° 0 min 0,000 mm 0,0 UV-I 0 W/m² -1,4 °C -1,6 °C 11,3 km/h (2 Bft)
06.03.2017 06:19 0,7 °C 0,7 °C 86 % 1007,4 hPa 0,0 mm 8,9 km/h (2 Bft) W-SW 244 ° 0 min 0,000 mm 0,0 UV-I 0 W/m² -1,4 °C -2,2 °C 11,3 km/h (2 Bft)
06.03.2017 06:20 0,7 °C 0,7 °C 86 % 1007,4 hPa 0,0 mm 9,1 km/h (2 Bft) W-SW 252 ° 0 min 0,000 mm 0,0 UV-I 0 W/m² -1,4 °C -2,2 °C 14,5 km/h (3 Bft)
06.03.2017 06:21 0,7 °C 0,7 °C 86 % 1007,3 hPa 0,0 mm 11,9 km/h (2 Bft) W 265 ° 0 min 0,000 mm 0,0 UV-I 0 W/m² -1,4 °C -2,9 °C 16,1 km/h (3 Bft)
06.03.2017 06:22 0,7 °C 0,7 °C 85 % 1007,3 hPa 0,0 mm 9,7 km/h (2 Bft) W-SW 257 ° 0 min 0,000 mm 0,0 UV-I 0 W/m² -1,5 °C -2,4 °C 16,1 km/h (3 Bft)
06.03.2017 06:23 0,7 °C 0,7 °C 85 % 1007,3 hPa 0,0 mm 8,9 km/h (2 Bft) W-SW 244 ° 0 min 0,000 mm 0,0 UV-I 0 W/m² -1,5 °C -2,2 °C 14,5 km/h (3 Bft)
06.03.2017 06:24 0,7 °C 0,7 °C 85 % 1007,3 hPa 0,0 mm 12,7 km/h (3 Bft) W-SW 248 ° 0 min 0,000 mm 0,0 UV-I 0 W/m² -1,5 °C -3,1 °C 16,1 km/h (3 Bft)
06.03.2017 06:25 0,7 °C 0,7 °C 85 % 1007,3 hPa 0,0 mm 10,4 km/h (2 Bft) W 259 ° 0 min 0,000 mm 0,0 UV-I 0 W/m² -1,5 °C -2,6 °C 12,9 km/h (3 Bft)
06.03.2017 06:26 0,7 °C 0,7 °C 85 % 1007,2 hPa 0,0 mm 9,3 km/h (2 Bft) W-SW 252 ° 0 min 0,000 mm 0,0 UV-I 0 W/m² -1,5 °C -2,3 °C 12,9 km/h (3 Bft)
06.03.2017 06:27 0,7 °C 0,7 °C 85 % 1007,3 hPa 0,0 mm 8,3 km/h (2 Bft) SW 225 ° 0 min 0,000 mm 0,0 UV-I 0 W/m² -1,5 °C -2,0 °C 14,5 km/h (3 Bft)
06.03.2017 06:28 0,7 °C 0,7 °C 85 % 1007,2 hPa 0,0 mm 7,7 km/h (2 Bft) SW 236 ° 0 min 0,000 mm 0,0 UV-I 0 W/m² -1,5 °C -1,8 °C 12,9 km/h (3 Bft)
06.03.2017 06:29 0,7 °C 0,7 °C 85 % 1007,2 hPa 0,0 mm 6,9 km/h (2 Bft) SW 236 ° 0 min 0,000 mm 0,0 UV-I 0 W/m² -1,5 °C -1,6 °C 9,7 km/h (2 Bft)
06.03.2017 06:30 0,7 °C 0,7 °C 85 % 1007,1 hPa 0,0 mm 8,1 km/h (2 Bft) W 275 ° 0 min 0,000 mm 0,0 UV-I 0 W/m² -1,5 °C -1,9 °C 14,5 km/h (3 Bft)
06.03.2017 06:31 0,7 °C 0,7 °C 84 % 1007,1 hPa 0,0 mm 7,8 km/h (2 Bft) W-SW 250 ° 0 min 0,000 mm 0,0 UV-I 0 W/m² -1,7 °C -1,9 °C 14,5 km/h (3 Bft)
06.03.2017 06:32 0,7 °C 0,7 °C 84 % 1007,0 hPa 0,0 mm 6,8 km/h (2 Bft) S-SW 213 ° 0 min 0,000 mm 0,0 UV-I 0 W/m² -1,7 °C -1,5 °C 12,9 km/h (3 Bft)
06.03.2017 06:33 0,8 °C 0,8 °C 84 % 1007,0 hPa 0,0 mm 8,3 km/h (2 Bft) W 265 ° 0 min 0,000 mm 0,0 UV-I 0 W/m² -1,6 °C -1,9 °C 11,3 km/h (2 Bft)
06.03.2017 06:34 0,8 °C 0,8 °C 84 % 1007,0 hPa 0,0 mm 7,7 km/h (2 Bft) W-SW 239 ° 0 min 0,000 mm 0,0 UV-I 0 W/m² -1,6 °C -1,7 °C 12,9 km/h (3 Bft)
06.03.2017 06:35 0,8 °C 0,8 °C 84 % 1007,0 hPa 0,0 mm 11,2 km/h (2 Bft) W-SW 248 ° 0 min 0,000 mm 0,0 UV-I 0 W/m² -1,6 °C -2,7 °C 16,1 km/h (3 Bft)
06.03.2017 06:36 0,8 °C 0,8 °C 83 % 1006,9 hPa 0,0 mm 9,3 km/h (2 Bft) W-SW 256 ° 0 min 0,000 mm 0,0 UV-I 0 W/m² -1,8 °C -2,2 °C 14,5 km/h (3 Bft)
06.03.2017 06:37 0,8 °C 0,8 °C 83 % 1006,9 hPa 0,0 mm 10,5 km/h (2 Bft) W-SW 240 ° 0 min 0,000 mm 0,0 UV-I 0 W/m² -1,8 °C -2,5 °C 14,5 km/h (3 Bft)
06.03.2017 06:38 0,8 °C 0,8 °C 84 % 1006,9 hPa 0,0 mm 10,5 km/h (2 Bft) W-SW 258 ° 0 min 0,000 mm 0,0 UV-I 0 W/m² -1,6 °C -2,5 °C 14,5 km/h (3 Bft)
06.03.2017 06:39 0,8 °C 0,8 °C 83 % 1006,9 hPa 0,0 mm 6,9 km/h (2 Bft) W-SW 239 ° 0 min 0,000 mm 0,0 UV-I 0 W/m² -1,8 °C -1,4 °C 9,7 km/h (2 Bft)
06.03.2017 06:40 0,8 °C 0,8 °C 83 % 1006,9 hPa 0,0 mm 9,1 km/h (2 Bft) W-SW 254 ° 0 min 0,000 mm 0,0 UV-I 0 W/m² -1,8 °C -2,1 °C 12,9 km/h (3 Bft)
06.03.2017 06:41 0,8 °C 0,8 °C 84 % 1007,0 hPa 0,0 mm 10,5 km/h (2 Bft) W 264 ° 0 min 0,000 mm 0,0 UV-I 0 W/m² -1,6 °C -2,5 °C 14,5 km/h (3 Bft)
06.03.2017 06:42 0,8 °C 0,8 °C 83 % 1007,0 hPa 0,0 mm 9,3 km/h (2 Bft) W 275 ° 0 min 0,000 mm 0,0 UV-I 0 W/m² -1,8 °C -2,2 °C 12,9 km/h (3 Bft)
06.03.2017 06:43 0,8 °C 0,8 °C 83 % 1006,9 hPa 0,0 mm 10,9 km/h (2 Bft) W-SW 252 ° 0 min 0,000 mm 0,0 UV-I 0 W/m² -1,8 °C -2,6 °C 14,5 km/h (3 Bft)
06.03.2017 06:44 0,7 °C 0,8 °C 84 % 1007,0 hPa 0,0 mm 10,4 km/h (2 Bft) W-SW 257 ° 0 min 0,000 mm 0,0 UV-I 0 W/m² -1,7 °C -2,6 °C 14,5 km/h (3 Bft)
06.03.2017 06:45 0,7 °C 0,7 °C 84 % 1007,0 hPa 0,0 mm 9,5 km/h (2 Bft) W-SW 246 ° 0 min 0,000 mm 0,0 UV-I 0 W/m² -1,7 °C -2,3 °C 11,3 km/h (2 Bft)
06.03.2017 06:46 0,7 °C 0,8 °C 84 % 1006,9 hPa 0,0 mm 7,5 km/h (2 Bft) W-SW 240 ° 0 min 0,000 mm 0,0 UV-I 0 W/m² -1,7 °C -1,8 °C 11,3 km/h (2 Bft)
06.03.2017 06:47 0,7 °C 0,7 °C 84 % 1006,9 hPa 0,0 mm 10,7 km/h (2 Bft) W-SW 254 ° 0 min 0,000 mm 0,0 UV-I 0 W/m² -1,7 °C -2,7 °C 12,9 km/h (3 Bft)
06.03.2017 06:48 0,7 °C 0,7 °C 84 % 1006,9 hPa 0,0 mm 8,2 km/h (2 Bft) W 267 ° 0 min 0,000 mm 0,0 UV-I 0 W/m² -1,7 °C -2,0 °C 12,9 km/h (3 Bft)
06.03.2017 06:49 0,7 °C 0,7 °C 84 % 1006,9 hPa 0,0 mm 5,3 km/h (1 Bft) W 266 ° 0 min 0,000 mm 0,0 UV-I 0 W/m² -1,7 °C -0,9 °C 6,4 km/h (2 Bft)
06.03.2017 06:50 0,7 °C 0,7 °C 84 % 1006,9 hPa 0,0 mm 9,2 km/h (2 Bft) W-SW 254 ° 0 min 0,000 mm 0,0 UV-I 0 W/m² -1,7 °C -2,3 °C 16,1 km/h (3 Bft)
06.03.2017 06:51 0,7 °C 0,7 °C 84 % 1006,9 hPa 0,0 mm 8,4 km/h (2 Bft) W-SW 258 ° 0 min 0,000 mm 0,0 UV-I 0 W/m² -1,7 °C -2,0 °C 12,9 km/h (3 Bft)
06.03.2017 06:52 0,7 °C 0,7 °C 84 % 1006,8 hPa 0,0 mm 7,6 km/h (2 Bft) W-SW 258 ° 0 min 0,000 mm 0,0 UV-I 0 W/m² -1,7 °C -1,8 °C 12,9 km/h (3 Bft)
06.03.2017 06:53 0,7 °C 0,7 °C 83 % 1006,8 hPa 0,0 mm 8,3 km/h (2 Bft) W-SW 244 ° 0 min 0,000 mm 0,0 UV-I 0 W/m² -1,8 °C -2,0 °C 12,9 km/h (3 Bft)
06.03.2017 06:54 0,8 °C 0,8 °C 83 % 1006,8 hPa 0,0 mm 6,7 km/h (2 Bft) W-NW 292 ° 0 min 0,000 mm 0,0 UV-I 5 W/m² -1,8 °C -1,4 °C 11,3 km/h (2 Bft)
06.03.2017 06:55 0,8 °C 0,8 °C 83 % 1006,8 hPa 0,0 mm 7,4 km/h (2 Bft) W-SW 247 ° 0 min 0,000 mm 0,0 UV-I 5 W/m² -1,8 °C -1,6 °C 12,9 km/h (3 Bft)
06.03.2017 06:56 0,8 °C 0,8 °C 82 % 1006,8 hPa 0,0 mm 9,5 km/h (2 Bft) W-SW 248 ° 0 min 0,000 mm 0,0 UV-I 5 W/m² -1,9 °C -2,2 °C 20,9 km/h (4 Bft)
06.03.2017 06:57 0,8 °C 0,8 °C 82 % 1006,8 hPa 0,0 mm 9,1 km/h (2 Bft) W-SW 239 ° 0 min 0,000 mm 0,0 UV-I 7 W/m² -1,9 °C -2,1 °C 20,9 km/h (4 Bft)
06.03.2017 06:58 0,8 °C 0,8 °C 82 % 1006,8 hPa 0,0 mm 7,5 km/h (2 Bft) W 277 ° 0 min 0,000 mm 0,0 UV-I 7 W/m² -1,9 °C -1,6 °C 11,3 km/h (2 Bft)
06.03.2017 06:59 0,9 °C 0,9 °C 82 % 1006,8 hPa 0,0 mm 11,1 km/h (2 Bft) W-SW 240 ° 0 min 0,000 mm 0,0 UV-I 9 W/m² -1,8 °C -2,5 °C 14,5 km/h (3 Bft)
06.03.2017 07:00 0,8 °C 0,9 °C 82 % 1006,8 hPa 0,0 mm 6,4 km/h (2 Bft) SW 223 ° 0 min 0,000 mm 0,0 UV-I 9 W/m² -1,9 °C -1,3 °C 9,7 km/h (2 Bft)
06.03.2017 07:01 0,9 °C 0,9 °C 81 % 1006,8 hPa 0,0 mm 5,9 km/h (2 Bft) W-SW 257 ° 0 min 0,000 mm 0,0 UV-I 11 W/m² -2,0 °C -1,0 °C 11,3 km/h (2 Bft)
06.03.2017 07:02 0,9 °C 0,9 °C 81 % 1006,8 hPa 0,0 mm 6,1 km/h (2 Bft) W-SW 252 ° 0 min 0,000 mm 0,0 UV-I 12 W/m² -2,0 °C -1,0 °C 9,7 km/h (2 Bft)
06.03.2017 07:03 0,9 °C 0,9 °C 81 % 1006,8 hPa 0,0 mm 9,9 km/h (2 Bft) W 260 ° 0 min 0,000 mm 0,0 UV-I 12 W/m² -2,0 °C -2,2 °C 14,5 km/h (3 Bft)
06.03.2017 07:04 0,9 °C 0,9 °C 81 % 1006,8 hPa 0,0 mm 6,9 km/h (2 Bft) SW 232 ° 0 min 0,000 mm 0,0 UV-I 12 W/m² -2,0 °C -1,3 °C 11,3 km/h (2 Bft)
06.03.2017 07:05 1,0 °C 1,0 °C 81 % 1006,8 hPa 0,0 mm 6,9 km/h (2 Bft) SW 232 ° 0 min 0,000 mm 0,0 UV-I 14 W/m² -1,9 °C -1,2 °C 9,7 km/h (2 Bft)
06.03.2017 07:06 1,0 °C 1,0 °C 81 % 1006,7 hPa 0,0 mm 7,1 km/h (2 Bft) W 260 ° 0 min 0,000 mm 0,0 UV-I 14 W/m² -1,9 °C -1,3 °C 11,3 km/h (2 Bft)
06.03.2017 07:07 1,0 °C 1,0 °C 81 % 1006,7 hPa 0,0 mm 8,0 km/h (2 Bft) W-SW 246 ° 0 min 0,000 mm 0,0 UV-I 16 W/m² -1,9 °C -1,6 °C 14,5 km/h (3 Bft)
06.03.2017 07:08 1,0 °C 1,0 °C 81 % 1006,7 hPa 0,0 mm 11,4 km/h (2 Bft) W 260 ° 0 min 0,000 mm 0,0 UV-I 18 W/m² -1,9 °C -2,5 °C 16,1 km/h (3 Bft)
06.03.2017 07:09 1,1 °C 1,1 °C 80 % 1006,7 hPa 0,0 mm 8,6 km/h (2 Bft) SW 234 ° 0 min 0,000 mm 0,0 UV-I 18 W/m² -2,0 °C -1,6 °C 12,9 km/h (3 Bft)
06.03.2017 07:10 1,1 °C 1,1 °C 81 % 1006,7 hPa 0,0 mm 8,9 km/h (2 Bft) SW 229 ° 0 min 0,000 mm 0,0 UV-I 19 W/m² -1,8 °C -1,7 °C 11,3 km/h (2 Bft)
06.03.2017 07:11 1,1 °C 1,1 °C 81 % 1006,7 hPa 0,0 mm 10,9 km/h (2 Bft) W 263 ° 0 min 0,000 mm 0,0 UV-I 19 W/m² -1,8 °C -2,2 °C 14,5 km/h (3 Bft)
06.03.2017 07:12 1,1 °C 1,1 °C 80 % 1006,7 hPa 0,0 mm 9,4 km/h (2 Bft) W-SW 254 ° 0 min 0,000 mm 0,0 UV-I 21 W/m² -2,0 °C -1,8 °C 12,9 km/h (3 Bft)
06.03.2017 07:13 1,2 °C 1,2 °C 80 % 1006,7 hPa 0,0 mm 9,2 km/h (2 Bft) W-SW 240 ° 0 min 0,000 mm 0,0 UV-I 21 W/m² -1,9 °C -1,7 °C 14,5 km/h (3 Bft)
06.03.2017 07:14 1,2 °C 1,2 °C 80 % 1006,6 hPa 0,0 mm 9,9 km/h (2 Bft) SW 227 ° 0 min 0,000 mm 0,0 UV-I 21 W/m² -1,9 °C -1,9 °C 14,5 km/h (3 Bft)
06.03.2017 07:15 1,2 °C 1,2 °C 80 % 1006,6 hPa 0,0 mm 10,1 km/h (2 Bft) W-SW 248 ° 0 min 0,000 mm 0,0 UV-I 21 W/m² -1,9 °C -1,9 °C 14,5 km/h (3 Bft)
06.03.2017 07:16 1,3 °C 1,3 °C 80 % 1006,6 hPa 0,0 mm 9,9 km/h (2 Bft) W 262 ° 0 min 0,000 mm 0,0 UV-I 21 W/m² -1,8 °C -1,7 °C 16,1 km/h (3 Bft)
06.03.2017 07:17 1,3 °C 1,3 °C 80 % 1006,6 hPa 0,0 mm 13,5 km/h (3 Bft) W-SW 245 ° 0 min 0,000 mm 0,0 UV-I 21 W/m² -1,8 °C -2,5 °C 16,1 km/h (3 Bft)
06.03.2017 07:18 1,3 °C 1,3 °C 80 % 1006,6 hPa 0,0 mm 9,8 km/h (2 Bft) SW 229 ° 0 min 0,000 mm 0,0 UV-I 21 W/m² -1,8 °C -1,7 °C 16,1 km/h (3 Bft)
06.03.2017 07:19 1,3 °C 1,3 °C 80 % 1006,6 hPa 0,0 mm 7,5 km/h (2 Bft) SW 232 ° 0 min 0,000 mm 0,0 UV-I 23 W/m² -1,8 °C -1,1 °C 12,9 km/h (3 Bft)
06.03.2017 07:20 1,3 °C 1,4 °C 80 % 1006,7 hPa 0,0 mm 10,5 km/h (2 Bft) W 259 ° 0 min 0,000 mm 0,0 UV-I 25 W/m² -1,8 °C -1,9 °C 14,5 km/h (3 Bft)
06.03.2017 07:21 1,3 °C 1,4 °C 80 % 1006,6 hPa 0,0 mm 10,9 km/h (2 Bft) W-SW 246 ° 0 min 0,000 mm 0,0 UV-I 26 W/m² -1,8 °C -2,0 °C 17,7 km/h (3 Bft)
06.03.2017 07:22 1,4 °C 1,4 °C 80 % 1006,6 hPa 0,0 mm 9,8 km/h (2 Bft) W 271 ° 0 min 0,000 mm 0,0 UV-I 26 W/m² -1,7 °C -1,6 °C 14,5 km/h (3 Bft)
06.03.2017 07:23 1,4 °C 1,4 °C 79 % 1006,6 hPa 0,0 mm 10,4 km/h (2 Bft) W-SW 249 ° 0 min 0,000 mm 0,0 UV-I 28 W/m² -1,8 °C -1,7 °C 16,1 km/h (3 Bft)
06.03.2017 07:24 1,5 °C 1,5 °C 79 % 1006,6 hPa 0,0 mm 10,2 km/h (2 Bft) W-SW 244 ° 0 min 0,000 mm 0,0 UV-I 30 W/m² -1,7 °C -1,6 °C 16,1 km/h (3 Bft)
06.03.2017 07:25 1,5 °C 1,5 °C 79 % 1006,5 hPa 0,0 mm 11,3 km/h (2 Bft) SW 221 ° 0 min 0,000 mm 0,0 UV-I 32 W/m² -1,7 °C -1,8 °C 14,5 km/h (3 Bft)
06.03.2017 07:26 1,6 °C 1,6 °C 79 % 1006,6 hPa 0,0 mm 11,8 km/h (2 Bft) SW 234 ° 0 min 0,000 mm 0,0 UV-I 32 W/m² -1,6 °C -1,8 °C 14,5 km/h (3 Bft)
06.03.2017 07:27 1,6 °C 1,6 °C 79 % 1006,6 hPa 0,0 mm 10,6 km/h (2 Bft) SW 233 ° 0 min 0,000 mm 0,0 UV-I 33 W/m² -1,6 °C -1,5 °C 19,3 km/h (3 Bft)
06.03.2017 07:28 1,6 °C 1,6 °C 78 % 1006,6 hPa 0,0 mm 9,9 km/h (2 Bft) SW 231 ° 0 min 0,000 mm 0,0 UV-I 33 W/m² -1,8 °C -1,4 °C 12,9 km/h (3 Bft)
06.03.2017 07:29 1,6 °C 1,6 °C 78 % 1006,7 hPa 0,0 mm 12,4 km/h (3 Bft) W 273 ° 0 min 0,000 mm 0,0 UV-I 35 W/m² -1,8 °C -1,9 °C 19,3 km/h (3 Bft)
06.03.2017 07:30 1,7 °C 1,7 °C 78 % 1006,6 hPa 0,0 mm 12,8 km/h (3 Bft) W-SW 243 ° 0 min 0,000 mm 0,0 UV-I 35 W/m² -1,7 °C -1,9 °C 20,9 km/h (4 Bft)
06.03.2017 07:31 1,7 °C 1,7 °C 78 % 1006,6 hPa 0,0 mm 10,2 km/h (2 Bft) SW 227 ° 0 min 0,000 mm 0,0 UV-I 35 W/m² -1,7 °C -1,3 °C 14,5 km/h (3 Bft)
06.03.2017 07:32 1,7 °C 1,7 °C 78 % 1006,6 hPa 0,0 mm 9,0 km/h (2 Bft) W-SW 250 ° 0 min 0,000 mm 0,0 UV-I 35 W/m² -1,7 °C -1,0 °C 14,5 km/h (3 Bft)
06.03.2017 07:33 1,7 °C 1,7 °C 77 % 1006,5 hPa 0,0 mm 14,3 km/h (3 Bft) W-SW 240 ° 0 min 0,000 mm 0,0 UV-I 33 W/m² -1,9 °C -2,2 °C 19,3 km/h (3 Bft)
06.03.2017 07:34 1,8 °C 1,8 °C 77 % 1006,6 hPa 0,0 mm 15,6 km/h (3 Bft) W-SW 248 ° 0 min 0,000 mm 0,0 UV-I 33 W/m² -1,8 °C -2,3 °C 20,9 km/h (4 Bft)
06.03.2017 07:35 1,8 °C 1,8 °C 78 % 1006,7 hPa 0,0 mm 11,1 km/h (2 Bft) SW 227 ° 0 min 0,000 mm 0,0 UV-I 33 W/m² -1,6 °C -1,4 °C 19,3 km/h (3 Bft)
06.03.2017 07:36 1,8 °C 1,8 °C 78 % 1006,6 hPa 0,0 mm 11,1 km/h (2 Bft) W 263 ° 0 min 0,000 mm 0,0 UV-I 32 W/m² -1,6 °C -1,4 °C 17,7 km/h (3 Bft)
06.03.2017 07:37 1,8 °C 1,8 °C 77 % 1006,6 hPa 0,0 mm 16,6 km/h (3 Bft) W 263 ° 0 min 0,000 mm 0,0 UV-I 32 W/m² -1,8 °C -2,5 °C 25,7 km/h (4 Bft)
06.03.2017 07:38 1,8 °C 1,8 °C 78 % 1006,5 hPa 0,0 mm 16,0 km/h (3 Bft) W-SW 247 ° 0 min 0,000 mm 0,0 UV-I 30 W/m² -1,6 °C -2,4 °C 25,7 km/h (4 Bft)
06.03.2017 07:39 1,8 °C 1,8 °C 78 % 1006,6 hPa 0,0 mm 15,2 km/h (3 Bft) W 276 ° 0 min 0,000 mm 0,0 UV-I 30 W/m² -1,6 °C -2,2 °C 22,5 km/h (4 Bft)
06.03.2017 07:40 1,7 °C 1,8 °C 78 % 1006,5 hPa 0,0 mm 17,1 km/h (3 Bft) W-SW 250 ° 0 min 0,000 mm 0,0 UV-I 30 W/m² -1,7 °C -2,7 °C 25,7 km/h (4 Bft)
06.03.2017 07:41 1,7 °C 1,8 °C 77 % 1006,6 hPa 0,0 mm 9,5 km/h (2 Bft) W-SW 254 ° 0 min 0,000 mm 0,0 UV-I 28 W/m² -1,9 °C -1,2 °C 14,5 km/h (3 Bft)
06.03.2017 07:42 1,8 °C 1,8 °C 78 % 1006,6 hPa 0,0 mm 11,5 km/h (2 Bft) W-SW 252 ° 0 min 0,000 mm 0,0 UV-I 28 W/m² -1,6 °C -1,5 °C 16,1 km/h (3 Bft)
06.03.2017 07:43 1,8 °C 1,8 °C 78 % 1006,6 hPa 0,0 mm 13,8 km/h (3 Bft) W-SW 249 ° 0 min 0,000 mm 0,0 UV-I 28 W/m² -1,6 °C -2,0 °C 22,5 km/h (4 Bft)
06.03.2017 07:44 1,8 °C 1,8 °C 78 % 1006,6 hPa 0,0 mm 10,4 km/h (2 Bft) W-SW 252 ° 0 min 0,000 mm 0,0 UV-I 26 W/m² -1,6 °C -1,3 °C 19,3 km/h (3 Bft)
06.03.2017 07:45 1,8 °C 1,8 °C 78 % 1006,6 hPa 0,0 mm 9,3 km/h (2 Bft) W 269 ° 0 min 0,000 mm 0,0 UV-I 26 W/m² -1,6 °C -1,0 °C 16,1 km/h (3 Bft)
06.03.2017 07:46 1,7 °C 1,8 °C 78 % 1006,6 hPa 0,0 mm 17,1 km/h (3 Bft) W-SW 243 ° 0 min 0,000 mm 0,0 UV-I 26 W/m² -1,7 °C -2,7 °C 30,6 km/h (5 Bft)
06.03.2017 07:47 1,8 °C 1,8 °C 77 % 1006,5 hPa 0,0 mm 16,1 km/h (3 Bft) SW 228 ° 0 min 0,000 mm 0,0 UV-I 28 W/m² -1,8 °C -2,4 °C 24,1 km/h (4 Bft)
06.03.2017 07:48 1,8 °C 1,8 °C 77 % 1006,5 hPa 0,0 mm 11,3 km/h (2 Bft) W-SW 240 ° 0 min 0,000 mm 0,0 UV-I 32 W/m² -1,8 °C -1,5 °C 14,5 km/h (3 Bft)
06.03.2017 07:49 1,8 °C 1,8 °C 77 % 1006,6 hPa 0,0 mm 12,7 km/h (3 Bft) W-SW 241 ° 0 min 0,000 mm 0,0 UV-I 33 W/m² -1,8 °C -1,8 °C 17,7 km/h (3 Bft)
06.03.2017 07:50 1,8 °C 1,8 °C 78 % 1006,6 hPa 0,0 mm 12,5 km/h (3 Bft) W-SW 237 ° 0 min 0,000 mm 0,0 UV-I 37 W/m² -1,6 °C -1,7 °C 17,7 km/h (3 Bft)
06.03.2017 07:51 1,8 °C 1,8 °C 77 % 1006,5 hPa 0,0 mm 7,2 km/h (2 Bft) W-SW 239 ° 0 min 0,000 mm 0,0 UV-I 42 W/m² -1,8 °C -0,4 °C 12,9 km/h (3 Bft)
06.03.2017 07:52 1,8 °C 1,8 °C 78 % 1006,5 hPa 0,0 mm 8,0 km/h (2 Bft) SW 217 ° 0 min 0,000 mm 0,0 UV-I 47 W/m² -1,6 °C -0,6 °C 11,3 km/h (2 Bft)
06.03.2017 07:53 1,8 °C 1,8 °C 78 % 1006,5 hPa 0,0 mm 9,3 km/h (2 Bft) W-SW 246 ° 0 min 0,000 mm 0,0 UV-I 54 W/m² -1,6 °C -1,0 °C 12,9 km/h (3 Bft)
06.03.2017 07:54 1,8 °C 1,8 °C 78 % 1006,5 hPa 0,0 mm 9,5 km/h (2 Bft) W-SW 253 ° 0 min 0,000 mm 0,0 UV-I 77 W/m² -1,6 °C -1,0 °C 17,7 km/h (3 Bft)
06.03.2017 07:55 1,8 °C 1,8 °C 78 % 1006,5 hPa 0,0 mm 13,3 km/h (3 Bft) W-SW 250 ° 0 min 0,000 mm 0,0 UV-I 93 W/m² -1,6 °C -1,9 °C 17,7 km/h (3 Bft)
06.03.2017 07:56 1,9 °C 1,9 °C 77 % 1006,5 hPa 0,0 mm 10,3 km/h (2 Bft) W 261 ° 0 min 0,000 mm 0,0 UV-I 109 W/m² -1,7 °C -1,1 °C 16,1 km/h (3 Bft)
06.03.2017 07:57 1,9 °C 1,9 °C 78 % 1006,6 hPa 0,0 mm 8,4 km/h (2 Bft) W 263 ° 0 min 0,000 mm 0,0 UV-I 116 W/m² -1,5 °C -0,6 °C 14,5 km/h (3 Bft)
06.03.2017 07:58 2,0 °C 2,0 °C 78 % 1006,6 hPa 0,0 mm 15,3 km/h (3 Bft) W 259 ° 0 min 0,000 mm 0,0 UV-I 107 W/m² -1,4 °C -2,0 °C 22,5 km/h (4 Bft)
06.03.2017 07:59 2,0 °C 2,0 °C 78 % 1006,5 hPa 0,0 mm 16,4 km/h (3 Bft) W-SW 249 ° 0 min 0,000 mm 0,0 UV-I 91 W/m² -1,4 °C -2,2 °C 20,9 km/h (4 Bft)
06.03.2017 08:00 2,0 °C 2,0 °C 77 % 1006,6 hPa 0,0 mm 15,0 km/h (3 Bft) W 277 ° 0 min 0,000 mm 0,0 UV-I 63 W/m² -1,6 °C -2,0 °C 19,3 km/h (3 Bft)
06.03.2017 08:01 2,1 °C 2,1 °C 77 % 1006,6 hPa 0,0 mm 11,1 km/h (2 Bft) W-SW 251 ° 0 min 0,025 mm 0,0 UV-I 56 W/m² -1,5 °C -1,1 °C 16,1 km/h (3 Bft)
06.03.2017 08:02 2,1 °C 2,1 °C 77 % 1006,6 hPa 0,0 mm 9,3 km/h (2 Bft) SW 227 ° 0 min 0,000 mm 0,0 UV-I 53 W/m² -1,5 °C -0,6 °C 11,3 km/h (2 Bft)
06.03.2017 08:03 2,1 °C 2,1 °C 76 % 1006,5 hPa 0,0 mm 10,3 km/h (2 Bft) SW 236 ° 0 min 0,000 mm 0,0 UV-I 47 W/m² -1,7 °C -0,9 °C 12,9 km/h (3 Bft)
06.03.2017 08:04 2,2 °C 2,2 °C 76 % 1006,5 hPa 0,0 mm 5,7 km/h (1 Bft) W-SW 251 ° 0 min 0,000 mm 0,0 UV-I 42 W/m² -1,6 °C 0,6 °C 8,0 km/h (2 Bft)
06.03.2017 08:05 2,2 °C 2,2 °C 77 % 1006,5 hPa 0,0 mm 6,4 km/h (2 Bft) W 267 ° 0 min 0,000 mm 0,0 UV-I 42 W/m² -1,4 °C 0,4 °C 9,7 km/h (2 Bft)
06.03.2017 08:06 2,2 °C 2,2 °C 77 % 1006,5 hPa 0,0 mm 7,0 km/h (2 Bft) W 266 ° 0 min 0,000 mm 0,0 UV-I 42 W/m² -1,4 °C 0,2 °C 11,3 km/h (2 Bft)
06.03.2017 08:07 2,2 °C 2,2 °C 78 % 1006,4 hPa 0,0 mm 7,5 km/h (2 Bft) S-SW 210 ° 0 min 0,000 mm 0,0 UV-I 42 W/m² -1,2 °C -0,0 °C 9,7 km/h (2 Bft)
06.03.2017 08:08 2,2 °C 2,2 °C 76 % 1006,5 hPa 0,0 mm 9,5 km/h (2 Bft) W 267 ° 0 min 0,000 mm 0,0 UV-I 44 W/m² -1,6 °C -0,6 °C 16,1 km/h (3 Bft)
06.03.2017 08:09 2,2 °C 2,2 °C 76 % 1006,5 hPa 0,0 mm 11,0 km/h (2 Bft) W 263 ° 0 min 0,000 mm 0,0 UV-I 46 W/m² -1,6 °C -0,9 °C 16,1 km/h (3 Bft)
06.03.2017 08:10 2,2 °C 2,3 °C 76 % 1006,4 hPa 0,0 mm 10,9 km/h (2 Bft) W-SW 246 ° 0 min 0,000 mm 0,0 UV-I 47 W/m² -1,6 °C -0,9 °C 16,1 km/h (3 Bft)
06.03.2017 08:11 2,3 °C 2,3 °C 75 % 1006,4 hPa 0,0 mm 13,2 km/h (3 Bft) S-SW 209 ° 0 min 0,000 mm 0,0 UV-I 49 W/m² -1,7 °C -1,3 °C 19,3 km/h (3 Bft)
06.03.2017 08:12 2,3 °C 2,3 °C 76 % 1006,4 hPa 0,0 mm 11,7 km/h (2 Bft) W 268 ° 0 min 0,000 mm 0,0 UV-I 49 W/m² -1,5 °C -1,0 °C 14,5 km/h (3 Bft)
06.03.2017 08:13 2,3 °C 2,4 °C 75 % 1006,4 hPa 0,0 mm 12,2 km/h (2 Bft) W-SW 248 ° 0 min 0,000 mm 0,0 UV-I 47 W/m² -1,7 °C -1,1 °C 17,7 km/h (3 Bft)
06.03.2017 08:14 2,4 °C 2,4 °C 75 % 1006,4 hPa 0,0 mm 8,6 km/h (2 Bft) W-SW 253 ° 0 min 0,000 mm 0,0 UV-I 47 W/m² -1,6 °C -0,1 °C 12,9 km/h (3 Bft)
06.03.2017 08:15 2,4 °C 2,4 °C 75 % 1006,4 hPa 0,0 mm 7,3 km/h (2 Bft) W-SW 253 ° 0 min 0,000 mm 0,0 UV-I 49 W/m² -1,6 °C 0,3 °C 9,7 km/h (2 Bft)
06.03.2017 08:16 2,3 °C 2,4 °C 76 % 1006,3 hPa 0,0 mm 6,5 km/h (2 Bft) W-SW 257 ° 0 min 0,000 mm 0,0 UV-I 54 W/m² -1,5 °C 0,4 °C 11,3 km/h (2 Bft)
06.03.2017 08:17 2,4 °C 2,4 °C 76 % 1006,4 hPa 0,0 mm 9,4 km/h (2 Bft) W-SW 258 ° 0 min 0,000 mm 0,0 UV-I 60 W/m² -1,4 °C -0,3 °C 12,9 km/h (3 Bft)
06.03.2017 08:18 2,4 °C 2,4 °C 75 % 1006,3 hPa 0,0 mm 6,7 km/h (2 Bft) W-SW 249 ° 0 min 0,000 mm 0,5 UV-I 74 W/m² -1,6 °C 0,5 °C 9,7 km/h (2 Bft)
06.03.2017 08:19 2,4 °C 2,4 °C 75 % 1006,3 hPa 0,0 mm 6,5 km/h (2 Bft) SW 230 ° 0 min 0,000 mm 0,5 UV-I 86 W/m² -1,6 °C 0,6 °C 11,3 km/h (2 Bft)
06.03.2017 08:20 2,5 °C 2,5 °C 75 % 1006,3 hPa 0,0 mm 13,4 km/h (3 Bft) W-SW 250 ° 0 min 0,000 mm 0,5 UV-I 102 W/m² -1,5 °C -1,0 °C 20,9 km/h (4 Bft)
06.03.2017 08:21 2,5 °C 2,5 °C 74 % 1006,3 hPa 0,0 mm 11,7 km/h (2 Bft) SW 234 ° 0 min 0,000 mm 0,5 UV-I 121 W/m² -1,7 °C -0,7 °C 17,7 km/h (3 Bft)
06.03.2017 08:22 2,6 °C 2,6 °C 74 % 1006,3 hPa 0,0 mm 10,7 km/h (2 Bft) W 259 ° 0 min 0,000 mm 0,6 UV-I 141 W/m² -1,6 °C -0,4 °C 19,3 km/h (3 Bft)
06.03.2017 08:23 2,6 °C 2,6 °C 74 % 1006,3 hPa 0,0 mm 15,7 km/h (3 Bft) W-SW 247 ° 0 min 0,000 mm 0,6 UV-I 155 W/m² -1,6 °C -1,3 °C 17,7 km/h (3 Bft)
06.03.2017 08:24 2,7 °C 2,7 °C 74 % 1006,3 hPa 0,0 mm 9,3 km/h (2 Bft) W-SW 253 ° 0 min 0,000 mm 0,6 UV-I 148 W/m² -1,5 °C 0,1 °C 12,9 km/h (3 Bft)
06.03.2017 08:25 2,7 °C 2,7 °C 74 % 1006,2 hPa 0,0 mm 8,2 km/h (2 Bft) W-NW 284 ° 0 min 0,000 mm 0,6 UV-I 137 W/m² -1,5 °C 0,4 °C 12,9 km/h (3 Bft)
06.03.2017 08:26 2,7 °C 2,7 °C 74 % 1006,3 hPa 0,0 mm 9,5 km/h (2 Bft) SW 236 ° 0 min 0,000 mm 0,6 UV-I 127 W/m² -1,5 °C 0,0 °C 14,5 km/h (3 Bft)
06.03.2017 08:27 2,7 °C 2,7 °C 73 % 1006,3 hPa 0,0 mm 9,0 km/h (2 Bft) W-SW 244 ° 0 min 0,000 mm 0,6 UV-I 118 W/m² -1,6 °C 0,2 °C 12,9 km/h (3 Bft)
06.03.2017 08:28 2,8 °C 2,8 °C 74 % 1006,3 hPa 0,0 mm 12,7 km/h (3 Bft) W 261 ° 0 min 0,000 mm 0,6 UV-I 113 W/m² -1,4 °C -0,5 °C 17,7 km/h (3 Bft)
06.03.2017 08:29 2,8 °C 2,8 °C 74 % 1006,3 hPa 0,0 mm 11,7 km/h (2 Bft) W-SW 252 ° 0 min 0,000 mm 0,6 UV-I 105 W/m² -1,4 °C -0,3 °C 16,1 km/h (3 Bft)
06.03.2017 08:30 2,7 °C 2,8 °C 74 % 1006,2 hPa 0,0 mm 9,9 km/h (2 Bft) W-SW 250 ° 0 min 0,000 mm 0,6 UV-I 100 W/m² -1,5 °C -0,1 °C 14,5 km/h (3 Bft)
06.03.2017 08:31 2,7 °C 2,8 °C 74 % 1006,2 hPa 0,0 mm 8,4 km/h (2 Bft) W-SW 248 ° 0 min 0,000 mm 0,6 UV-I 90 W/m² -1,5 °C 0,3 °C 11,3 km/h (2 Bft)
06.03.2017 08:32 2,7 °C 2,7 °C 75 % 1006,3 hPa 0,0 mm 11,9 km/h (2 Bft) W-SW 251 ° 0 min 0,000 mm 0,6 UV-I 79 W/m² -1,3 °C -0,5 °C 16,1 km/h (3 Bft)
06.03.2017 08:33 2,7 °C 2,7 °C 74 % 1006,2 hPa 0,0 mm 8,3 km/h (2 Bft) W-SW 253 ° 0 min 0,000 mm 0,6 UV-I 72 W/m² -1,5 °C 0,3 °C 14,5 km/h (3 Bft)
06.03.2017 08:34 2,8 °C 2,8 °C 74 % 1006,2 hPa 0,0 mm 10,4 km/h (2 Bft) W-SW 254 ° 0 min 0,000 mm 0,6 UV-I 72 W/m² -1,4 °C -0,1 °C 14,5 km/h (3 Bft)
06.03.2017 08:35 2,7 °C 2,8 °C 74 % 1006,2 hPa 0,0 mm 8,6 km/h (2 Bft) S-SW 206 ° 0 min 0,000 mm 0,7 UV-I 74 W/m² -1,5 °C 0,3 °C 12,9 km/h (3 Bft)
06.03.2017 08:36 2,8 °C 2,8 °C 73 % 1006,3 hPa 0,0 mm 4,2 km/h (1 Bft) W 259 ° 0 min 0,000 mm 0,7 UV-I 74 W/m² -1,5 °C 2,8 °C 9,7 km/h (2 Bft)
06.03.2017 08:37 2,8 °C 2,8 °C 74 % 1006,3 hPa 0,0 mm 12,1 km/h (2 Bft) W-SW 250 ° 0 min 0,000 mm 0,7 UV-I 74 W/m² -1,4 °C -0,4 °C 19,3 km/h (3 Bft)
06.03.2017 08:38 2,7 °C 2,8 °C 74 % 1006,2 hPa 0,0 mm 7,1 km/h (2 Bft) W-SW 248 ° 0 min 0,000 mm 0,7 UV-I 81 W/m² -1,5 °C 0,7 °C 11,3 km/h (2 Bft)
06.03.2017 08:39 2,7 °C 2,8 °C 74 % 1006,3 hPa 0,0 mm 11,8 km/h (2 Bft) W 271 ° 0 min 0,000 mm 0,7 UV-I 91 W/m² -1,5 °C -0,5 °C 16,1 km/h (3 Bft)
06.03.2017 08:40 2,7 °C 2,7 °C 74 % 1006,3 hPa 0,0 mm 9,7 km/h (2 Bft) W-SW 254 ° 0 min 0,000 mm 0,7 UV-I 104 W/m² -1,5 °C -0,0 °C 12,9 km/h (3 Bft)
06.03.2017 08:41 2,7 °C 2,7 °C 75 % 1006,3 hPa 0,0 mm 7,6 km/h (2 Bft) W 274 ° 0 min 0,000 mm 0,7 UV-I 118 W/m² -1,3 °C 0,6 °C 11,3 km/h (2 Bft)
06.03.2017 08:42 2,8 °C 2,8 °C 74 % 1006,2 hPa 0,0 mm 7,8 km/h (2 Bft) W-SW 256 ° 0 min 0,000 mm 0,6 UV-I 97 W/m² -1,4 °C 0,6 °C 11,3 km/h (2 Bft)
06.03.2017 08:43 2,8 °C 2,8 °C 73 % 1006,3 hPa 0,0 mm 10,0 km/h (2 Bft) SW 236 ° 0 min 0,000 mm 0,7 UV-I 84 W/m² -1,5 °C 0,0 °C 12,9 km/h (3 Bft)
06.03.2017 08:44 2,9 °C 2,9 °C 73 % 1006,3 hPa 0,0 mm 7,0 km/h (2 Bft) W-SW 250 ° 0 min 0,000 mm 0,7 UV-I 91 W/m² -1,5 °C 1,0 °C 11,3 km/h (2 Bft)
06.03.2017 08:45 2,9 °C 2,9 °C 74 % 1006,3 hPa 0,0 mm 8,4 km/h (2 Bft) W-SW 255 ° 0 min 0,000 mm 0,7 UV-I 77 W/m² -1,3 °C 0,6 °C 12,9 km/h (3 Bft)
06.03.2017 08:46 2,9 °C 2,9 °C 74 % 1006,3 hPa 0,0 mm 10,2 km/h (2 Bft) W-SW 239 ° 0 min 0,000 mm 0,7 UV-I 63 W/m² -1,3 °C 0,1 °C 16,1 km/h (3 Bft)
06.03.2017 08:47 2,9 °C 2,9 °C 74 % 1006,3 hPa 0,0 mm 6,2 km/h (2 Bft) W 260 ° 0 min 0,000 mm 0,7 UV-I 74 W/m² -1,3 °C 1,2 °C 9,7 km/h (2 Bft)
06.03.2017 08:48 2,9 °C 2,9 °C 74 % 1006,3 hPa 0,0 mm 6,6 km/h (2 Bft) W-SW 247 ° 0 min 0,000 mm 0,8 UV-I 105 W/m² -1,3 °C 1,1 °C 9,7 km/h (2 Bft)
06.03.2017 08:49 2,9 °C 2,9 °C 73 % 1006,3 hPa 0,0 mm 10,4 km/h (2 Bft) W-SW 256 ° 0 min 0,000 mm 0,8 UV-I 148 W/m² -1,5 °C 0,1 °C 20,9 km/h (4 Bft)
06.03.2017 08:50 2,9 °C 2,9 °C 73 % 1006,3 hPa 0,0 mm 12,6 km/h (3 Bft) W-NW 287 ° 0 min 0,000 mm 0,7 UV-I 162 W/m² -1,5 °C -0,4 °C 16,1 km/h (3 Bft)
06.03.2017 08:51 3,0 °C 3,0 °C 74 % 1006,4 hPa 0,0 mm 8,5 km/h (2 Bft) W-NW 290 ° 0 min 0,000 mm 0,7 UV-I 148 W/m² -1,2 °C 0,6 °C 14,5 km/h (3 Bft)
06.03.2017 08:52 3,0 °C 3,1 °C 74 % 1006,4 hPa 0,0 mm 6,9 km/h (2 Bft) W 261 ° 0 min 0,000 mm 0,6 UV-I 111 W/m² -1,2 °C 1,1 °C 11,3 km/h (2 Bft)
06.03.2017 08:53 3,1 °C 3,1 °C 74 % 1006,3 hPa 0,0 mm 8,9 km/h (2 Bft) W 274 ° 0 min 0,000 mm 0,6 UV-I 91 W/m² -1,1 °C 0,7 °C 14,5 km/h (3 Bft)
06.03.2017 08:54 3,1 °C 3,1 °C 74 % 1006,4 hPa 0,0 mm 17,2 km/h (3 Bft) NW 307 ° 0 min 0,000 mm 0,5 UV-I 79 W/m² -1,1 °C -0,9 °C 24,1 km/h (4 Bft)
06.03.2017 08:55 3,0 °C 3,1 °C 74 % 1006,4 hPa 0,0 mm 17,1 km/h (3 Bft) W-SW 247 ° 0 min 0,000 mm 0,6 UV-I 74 W/m² -1,2 °C -1,0 °C 27,4 km/h (4 Bft)
06.03.2017 08:56 2,9 °C 3,0 °C 75 % 1006,4 hPa 0,0 mm 15,0 km/h (3 Bft) W-SW 248 ° 0 min 0,000 mm 0,6 UV-I 74 W/m² -1,1 °C -0,8 °C 22,5 km/h (4 Bft)
06.03.2017 08:57 2,8 °C 2,9 °C 77 % 1006,4 hPa 0,0 mm 15,4 km/h (3 Bft) W 274 ° 0 min 0,000 mm 0,6 UV-I 56 W/m² -0,8 °C -1,0 °C 22,5 km/h (4 Bft)
06.03.2017 08:58 2,7 °C 2,8 °C 77 % 1006,4 hPa 0,0 mm 16,2 km/h (3 Bft) W 261 ° 0 min 0,000 mm 0,7 UV-I 79 W/m² -0,9 °C -1,3 °C 20,9 km/h (4 Bft)
06.03.2017 08:59 2,6 °C 2,7 °C 78 % 1006,4 hPa 0,0 mm 16,0 km/h (3 Bft) W 273 ° 0 min 0,000 mm 0,9 UV-I 113 W/m² -0,8 °C -1,4 °C 22,5 km/h (4 Bft)
06.03.2017 09:00 2,5 °C 2,6 °C 79 % 1006,4 hPa 0,0 mm 17,8 km/h (3 Bft) W 267 ° 0 min 0,000 mm 0,9 UV-I 137 W/m² -0,8 °C -1,8 °C 20,9 km/h (4 Bft)
06.03.2017 09:01 2,4 °C 2,5 °C 80 % 1006,3 hPa 0,0 mm 20,1 km/h (4 Bft) W 279 ° 0 min 0,051 mm 1,0 UV-I 156 W/m² -0,7 °C -2,2 °C 27,4 km/h (4 Bft)
06.03.2017 09:02 2,3 °C 2,4 °C 81 % 1006,3 hPa 0,0 mm 13,8 km/h (3 Bft) W-SW 242 ° 0 min 0,000 mm 1,0 UV-I 174 W/m² -0,6 °C -1,4 °C 17,7 km/h (3 Bft)
06.03.2017 09:03 2,3 °C 2,3 °C 81 % 1006,3 hPa 0,0 mm 13,1 km/h (3 Bft) W-SW 254 ° 0 min 0,000 mm 1,0 UV-I 176 W/m² -0,6 °C -1,2 °C 16,1 km/h (3 Bft)
06.03.2017 09:04 2,3 °C 2,3 °C 82 % 1006,2 hPa 0,0 mm 12,7 km/h (3 Bft) W 260 ° 0 min 0,000 mm 1,0 UV-I 121 W/m² -0,4 °C -1,2 °C 16,1 km/h (3 Bft)
06.03.2017 09:05 2,3 °C 2,3 °C 81 % 1006,2 hPa 0,0 mm 9,9 km/h (2 Bft) W-NW 288 ° 0 min 0,000 mm 0,9 UV-I 111 W/m² -0,6 °C -0,5 °C 14,5 km/h (3 Bft)
06.03.2017 09:06 2,3 °C 2,3 °C 81 % 1006,1 hPa 0,0 mm 14,3 km/h (3 Bft) W-SW 254 ° 0 min 0,000 mm 1,0 UV-I 113 W/m² -0,6 °C -1,5 °C 19,3 km/h (3 Bft)
06.03.2017 09:07 2,4 °C 2,4 °C 82 % 1006,1 hPa 0,0 mm 13,2 km/h (3 Bft) W-NW 297 ° 0 min 0,000 mm 1,0 UV-I 116 W/m² -0,4 °C -1,1 °C 17,7 km/h (3 Bft)
06.03.2017 09:08 2,4 °C 2,4 °C 81 % 1006,1 hPa 0,0 mm 9,1 km/h (2 Bft) W-SW 257 ° 0 min 0,000 mm 1,0 UV-I 128 W/m² -0,5 °C -0,2 °C 14,5 km/h (3 Bft)
06.03.2017 09:09 2,5 °C 2,5 °C 81 % 1006,1 hPa 0,0 mm 8,7 km/h (2 Bft) W 280 ° 1 min 0,000 mm 1,1 UV-I 220 W/m² -0,4 °C 0,0 °C 12,9 km/h (3 Bft)
06.03.2017 09:10 2,6 °C 2,6 °C 80 % 1006,0 hPa 0,0 mm 12,6 km/h (3 Bft) W 262 ° 0 min 0,000 mm 1,0 UV-I 139 W/m² -0,5 °C -0,8 °C 19,3 km/h (3 Bft)
06.03.2017 09:11 2,7 °C 2,7 °C 80 % 1006,1 hPa 0,0 mm 11,2 km/h (2 Bft) W-SW 249 ° 0 min 0,000 mm 0,8 UV-I 105 W/m² -0,4 °C -0,4 °C 16,1 km/h (3 Bft)
06.03.2017 09:12 2,7 °C 2,7 °C 80 % 1006,1 hPa 0,0 mm 11,7 km/h (2 Bft) W-SW 242 ° 0 min 0,000 mm 0,9 UV-I 105 W/m² -0,4 °C -0,5 °C 16,1 km/h (3 Bft)
06.03.2017 09:13 2,7 °C 2,8 °C 80 % 1006,1 hPa 0,0 mm 13,3 km/h (3 Bft) W-SW 248 ° 0 min 0,000 mm 1,0 UV-I 123 W/m² -0,4 °C -0,8 °C 17,7 km/h (3 Bft)
06.03.2017 09:14 2,8 °C 2,8 °C 79 % 1006,0 hPa 0,0 mm 10,8 km/h (2 Bft) W-SW 252 ° 0 min 0,000 mm 1,0 UV-I 139 W/m² -0,5 °C -0,2 °C 19,3 km/h (3 Bft)
06.03.2017 09:15 2,8 °C 2,8 °C 79 % 1006,1 hPa 0,0 mm 7,5 km/h (2 Bft) W-SW 250 ° 0 min 0,000 mm 1,0 UV-I 144 W/m² -0,5 °C 0,7 °C 11,3 km/h (2 Bft)
06.03.2017 09:16 2,9 °C 2,9 °C 79 % 1006,0 hPa 0,0 mm 6,9 km/h (2 Bft) W 259 ° 0 min 0,000 mm 1,0 UV-I 144 W/m² -0,4 °C 1,0 °C 11,3 km/h (2 Bft)
06.03.2017 09:17 2,9 °C 2,9 °C 78 % 1006,0 hPa 0,0 mm 10,1 km/h (2 Bft) W 259 ° 0 min 0,000 mm 0,9 UV-I 123 W/m² -0,5 °C 0,1 °C 14,5 km/h (3 Bft)
06.03.2017 09:18 3,0 °C 3,0 °C 77 % 1006,0 hPa 0,0 mm 7,9 km/h (2 Bft) SW 235 ° 0 min 0,000 mm 1,0 UV-I 114 W/m² -0,6 °C 0,8 °C 11,3 km/h (2 Bft)
06.03.2017 09:19 3,1 °C 3,1 °C 78 % 1006,0 hPa 0,0 mm 11,3 km/h (2 Bft) W-SW 242 ° 0 min 0,000 mm 1,1 UV-I 160 W/m² -0,4 °C 0,1 °C 19,3 km/h (3 Bft)
06.03.2017 09:20 3,1 °C 3,1 °C 78 % 1006,0 hPa 0,0 mm 10,8 km/h (2 Bft) SW 221 ° 0 min 0,000 mm 1,1 UV-I 178 W/m² -0,4 °C 0,2 °C 14,5 km/h (3 Bft)
06.03.2017 09:21 3,2 °C 3,2 °C 77 % 1006,0 hPa 0,0 mm 8,7 km/h (2 Bft) W 270 ° 1 min 0,000 mm 1,2 UV-I 250 W/m² -0,4 °C 0,8 °C 16,1 km/h (3 Bft)
06.03.2017 09:22 3,2 °C 3,2 °C 77 % 1005,9 hPa 0,0 mm 12,0 km/h (2 Bft) W 272 ° 1 min 0,000 mm 1,3 UV-I 243 W/m² -0,4 °C 0,1 °C 16,1 km/h (3 Bft)
06.03.2017 09:23 3,3 °C 3,3 °C 77 % 1005,9 hPa 0,0 mm 8,0 km/h (2 Bft) W 279 ° 1 min 0,000 mm 1,2 UV-I 243 W/m² -0,3 °C 1,1 °C 11,3 km/h (2 Bft)
06.03.2017 09:24 3,4 °C 3,4 °C 76 % 1005,8 hPa 0,0 mm 6,5 km/h (2 Bft) W-SW 251 ° 1 min 0,000 mm 1,2 UV-I 218 W/m² -0,4 °C 1,7 °C 12,9 km/h (3 Bft)
06.03.2017 09:25 3,5 °C 3,5 °C 75 % 1005,8 hPa 0,0 mm 12,2 km/h (2 Bft) W-NW 282 ° 1 min 0,000 mm 1,3 UV-I 227 W/m² -0,5 °C 0,4 °C 14,5 km/h (3 Bft)
06.03.2017 09:26 3,6 °C 3,6 °C 76 % 1005,8 hPa 0,0 mm 11,7 km/h (2 Bft) W-NW 292 ° 1 min 0,000 mm 1,2 UV-I 214 W/m² -0,2 °C 0,6 °C 17,7 km/h (3 Bft)
06.03.2017 09:27 3,7 °C 3,7 °C 75 % 1005,8 hPa 0,0 mm 9,0 km/h (2 Bft) W-SW 250 ° 0 min 0,000 mm 1,1 UV-I 153 W/m² -0,3 °C 1,3 °C 17,7 km/h (3 Bft)
06.03.2017 09:28 3,7 °C 3,8 °C 76 % 1005,7 hPa 0,0 mm 14,3 km/h (3 Bft) SW 223 ° 0 min 0,000 mm 1,1 UV-I 114 W/m² -0,1 °C 0,3 °C 19,3 km/h (3 Bft)
06.03.2017 09:29 3,8 °C 3,8 °C 74 % 1005,8 hPa 0,0 mm 14,1 km/h (3 Bft) W-SW 241 ° 0 min 0,000 mm 1,1 UV-I 114 W/m² -0,4 °C 0,4 °C 17,7 km/h (3 Bft)
06.03.2017 09:30 3,8 °C 3,8 °C 74 % 1005,8 hPa 0,0 mm 16,8 km/h (3 Bft) SW 219 ° 0 min 0,000 mm 1,1 UV-I 114 W/m² -0,4 °C -0,0 °C 22,5 km/h (4 Bft)
06.03.2017 09:31 3,8 °C 3,8 °C 74 % 1005,7 hPa 0,0 mm 9,3 km/h (2 Bft) W-SW 258 ° 0 min 0,000 mm 1,2 UV-I 178 W/m² -0,4 °C 1,4 °C 20,9 km/h (4 Bft)
06.03.2017 09:32 3,7 °C 3,8 °C 74 % 1005,6 hPa 0,0 mm 15,6 km/h (3 Bft) W-SW 254 ° 1 min 0,000 mm 1,1 UV-I 213 W/m² -0,5 °C 0,0 °C 20,9 km/h (4 Bft)
06.03.2017 09:33 3,7 °C 3,8 °C 74 % 1005,6 hPa 0,0 mm 10,1 km/h (2 Bft) SW 229 ° 0 min 0,000 mm 1,1 UV-I 149 W/m² -0,5 °C 1,1 °C 14,5 km/h (3 Bft)
06.03.2017 09:34 3,8 °C 3,8 °C 74 % 1005,6 hPa 0,0 mm 8,8 km/h (2 Bft) SW 232 ° 0 min 0,000 mm 1,1 UV-I 165 W/m² -0,4 °C 1,5 °C 12,9 km/h (3 Bft)
06.03.2017 09:35 3,8 °C 3,8 °C 73 % 1005,6 hPa 0,0 mm 14,0 km/h (3 Bft) W 271 ° 0 min 0,000 mm 1,2 UV-I 181 W/m² -0,6 °C 0,4 °C 17,7 km/h (3 Bft)
06.03.2017 09:36 3,9 °C 3,9 °C 75 % 1005,6 hPa 0,0 mm 11,4 km/h (2 Bft) W-NW 283 ° 0 min 0,000 mm 1,2 UV-I 188 W/m² -0,1 °C 1,0 °C 16,1 km/h (3 Bft)
06.03.2017 09:37 3,9 °C 3,9 °C 73 % 1005,6 hPa 0,0 mm 12,3 km/h (3 Bft) W-SW 254 ° 0 min 0,000 mm 1,1 UV-I 183 W/m² -0,5 °C 0,9 °C 24,1 km/h (4 Bft)
06.03.2017 09:38 3,9 °C 3,9 °C 72 % 1005,6 hPa 0,0 mm 12,7 km/h (3 Bft) NW 305 ° 0 min 0,000 mm 1,1 UV-I 165 W/m² -0,7 °C 0,8 °C 16,1 km/h (3 Bft)
06.03.2017 09:39 4,0 °C 4,0 °C 73 % 1005,6 hPa 0,0 mm 13,1 km/h (3 Bft) W-NW 295 ° 0 min 0,000 mm 1,1 UV-I 160 W/m² -0,4 °C 0,8 °C 20,9 km/h (4 Bft)
06.03.2017 09:40 4,0 °C 4,0 °C 74 % 1005,6 hPa 0,0 mm 7,5 km/h (2 Bft) S-SW 196 ° 0 min 0,000 mm 1,1 UV-I 162 W/m² -0,2 °C 2,1 °C 16,1 km/h (3 Bft)
06.03.2017 09:41 4,0 °C 4,0 °C 72 % 1005,7 hPa 0,0 mm 16,0 km/h (3 Bft) SW 232 ° 0 min 0,000 mm 1,0 UV-I 162 W/m² -0,6 °C 0,4 °C 25,7 km/h (4 Bft)
06.03.2017 09:42 4,1 °C 4,1 °C 71 % 1005,7 hPa 0,0 mm 16,2 km/h (3 Bft) W-SW 246 ° 0 min 0,000 mm 1,0 UV-I 163 W/m² -0,7 °C 0,5 °C 22,5 km/h (4 Bft)
06.03.2017 09:43 4,1 °C 4,1 °C 72 % 1005,7 hPa 0,0 mm 14,9 km/h (3 Bft) W 261 ° 0 min 0,000 mm 1,1 UV-I 167 W/m² -0,5 °C 0,7 °C 17,7 km/h (3 Bft)
06.03.2017 09:44 4,1 °C 4,1 °C 72 % 1005,8 hPa 0,0 mm 13,3 km/h (3 Bft) W 274 ° 0 min 0,000 mm 1,0 UV-I 165 W/m² -0,5 °C 0,9 °C 19,3 km/h (3 Bft)
06.03.2017 09:45 4,1 °C 4,1 °C 74 % 1005,8 hPa 0,0 mm 6,5 km/h (2 Bft) W 263 ° 0 min 0,000 mm 0,9 UV-I 144 W/m² -0,1 °C 2,5 °C 9,7 km/h (2 Bft)
06.03.2017 09:46 4,2 °C 4,2 °C 74 % 1005,8 hPa 0,0 mm 8,3 km/h (2 Bft) W-NW 288 ° 0 min 0,000 mm 0,8 UV-I 139 W/m² -0,0 °C 2,1 °C 11,3 km/h (2 Bft)
06.03.2017 09:47 4,2 °C 4,2 °C 75 % 1005,9 hPa 0,0 mm 7,8 km/h (2 Bft) W 259 ° 0 min 0,000 mm 0,8 UV-I 141 W/m² 0,2 °C 2,2 °C 11,3 km/h (2 Bft)
06.03.2017 09:48 4,2 °C 4,2 °C 72 % 1006,0 hPa 0,0 mm 16,0 km/h (3 Bft) W 275 ° 0 min 0,000 mm 0,9 UV-I 146 W/m² -0,4 °C 0,6 °C 24,1 km/h (4 Bft)
06.03.2017 09:49 4,2 °C 4,2 °C 72 % 1005,9 hPa 0,0 mm 15,8 km/h (3 Bft) W-NW 286 ° 0 min 0,000 mm 0,9 UV-I 151 W/m² -0,4 °C 0,6 °C 20,9 km/h (4 Bft)
06.03.2017 09:50 4,2 °C 4,2 °C 72 % 1006,0 hPa 0,0 mm 13,7 km/h (3 Bft) W 280 ° 0 min 0,000 mm 1,0 UV-I 151 W/m² -0,4 °C 1,0 °C 17,7 km/h (3 Bft)
06.03.2017 09:51 4,2 °C 4,2 °C 72 % 1005,9 hPa 0,0 mm 13,2 km/h (3 Bft) W 264 ° 0 min 0,000 mm 1,0 UV-I 142 W/m² -0,4 °C 1,1 °C 19,3 km/h (3 Bft)
06.03.2017 09:52 4,2 °C 4,2 °C 71 % 1005,9 hPa 0,0 mm 20,3 km/h (4 Bft) W 278 ° 0 min 0,000 mm 1,1 UV-I 139 W/m² -0,6 °C 0,0 °C 25,7 km/h (4 Bft)
06.03.2017 09:53 4,1 °C 4,2 °C 71 % 1005,9 hPa 0,0 mm 18,6 km/h (3 Bft) W-NW 285 ° 0 min 0,000 mm 1,1 UV-I 142 W/m² -0,7 °C 0,1 °C 25,7 km/h (4 Bft)
06.03.2017 09:54 4,1 °C 4,1 °C 71 % 1005,9 hPa 0,0 mm 14,3 km/h (3 Bft) W-SW 255 ° 0 min 0,000 mm 1,2 UV-I 151 W/m² -0,7 °C 0,8 °C 22,5 km/h (4 Bft)
06.03.2017 09:55 4,1 °C 4,1 °C 72 % 1005,8 hPa 0,0 mm 22,1 km/h (4 Bft) W-NW 283 ° 0 min 0,000 mm 1,3 UV-I 162 W/m² -0,5 °C -0,3 °C 30,6 km/h (5 Bft)
06.03.2017 09:56 4,0 °C 4,1 °C 72 % 1005,7 hPa 0,0 mm 19,4 km/h (3 Bft) W 265 ° 0 min 0,000 mm 1,3 UV-I 174 W/m² -0,6 °C -0,1 °C 25,7 km/h (4 Bft)
06.03.2017 09:57 3,9 °C 4,0 °C 72 % 1005,6 hPa 0,0 mm 14,4 km/h (3 Bft) W-SW 254 ° 0 min 0,000 mm 1,4 UV-I 176 W/m² -0,7 °C 0,5 °C 20,9 km/h (4 Bft)
06.03.2017 09:58 3,9 °C 3,9 °C 73 % 1005,6 hPa 0,0 mm 11,1 km/h (2 Bft) W-NW 296 ° 0 min 0,000 mm 1,4 UV-I 176 W/m² -0,5 °C 1,1 °C 16,1 km/h (3 Bft)
06.03.2017 09:59 3,9 °C 3,9 °C 74 % 1005,6 hPa 0,0 mm 10,2 km/h (2 Bft) NW 304 ° 0 min 0,000 mm 1,4 UV-I 190 W/m² -0,3 °C 1,3 °C 17,7 km/h (3 Bft)
06.03.2017 10:00 3,9 °C 3,9 °C 74 % 1005,7 hPa 0,0 mm 9,9 km/h (2 Bft) W-NW 294 ° 1 min 0,076 mm 1,6 UV-I 230 W/m² -0,3 °C 1,4 °C 17,7 km/h (3 Bft)
06.03.2017 10:01 3,9 °C 3,9 °C 74 % 1005,6 hPa 0,0 mm 11,6 km/h (2 Bft) S-SW 194 ° 1 min 0,000 mm 1,5 UV-I 316 W/m² -0,3 °C 1,0 °C 22,5 km/h (4 Bft)
06.03.2017 10:02 3,9 °C 3,9 °C 72 % 1005,6 hPa 0,0 mm 9,4 km/h (2 Bft) S-SW 208 ° 1 min 0,000 mm 1,5 UV-I 221 W/m² -0,7 °C 1,5 °C 17,7 km/h (3 Bft)
06.03.2017 10:03 3,9 °C 3,9 °C 73 % 1005,5 hPa 0,0 mm 5,4 km/h (1 Bft) W-NW 289 ° 0 min 0,000 mm 1,3 UV-I 134 W/m² -0,5 °C 2,7 °C 11,3 km/h (2 Bft)
06.03.2017 10:04 3,9 °C 3,9 °C 73 % 1005,5 hPa 0,0 mm 6,4 km/h (2 Bft) W-NW 288 ° 0 min 0,000 mm 1,4 UV-I 139 W/m² -0,5 °C 2,3 °C 11,3 km/h (2 Bft)
06.03.2017 10:05 3,9 °C 3,9 °C 73 % 1005,5 hPa 0,0 mm 8,7 km/h (2 Bft) SW 236 ° 0 min 0,000 mm 1,4 UV-I 176 W/m² -0,5 °C 1,7 °C 17,7 km/h (3 Bft)
06.03.2017 10:06 3,9 °C 4,0 °C 73 % 1005,5 hPa 0,0 mm 12,0 km/h (2 Bft) W 271 ° 0 min 0,000 mm 1,6 UV-I 176 W/m² -0,5 °C 0,9 °C 17,7 km/h (3 Bft)
06.03.2017 10:07 3,9 °C 4,0 °C 73 % 1005,5 hPa 0,0 mm 11,4 km/h (2 Bft) W-NW 300 ° 1 min 0,000 mm 1,9 UV-I 360 W/m² -0,5 °C 1,0 °C 14,5 km/h (3 Bft)
06.03.2017 10:08 4,0 °C 4,0 °C 74 % 1005,5 hPa 0,0 mm 5,6 km/h (1 Bft) W-SW 238 ° 1 min 0,000 mm 1,6 UV-I 360 W/m² -0,2 °C 2,7 °C 8,0 km/h (2 Bft)
06.03.2017 10:09 4,1 °C 4,1 °C 73 % 1005,4 hPa 0,0 mm 7,1 km/h (2 Bft) W-NW 286 ° 1 min 0,000 mm 1,5 UV-I 211 W/m² -0,3 °C 2,3 °C 11,3 km/h (2 Bft)
06.03.2017 10:10 4,1 °C 4,1 °C 73 % 1005,4 hPa 0,0 mm 7,2 km/h (2 Bft) W 274 ° 1 min 0,000 mm 1,5 UV-I 211 W/m² -0,3 °C 2,3 °C 14,5 km/h (3 Bft)
06.03.2017 10:11 4,1 °C 4,1 °C 73 % 1005,3 hPa 0,0 mm 9,2 km/h (2 Bft) W-NW 296 ° 1 min 0,000 mm 1,5 UV-I 211 W/m² -0,3 °C 1,8 °C 11,3 km/h (2 Bft)
06.03.2017 10:12 4,1 °C 4,1 °C 73 % 1005,3 hPa 0,0 mm 10,0 km/h (2 Bft) W-NW 292 ° 1 min 0,000 mm 2,2 UV-I 211 W/m² -0,3 °C 1,6 °C 16,1 km/h (3 Bft)
06.03.2017 10:13 4,2 °C 4,2 °C 72 % 1005,3 hPa 0,0 mm 10,7 km/h (2 Bft) NW 326 ° 1 min 0,000 mm 1,7 UV-I 309 W/m² -0,4 °C 1,6 °C 16,1 km/h (3 Bft)
06.03.2017 10:14 4,2 °C 4,2 °C 72 % 1005,3 hPa 0,0 mm 9,5 km/h (2 Bft) W 281 ° 1 min 0,000 mm 2,2 UV-I 434 W/m² -0,4 °C 1,8 °C 12,9 km/h (3 Bft)
06.03.2017 10:15 4,3 °C 4,3 °C 72 % 1005,2 hPa 0,0 mm 12,9 km/h (3 Bft) W-NW 283 ° 1 min 0,000 mm 2,3 UV-I 513 W/m² -0,3 °C 1,2 °C 19,3 km/h (3 Bft)
06.03.2017 10:16 4,4 °C 4,4 °C 72 % 1005,2 hPa 0,0 mm 13,9 km/h (3 Bft) W-SW 255 ° 1 min 0,000 mm 2,1 UV-I 459 W/m² -0,2 °C 1,2 °C 20,9 km/h (4 Bft)
06.03.2017 10:17 4,6 °C 4,6 °C 71 % 1005,2 hPa 0,0 mm 15,2 km/h (3 Bft) W-SW 248 ° 1 min 0,000 mm 1,3 UV-I 459 W/m² -0,2 °C 1,2 °C 20,9 km/h (4 Bft)
06.03.2017 10:18 4,6 °C 4,6 °C 71 % 1005,2 hPa 0,0 mm 6,4 km/h (2 Bft) SW 229 ° 0 min 0,000 mm 1,4 UV-I 113 W/m² -0,2 °C 3,1 °C 14,5 km/h (3 Bft)
06.03.2017 10:19 4,6 °C 4,6 °C 70 % 1005,1 hPa 0,0 mm 7,5 km/h (2 Bft) SO 138 ° 0 min 0,000 mm 1,7 UV-I 192 W/m² -0,4 °C 2,8 °C 11,3 km/h (2 Bft)
06.03.2017 10:20 4,6 °C 4,6 °C 69 % 1005,2 hPa 0,0 mm 9,3 km/h (2 Bft) W-NW 286 ° 1 min 0,000 mm 1,6 UV-I 241 W/m² -0,6 °C 2,3 °C 16,1 km/h (3 Bft)
06.03.2017 10:21 4,7 °C 4,7 °C 69 % 1005,2 hPa 0,0 mm 16,0 km/h (3 Bft) W-SW 257 ° 1 min 0,000 mm 1,6 UV-I 232 W/m² -0,5 °C 1,2 °C 22,5 km/h (4 Bft)
06.03.2017 10:22 4,8 °C 4,8 °C 68 % 1005,1 hPa 0,0 mm 17,6 km/h (3 Bft) W 261 ° 1 min 0,000 mm 1,5 UV-I 225 W/m² -0,6 °C 1,1 °C 29,0 km/h (5 Bft)
06.03.2017 10:23 4,8 °C 4,8 °C 68 % 1005,1 hPa 0,0 mm 23,4 km/h (4 Bft) W 269 ° 1 min 0,000 mm 1,5 UV-I 221 W/m² -0,6 °C 0,4 °C 32,2 km/h (5 Bft)
06.03.2017 10:24 4,8 °C 4,8 °C 68 % 1005,3 hPa 0,0 mm 16,9 km/h (3 Bft) W-NW 293 ° 1 min 0,000 mm 1,5 UV-I 211 W/m² -0,6 °C 1,2 °C 25,7 km/h (4 Bft)
06.03.2017 10:25 4,9 °C 4,9 °C 69 % 1005,3 hPa 0,0 mm 14,2 km/h (3 Bft) W-SW 248 ° 1 min 0,000 mm 1,4 UV-I 227 W/m² -0,3 °C 1,8 °C 25,7 km/h (4 Bft)
06.03.2017 10:26 4,9 °C 4,9 °C 69 % 1005,2 hPa 0,0 mm 17,1 km/h (3 Bft) W-NW 282 ° 1 min 0,000 mm 1,4 UV-I 220 W/m² -0,3 °C 1,3 °C 27,4 km/h (4 Bft)
06.03.2017 10:27 4,9 °C 4,9 °C 68 % 1005,4 hPa 0,0 mm 17,6 km/h (3 Bft) W 275 ° 1 min 0,000 mm 1,3 UV-I 214 W/m² -0,5 °C 1,2 °C 24,1 km/h (4 Bft)
06.03.2017 10:28 4,9 °C 4,9 °C 67 % 1005,4 hPa 0,0 mm 19,4 km/h (3 Bft) W-SW 255 ° 1 min 0,000 mm 1,3 UV-I 206 W/m² -0,7 °C 1,0 °C 35,4 km/h (5 Bft)
06.03.2017 10:29 4,9 °C 4,9 °C 68 % 1005,3 hPa 0,0 mm 23,4 km/h (4 Bft) W-NW 303 ° 1 min 0,000 mm 1,3 UV-I 206 W/m² -0,5 °C 0,6 °C 30,6 km/h (5 Bft)
06.03.2017 10:30 4,8 °C 4,9 °C 69 % 1005,4 hPa 0,0 mm 15,9 km/h (3 Bft) W-SW 239 ° 1 min 0,000 mm 1,3 UV-I 218 W/m² -0,4 °C 1,4 °C 25,7 km/h (4 Bft)
06.03.2017 10:31 4,8 °C 4,8 °C 69 % 1005,5 hPa 0,0 mm 10,3 km/h (2 Bft) W-SW 258 ° 1 min 0,000 mm 1,3 UV-I 200 W/m² -0,4 °C 2,4 °C 19,3 km/h (3 Bft)
06.03.2017 10:32 4,7 °C 4,8 °C 69 % 1005,4 hPa 0,0 mm 18,4 km/h (3 Bft) W 261 ° 0 min 0,000 mm 1,1 UV-I 111 W/m² -0,5 °C 0,9 °C 24,1 km/h (4 Bft)
06.03.2017 10:33 4,6 °C 4,7 °C 71 % 1005,5 hPa 0,0 mm 24,2 km/h (4 Bft) W-SW 248 ° 0 min 0,000 mm 1,0 UV-I 100 W/m² -0,2 °C 0,1 °C 33,8 km/h (5 Bft)
06.03.2017 10:34 4,6 °C 4,6 °C 71 % 1005,4 hPa 0,0 mm 18,4 km/h (3 Bft) W 280 ° 0 min 0,000 mm 1,1 UV-I 111 W/m² -0,2 °C 0,8 °C 25,7 km/h (4 Bft)
06.03.2017 10:35 4,4 °C 4,6 °C 72 % 1005,4 hPa 0,0 mm 13,6 km/h (3 Bft) W-SW 238 ° 0 min 0,000 mm 1,3 UV-I 127 W/m² -0,2 °C 1,2 °C 19,3 km/h (3 Bft)
06.03.2017 10:36 4,3 °C 4,4 °C 72 % 1005,5 hPa 0,0 mm 21,5 km/h (4 Bft) SW 230 ° 0 min 0,000 mm 1,3 UV-I 121 W/m² -0,3 °C 0,0 °C 29,0 km/h (5 Bft)
06.03.2017 10:37 4,2 °C 4,3 °C 72 % 1005,4 hPa 0,0 mm 17,6 km/h (3 Bft) SW 236 ° 0 min 0,000 mm 1,3 UV-I 104 W/m² -0,4 °C 0,4 °C 24,1 km/h (4 Bft)
06.03.2017 10:38 4,1 °C 4,2 °C 73 % 1005,3 hPa 0,0 mm 16,5 km/h (3 Bft) W-SW 247 ° 0 min 0,000 mm 1,4 UV-I 155 W/m² -0,3 °C 0,4 °C 22,5 km/h (4 Bft)
06.03.2017 10:39 4,1 °C 4,1 °C 73 % 1005,2 hPa 0,0 mm 12,1 km/h (2 Bft) W-SW 254 ° 0 min 0,000 mm 2,2 UV-I 155 W/m² -0,3 °C 1,1 °C 22,5 km/h (4 Bft)
06.03.2017 10:40 4,1 °C 4,1 °C 75 % 1005,2 hPa 0,0 mm 10,2 km/h (2 Bft) W 269 ° 0 min 0,000 mm 2,2 UV-I 155 W/m² 0,1 °C 1,5 °C 12,9 km/h (3 Bft)
06.03.2017 10:41 4,2 °C 4,2 °C 75 % 1005,2 hPa 0,0 mm 8,4 km/h (2 Bft) W 279 ° 0 min 0,000 mm 2,2 UV-I 155 W/m² 0,2 °C 2,1 °C 14,5 km/h (3 Bft)
06.03.2017 10:42 4,3 °C 4,3 °C 75 % 1005,2 hPa 0,0 mm 13,8 km/h (3 Bft) W 260 ° 0 min 0,000 mm 2,4 UV-I 155 W/m² 0,3 °C 1,1 °C 17,7 km/h (3 Bft)
06.03.2017 10:43 4,3 °C 4,3 °C 74 % 1005,2 hPa 0,0 mm 10,6 km/h (2 Bft) W-SW 242 ° 1 min 0,000 mm 2,6 UV-I 446 W/m² 0,1 °C 1,7 °C 12,9 km/h (3 Bft)
06.03.2017 10:44 4,5 °C 4,5 °C 75 % 1005,2 hPa 0,0 mm 6,1 km/h (2 Bft) W 279 ° 1 min 0,000 mm 2,5 UV-I 494 W/m² 0,5 °C 3,1 °C 11,3 km/h (2 Bft)
06.03.2017 10:45 4,6 °C 4,6 °C 74 % 1005,2 hPa 0,0 mm 8,8 km/h (2 Bft) W-SW 255 ° 1 min 0,000 mm 2,6 UV-I 522 W/m² 0,4 °C 2,5 °C 14,5 km/h (3 Bft)
06.03.2017 10:46 4,7 °C 4,7 °C 73 % 1005,1 hPa 0,0 mm 10,5 km/h (2 Bft) W-SW 246 ° 1 min 0,000 mm 2,7 UV-I 541 W/m² 0,3 °C 2,2 °C 16,1 km/h (3 Bft)
06.03.2017 10:47 4,8 °C 4,8 °C 72 % 1005,1 hPa 0,0 mm 9,2 km/h (2 Bft) W-SW 244 ° 1 min 0,000 mm 2,7 UV-I 496 W/m² 0,2 °C 2,6 °C 14,5 km/h (3 Bft)
06.03.2017 10:48 4,8 °C 4,8 °C 74 % 1005,1 hPa 0,0 mm 12,5 km/h (3 Bft) W 265 ° 1 min 0,000 mm 2,7 UV-I 559 W/m² 0,6 °C 1,9 °C 17,7 km/h (3 Bft)
06.03.2017 10:49 4,9 °C 4,9 °C 72 % 1005,1 hPa 0,0 mm 15,4 km/h (3 Bft) W-SW 249 ° 1 min 0,000 mm 2,8 UV-I 606 W/m² 0,3 °C 1,6 °C 19,3 km/h (3 Bft)
06.03.2017 10:50 5,0 °C 5,0 °C 74 % 1005,1 hPa 0,0 mm 17,4 km/h (3 Bft) W 259 ° 1 min 0,000 mm 2,8 UV-I 575 W/m² 0,8 °C 1,4 °C 22,5 km/h (4 Bft)
06.03.2017 10:51 5,1 °C 5,1 °C 73 % 1005,1 hPa 0,0 mm 12,2 km/h (2 Bft) W-SW 248 ° 1 min 0,000 mm 2,5 UV-I 575 W/m² 0,7 °C 2,3 °C 22,5 km/h (4 Bft)
06.03.2017 10:52 5,2 °C 5,2 °C 70 % 1005,0 hPa 0,0 mm 8,0 km/h (2 Bft) W-SW 258 ° 1 min 0,000 mm 3,1 UV-I 643 W/m² 0,2 °C 3,4 °C 11,3 km/h (2 Bft)
06.03.2017 10:53 5,2 °C 5,2 °C 71 % 1005,0 hPa 0,0 mm 11,5 km/h (2 Bft) W-SW 254 ° 1 min 0,000 mm 3,1 UV-I 693 W/m² 0,4 °C 2,6 °C 16,1 km/h (3 Bft)
06.03.2017 10:54 5,3 °C 5,3 °C 71 % 1005,0 hPa 0,0 mm 8,0 km/h (2 Bft) W-NW 292 ° 1 min 0,000 mm 2,2 UV-I 693 W/m² 0,5 °C 3,5 °C 11,3 km/h (2 Bft)
06.03.2017 10:55 5,3 °C 5,3 °C 70 % 1004,9 hPa 0,0 mm 11,1 km/h (2 Bft) W-NW 289 ° 1 min 0,000 mm 2,3 UV-I 343 W/m² 0,3 °C 2,8 °C 14,5 km/h (3 Bft)
06.03.2017 10:56 5,3 °C 5,4 °C 71 % 1004,9 hPa 0,0 mm 10,1 km/h (2 Bft) W 274 ° 0 min 0,000 mm 1,8 UV-I 190 W/m² 0,5 °C 3,0 °C 16,1 km/h (3 Bft)
06.03.2017 10:57 5,3 °C 5,3 °C 68 % 1004,9 hPa 0,0 mm 8,1 km/h (2 Bft) W-SW 257 ° 0 min 0,000 mm 1,7 UV-I 188 W/m² -0,1 °C 3,5 °C 12,9 km/h (3 Bft)
06.03.2017 10:58 5,3 °C 5,3 °C 69 % 1004,9 hPa 0,0 mm 7,1 km/h (2 Bft) NW 307 ° 1 min 0,000 mm 1,9 UV-I 229 W/m² 0,1 °C 3,7 °C 11,3 km/h (2 Bft)
06.03.2017 10:59 5,3 °C 5,3 °C 69 % 1004,9 hPa 0,0 mm 2,7 km/h (1 Bft) W-SW 248 ° 1 min 0,000 mm 2,1 UV-I 290 W/m² 0,1 °C 5,3 °C 6,4 km/h (2 Bft)
06.03.2017 11:00 5,3 °C 5,3 °C 69 % 1004,9 hPa 0,0 mm 7,8 km/h (2 Bft) W 281 ° 1 min 0,152 mm 2,1 UV-I 323 W/m² 0,1 °C 3,5 °C 12,9 km/h (3 Bft)
06.03.2017 11:01 5,3 °C 5,3 °C 70 % 1004,8 hPa 0,0 mm 9,4 km/h (2 Bft) W 262 ° 1 min 0,000 mm 2,2 UV-I 411 W/m² 0,3 °C 3,1 °C 12,9 km/h (3 Bft)
06.03.2017 11:02 5,4 °C 5,4 °C 69 % 1004,8 hPa 0,0 mm 10,2 km/h (2 Bft) W 267 ° 1 min 0,000 mm 2,5 UV-I 411 W/m² 0,2 °C 3,1 °C 17,7 km/h (3 Bft)
06.03.2017 11:03 5,4 °C 5,4 °C 69 % 1004,8 hPa 0,0 mm 9,1 km/h (2 Bft) W 263 ° 1 min 0,000 mm 2,0 UV-I 411 W/m² 0,2 °C 3,3 °C 12,9 km/h (3 Bft)
06.03.2017 11:04 5,5 °C 5,5 °C 68 % 1004,8 hPa 0,0 mm 10,5 km/h (2 Bft) W 259 ° 1 min 0,000 mm 3,0 UV-I 411 W/m² 0,1 °C 3,2 °C 16,1 km/h (3 Bft)
06.03.2017 11:05 5,6 °C 5,6 °C 67 % 1004,8 hPa 0,0 mm 10,2 km/h (2 Bft) W-NW 286 ° 1 min 0,000 mm 2,9 UV-I 610 W/m² -0,0 °C 3,3 °C 16,1 km/h (3 Bft)
06.03.2017 11:06 5,6 °C 5,6 °C 66 % 1004,8 hPa 0,0 mm 14,8 km/h (3 Bft) W 259 ° 1 min 0,000 mm 3,0 UV-I 633 W/m² -0,2 °C 2,5 °C 20,9 km/h (4 Bft)
06.03.2017 11:07 5,7 °C 5,7 °C 66 % 1004,8 hPa 0,0 mm 13,4 km/h (3 Bft) W-NW 282 ° 1 min 0,000 mm 3,0 UV-I 608 W/m² -0,1 °C 2,9 °C 20,9 km/h (4 Bft)
06.03.2017 11:08 5,9 °C 5,9 °C 69 % 1004,8 hPa 0,0 mm 10,5 km/h (2 Bft) W 260 ° 1 min 0,000 mm 2,9 UV-I 585 W/m² 0,7 °C 3,6 °C 16,1 km/h (3 Bft)
06.03.2017 11:09 6,0 °C 6,0 °C 68 % 1004,8 hPa 0,0 mm 15,2 km/h (3 Bft) W-SW 257 ° 1 min 0,000 mm 3,0 UV-I 591 W/m² 0,6 °C 3,0 °C 20,9 km/h (4 Bft)
06.03.2017 11:10 6,0 °C 6,0 °C 66 % 1004,8 hPa 0,0 mm 9,4 km/h (2 Bft) W-SW 256 ° 1 min 0,000 mm 2,9 UV-I 587 W/m² 0,1 °C 4,0 °C 16,1 km/h (3 Bft)
06.03.2017 11:11 5,9 °C 6,0 °C 66 % 1004,8 hPa 0,0 mm 15,7 km/h (3 Bft) W 274 ° 1 min 0,000 mm 3,0 UV-I 591 W/m² 0,0 °C 2,8 °C 20,9 km/h (4 Bft)
06.03.2017 11:12 6,0 °C 6,0 °C 66 % 1004,8 hPa 0,0 mm 13,4 km/h (3 Bft) W 264 ° 1 min 0,000 mm 3,0 UV-I 589 W/m² 0,1 °C 3,2 °C 20,9 km/h (4 Bft)
06.03.2017 11:13 6,1 °C 6,1 °C 66 % 1004,7 hPa 0,0 mm 14,2 km/h (3 Bft) SW 236 ° 1 min 0,000 mm 3,0 UV-I 603 W/m² 0,2 °C 3,2 °C 19,3 km/h (3 Bft)
06.03.2017 11:14 6,1 °C 6,1 °C 63 % 1004,6 hPa 0,0 mm 9,7 km/h (2 Bft) S-SW 209 ° 1 min 0,000 mm 3,1 UV-I 608 W/m² -0,4 °C 4,0 °C 14,5 km/h (3 Bft)
06.03.2017 11:15 6,1 °C 6,1 °C 62 % 1004,6 hPa 0,0 mm 12,5 km/h (3 Bft) S-SW 192 ° 1 min 0,000 mm 3,1 UV-I 612 W/m² -0,6 °C 3,5 °C 17,7 km/h (3 Bft)
06.03.2017 11:16 6,1 °C 6,1 °C 62 % 1004,7 hPa 0,0 mm 13,7 km/h (3 Bft) W 262 ° 1 min 0,000 mm 3,0 UV-I 606 W/m² -0,6 °C 3,3 °C 27,4 km/h (4 Bft)
06.03.2017 11:17 6,2 °C 6,2 °C 65 % 1004,6 hPa 0,0 mm 9,6 km/h (2 Bft) W-SW 255 ° 1 min 0,000 mm 3,0 UV-I 596 W/m² 0,1 °C 4,2 °C 14,5 km/h (3 Bft)
06.03.2017 11:18 6,2 °C 6,2 °C 65 % 1004,5 hPa 0,0 mm 11,0 km/h (2 Bft) W-NW 297 ° 1 min 0,000 mm 3,1 UV-I 606 W/m² 0,1 °C 3,9 °C 17,7 km/h (3 Bft)
06.03.2017 11:19 6,3 °C 6,3 °C 66 % 1004,5 hPa 0,0 mm 11,3 km/h (2 Bft) W-SW 241 ° 1 min 0,000 mm 3,1 UV-I 596 W/m² 0,4 °C 4,0 °C 17,7 km/h (3 Bft)
06.03.2017 11:20 6,4 °C 6,4 °C 63 % 1004,4 hPa 0,0 mm 10,7 km/h (2 Bft) S 186 ° 1 min 0,000 mm 2,9 UV-I 589 W/m² -0,1 °C 4,2 °C 19,3 km/h (3 Bft)
06.03.2017 11:21 6,4 °C 6,4 °C 62 % 1004,5 hPa 0,0 mm 18,4 km/h (3 Bft) W-SW 238 ° 1 min 0,000 mm 3,1 UV-I 596 W/m² -0,3 °C 3,0 °C 27,4 km/h (4 Bft)
06.03.2017 11:22 6,4 °C 6,4 °C 62 % 1004,5 hPa 0,0 mm 18,0 km/h (3 Bft) N-NW 336 ° 1 min 0,000 mm 3,1 UV-I 601 W/m² -0,3 °C 3,1 °C 30,6 km/h (5 Bft)
06.03.2017 11:23 6,5 °C 6,5 °C 63 % 1004,5 hPa 0,0 mm 13,0 km/h (3 Bft) W 261 ° 1 min 0,000 mm 3,0 UV-I 582 W/m² -0,0 °C 3,9 °C 27,4 km/h (4 Bft)
06.03.2017 11:24 6,5 °C 6,5 °C 62 % 1004,4 hPa 0,0 mm 18,3 km/h (3 Bft) W-SW 258 ° 1 min 0,000 mm 2,8 UV-I 559 W/m² -0,2 °C 3,2 °C 27,4 km/h (4 Bft)
06.03.2017 11:25 6,4 °C 6,5 °C 64 % 1004,4 hPa 0,0 mm 12,5 km/h (3 Bft) W-SW 244 ° 1 min 0,000 mm 2,8 UV-I 496 W/m² 0,1 °C 3,9 °C 19,3 km/h (3 Bft)
06.03.2017 11:26 6,4 °C 6,4 °C 61 % 1004,4 hPa 0,0 mm 17,3 km/h (3 Bft) W 261 ° 1 min 0,000 mm 3,1 UV-I 496 W/m² -0,6 °C 3,2 °C 24,1 km/h (4 Bft)
06.03.2017 11:27 6,4 °C 6,4 °C 60 % 1004,5 hPa 0,0 mm 15,7 km/h (3 Bft) W-NW 293 ° 1 min 0,000 mm 3,1 UV-I 615 W/m² -0,8 °C 3,4 °C 24,1 km/h (4 Bft)
06.03.2017 11:28 6,4 °C 6,5 °C 62 % 1004,4 hPa 0,0 mm 16,0 km/h (3 Bft) W-SW 255 ° 1 min 0,000 mm 3,1 UV-I 615 W/m² -0,3 °C 3,3 °C 20,9 km/h (4 Bft)
06.03.2017 11:29 6,5 °C 6,5 °C 61 % 1004,4 hPa 0,0 mm 13,3 km/h (3 Bft) W-SW 253 ° 1 min 0,000 mm 3,1 UV-I 599 W/m² -0,5 °C 3,9 °C 19,3 km/h (3 Bft)
06.03.2017 11:30 6,5 °C 6,5 °C 60 % 1004,3 hPa 0,0 mm 13,2 km/h (3 Bft) W 269 ° 1 min 0,000 mm 3,1 UV-I 594 W/m² -0,7 °C 3,9 °C 16,1 km/h (3 Bft)
06.03.2017 11:31 6,7 °C 6,7 °C 62 % 1004,2 hPa 0,0 mm 16,2 km/h (3 Bft) W-NW 283 ° 1 min 0,000 mm 3,2 UV-I 612 W/m² -0,1 °C 3,7 °C 32,2 km/h (5 Bft)
06.03.2017 11:32 6,7 °C 6,7 °C 60 % 1004,2 hPa 0,0 mm 15,3 km/h (3 Bft) W-SW 247 ° 1 min 0,000 mm 3,2 UV-I 606 W/m² -0,5 °C 3,8 °C 25,7 km/h (4 Bft)
06.03.2017 11:33 6,8 °C 6,8 °C 62 % 1004,3 hPa 0,0 mm 11,0 km/h (2 Bft) W 261 ° 1 min 0,000 mm 3,2 UV-I 617 W/m² 0,0 °C 4,6 °C 17,7 km/h (3 Bft)
06.03.2017 11:34 6,8 °C 6,8 °C 59 % 1004,3 hPa 0,0 mm 14,1 km/h (3 Bft) W-SW 253 ° 1 min 0,000 mm 3,2 UV-I 621 W/m² -0,6 °C 4,1 °C 22,5 km/h (4 Bft)
06.03.2017 11:35 6,8 °C 6,8 °C 59 % 1004,3 hPa 0,0 mm 13,9 km/h (3 Bft) W 273 ° 1 min 0,000 mm 3,3 UV-I 626 W/m² -0,6 °C 4,1 °C 19,3 km/h (3 Bft)
06.03.2017 11:36 6,7 °C 6,8 °C 57 % 1004,1 hPa 0,0 mm 13,5 km/h (3 Bft) W-NW 282 ° 1 min 0,000 mm 3,2 UV-I 612 W/m² -1,2 °C 4,1 °C 24,1 km/h (4 Bft)
06.03.2017 11:37 6,7 °C 6,7 °C 61 % 1004,1 hPa 0,0 mm 16,4 km/h (3 Bft) N-NW 332 ° 1 min 0,000 mm 3,2 UV-I 612 W/m² -0,3 °C 3,7 °C 24,1 km/h (4 Bft)
06.03.2017 11:38 6,7 °C 6,7 °C 57 % 1004,0 hPa 0,0 mm 14,1 km/h (3 Bft) W 259 ° 1 min 0,000 mm 3,2 UV-I 612 W/m² -1,2 °C 4,0 °C 19,3 km/h (3 Bft)
06.03.2017 11:39 6,7 °C 6,7 °C 59 % 1004,1 hPa 0,0 mm 16,8 km/h (3 Bft) NW 312 ° 1 min 0,000 mm 3,3 UV-I 638 W/m² -0,7 °C 3,6 °C 22,5 km/h (4 Bft)
06.03.2017 11:40 6,8 °C 6,8 °C 61 % 1004,0 hPa 0,0 mm 13,0 km/h (3 Bft) W-SW 255 ° 1 min 0,000 mm 3,3 UV-I 619 W/m² -0,2 °C 4,3 °C 16,1 km/h (3 Bft)
06.03.2017 11:41 6,9 °C 6,9 °C 61 % 1003,9 hPa 0,0 mm 9,5 km/h (2 Bft) NW 312 ° 1 min 0,000 mm 3,3 UV-I 638 W/m² -0,1 °C 5,0 °C 12,9 km/h (3 Bft)
06.03.2017 11:42 6,9 °C 6,9 °C 59 % 1003,9 hPa 0,0 mm 18,6 km/h (3 Bft) W 279 ° 1 min 0,000 mm 3,3 UV-I 610 W/m² -0,5 °C 3,6 °C 27,4 km/h (4 Bft)
06.03.2017 11:43 6,9 °C 6,9 °C 56 % 1003,9 hPa 0,0 mm 17,9 km/h (3 Bft) W 273 ° 1 min 0,000 mm 3,3 UV-I 652 W/m² -1,3 °C 3,7 °C 25,7 km/h (4 Bft)
06.03.2017 11:44 6,9 °C 6,9 °C 57 % 1003,9 hPa 0,0 mm 12,1 km/h (2 Bft) SW 222 ° 1 min 0,000 mm 3,3 UV-I 612 W/m² -1,0 °C 4,5 °C 20,9 km/h (4 Bft)
06.03.2017 11:45 6,8 °C 6,9 °C 57 % 1003,9 hPa 0,0 mm 12,9 km/h (3 Bft) W-NW 295 ° 1 min 0,000 mm 2,2 UV-I 635 W/m² -1,1 °C 4,3 °C 19,3 km/h (3 Bft)
06.03.2017 11:46 6,8 °C 6,8 °C 58 % 1003,9 hPa 0,0 mm 13,3 km/h (3 Bft) W-NW 292 ° 1 min 0,000 mm 3,2 UV-I 624 W/m² -0,9 °C 4,2 °C 20,9 km/h (4 Bft)
06.03.2017 11:47 6,9 °C 6,9 °C 60 % 1003,8 hPa 0,0 mm 12,2 km/h (2 Bft) SW 229 ° 1 min 0,000 mm 3,4 UV-I 654 W/m² -0,3 °C 4,5 °C 19,3 km/h (3 Bft)
06.03.2017 11:48 6,9 °C 6,9 °C 59 % 1003,8 hPa 0,0 mm 12,2 km/h (2 Bft) W 265 ° 1 min 0,000 mm 3,3 UV-I 605 W/m² -0,5 °C 4,5 °C 17,7 km/h (3 Bft)
06.03.2017 11:49 7,0 °C 7,0 °C 57 % 1003,8 hPa 0,0 mm 14,5 km/h (3 Bft) W 280 ° 1 min 0,000 mm 3,1 UV-I 577 W/m² -0,9 °C 4,3 °C 19,3 km/h (3 Bft)
06.03.2017 11:50 7,1 °C 7,1 °C 58 % 1003,7 hPa 0,0 mm 11,6 km/h (2 Bft) NW 308 ° 1 min 0,000 mm 2,9 UV-I 524 W/m² -0,6 °C 4,9 °C 16,1 km/h (3 Bft)
06.03.2017 11:51 7,1 °C 7,1 °C 57 % 1003,7 hPa 0,0 mm 11,5 km/h (2 Bft) W 269 ° 1 min 0,000 mm 3,0 UV-I 524 W/m² -0,8 °C 4,9 °C 16,1 km/h (3 Bft)
06.03.2017 11:52 7,0 °C 7,1 °C 56 % 1003,7 hPa 0,0 mm 13,9 km/h (3 Bft) W 267 ° 1 min 0,000 mm 3,0 UV-I 367 W/m² -1,2 °C 4,4 °C 22,5 km/h (4 Bft)
06.03.2017 11:53 6,9 °C 7,0 °C 54 % 1003,7 hPa 0,0 mm 14,9 km/h (3 Bft) W-SW 243 ° 1 min 0,000 mm 3,1 UV-I 367 W/m² -1,8 °C 4,1 °C 20,9 km/h (4 Bft)
06.03.2017 11:54 6,8 °C 6,9 °C 57 % 1003,6 hPa 0,0 mm 15,9 km/h (3 Bft) W 276 ° 1 min 0,000 mm 3,2 UV-I 622 W/m² -1,1 °C 3,8 °C 24,1 km/h (4 Bft)
06.03.2017 11:55 6,8 °C 6,8 °C 58 % 1003,6 hPa 0,0 mm 10,1 km/h (2 Bft) SW 234 ° 1 min 0,000 mm 3,4 UV-I 640 W/m² -0,9 °C 4,8 °C 16,1 km/h (3 Bft)
06.03.2017 11:56 6,8 °C 6,9 °C 57 % 1003,5 hPa 0,0 mm 9,7 km/h (2 Bft) W-SW 247 ° 1 min 0,000 mm 3,3 UV-I 629 W/m² -1,1 °C 4,9 °C 16,1 km/h (3 Bft)
06.03.2017 11:57 6,9 °C 6,9 °C 57 % 1003,5 hPa 0,0 mm 8,3 km/h (2 Bft) W-SW 240 ° 1 min 0,000 mm 3,3 UV-I 629 W/m² -1,0 °C 5,3 °C 12,9 km/h (3 Bft)
06.03.2017 11:58 7,1 °C 7,1 °C 57 % 1003,5 hPa 0,0 mm 11,2 km/h (2 Bft) W 275 ° 1 min 0,000 mm 3,4 UV-I 640 W/m² -0,8 °C 4,9 °C 17,7 km/h (3 Bft)
06.03.2017 11:59 7,1 °C 7,1 °C 56 % 1003,4 hPa 0,0 mm 10,9 km/h (2 Bft) W-SW 250 ° 1 min 0,000 mm 3,4 UV-I 638 W/m² -1,1 °C 5,0 °C 19,3 km/h (3 Bft)
06.03.2017 12:00 7,1 °C 7,1 °C 56 % 1003,4 hPa 0,0 mm 13,0 km/h (3 Bft) W 272 ° 1 min 0,000 mm 3,4 UV-I 645 W/m² -1,1 °C 4,6 °C 20,9 km/h (4 Bft)
06.03.2017 12:01 7,2 °C 7,2 °C 56 % 1003,4 hPa 0,0 mm 15,7 km/h (3 Bft) W 275 ° 1 min 0,280 mm 3,4 UV-I 654 W/m² -1,0 °C 4,4 °C 20,9 km/h (4 Bft)
06.03.2017 12:02 7,2 °C 7,2 °C 58 % 1003,3 hPa 0,0 mm 15,8 km/h (3 Bft) W-NW 289 ° 1 min 0,000 mm 3,4 UV-I 652 W/m² -0,5 °C 4,4 °C 20,9 km/h (4 Bft)
06.03.2017 12:03 7,2 °C 7,2 °C 57 % 1003,2 hPa 0,0 mm 11,1 km/h (2 Bft) W 281 ° 1 min 0,000 mm 3,2 UV-I 601 W/m² -0,7 °C 5,1 °C 17,7 km/h (3 Bft)
06.03.2017 12:04 7,3 °C 7,3 °C 57 % 1003,1 hPa 0,0 mm 9,3 km/h (2 Bft) W 265 ° 1 min 0,000 mm 3,3 UV-I 629 W/m² -0,6 °C 5,5 °C 14,5 km/h (3 Bft)
06.03.2017 12:05 7,3 °C 7,3 °C 53 % 1003,2 hPa 0,0 mm 10,7 km/h (2 Bft) W 275 ° 1 min 0,000 mm 3,4 UV-I 643 W/m² -1,6 °C 5,3 °C 16,1 km/h (3 Bft)
06.03.2017 12:06 7,3 °C 7,3 °C 53 % 1003,1 hPa 0,0 mm 10,8 km/h (2 Bft) W 263 ° 1 min 0,000 mm 3,4 UV-I 649 W/m² -1,6 °C 5,3 °C 14,5 km/h (3 Bft)
06.03.2017 12:07 7,3 °C 7,3 °C 53 % 1003,1 hPa 0,0 mm 12,5 km/h (3 Bft) W 274 ° 1 min 0,000 mm 3,4 UV-I 631 W/m² -1,6 °C 5,0 °C 19,3 km/h (3 Bft)
06.03.2017 12:08 7,4 °C 7,4 °C 55 % 1003,1 hPa 0,0 mm 8,6 km/h (2 Bft) W-SW 250 ° 1 min 0,000 mm 3,4 UV-I 643 W/m² -1,0 °C 5,8 °C 11,3 km/h (2 Bft)
06.03.2017 12:09 7,6 °C 7,6 °C 55 % 1003,1 hPa 0,0 mm 13,1 km/h (3 Bft) W 259 ° 1 min 0,000 mm 3,2 UV-I 585 W/m² -0,9 °C 5,2 °C 20,9 km/h (4 Bft)
06.03.2017 12:10 7,6 °C 7,6 °C 53 % 1003,0 hPa 0,0 mm 12,1 km/h (2 Bft) W-SW 254 ° 1 min 0,000 mm 3,2 UV-I 550 W/m² -1,4 °C 5,4 °C 19,3 km/h (3 Bft)
06.03.2017 12:11 7,5 °C 7,6 °C 52 % 1003,0 hPa 0,0 mm 12,1 km/h (2 Bft) W-NW 290 ° 1 min 0,000 mm 3,1 UV-I 529 W/m² -1,7 °C 5,3 °C 17,7 km/h (3 Bft)
06.03.2017 12:12 7,6 °C 7,6 °C 55 % 1002,9 hPa 0,0 mm 12,5 km/h (3 Bft) W-NW 288 ° 1 min 0,000 mm 3,2 UV-I 617 W/m² -0,9 °C 5,3 °C 19,3 km/h (3 Bft)
06.03.2017 12:13 7,5 °C 7,6 °C 52 % 1002,9 hPa 0,0 mm 11,5 km/h (2 Bft) W-NW 288 ° 1 min 0,000 mm 3,3 UV-I 594 W/m² -1,7 °C 5,4 °C 16,1 km/h (3 Bft)
06.03.2017 12:14 7,7 °C 7,7 °C 54 % 1002,9 hPa 0,0 mm 9,9 km/h (2 Bft) W-SW 257 ° 1 min 0,000 mm 3,4 UV-I 613 W/m² -1,0 °C 5,9 °C 19,3 km/h (3 Bft)
06.03.2017 12:15 7,7 °C 7,7 °C 53 % 1002,8 hPa 0,0 mm 14,7 km/h (3 Bft) W 263 ° 1 min 0,000 mm 3,4 UV-I 635 W/m² -1,3 °C 5,1 °C 22,5 km/h (4 Bft)
06.03.2017 12:16 7,8 °C 7,8 °C 50 % 1002,8 hPa 0,0 mm 13,9 km/h (3 Bft) W-SW 250 ° 1 min 0,000 mm 3,3 UV-I 624 W/m² -2,0 °C 5,4 °C 17,7 km/h (3 Bft)
06.03.2017 12:17 7,8 °C 7,8 °C 50 % 1002,7 hPa 0,0 mm 10,7 km/h (2 Bft) S-SW 200 ° 1 min 0,000 mm 3,4 UV-I 612 W/m² -2,0 °C 5,9 °C 17,7 km/h (3 Bft)
06.03.2017 12:18 7,8 °C 7,8 °C 50 % 1002,6 hPa 0,0 mm 5,9 km/h (2 Bft) SW 232 ° 1 min 0,000 mm 3,4 UV-I 636 W/m² -2,0 °C 7,0 °C 9,7 km/h (2 Bft)
06.03.2017 12:19 7,8 °C 7,8 °C 53 % 1002,6 hPa 0,0 mm 7,2 km/h (2 Bft) W-NW 287 ° 1 min 0,000 mm 3,4 UV-I 629 W/m² -1,2 °C 6,6 °C 12,9 km/h (3 Bft)
06.03.2017 12:20 7,8 °C 7,8 °C 51 % 1002,6 hPa 0,0 mm 9,1 km/h (2 Bft) W-SW 247 ° 1 min 0,000 mm 3,4 UV-I 605 W/m² -1,7 °C 6,2 °C 12,9 km/h (3 Bft)
06.03.2017 12:21 7,9 °C 7,9 °C 51 % 1002,6 hPa 0,0 mm 12,3 km/h (3 Bft) W 279 ° 1 min 0,000 mm 2,4 UV-I 645 W/m² -1,6 °C 5,7 °C 17,7 km/h (3 Bft)
06.03.2017 12:22 7,8 °C 7,9 °C 50 % 1002,6 hPa 0,0 mm 17,2 km/h (3 Bft) W-NW 283 ° 1 min 0,000 mm 1,9 UV-I 645 W/m² -2,0 °C 4,9 °C 20,9 km/h (4 Bft)
06.03.2017 12:23 7,7 °C 7,8 °C 51 % 1002,5 hPa 0,0 mm 13,6 km/h (3 Bft) W 279 ° 1 min 0,000 mm 3,3 UV-I 650 W/m² -1,8 °C 5,3 °C 17,7 km/h (3 Bft)
06.03.2017 12:24 7,7 °C 7,7 °C 51 % 1002,5 hPa 0,0 mm 11,5 km/h (2 Bft) W-NW 288 ° 1 min 0,000 mm 3,4 UV-I 603 W/m² -1,8 °C 5,6 °C 14,5 km/h (3 Bft)
06.03.2017 12:25 7,7 °C 7,7 °C 50 % 1002,5 hPa 0,0 mm 14,5 km/h (3 Bft) W-NW 302 ° 1 min 0,000 mm 3,3 UV-I 605 W/m² -2,1 °C 5,1 °C 20,9 km/h (4 Bft)
06.03.2017 12:26 7,7 °C 7,7 °C 51 % 1002,4 hPa 0,0 mm 13,7 km/h (3 Bft) W 276 ° 1 min 0,000 mm 3,2 UV-I 589 W/m² -1,8 °C 5,3 °C 22,5 km/h (4 Bft)
06.03.2017 12:27 7,7 °C 7,7 °C 48 % 1002,4 hPa 0,0 mm 18,2 km/h (3 Bft) W 267 ° 1 min 0,000 mm 3,2 UV-I 575 W/m² -2,6 °C 4,7 °C 24,1 km/h (4 Bft)
06.03.2017 12:28 7,6 °C 7,7 °C 48 % 1002,4 hPa 0,0 mm 13,3 km/h (3 Bft) W 281 ° 1 min 0,000 mm 3,2 UV-I 566 W/m² -2,7 °C 5,2 °C 20,9 km/h (4 Bft)
06.03.2017 12:29 7,6 °C 7,6 °C 51 % 1002,4 hPa 0,0 mm 8,6 km/h (2 Bft) W-SW 246 ° 1 min 0,000 mm 2,6 UV-I 566 W/m² -1,9 °C 6,1 °C 14,5 km/h (3 Bft)
06.03.2017 12:30 7,6 °C 7,6 °C 50 % 1002,4 hPa 0,0 mm 12,9 km/h (3 Bft) W-SW 246 ° 1 min 0,000 mm 3,1 UV-I 548 W/m² -2,1 °C 5,3 °C 16,1 km/h (3 Bft)
06.03.2017 12:31 7,6 °C 7,6 °C 49 % 1002,3 hPa 0,0 mm 9,4 km/h (2 Bft) W-NW 302 ° 1 min 0,000 mm 3,1 UV-I 548 W/m² -2,4 °C 5,9 °C 14,5 km/h (3 Bft)
06.03.2017 12:32 7,6 °C 7,7 °C 49 % 1002,3 hPa 0,0 mm 6,1 km/h (2 Bft) NW 304 ° 1 min 0,000 mm 2,1 UV-I 548 W/m² -2,4 °C 6,7 °C 9,7 km/h (2 Bft)
06.03.2017 12:33 7,7 °C 7,7 °C 51 % 1002,3 hPa 0,0 mm 3,8 km/h (1 Bft) W-SW 258 ° 1 min 0,000 mm 2,6 UV-I 548 W/m² -1,8 °C 7,7 °C 9,7 km/h (2 Bft)
06.03.2017 12:34 7,8 °C 7,8 °C 52 % 1002,3 hPa 0,0 mm 6,6 km/h (2 Bft) W 268 ° 1 min 0,000 mm 3,0 UV-I 548 W/m² -1,4 °C 6,8 °C 12,9 km/h (3 Bft)
06.03.2017 12:35 7,8 °C 7,8 °C 51 % 1002,1 hPa 0,0 mm 6,5 km/h (2 Bft) W-NW 303 ° 1 min 0,000 mm 3,0 UV-I 497 W/m² -1,7 °C 6,8 °C 9,7 km/h (2 Bft)
06.03.2017 12:36 7,9 °C 7,9 °C 48 % 1002,1 hPa 0,0 mm 8,5 km/h (2 Bft) W 271 ° 1 min 0,000 mm 3,0 UV-I 497 W/m² -2,4 °C 6,4 °C 11,3 km/h (2 Bft)
06.03.2017 12:37 7,9 °C 7,9 °C 50 % 1002,1 hPa 0,0 mm 13,0 km/h (3 Bft) W-NW 284 ° 1 min 0,000 mm 3,1 UV-I 487 W/m² -1,9 °C 5,6 °C 22,5 km/h (4 Bft)
06.03.2017 12:38 7,9 °C 7,9 °C 48 % 1002,1 hPa 0,0 mm 14,8 km/h (3 Bft) W 269 ° 1 min 0,000 mm 3,2 UV-I 578 W/m² -2,4 °C 5,4 °C 22,5 km/h (4 Bft)
06.03.2017 12:39 7,8 °C 7,9 °C 46 % 1002,1 hPa 0,0 mm 9,5 km/h (2 Bft) W-SW 251 ° 1 min 0,000 mm 3,1 UV-I 548 W/m² -3,1 °C 6,1 °C 20,9 km/h (4 Bft)
06.03.2017 12:40 7,7 °C 7,8 °C 48 % 1002,0 hPa 0,0 mm 16,6 km/h (3 Bft) W 268 ° 1 min 0,000 mm 2,9 UV-I 476 W/m² -2,6 °C 4,9 °C 22,5 km/h (4 Bft)
06.03.2017 12:41 7,7 °C 7,7 °C 49 % 1002,1 hPa 0,0 mm 12,1 km/h (2 Bft) W 275 ° 1 min 0,000 mm 2,5 UV-I 462 W/m² -2,3 °C 5,5 °C 14,5 km/h (3 Bft)
06.03.2017 12:42 7,8 °C 7,8 °C 51 % 1002,1 hPa 0,0 mm 10,1 km/h (2 Bft) W 269 ° 1 min 0,000 mm 3,1 UV-I 555 W/m² -1,7 °C 6,0 °C 12,9 km/h (3 Bft)
06.03.2017 12:43 7,9 °C 7,9 °C 54 % 1002,1 hPa 0,0 mm 5,1 km/h (1 Bft) S-SW 192 ° 1 min 0,000 mm 3,1 UV-I 548 W/m² -0,8 °C 7,3 °C 8,0 km/h (2 Bft)
06.03.2017 12:44 8,0 °C 8,0 °C 49 % 1002,0 hPa 0,0 mm 5,3 km/h (1 Bft) W 267 ° 1 min 0,000 mm 3,0 UV-I 483 W/m² -2,0 °C 7,4 °C 9,7 km/h (2 Bft)
06.03.2017 12:45 8,1 °C 8,1 °C 49 % 1001,9 hPa 0,0 mm 10,9 km/h (2 Bft) W-SW 248 ° 1 min 0,000 mm 3,0 UV-I 501 W/m² -2,0 °C 6,2 °C 16,1 km/h (3 Bft)
06.03.2017 12:46 8,0 °C 8,1 °C 47 % 1001,9 hPa 0,0 mm 15,9 km/h (3 Bft) W-SW 257 ° 1 min 0,000 mm 3,0 UV-I 492 W/m² -2,6 °C 5,3 °C 19,3 km/h (3 Bft)
06.03.2017 12:47 7,9 °C 8,0 °C 48 % 1001,9 hPa 0,0 mm 9,3 km/h (2 Bft) W-NW 283 ° 1 min 0,000 mm 3,0 UV-I 554 W/m² -2,4 °C 6,3 °C 19,3 km/h (3 Bft)
06.03.2017 12:48 7,9 °C 7,9 °C 48 % 1001,9 hPa 0,0 mm 11,4 km/h (2 Bft) W-NW 296 ° 1 min 0,000 mm 3,3 UV-I 554 W/m² -2,4 °C 5,9 °C 17,7 km/h (3 Bft)
06.03.2017 12:49 7,9 °C 7,9 °C 48 % 1001,9 hPa 0,0 mm 13,1 km/h (3 Bft) SW 236 ° 1 min 0,000 mm 3,3 UV-I 554 W/m² -2,4 °C 5,6 °C 19,3 km/h (3 Bft)
06.03.2017 12:50 7,9 °C 7,9 °C 50 % 1001,8 hPa 0,0 mm 13,6 km/h (3 Bft) SW 224 ° 1 min 0,000 mm 3,3 UV-I 554 W/m² -1,9 °C 5,5 °C 22,5 km/h (4 Bft)
06.03.2017 12:51 8,1 °C 8,1 °C 49 % 1001,8 hPa 0,0 mm 10,1 km/h (2 Bft) W 271 ° 1 min 0,000 mm 3,3 UV-I 613 W/m² -2,0 °C 6,3 °C 14,5 km/h (3 Bft)
06.03.2017 12:52 8,1 °C 8,1 °C 50 % 1001,8 hPa 0,0 mm 17,1 km/h (3 Bft) SW 220 ° 1 min 0,000 mm 3,2 UV-I 635 W/m² -1,7 °C 5,3 °C 20,9 km/h (4 Bft)
06.03.2017 12:53 8,3 °C 8,3 °C 50 % 1001,7 hPa 0,0 mm 5,1 km/h (1 Bft) SW 235 ° 1 min 0,000 mm 3,2 UV-I 652 W/m² -1,5 °C 7,8 °C 9,7 km/h (2 Bft)
06.03.2017 12:54 8,3 °C 8,3 °C 48 % 1001,7 hPa 0,0 mm 7,4 km/h (2 Bft) S 188 ° 1 min 0,000 mm 3,5 UV-I 668 W/m² -2,1 °C 7,1 °C 14,5 km/h (3 Bft)
06.03.2017 12:55 8,2 °C 8,3 °C 45 % 1001,7 hPa 0,0 mm 10,3 km/h (2 Bft) W-SW 240 ° 1 min 0,000 mm 3,3 UV-I 596 W/m² -3,0 °C 6,4 °C 14,5 km/h (3 Bft)
06.03.2017 12:56 8,2 °C 8,2 °C 48 % 1001,7 hPa 0,0 mm 6,9 km/h (2 Bft) SW 218 ° 1 min 0,000 mm 3,0 UV-I 510 W/m² -2,1 °C 7,2 °C 12,9 km/h (3 Bft)
06.03.2017 12:57 8,2 °C 8,2 °C 48 % 1001,6 hPa 0,0 mm 8,5 km/h (2 Bft) W 279 ° 1 min 0,000 mm 2,7 UV-I 506 W/m² -2,1 °C 6,8 °C 12,9 km/h (3 Bft)
06.03.2017 12:58 8,2 °C 8,2 °C 50 % 1001,6 hPa 0,0 mm 8,7 km/h (2 Bft) S-SW 205 ° 1 min 0,000 mm 2,8 UV-I 540 W/m² -1,6 °C 6,7 °C 12,9 km/h (3 Bft)
06.03.2017 12:59 8,2 °C 8,2 °C 50 % 1001,6 hPa 0,0 mm 3,9 km/h (1 Bft) W-SW 250 ° 1 min 0,000 mm 3,1 UV-I 580 W/m² -1,6 °C 8,2 °C 8,0 km/h (2 Bft)
06.03.2017 13:00 8,3 °C 8,3 °C 53 % 1001,6 hPa 0,0 mm 5,3 km/h (1 Bft) NW 314 ° 1 min 0,000 mm 2,9 UV-I 526 W/m² -0,7 °C 7,7 °C 9,7 km/h (2 Bft)
06.03.2017 13:01 8,4 °C 8,4 °C 49 % 1001,6 hPa 0,0 mm 8,9 km/h (2 Bft) W 281 ° 1 min 0,279 mm 3,1 UV-I 534 W/m² -1,7 °C 6,9 °C 17,7 km/h (3 Bft)
06.03.2017 13:02 8,4 °C 8,5 °C 48 % 1001,6 hPa 0,0 mm 13,7 km/h (3 Bft) W-SW 250 ° 1 min 0,000 mm 3,2 UV-I 594 W/m² -2,0 °C 6,1 °C 19,3 km/h (3 Bft)
06.03.2017 13:03 8,4 °C 8,5 °C 48 % 1001,6 hPa 0,0 mm 12,1 km/h (2 Bft) W-NW 288 ° 1 min 0,000 mm 3,1 UV-I 587 W/m² -2,0 °C 6,4 °C 17,7 km/h (3 Bft)
06.03.2017 13:04 8,4 °C 8,4 °C 48 % 1001,6 hPa 0,0 mm 7,6 km/h (2 Bft) W-NW 292 ° 1 min 0,000 mm 3,1 UV-I 613 W/m² -2,0 °C 7,2 °C 14,5 km/h (3 Bft)
06.03.2017 13:05 8,4 °C 8,4 °C 47 % 1001,5 hPa 0,0 mm 7,2 km/h (2 Bft) W-NW 295 ° 1 min 0,000 mm 3,1 UV-I 545 W/m² -2,2 °C 7,3 °C 11,3 km/h (2 Bft)
06.03.2017 13:06 8,3 °C 8,4 °C 49 % 1001,5 hPa 0,0 mm 8,7 km/h (2 Bft) W-NW 300 ° 1 min 0,000 mm 3,1 UV-I 598 W/m² -1,8 °C 6,9 °C 14,5 km/h (3 Bft)
06.03.2017 13:07 8,4 °C 8,4 °C 49 % 1001,5 hPa 0,0 mm 8,9 km/h (2 Bft) NW 315 ° 1 min 0,000 mm 3,1 UV-I 599 W/m² -1,7 °C 6,9 °C 12,9 km/h (3 Bft)
06.03.2017 13:08 8,3 °C 8,4 °C 48 % 1001,4 hPa 0,0 mm 7,0 km/h (2 Bft) NW 311 ° 1 min 0,000 mm 2,9 UV-I 599 W/m² -2,1 °C 7,2 °C 11,3 km/h (2 Bft)
06.03.2017 13:09 8,3 °C 8,3 °C 48 % 1001,4 hPa 0,0 mm 10,7 km/h (2 Bft) W 281 ° 1 min 0,000 mm 2,8 UV-I 475 W/m² -2,1 °C 6,5 °C 17,7 km/h (3 Bft)
06.03.2017 13:10 8,3 °C 8,3 °C 49 % 1001,5 hPa 0,0 mm 11,5 km/h (2 Bft) W 266 ° 1 min 0,000 mm 2,9 UV-I 418 W/m² -1,8 °C 6,3 °C 16,1 km/h (3 Bft)
06.03.2017 13:11 8,2 °C 8,3 °C 47 % 1001,4 hPa 0,0 mm 5,7 km/h (1 Bft) W-NW 286 ° 1 min 0,000 mm 2,8 UV-I 485 W/m² -2,4 °C 7,5 °C 11,3 km/h (2 Bft)
06.03.2017 13:12 8,2 °C 8,2 °C 46 % 1001,3 hPa 0,0 mm 2,8 km/h (1 Bft) W-SW 253 ° 1 min 0,000 mm 2,9 UV-I 469 W/m² -2,7 °C 8,2 °C 6,4 km/h (2 Bft)
06.03.2017 13:13 8,2 °C 8,2 °C 47 % 1001,4 hPa 0,0 mm 3,2 km/h (1 Bft) W-NW 282 ° 1 min 0,000 mm 3,0 UV-I 531 W/m² -2,4 °C 8,2 °C 9,7 km/h (2 Bft)
06.03.2017 13:14 8,3 °C 8,3 °C 47 % 1001,4 hPa 0,0 mm 11,7 km/h (2 Bft) W 275 ° 1 min 0,000 mm 3,0 UV-I 547 W/m² -2,3 °C 6,3 °C 17,7 km/h (3 Bft)
06.03.2017 13:15 8,3 °C 8,3 °C 47 % 1001,3 hPa 0,0 mm 13,3 km/h (3 Bft) NW 313 ° 1 min 0,000 mm 2,8 UV-I 520 W/m² -2,3 °C 6,1 °C 19,3 km/h (3 Bft)
06.03.2017 13:16 8,4 °C 8,4 °C 46 % 1001,3 hPa 0,0 mm 15,9 km/h (3 Bft) W 269 ° 1 min 0,000 mm 3,0 UV-I 510 W/m² -2,5 °C 5,8 °C 20,9 km/h (4 Bft)
06.03.2017 13:17 8,4 °C 8,4 °C 48 % 1001,3 hPa 0,0 mm 9,5 km/h (2 Bft) W 279 ° 1 min 0,000 mm 2,8 UV-I 515 W/m² -2,0 °C 6,8 °C 12,9 km/h (3 Bft)
06.03.2017 13:18 8,5 °C 8,5 °C 48 % 1001,3 hPa 0,0 mm 9,2 km/h (2 Bft) W-NW 296 ° 1 min 0,000 mm 2,9 UV-I 496 W/m² -1,9 °C 7,0 °C 16,1 km/h (3 Bft)
06.03.2017 13:19 8,4 °C 8,5 °C 46 % 1001,3 hPa 0,0 mm 7,8 km/h (2 Bft) W-NW 289 ° 1 min 0,000 mm 3,1 UV-I 545 W/m² -2,5 °C 7,2 °C 12,9 km/h (3 Bft)
06.03.2017 13:20 8,4 °C 8,4 °C 45 % 1001,2 hPa 0,0 mm 11,2 km/h (2 Bft) W-SW 257 ° 1 min 0,000 mm 3,1 UV-I 585 W/m² -2,8 °C 6,5 °C 20,9 km/h (4 Bft)
06.03.2017 13:21 8,3 °C 8,4 °C 47 % 1001,2 hPa 0,0 mm 15,4 km/h (3 Bft) W-SW 242 ° 1 min 0,000 mm 3,0 UV-I 554 W/m² -2,3 °C 5,8 °C 19,3 km/h (3 Bft)
06.03.2017 13:22 8,4 °C 8,4 °C 49 % 1001,2 hPa 0,0 mm 17,6 km/h (3 Bft) W 266 ° 1 min 0,000 mm 2,6 UV-I 554 W/m² -1,7 °C 5,6 °C 22,5 km/h (4 Bft)
06.03.2017 13:23 8,4 °C 8,4 °C 50 % 1001,2 hPa 0,0 mm 6,9 km/h (2 Bft) W-NW 290 ° 1 min 0,000 mm 3,0 UV-I 559 W/m² -1,4 °C 7,4 °C 12,9 km/h (3 Bft)
06.03.2017 13:24 8,5 °C 8,5 °C 49 % 1001,2 hPa 0,0 mm 9,0 km/h (2 Bft) NW 311 ° 1 min 0,000 mm 2,9 UV-I 504 W/m² -1,6 °C 7,0 °C 17,7 km/h (3 Bft)
06.03.2017 13:25 8,7 °C 8,7 °C 50 % 1001,1 hPa 0,0 mm 8,4 km/h (2 Bft) W-NW 296 ° 1 min 0,000 mm 3,1 UV-I 587 W/m² -1,1 °C 7,4 °C 16,1 km/h (3 Bft)
06.03.2017 13:26 8,7 °C 8,7 °C 48 % 1001,1 hPa 0,0 mm 11,6 km/h (2 Bft) NW 326 ° 1 min 0,000 mm 3,0 UV-I 554 W/m² -1,7 °C 6,8 °C 16,1 km/h (3 Bft)
06.03.2017 13:27 8,6 °C 8,7 °C 45 % 1001,1 hPa 0,0 mm 14,3 km/h (3 Bft) W-NW 282 ° 1 min 0,000 mm 2,9 UV-I 469 W/m² -2,6 °C 6,3 °C 19,3 km/h (3 Bft)
06.03.2017 13:28 8,6 °C 8,6 °C 45 % 1001,1 hPa 0,0 mm 9,9 km/h (2 Bft) W-NW 284 ° 1 min 0,000 mm 2,9 UV-I 492 W/m² -2,6 °C 7,0 °C 14,5 km/h (3 Bft)
06.03.2017 13:29 8,4 °C 8,6 °C 44 % 1001,0 hPa 0,0 mm 4,9 km/h (1 Bft) W-NW 289 ° 1 min 0,000 mm 2,8 UV-I 496 W/m² -3,1 °C 8,0 °C 6,4 km/h (2 Bft)
06.03.2017 13:30 8,4 °C 8,4 °C 44 % 1000,9 hPa 0,0 mm 8,3 km/h (2 Bft) W 272 ° 1 min 0,000 mm 2,6 UV-I 503 W/m² -3,1 °C 7,1 °C 12,9 km/h (3 Bft)
06.03.2017 13:31 8,4 °C 8,4 °C 46 % 1000,9 hPa 0,0 mm 9,1 km/h (2 Bft) W-SW 245 ° 1 min 0,000 mm 2,6 UV-I 473 W/m² -2,5 °C 6,9 °C 14,5 km/h (3 Bft)
06.03.2017 13:32 8,4 °C 8,5 °C 47 % 1000,9 hPa 0,0 mm 11,1 km/h (2 Bft) S-SW 207 ° 1 min 0,000 mm 2,6 UV-I 427 W/m² -2,2 °C 6,5 °C 17,7 km/h (3 Bft)
06.03.2017 13:33 8,4 °C 8,5 °C 49 % 1000,8 hPa 0,0 mm 10,8 km/h (2 Bft) W-NW 298 ° 1 min 0,000 mm 2,6 UV-I 446 W/m² -1,7 °C 6,6 °C 20,9 km/h (4 Bft)
06.03.2017 13:34 8,4 °C 8,4 °C 50 % 1000,8 hPa 0,0 mm 9,8 km/h (2 Bft) W-NW 294 ° 1 min 0,000 mm 2,7 UV-I 448 W/m² -1,4 °C 6,8 °C 16,1 km/h (3 Bft)
06.03.2017 13:35 8,4 °C 8,4 °C 53 % 1000,8 hPa 0,0 mm 10,8 km/h (2 Bft) NW 325 ° 1 min 0,000 mm 2,7 UV-I 473 W/m² -0,6 °C 6,6 °C 16,1 km/h (3 Bft)
06.03.2017 13:36 8,4 °C 8,4 °C 50 % 1000,8 hPa 0,0 mm 13,5 km/h (3 Bft) W-NW 286 ° 1 min 0,000 mm 2,5 UV-I 436 W/m² -1,4 °C 6,1 °C 16,1 km/h (3 Bft)
06.03.2017 13:37 8,3 °C 8,4 °C 51 % 1000,7 hPa 0,0 mm 7,6 km/h (2 Bft) W-NW 284 ° 1 min 0,000 mm 2,5 UV-I 394 W/m² -1,2 °C 7,1 °C 12,9 km/h (3 Bft)
06.03.2017 13:38 8,4 °C 8,4 °C 51 % 1000,6 hPa 0,0 mm 11,0 km/h (2 Bft) N-NW 333 ° 1 min 0,000 mm 2,3 UV-I 376 W/m² -1,1 °C 6,5 °C 16,1 km/h (3 Bft)
06.03.2017 13:39 8,3 °C 8,4 °C 48 % 1000,6 hPa 0,0 mm 8,5 km/h (2 Bft) N-NW 331 ° 1 min 0,000 mm 2,3 UV-I 376 W/m² -2,1 °C 6,9 °C 14,5 km/h (3 Bft)
06.03.2017 13:40 8,3 °C 8,3 °C 48 % 1000,6 hPa 0,0 mm 7,2 km/h (2 Bft) N 355 ° 1 min 0,000 mm 2,0 UV-I 288 W/m² -2,1 °C 7,2 °C 9,7 km/h (2 Bft)
06.03.2017 13:41 8,3 °C 8,3 °C 49 % 1000,6 hPa 0,0 mm 6,6 km/h (2 Bft) NW 305 ° 1 min 0,000 mm 2,1 UV-I 251 W/m² -1,8 °C 7,4 °C 12,9 km/h (3 Bft)
06.03.2017 13:42 8,3 °C 8,3 °C 50 % 1000,6 hPa 0,0 mm 7,6 km/h (2 Bft) NW 304 ° 1 min 0,000 mm 1,9 UV-I 248 W/m² -1,5 °C 7,1 °C 12,9 km/h (3 Bft)
06.03.2017 13:43 8,3 °C 8,3 °C 50 % 1000,7 hPa 0,0 mm 7,5 km/h (2 Bft) NW 317 ° 1 min 0,000 mm 2,0 UV-I 281 W/m² -1,5 °C 7,1 °C 12,9 km/h (3 Bft)
06.03.2017 13:44 8,2 °C 8,3 °C 50 % 1000,7 hPa 0,0 mm 10,5 km/h (2 Bft) NW 316 ° 1 min 0,000 mm 2,0 UV-I 283 W/m² -1,6 °C 6,4 °C 16,1 km/h (3 Bft)
06.03.2017 13:45 8,2 °C 8,2 °C 51 % 1000,7 hPa 0,0 mm 14,8 km/h (3 Bft) W-NW 294 ° 1 min 0,000 mm 2,1 UV-I 341 W/m² -1,3 °C 5,7 °C 17,7 km/h (3 Bft)
06.03.2017 13:46 8,2 °C 8,2 °C 52 % 1000,6 hPa 0,0 mm 13,7 km/h (3 Bft) W 275 ° 1 min 0,000 mm 2,2 UV-I 329 W/m² -1,1 °C 5,9 °C 17,7 km/h (3 Bft)
06.03.2017 13:47 8,2 °C 8,3 °C 50 % 1000,7 hPa 0,0 mm 10,7 km/h (2 Bft) W 281 ° 1 min 0,000 mm 2,3 UV-I 348 W/m² -1,6 °C 6,4 °C 16,1 km/h (3 Bft)
06.03.2017 13:48 8,2 °C 8,2 °C 49 % 1000,7 hPa 0,0 mm 9,3 km/h (2 Bft) NW 317 ° 1 min 0,000 mm 2,2 UV-I 320 W/m² -1,9 °C 6,6 °C 14,5 km/h (3 Bft)
06.03.2017 13:49 8,2 °C 8,2 °C 49 % 1000,6 hPa 0,0 mm 7,4 km/h (2 Bft) W-NW 282 ° 1 min 0,000 mm 2,3 UV-I 364 W/m² -1,9 °C 7,0 °C 11,3 km/h (2 Bft)
06.03.2017 13:50 8,1 °C 8,2 °C 50 % 1000,6 hPa 0,0 mm 6,4 km/h (2 Bft) W 277 ° 1 min 0,000 mm 2,0 UV-I 306 W/m² -1,7 °C 7,2 °C 11,3 km/h (2 Bft)
06.03.2017 13:51 8,1 °C 8,1 °C 51 % 1000,6 hPa 0,0 mm 12,2 km/h (2 Bft) W-NW 285 ° 1 min 0,000 mm 2,2 UV-I 371 W/m² -1,4 °C 6,0 °C 14,5 km/h (3 Bft)
06.03.2017 13:52 8,1 °C 8,1 °C 50 % 1000,7 hPa 0,0 mm 6,4 km/h (2 Bft) W 267 ° 1 min 0,000 mm 2,2 UV-I 338 W/m² -1,7 °C 7,2 °C 11,3 km/h (2 Bft)
06.03.2017 13:53 8,2 °C 8,2 °C 51 % 1000,7 hPa 0,0 mm 9,7 km/h (2 Bft) NW 309 ° 1 min 0,000 mm 2,2 UV-I 355 W/m² -1,3 °C 6,5 °C 14,5 km/h (3 Bft)
06.03.2017 13:54 8,2 °C 8,2 °C 52 % 1000,7 hPa 0,0 mm 10,4 km/h (2 Bft) W-NW 284 ° 1 min 0,000 mm 1,9 UV-I 355 W/m² -1,1 °C 6,4 °C 14,5 km/h (3 Bft)
06.03.2017 13:55 8,1 °C 8,2 °C 51 % 1000,7 hPa 0,0 mm 9,1 km/h (2 Bft) W-NW 286 ° 1 min 0,000 mm 2,2 UV-I 355 W/m² -1,4 °C 6,5 °C 14,5 km/h (3 Bft)
06.03.2017 13:56 8,1 °C 8,1 °C 51 % 1000,7 hPa 0,0 mm 6,0 km/h (2 Bft) N 9 ° 1 min 0,000 mm 2,3 UV-I 373 W/m² -1,4 °C 7,3 °C 9,7 km/h (2 Bft)
06.03.2017 13:57 8,1 °C 8,1 °C 52 % 1000,6 hPa 0,0 mm 7,7 km/h (2 Bft) NW 309 ° 1 min 0,000 mm 2,3 UV-I 436 W/m² -1,2 °C 6,8 °C 11,3 km/h (2 Bft)
06.03.2017 13:58 8,1 °C 8,1 °C 53 % 1000,6 hPa 0,0 mm 8,5 km/h (2 Bft) W-NW 282 ° 1 min 0,000 mm 2,2 UV-I 357 W/m² -0,9 °C 6,7 °C 12,9 km/h (3 Bft)
06.03.2017 13:59 8,1 °C 8,1 °C 53 % 1000,6 hPa 0,0 mm 8,2 km/h (2 Bft) W-NW 296 ° 1 min 0,000 mm 2,2 UV-I 325 W/m² -0,9 °C 6,7 °C 11,3 km/h (2 Bft)
06.03.2017 14:00 8,1 °C 8,1 °C 53 % 1000,5 hPa 0,0 mm 6,2 km/h (2 Bft) N-NW 348 ° 1 min 0,254 mm 2,2 UV-I 285 W/m² -0,9 °C 7,2 °C 8,0 km/h (2 Bft)
06.03.2017 14:01 8,1 °C 8,1 °C 52 % 1000,5 hPa 0,0 mm 5,6 km/h (1 Bft) N 360 ° 1 min 0,000 mm 2,2 UV-I 353 W/m² -1,2 °C 7,4 °C 8,0 km/h (2 Bft)
06.03.2017 14:02 8,1 °C 8,1 °C 51 % 1000,4 hPa 0,0 mm 8,8 km/h (2 Bft) NW 318 ° 1 min 0,000 mm 2,4 UV-I 431 W/m² -1,4 °C 6,6 °C 20,9 km/h (4 Bft)
06.03.2017 14:03 8,2 °C 8,2 °C 53 % 1000,4 hPa 0,0 mm 13,1 km/h (3 Bft) W-NW 302 ° 1 min 0,000 mm 2,2 UV-I 348 W/m² -0,8 °C 6,0 °C 20,9 km/h (4 Bft)
06.03.2017 14:04 8,2 °C 8,2 °C 51 % 1000,5 hPa 0,0 mm 8,4 km/h (2 Bft) W 281 ° 1 min 0,000 mm 2,0 UV-I 311 W/m² -1,3 °C 6,8 °C 14,5 km/h (3 Bft)
06.03.2017 14:05 8,1 °C 8,2 °C 53 % 1000,5 hPa 0,0 mm 8,4 km/h (2 Bft) N-NW 340 ° 1 min 0,000 mm 1,8 UV-I 241 W/m² -0,9 °C 6,7 °C 14,5 km/h (3 Bft)
06.03.2017 14:06 8,1 °C 8,1 °C 51 % 1000,5 hPa 0,0 mm 7,2 km/h (2 Bft) NW 320 ° 1 min 0,000 mm 1,8 UV-I 239 W/m² -1,4 °C 7,0 °C 12,9 km/h (3 Bft)
06.03.2017 14:07 7,9 °C 8,1 °C 51 % 1000,4 hPa 0,0 mm 10,7 km/h (2 Bft) W-NW 295 ° 1 min 0,000 mm 1,9 UV-I 260 W/m² -1,6 °C 6,0 °C 16,1 km/h (3 Bft)
06.03.2017 14:08 7,9 °C 7,9 °C 52 % 1000,4 hPa 0,0 mm 7,5 km/h (2 Bft) W-SW 244 ° 1 min 0,000 mm 1,8 UV-I 301 W/m² -1,3 °C 6,7 °C 12,9 km/h (3 Bft)
06.03.2017 14:09 7,8 °C 7,9 °C 51 % 1000,4 hPa 0,0 mm 11,1 km/h (2 Bft) NW 319 ° 1 min 0,000 mm 1,9 UV-I 299 W/m² -1,7 °C 5,8 °C 14,5 km/h (3 Bft)
06.03.2017 14:10 7,8 °C 7,8 °C 52 % 1000,4 hPa 0,0 mm 9,8 km/h (2 Bft) W-NW 286 ° 1 min 0,000 mm 1,7 UV-I 269 W/m² -1,4 °C 6,0 °C 16,1 km/h (3 Bft)
06.03.2017 14:11 7,7 °C 7,8 °C 53 % 1000,5 hPa 0,0 mm 12,2 km/h (2 Bft) N-NW 330 ° 1 min 0,000 mm 1,6 UV-I 241 W/m² -1,3 °C 5,5 °C 17,7 km/h (3 Bft)
06.03.2017 14:12 7,7 °C 7,8 °C 52 % 1000,5 hPa 0,0 mm 8,0 km/h (2 Bft) W-NW 303 ° 1 min 0,000 mm 1,6 UV-I 250 W/m² -1,5 °C 6,3 °C 12,9 km/h (3 Bft)
06.03.2017 14:13 7,7 °C 7,7 °C 52 % 1000,4 hPa 0,0 mm 9,7 km/h (2 Bft) W-NW 288 ° 1 min 0,000 mm 1,6 UV-I 246 W/m² -1,5 °C 5,9 °C 16,1 km/h (3 Bft)
06.03.2017 14:14 7,7 °C 7,7 °C 52 % 1000,4 hPa 0,0 mm 9,5 km/h (2 Bft) W-NW 295 ° 1 min 0,000 mm 1,5 UV-I 227 W/m² -1,5 °C 6,0 °C 14,5 km/h (3 Bft)
06.03.2017 14:15 7,7 °C 7,7 °C 50 % 1000,3 hPa 0,0 mm 8,9 km/h (2 Bft) NW 319 ° 1 min 0,000 mm 1,6 UV-I 232 W/m² -2,1 °C 6,1 °C 16,1 km/h (3 Bft)
06.03.2017 14:16 7,7 °C 7,7 °C 52 % 1000,4 hPa 0,0 mm 12,4 km/h (3 Bft) W-NW 302 ° 1 min 0,000 mm 1,6 UV-I 225 W/m² -1,5 °C 5,5 °C 16,1 km/h (3 Bft)
06.03.2017 14:17 7,7 °C 7,7 °C 53 % 1000,3 hPa 0,0 mm 7,7 km/h (2 Bft) NW 306 ° 1 min 0,000 mm 1,6 UV-I 223 W/m² -1,3 °C 6,4 °C 11,3 km/h (2 Bft)
06.03.2017 14:18 7,7 °C 7,7 °C 52 % 1000,4 hPa 0,0 mm 7,5 km/h (2 Bft) W-NW 296 ° 1 min 0,000 mm 1,6 UV-I 225 W/m² -1,5 °C 6,4 °C 12,9 km/h (3 Bft)
06.03.2017 14:19 7,7 °C 7,7 °C 54 % 1000,3 hPa 0,0 mm 7,6 km/h (2 Bft) W 269 ° 1 min 0,000 mm 1,6 UV-I 229 W/m² -1,0 °C 6,4 °C 12,9 km/h (3 Bft)
06.03.2017 14:20 7,7 °C 7,7 °C 54 % 1000,3 hPa 0,0 mm 6,7 km/h (2 Bft) W-SW 258 ° 1 min 0,000 mm 1,6 UV-I 232 W/m² -1,0 °C 6,6 °C 9,7 km/h (2 Bft)
06.03.2017 14:21 7,6 °C 7,7 °C 54 % 1000,3 hPa 0,0 mm 8,9 km/h (2 Bft) NW 315 ° 1 min 0,000 mm 1,7 UV-I 244 W/m² -1,1 °C 6,0 °C 14,5 km/h (3 Bft)
06.03.2017 14:22 7,5 °C 7,6 °C 53 % 1000,3 hPa 0,0 mm 10,2 km/h (2 Bft) W-NW 287 ° 1 min 0,000 mm 1,7 UV-I 248 W/m² -1,4 °C 5,6 °C 17,7 km/h (3 Bft)
06.03.2017 14:23 7,5 °C 7,5 °C 54 % 1000,2 hPa 0,0 mm 9,6 km/h (2 Bft) W-NW 297 ° 1 min 0,000 mm 1,7 UV-I 253 W/m² -1,2 °C 5,7 °C 12,9 km/h (3 Bft)
06.03.2017 14:24 7,4 °C 7,5 °C 55 % 1000,2 hPa 0,0 mm 8,9 km/h (2 Bft) NW 317 ° 1 min 0,000 mm 1,7 UV-I 251 W/m² -1,0 °C 5,8 °C 12,9 km/h (3 Bft)
06.03.2017 14:25 7,4 °C 7,5 °C 54 % 1000,2 hPa 0,0 mm 9,7 km/h (2 Bft) W-NW 302 ° 1 min 0,000 mm 1,7 UV-I 246 W/m² -1,3 °C 5,6 °C 16,1 km/h (3 Bft)
06.03.2017 14:26 7,4 °C 7,4 °C 54 % 1000,2 hPa 0,0 mm 8,3 km/h (2 Bft) W-NW 298 ° 1 min 0,000 mm 1,6 UV-I 244 W/m² -1,3 °C 5,9 °C 12,9 km/h (3 Bft)
06.03.2017 14:27 7,4 °C 7,4 °C 54 % 1000,2 hPa 0,0 mm 9,8 km/h (2 Bft) W 278 ° 1 min 0,000 mm 1,6 UV-I 244 W/m² -1,3 °C 5,6 °C 16,1 km/h (3 Bft)
06.03.2017 14:28 7,3 °C 7,4 °C 53 % 1000,1 hPa 0,0 mm 7,3 km/h (2 Bft) W-SW 237 ° 1 min 0,000 mm 1,6 UV-I 246 W/m² -1,6 °C 6,0 °C 12,9 km/h (3 Bft)
06.03.2017 14:29 7,3 °C 7,3 °C 54 % 1000,1 hPa 0,0 mm 6,3 km/h (2 Bft) W-NW 282 ° 1 min 0,000 mm 1,6 UV-I 251 W/m² -1,4 °C 6,3 °C 12,9 km/h (3 Bft)
06.03.2017 14:30 7,3 °C 7,3 °C 54 % 1000,1 hPa 0,0 mm 9,8 km/h (2 Bft) W-NW 290 ° 1 min 0,000 mm 1,7 UV-I 257 W/m² -1,4 °C 5,4 °C 14,5 km/h (3 Bft)
06.03.2017 14:31 7,3 °C 7,3 °C 54 % 1000,1 hPa 0,0 mm 11,5 km/h (2 Bft) NW 313 ° 1 min 0,000 mm 1,7 UV-I 265 W/m² -1,4 °C 5,1 °C 16,1 km/h (3 Bft)
06.03.2017 14:32 7,4 °C 7,4 °C 57 % 1000,1 hPa 0,0 mm 10,1 km/h (2 Bft) NW 321 ° 1 min 0,000 mm 1,6 UV-I 243 W/m² -0,5 °C 5,5 °C 12,9 km/h (3 Bft)
06.03.2017 14:33 7,4 °C 7,4 °C 55 % 1000,1 hPa 0,0 mm 8,6 km/h (2 Bft) NW 309 ° 1 min 0,000 mm 1,6 UV-I 239 W/m² -1,0 °C 5,8 °C 14,5 km/h (3 Bft)
06.03.2017 14:34 7,4 °C 7,4 °C 55 % 1000,1 hPa 0,0 mm 7,5 km/h (2 Bft) W 269 ° 1 min 0,000 mm 1,6 UV-I 250 W/m² -1,0 °C 6,1 °C 14,5 km/h (3 Bft)
06.03.2017 14:35 7,3 °C 7,4 °C 55 % 1000,1 hPa 0,0 mm 6,4 km/h (2 Bft) W-NW 290 ° 1 min 0,000 mm 1,6 UV-I 246 W/m² -1,1 °C 6,3 °C 11,3 km/h (2 Bft)
06.03.2017 14:36 7,3 °C 7,4 °C 56 % 1000,1 hPa 0,0 mm 6,5 km/h (2 Bft) NW 313 ° 1 min 0,000 mm 1,6 UV-I 258 W/m² -0,9 °C 6,2 °C 11,3 km/h (2 Bft)
06.03.2017 14:37 7,3 °C 7,3 °C 57 % 1000,1 hPa 0,0 mm 6,0 km/h (2 Bft) NW 307 ° 1 min 0,000 mm 1,6 UV-I 269 W/m² -0,6 °C 6,4 °C 9,7 km/h (2 Bft)
06.03.2017 14:38 7,3 °C 7,3 °C 57 % 1000,1 hPa 0,0 mm 10,1 km/h (2 Bft) NW 311 ° 1 min 0,000 mm 1,6 UV-I 251 W/m² -0,6 °C 5,4 °C 17,7 km/h (3 Bft)
06.03.2017 14:39 7,3 °C 7,3 °C 58 % 1000,1 hPa 0,0 mm 10,8 km/h (2 Bft) NW 313 ° 1 min 0,000 mm 1,5 UV-I 241 W/m² -0,4 °C 5,3 °C 14,5 km/h (3 Bft)
06.03.2017 14:40 7,3 °C 7,4 °C 59 % 1000,1 hPa 0,0 mm 9,3 km/h (2 Bft) W-NW 283 ° 1 min 0,000 mm 1,5 UV-I 234 W/m² -0,2 °C 5,5 °C 14,5 km/h (3 Bft)
06.03.2017 14:41 7,3 °C 7,4 °C 58 % 1000,1 hPa 0,0 mm 8,4 km/h (2 Bft) NW 311 ° 1 min 0,000 mm 1,5 UV-I 232 W/m² -0,4 °C 5,7 °C 17,7 km/h (3 Bft)
06.03.2017 14:42 7,3 °C 7,3 °C 58 % 1000,1 hPa 0,0 mm 10,1 km/h (2 Bft) W-NW 303 ° 1 min 0,000 mm 1,4 UV-I 230 W/m² -0,4 °C 5,4 °C 19,3 km/h (3 Bft)
06.03.2017 14:43 7,2 °C 7,3 °C 56 % 1000,1 hPa 0,0 mm 8,4 km/h (2 Bft) W-NW 301 ° 1 min 0,000 mm 1,4 UV-I 230 W/m² -1,0 °C 5,6 °C 14,5 km/h (3 Bft)
06.03.2017 14:44 7,1 °C 7,2 °C 58 % 1000,1 hPa 0,0 mm 10,9 km/h (2 Bft) W-NW 300 ° 1 min 0,000 mm 1,4 UV-I 227 W/m² -0,6 °C 5,0 °C 16,1 km/h (3 Bft)
06.03.2017 14:45 7,1 °C 7,1 °C 60 % 1000,1 hPa 0,0 mm 9,4 km/h (2 Bft) W-NW 292 ° 1 min 0,000 mm 1,4 UV-I 227 W/m² -0,1 °C 5,3 °C 14,5 km/h (3 Bft)
06.03.2017 14:46 7,1 °C 7,1 °C 60 % 1000,1 hPa 0,0 mm 5,9 km/h (2 Bft) W-NW 290 ° 1 min 0,000 mm 1,4 UV-I 223 W/m² -0,1 °C 6,2 °C 8,0 km/h (2 Bft)
06.03.2017 14:47 7,1 °C 7,1 °C 60 % 1000,1 hPa 0,0 mm 9,0 km/h (2 Bft) W 271 ° 1 min 0,000 mm 1,4 UV-I 223 W/m² -0,1 °C 5,4 °C 12,9 km/h (3 Bft)
06.03.2017 14:48 7,1 °C 7,1 °C 60 % 1000,0 hPa 0,0 mm 7,2 km/h (2 Bft) NW 311 ° 1 min 0,000 mm 1,4 UV-I 225 W/m² -0,1 °C 5,8 °C 9,7 km/h (2 Bft)
06.03.2017 14:49 7,1 °C 7,1 °C 60 % 1000,0 hPa 0,0 mm 8,2 km/h (2 Bft) W 267 ° 1 min 0,000 mm 1,4 UV-I 230 W/m² -0,1 °C 5,6 °C 11,3 km/h (2 Bft)
06.03.2017 14:50 7,1 °C 7,1 °C 60 % 1000,0 hPa 0,0 mm 12,3 km/h (3 Bft) W-NW 300 ° 1 min 0,000 mm 1,4 UV-I 223 W/m² -0,1 °C 4,8 °C 17,7 km/h (3 Bft)
06.03.2017 14:51 7,0 °C 7,1 °C 59 % 1000,0 hPa 0,0 mm 7,8 km/h (2 Bft) W-NW 292 ° 1 min 0,000 mm 1,3 UV-I 220 W/m² -0,5 °C 5,5 °C 11,3 km/h (2 Bft)
06.03.2017 14:52 6,9 °C 7,0 °C 59 % 1000,0 hPa 0,0 mm 4,9 km/h (1 Bft) NW 311 ° 1 min 0,000 mm 1,3 UV-I 220 W/m² -0,5 °C 6,3 °C 6,4 km/h (2 Bft)
06.03.2017 14:53 7,0 °C 7,0 °C 61 % 1000,0 hPa 0,0 mm 5,7 km/h (1 Bft) N-NW 331 ° 1 min 0,000 mm 1,3 UV-I 213 W/m² 0,0 °C 6,1 °C 8,0 km/h (2 Bft)
06.03.2017 14:54 7,1 °C 7,1 °C 61 % 999,9 hPa 0,0 mm 6,6 km/h (2 Bft) NW 309 ° 1 min 0,000 mm 1,3 UV-I 207 W/m² 0,1 °C 6,0 °C 11,3 km/h (2 Bft)
06.03.2017 14:55 7,1 °C 7,1 °C 61 % 1000,0 hPa 0,0 mm 7,9 km/h (2 Bft) W-NW 296 ° 1 min 0,000 mm 1,3 UV-I 202 W/m² 0,1 °C 5,6 °C 12,9 km/h (3 Bft)
06.03.2017 14:56 7,1 °C 7,1 °C 60 % 999,9 hPa 0,0 mm 2,9 km/h (1 Bft) NW 309 ° 0 min 0,000 mm 1,3 UV-I 197 W/m² -0,1 °C 7,1 °C 4,8 km/h (1 Bft)
06.03.2017 14:57 7,1 °C 7,1 °C 60 % 999,9 hPa 0,0 mm 4,9 km/h (1 Bft) W-NW 294 ° 0 min 0,000 mm 1,3 UV-I 195 W/m² -0,1 °C 6,5 °C 6,4 km/h (2 Bft)
06.03.2017 14:58 7,1 °C 7,1 °C 60 % 999,9 hPa 0,0 mm 3,5 km/h (1 Bft) W-NW 296 ° 0 min 0,000 mm 1,3 UV-I 190 W/m² -0,1 °C 7,1 °C 6,4 km/h (2 Bft)
06.03.2017 14:59 7,0 °C 7,1 °C 59 % 999,9 hPa 0,0 mm 7,0 km/h (2 Bft) W-NW 289 ° 0 min 0,000 mm 1,2 UV-I 188 W/m² -0,5 °C 5,7 °C 11,3 km/h (2 Bft)
06.03.2017 15:00 7,0 °C 7,0 °C 61 % 999,9 hPa 0,0 mm 6,3 km/h (2 Bft) W-NW 291 ° 0 min 0,000 mm 1,2 UV-I 185 W/m² 0,0 °C 5,9 °C 8,0 km/h (2 Bft)
06.03.2017 15:01 7,0 °C 7,1 °C 61 % 999,9 hPa 0,0 mm 8,8 km/h (2 Bft) NW 325 ° 0 min 0,153 mm 1,2 UV-I 179 W/m² 0,0 °C 5,3 °C 12,9 km/h (3 Bft)
06.03.2017 15:02 7,0 °C 7,1 °C 60 % 999,8 hPa 0,0 mm 9,4 km/h (2 Bft) NW 316 ° 0 min 0,000 mm 1,2 UV-I 178 W/m² -0,2 °C 5,2 °C 14,5 km/h (3 Bft)
06.03.2017 15:03 6,9 °C 7,1 °C 60 % 999,9 hPa 0,0 mm 8,2 km/h (2 Bft) NW 319 ° 0 min 0,000 mm 1,2 UV-I 176 W/m² -0,3 °C 5,3 °C 11,3 km/h (2 Bft)
06.03.2017 15:04 6,9 °C 6,9 °C 60 % 999,8 hPa 0,0 mm 7,1 km/h (2 Bft) W-NW 300 ° 0 min 0,000 mm 1,2 UV-I 176 W/m² -0,3 °C 5,6 °C 11,3 km/h (2 Bft)
06.03.2017 15:05 6,9 °C 6,9 °C 61 % 999,9 hPa 0,0 mm 6,2 km/h (2 Bft) NW 314 ° 0 min 0,000 mm 1,2 UV-I 176 W/m² -0,1 °C 5,8 °C 11,3 km/h (2 Bft)
06.03.2017 15:06 6,9 °C 6,9 °C 61 % 999,8 hPa 0,0 mm 6,9 km/h (2 Bft) NW 316 ° 0 min 0,000 mm 1,2 UV-I 178 W/m² -0,1 °C 5,6 °C 12,9 km/h (3 Bft)
06.03.2017 15:07 6,9 °C 6,9 °C 62 % 999,8 hPa 0,0 mm 9,1 km/h (2 Bft) W-NW 296 ° 0 min 0,000 mm 1,2 UV-I 176 W/m² 0,1 °C 5,1 °C 12,9 km/h (3 Bft)
06.03.2017 15:08 6,9 °C 6,9 °C 63 % 999,9 hPa 0,0 mm 4,3 km/h (1 Bft) W-NW 302 ° 0 min 0,000 mm 1,2 UV-I 174 W/m² 0,4 °C 6,9 °C 9,7 km/h (2 Bft)
06.03.2017 15:09 6,8 °C 6,9 °C 61 % 999,8 hPa 0,0 mm 8,1 km/h (2 Bft) N-NW 336 ° 0 min 0,000 mm 1,2 UV-I 172 W/m² -0,2 °C 5,2 °C 12,9 km/h (3 Bft)
06.03.2017 15:10 6,8 °C 6,8 °C 62 % 999,8 hPa 0,0 mm 5,2 km/h (1 Bft) W-NW 302 ° 0 min 0,000 mm 1,2 UV-I 172 W/m² 0,0 °C 6,1 °C 8,0 km/h (2 Bft)
06.03.2017 15:11 6,8 °C 6,8 °C 61 % 999,8 hPa 0,0 mm 2,3 km/h (1 Bft) W-NW 302 ° 0 min 0,000 mm 1,1 UV-I 172 W/m² -0,2 °C 6,8 °C 3,2 km/h (1 Bft)
06.03.2017 15:12 6,7 °C 6,8 °C 62 % 999,8 hPa 0,0 mm 4,6 km/h (1 Bft) NW 319 ° 0 min 0,000 mm 1,2 UV-I 174 W/m² -0,1 °C 6,2 °C 6,4 km/h (2 Bft)
06.03.2017 15:13 6,8 °C 6,8 °C 63 % 999,8 hPa 0,0 mm 7,5 km/h (2 Bft) W-NW 302 ° 0 min 0,000 mm 1,2 UV-I 178 W/m² 0,3 °C 5,4 °C 12,9 km/h (3 Bft)
06.03.2017 15:14 6,8 °C 6,8 °C 63 % 999,8 hPa 0,0 mm 9,1 km/h (2 Bft) NW 321 ° 0 min 0,000 mm 1,2 UV-I 178 W/m² 0,3 °C 5,0 °C 11,3 km/h (2 Bft)
06.03.2017 15:15 6,8 °C 6,8 °C 63 % 999,8 hPa 0,0 mm 7,6 km/h (2 Bft) N-NW 329 ° 0 min 0,000 mm 1,2 UV-I 178 W/m² 0,3 °C 5,3 °C 11,3 km/h (2 Bft)
06.03.2017 15:16 6,8 °C 6,8 °C 63 % 999,7 hPa 0,0 mm 5,5 km/h (1 Bft) NW 310 ° 0 min 0,000 mm 1,2 UV-I 174 W/m² 0,3 °C 6,0 °C 9,7 km/h (2 Bft)
06.03.2017 15:17 6,8 °C 6,8 °C 62 % 999,7 hPa 0,0 mm 8,0 km/h (2 Bft) NW 323 ° 0 min 0,000 mm 1,2 UV-I 172 W/m² 0,0 °C 5,2 °C 12,9 km/h (3 Bft)
06.03.2017 15:18 6,7 °C 6,8 °C 63 % 999,6 hPa 0,0 mm 10,7 km/h (2 Bft) W-NW 297 ° 0 min 0,000 mm 1,1 UV-I 171 W/m² 0,2 °C 4,6 °C 14,5 km/h (3 Bft)
06.03.2017 15:19 6,8 °C 6,8 °C 64 % 999,6 hPa 0,0 mm 7,6 km/h (2 Bft) W-NW 298 ° 0 min 0,000 mm 1,1 UV-I 160 W/m² 0,5 °C 5,3 °C 11,3 km/h (2 Bft)
06.03.2017 15:20 6,8 °C 6,8 °C 65 % 999,6 hPa 0,0 mm 4,7 km/h (1 Bft) W-NW 299 ° 0 min 0,000 mm 1,1 UV-I 156 W/m² 0,7 °C 6,2 °C 8,0 km/h (2 Bft)
06.03.2017 15:21 6,7 °C 6,8 °C 63 % 999,5 hPa 0,0 mm 4,2 km/h (1 Bft) W 262 ° 0 min 0,000 mm 1,1 UV-I 155 W/m² 0,2 °C 6,7 °C 6,4 km/h (2 Bft)
06.03.2017 15:22 6,7 °C 6,7 °C 62 % 999,6 hPa 0,0 mm 4,1 km/h (1 Bft) W-NW 297 ° 0 min 0,000 mm 1,1 UV-I 151 W/m² -0,1 °C 6,7 °C 6,4 km/h (2 Bft)
06.03.2017 15:23 6,6 °C 6,7 °C 62 % 999,5 hPa 0,0 mm 4,6 km/h (1 Bft) W-NW 298 ° 0 min 0,000 mm 1,0 UV-I 148 W/m² -0,1 °C 6,0 °C 6,4 km/h (2 Bft)
06.03.2017 15:24 6,6 °C 6,6 °C 63 % 999,5 hPa 0,0 mm 3,5 km/h (1 Bft) NW 319 ° 0 min 0,000 mm 1,0 UV-I 146 W/m² 0,1 °C 6,6 °C 4,8 km/h (1 Bft)
06.03.2017 15:25 6,6 °C 6,6 °C 62 % 999,5 hPa 0,0 mm 2,5 km/h (1 Bft) NW 319 ° 0 min 0,000 mm 1,0 UV-I 142 W/m² -0,1 °C 6,6 °C 4,8 km/h (1 Bft)
06.03.2017 15:26 6,6 °C 6,6 °C 62 % 999,5 hPa 0,0 mm 5,8 km/h (2 Bft) W-NW 297 ° 0 min 0,000 mm 1,0 UV-I 142 W/m² -0,1 °C 5,6 °C 8,0 km/h (2 Bft)
06.03.2017 15:27 6,6 °C 6,6 °C 64 % 999,5 hPa 0,0 mm 7,9 km/h (2 Bft) NW 311 ° 0 min 0,000 mm 1,0 UV-I 142 W/m² 0,3 °C 5,0 °C 11,3 km/h (2 Bft)
06.03.2017 15:28 6,6 °C 6,7 °C 64 % 999,5 hPa 0,0 mm 5,2 km/h (1 Bft) NW 313 ° 0 min 0,000 mm 0,9 UV-I 142 W/m² 0,3 °C 5,8 °C 6,4 km/h (2 Bft)
06.03.2017 15:29 6,6 °C 6,7 °C 62 % 999,4 hPa 0,0 mm 7,0 km/h (2 Bft) NW 312 ° 0 min 0,000 mm 0,9 UV-I 142 W/m² -0,1 °C 5,3 °C 9,7 km/h (2 Bft)
06.03.2017 15:30 6,6 °C 6,6 °C 63 % 999,3 hPa 0,0 mm 5,8 km/h (2 Bft) W-NW 301 ° 0 min 0,000 mm 0,9 UV-I 141 W/m² 0,1 °C 5,6 °C 8,0 km/h (2 Bft)
06.03.2017 15:31 6,5 °C 6,6 °C 62 % 999,3 hPa 0,0 mm 2,6 km/h (1 Bft) W-NW 301 ° 0 min 0,000 mm 0,9 UV-I 139 W/m² -0,2 °C 6,5 °C 3,2 km/h (1 Bft)
06.03.2017 15:32 6,4 °C 6,5 °C 62 % 999,3 hPa 0,0 mm 4,9 km/h (1 Bft) W-NW 295 ° 0 min 0,000 mm 0,9 UV-I 139 W/m² -0,3 °C 5,7 °C 6,4 km/h (2 Bft)
06.03.2017 15:33 6,5 °C 6,5 °C 63 % 999,3 hPa 0,0 mm 3,8 km/h (1 Bft) W-NW 303 ° 0 min 0,000 mm 0,9 UV-I 139 W/m² -0,0 °C 6,5 °C 4,8 km/h (1 Bft)
06.03.2017 15:34 6,4 °C 6,5 °C 63 % 999,3 hPa 0,0 mm 4,4 km/h (1 Bft) NW 304 ° 0 min 0,000 mm 0,9 UV-I 139 W/m² -0,1 °C 6,4 °C 6,4 km/h (2 Bft)
06.03.2017 15:35 6,5 °C 6,5 °C 63 % 999,2 hPa 0,0 mm 5,8 km/h (2 Bft) W-NW 302 ° 0 min 0,000 mm 0,9 UV-I 141 W/m² -0,0 °C 5,5 °C 8,0 km/h (2 Bft)
06.03.2017 15:36 6,5 °C 6,5 °C 64 % 999,3 hPa 0,0 mm 6,7 km/h (2 Bft) NW 312 ° 0 min 0,000 mm 0,9 UV-I 141 W/m² 0,2 °C 5,2 °C 11,3 km/h (2 Bft)
06.03.2017 15:37 6,6 °C 6,6 °C 64 % 999,3 hPa 0,0 mm 2,9 km/h (1 Bft) N-NW 329 ° 0 min 0,000 mm 0,9 UV-I 141 W/m² 0,3 °C 6,6 °C 4,8 km/h (1 Bft)
06.03.2017 15:38 6,6 °C 6,6 °C 63 % 999,3 hPa 0,0 mm 3,2 km/h (1 Bft) NW 304 ° 0 min 0,000 mm 0,9 UV-I 139 W/m² 0,1 °C 6,6 °C 4,8 km/h (1 Bft)
06.03.2017 15:39 6,5 °C 6,6 °C 63 % 999,3 hPa 0,0 mm 3,0 km/h (1 Bft) NW 304 ° 0 min 0,000 mm 0,9 UV-I 137 W/m² -0,0 °C 6,5 °C 4,8 km/h (1 Bft)
06.03.2017 15:40 6,5 °C 6,5 °C 65 % 999,3 hPa 0,0 mm 4,0 km/h (1 Bft) W 279 ° 0 min 0,000 mm 0,9 UV-I 135 W/m² 0,4 °C 6,5 °C 6,4 km/h (2 Bft)
06.03.2017 15:41 6,5 °C 6,6 °C 63 % 999,3 hPa 0,0 mm 5,2 km/h (1 Bft) W-NW 303 ° 0 min 0,000 mm 0,9 UV-I 134 W/m² -0,0 °C 5,7 °C 6,4 km/h (2 Bft)
06.03.2017 15:42 6,5 °C 6,5 °C 64 % 999,3 hPa 0,0 mm 5,5 km/h (1 Bft) W-NW 303 ° 0 min 0,000 mm 0,9 UV-I 128 W/m² 0,2 °C 5,6 °C 8,0 km/h (2 Bft)
06.03.2017 15:43 6,4 °C 6,5 °C 63 % 999,3 hPa 0,0 mm 7,2 km/h (2 Bft) NW 315 ° 0 min 0,000 mm 0,9 UV-I 125 W/m² -0,1 °C 5,0 °C 11,3 km/h (2 Bft)
06.03.2017 15:44 6,5 °C 6,5 °C 64 % 999,4 hPa 0,0 mm 3,0 km/h (1 Bft) W-NW 285 ° 0 min 0,000 mm 0,8 UV-I 120 W/m² 0,2 °C 6,5 °C 6,4 km/h (2 Bft)
06.03.2017 15:45 6,4 °C 6,5 °C 65 % 999,3 hPa 0,0 mm 5,3 km/h (1 Bft) W-NW 302 ° 0 min 0,000 mm 0,8 UV-I 118 W/m² 0,3 °C 5,6 °C 6,4 km/h (2 Bft)
06.03.2017 15:46 6,4 °C 6,5 °C 64 % 999,3 hPa 0,0 mm 4,6 km/h (1 Bft) W-NW 283 ° 0 min 0,000 mm 0,8 UV-I 114 W/m² 0,1 °C 5,8 °C 6,4 km/h (2 Bft)
06.03.2017 15:47 6,4 °C 6,4 °C 64 % 999,3 hPa 0,0 mm 3,8 km/h (1 Bft) W-NW 286 ° 0 min 0,000 mm 0,8 UV-I 111 W/m² 0,1 °C 6,4 °C 11,3 km/h (2 Bft)
06.03.2017 15:48 6,4 °C 6,4 °C 64 % 999,3 hPa 0,0 mm 7,1 km/h (2 Bft) W-NW 297 ° 0 min 0,000 mm 0,8 UV-I 105 W/m² 0,1 °C 5,0 °C 11,3 km/h (2 Bft)
06.03.2017 15:49 6,4 °C 6,4 °C 64 % 999,3 hPa 0,0 mm 3,5 km/h (1 Bft) W-NW 296 ° 0 min 0,000 mm 0,7 UV-I 102 W/m² 0,1 °C 6,4 °C 4,8 km/h (1 Bft)
06.03.2017 15:50 6,3 °C 6,4 °C 63 % 999,3 hPa 0,0 mm 3,4 km/h (1 Bft) W-NW 291 ° 0 min 0,000 mm 0,7 UV-I 102 W/m² -0,2 °C 6,3 °C 4,8 km/h (1 Bft)
06.03.2017 15:51 6,3 °C 6,3 °C 63 % 999,3 hPa 0,0 mm 3,0 km/h (1 Bft) W-NW 302 ° 0 min 0,000 mm 0,7 UV-I 97 W/m² -0,2 °C 6,3 °C 4,8 km/h (1 Bft)
06.03.2017 15:52 6,2 °C 6,3 °C 64 % 999,3 hPa 0,0 mm 1,5 km/h (1 Bft) W-NW 302 ° 0 min 0,000 mm 0,7 UV-I 95 W/m² -0,1 °C 6,2 °C 3,2 km/h (1 Bft)
06.03.2017 15:53 6,2 °C 6,3 °C 64 % 999,3 hPa 0,0 mm 1,1 km/h (1 Bft) W-NW 302 ° 0 min 0,000 mm 0,6 UV-I 95 W/m² -0,1 °C 6,2 °C 3,2 km/h (1 Bft)
06.03.2017 15:54 6,2 °C 6,2 °C 64 % 999,3 hPa 0,0 mm 2,2 km/h (1 Bft) W-NW 302 ° 0 min 0,000 mm 0,6 UV-I 91 W/m² -0,1 °C 6,2 °C 3,2 km/h (1 Bft)
06.03.2017 15:55 6,2 °C 6,2 °C 64 % 999,3 hPa 0,0 mm 0,9 km/h (0 Bft) W-NW 302 ° 0 min 0,000 mm 0,6 UV-I 91 W/m² -0,1 °C 6,2 °C 1,6 km/h (1 Bft)
06.03.2017 15:56 6,2 °C 6,2 °C 64 % 999,3 hPa 0,0 mm 3,0 km/h (1 Bft) W-NW 302 ° 0 min 0,000 mm 0,6 UV-I 90 W/m² -0,1 °C 6,2 °C 3,2 km/h (1 Bft)
06.03.2017 15:57 6,2 °C 6,2 °C 65 % 999,3 hPa 0,0 mm 2,2 km/h (1 Bft) W-NW 302 ° 0 min 0,000 mm 0,5 UV-I 86 W/m² 0,1 °C 6,2 °C 3,2 km/h (1 Bft)
06.03.2017 15:58 6,2 °C 6,2 °C 65 % 999,3 hPa 0,0 mm 0,7 km/h (0 Bft) W-NW 302 ° 0 min 0,000 mm 0,5 UV-I 84 W/m² 0,1 °C 6,2 °C 3,2 km/h (1 Bft)
06.03.2017 15:59 6,2 °C 6,2 °C 66 % 999,3 hPa 0,0 mm 2,4 km/h (1 Bft) W-NW 302 ° 0 min 0,000 mm 0,5 UV-I 83 W/m² 0,3 °C 6,2 °C 4,8 km/h (1 Bft)
06.03.2017 16:00 6,2 °C 6,2 °C 66 % 999,3 hPa 0,0 mm 3,7 km/h (1 Bft) W-NW 302 ° 0 min 0,000 mm 0,5 UV-I 81 W/m² 0,3 °C 6,2 °C 6,4 km/h (2 Bft)
06.03.2017 16:01 6,2 °C 6,2 °C 65 % 999,3 hPa 0,0 mm 1,4 km/h (1 Bft) W-NW 302 ° 0 min 0,076 mm 0,5 UV-I 76 W/m² 0,1 °C 6,2 °C 3,2 km/h (1 Bft)
06.03.2017 16:02 6,2 °C 6,2 °C 65 % 999,3 hPa 0,0 mm 3,2 km/h (1 Bft) W-NW 302 ° 0 min 0,000 mm 0,5 UV-I 72 W/m² 0,1 °C 6,2 °C 4,8 km/h (1 Bft)
06.03.2017 16:03 6,2 °C 6,2 °C 66 % 999,3 hPa 0,0 mm 4,2 km/h (1 Bft) W-NW 290 ° 0 min 0,000 mm 0,0 UV-I 70 W/m² 0,3 °C 6,2 °C 6,4 km/h (2 Bft)
06.03.2017 16:04 6,2 °C 6,2 °C 65 % 999,3 hPa 0,0 mm 4,8 km/h (1 Bft) W-NW 292 ° 0 min 0,000 mm 0,0 UV-I 67 W/m² 0,1 °C 5,5 °C 6,4 km/h (2 Bft)
06.03.2017 16:05 6,2 °C 6,2 °C 65 % 999,3 hPa 0,0 mm 4,2 km/h (1 Bft) W 262 ° 0 min 0,000 mm 0,0 UV-I 65 W/m² 0,1 °C 6,2 °C 6,4 km/h (2 Bft)
06.03.2017 16:06 6,2 °C 6,2 °C 66 % 999,3 hPa 0,0 mm 4,8 km/h (1 Bft) W-SW 244 ° 0 min 0,000 mm 0,0 UV-I 60 W/m² 0,3 °C 5,5 °C 8,0 km/h (2 Bft)
06.03.2017 16:07 6,1 °C 6,2 °C 65 % 999,4 hPa 0,0 mm 4,3 km/h (1 Bft) W 266 ° 0 min 0,000 mm 0,0 UV-I 58 W/m² 0,0 °C 6,1 °C 6,4 km/h (2 Bft)
06.03.2017 16:08 6,1 °C 6,1 °C 65 % 999,4 hPa 0,0 mm 3,9 km/h (1 Bft) W 266 ° 0 min 0,000 mm 0,0 UV-I 58 W/m² 0,0 °C 6,1 °C 4,8 km/h (1 Bft)
06.03.2017 16:09 6,1 °C 6,1 °C 65 % 999,4 hPa 0,0 mm 4,2 km/h (1 Bft) W 275 ° 0 min 0,000 mm 0,0 UV-I 54 W/m² 0,0 °C 6,1 °C 4,8 km/h (1 Bft)
06.03.2017 16:10 6,1 °C 6,1 °C 66 % 999,4 hPa 0,0 mm 3,2 km/h (1 Bft) W 281 ° 0 min 0,000 mm 0,0 UV-I 53 W/m² 0,2 °C 6,1 °C 4,8 km/h (1 Bft)
06.03.2017 16:11 6,1 °C 6,1 °C 66 % 999,4 hPa 0,0 mm 5,5 km/h (1 Bft) W 269 ° 0 min 0,000 mm 0,0 UV-I 53 W/m² 0,2 °C 5,2 °C 9,7 km/h (2 Bft)
06.03.2017 16:12 6,0 °C 6,1 °C 66 % 999,3 hPa 0,0 mm 5,5 km/h (1 Bft) W-NW 299 ° 0 min 0,000 mm 0,0 UV-I 49 W/m² 0,1 °C 5,0 °C 9,7 km/h (2 Bft)
06.03.2017 16:13 6,0 °C 6,1 °C 65 % 999,3 hPa 0,0 mm 4,8 km/h (1 Bft) W 272 ° 0 min 0,000 mm 0,0 UV-I 47 W/m² -0,1 °C 5,3 °C 6,4 km/h (2 Bft)
06.03.2017 16:14 5,9 °C 6,0 °C 65 % 999,3 hPa 0,0 mm 4,2 km/h (1 Bft) W 275 ° 0 min 0,000 mm 0,0 UV-I 46 W/m² -0,2 °C 5,9 °C 6,4 km/h (2 Bft)
06.03.2017 16:15 5,9 °C 6,0 °C 67 % 999,4 hPa 0,0 mm 3,5 km/h (1 Bft) W 267 ° 0 min 0,000 mm 0,0 UV-I 44 W/m² 0,3 °C 5,9 °C 6,4 km/h (2 Bft)
06.03.2017 16:16 5,9 °C 6,0 °C 67 % 999,3 hPa 0,0 mm 4,7 km/h (1 Bft) W-SW 257 ° 0 min 0,000 mm 0,0 UV-I 42 W/m² 0,3 °C 5,2 °C 6,4 km/h (2 Bft)
06.03.2017 16:17 5,9 °C 5,9 °C 66 % 999,3 hPa 0,0 mm 4,8 km/h (1 Bft) W 270 ° 0 min 0,000 mm 0,0 UV-I 40 W/m² 0,0 °C 5,2 °C 6,4 km/h (2 Bft)
06.03.2017 16:18 5,9 °C 5,9 °C 66 % 999,4 hPa 0,0 mm 3,7 km/h (1 Bft) W 277 ° 0 min 0,000 mm 0,0 UV-I 35 W/m² 0,0 °C 5,9 °C 6,4 km/h (2 Bft)
06.03.2017 16:19 5,9 °C 5,9 °C 67 % 999,3 hPa 0,0 mm 3,2 km/h (1 Bft) W 277 ° 0 min 0,000 mm 0,0 UV-I 33 W/m² 0,3 °C 5,9 °C 4,8 km/h (1 Bft)
06.03.2017 16:20 5,8 °C 5,9 °C 67 % 999,3 hPa 0,0 mm 2,6 km/h (1 Bft) W 277 ° 0 min 0,000 mm 0,0 UV-I 33 W/m² 0,2 °C 5,8 °C 3,2 km/h (1 Bft)
06.03.2017 16:21 5,8 °C 5,9 °C 66 % 999,3 hPa 0,0 mm 2,0 km/h (1 Bft) W 277 ° 0 min 0,000 mm 0,0 UV-I 32 W/m² -0,0 °C 5,8 °C 3,2 km/h (1 Bft)
06.03.2017 16:22 5,8 °C 5,8 °C 67 % 999,4 hPa 0,0 mm 2,9 km/h (1 Bft) W 277 ° 0 min 0,000 mm 0,0 UV-I 30 W/m² 0,2 °C 5,8 °C 4,8 km/h (1 Bft)
06.03.2017 16:23 5,8 °C 5,8 °C 66 % 999,3 hPa 0,0 mm 2,2 km/h (1 Bft) W 277 ° 0 min 0,000 mm 0,0 UV-I 26 W/m² -0,0 °C 5,8 °C 3,2 km/h (1 Bft)
06.03.2017 16:24 5,8 °C 5,8 °C 66 % 999,3 hPa 0,0 mm 2,0 km/h (1 Bft) W 277 ° 0 min 0,000 mm 0,0 UV-I 26 W/m² -0,0 °C 5,8 °C 3,2 km/h (1 Bft)
06.03.2017 16:25 5,8 °C 5,8 °C 66 % 999,3 hPa 0,0 mm 0,6 km/h (0 Bft) W 277 ° 0 min 0,000 mm 0,0 UV-I 26 W/m² -0,0 °C 5,8 °C 1,6 km/h (1 Bft)
06.03.2017 16:26 5,8 °C 5,8 °C 66 % 999,3 hPa 0,0 mm 1,5 km/h (1 Bft) W 277 ° 0 min 0,000 mm 0,0 UV-I 26 W/m² -0,0 °C 5,8 °C 3,2 km/h (1 Bft)
06.03.2017 16:27 5,8 °C 5,8 °C 66 % 999,3 hPa 0,0 mm 1,7 km/h (1 Bft) W 277 ° 0 min 0,000 mm 0,0 UV-I 28 W/m² -0,0 °C 5,8 °C 3,2 km/h (1 Bft)
06.03.2017 16:28 5,8 °C 5,8 °C 67 % 999,3 hPa 0,0 mm 2,2 km/h (1 Bft) W-NW 284 ° 0 min 0,000 mm 0,0 UV-I 28 W/m² 0,2 °C 5,8 °C 4,8 km/h (1 Bft)
06.03.2017 16:29 5,8 °C 5,9 °C 67 % 999,3 hPa 0,0 mm 3,2 km/h (1 Bft) W-NW 284 ° 0 min 0,000 mm 0,0 UV-I 30 W/m² 0,2 °C 5,8 °C 4,8 km/h (1 Bft)
06.03.2017 16:30 5,8 °C 5,8 °C 67 % 999,2 hPa 0,0 mm 2,9 km/h (1 Bft) W-NW 284 ° 0 min 0,000 mm 0,0 UV-I 30 W/m² 0,2 °C 5,8 °C 3,2 km/h (1 Bft)
06.03.2017 16:31 5,8 °C 5,8 °C 67 % 999,2 hPa 0,0 mm 2,4 km/h (1 Bft) W-NW 284 ° 0 min 0,000 mm 0,0 UV-I 28 W/m² 0,2 °C 5,8 °C 3,2 km/h (1 Bft)
06.03.2017 16:32 5,8 °C 5,8 °C 67 % 999,2 hPa 0,0 mm 2,9 km/h (1 Bft) W-NW 284 ° 0 min 0,000 mm 0,0 UV-I 28 W/m² 0,2 °C 5,8 °C 4,8 km/h (1 Bft)
06.03.2017 16:33 5,8 °C 5,8 °C 67 % 999,2 hPa 0,0 mm 1,9 km/h (1 Bft) W-NW 285 ° 0 min 0,000 mm 0,0 UV-I 26 W/m² 0,2 °C 5,8 °C 3,2 km/h (1 Bft)
06.03.2017 16:34 5,8 °C 5,8 °C 67 % 999,2 hPa 0,0 mm 4,3 km/h (1 Bft) W-NW 295 ° 0 min 0,000 mm 0,0 UV-I 26 W/m² 0,2 °C 5,8 °C 6,4 km/h (2 Bft)
06.03.2017 16:35 5,8 °C 5,8 °C 67 % 999,2 hPa 0,0 mm 5,3 km/h (1 Bft) NW 306 ° 0 min 0,000 mm 0,0 UV-I 25 W/m² 0,2 °C 4,9 °C 8,0 km/h (2 Bft)
06.03.2017 16:36 5,8 °C 5,8 °C 68 % 999,2 hPa 0,0 mm 4,4 km/h (1 Bft) NW 315 ° 0 min 0,000 mm 0,0 UV-I 23 W/m² 0,4 °C 5,8 °C 6,4 km/h (2 Bft)
06.03.2017 16:37 5,7 °C 5,8 °C 67 % 999,2 hPa 0,0 mm 3,8 km/h (1 Bft) NW 315 ° 0 min 0,000 mm 0,0 UV-I 23 W/m² 0,1 °C 5,7 °C 6,4 km/h (2 Bft)
06.03.2017 16:38 5,8 °C 5,8 °C 68 % 999,2 hPa 0,0 mm 5,4 km/h (1 Bft) NW 314 ° 0 min 0,000 mm 0,0 UV-I 23 W/m² 0,4 °C 4,8 °C 6,4 km/h (2 Bft)
06.03.2017 16:39 5,7 °C 5,8 °C 68 % 999,2 hPa 0,0 mm 5,0 km/h (1 Bft) NW 322 ° 0 min 0,000 mm 0,0 UV-I 23 W/m² 0,3 °C 4,9 °C 8,0 km/h (2 Bft)
06.03.2017 16:40 5,7 °C 5,8 °C 67 % 999,2 hPa 0,0 mm 5,4 km/h (1 Bft) N-NW 331 ° 0 min 0,000 mm 0,0 UV-I 23 W/m² 0,1 °C 4,7 °C 6,4 km/h (2 Bft)
06.03.2017 16:41 5,7 °C 5,7 °C 67 % 999,2 hPa 0,0 mm 4,0 km/h (1 Bft) NW 325 ° 0 min 0,000 mm 0,0 UV-I 23 W/m² 0,1 °C 5,7 °C 4,8 km/h (1 Bft)
06.03.2017 16:42 5,7 °C 5,7 °C 67 % 999,2 hPa 0,0 mm 4,6 km/h (1 Bft) N-NW 327 ° 0 min 0,000 mm 0,0 UV-I 23 W/m² 0,1 °C 5,0 °C 6,4 km/h (2 Bft)
06.03.2017 16:43 5,7 °C 5,7 °C 67 % 999,2 hPa 0,0 mm 4,6 km/h (1 Bft) NW 310 ° 0 min 0,000 mm 0,0 UV-I 23 W/m² 0,1 °C 5,0 °C 6,4 km/h (2 Bft)
06.03.2017 16:44 5,7 °C 5,7 °C 68 % 999,3 hPa 0,0 mm 4,8 km/h (1 Bft) NW 313 ° 0 min 0,000 mm 0,0 UV-I 23 W/m² 0,3 °C 5,0 °C 8,0 km/h (2 Bft)
06.03.2017 16:45 5,7 °C 5,7 °C 67 % 999,3 hPa 0,0 mm 3,2 km/h (1 Bft) NW 313 ° 0 min 0,000 mm 0,0 UV-I 23 W/m² 0,1 °C 5,7 °C 6,4 km/h (2 Bft)
06.03.2017 16:46 5,7 °C 5,7 °C 67 % 999,3 hPa 0,0 mm 3,0 km/h (1 Bft) NW 313 ° 0 min 0,000 mm 0,0 UV-I 23 W/m² 0,1 °C 5,7 °C 3,2 km/h (1 Bft)
06.03.2017 16:47 5,6 °C 5,7 °C 67 % 999,3 hPa 0,0 mm 2,5 km/h (1 Bft) NW 317 ° 0 min 0,000 mm 0,0 UV-I 23 W/m² -0,0 °C 5,6 °C 4,8 km/h (1 Bft)
06.03.2017 16:48 5,6 °C 5,6 °C 68 % 999,3 hPa 0,0 mm 5,0 km/h (1 Bft) N-NW 348 ° 0 min 0,000 mm 0,0 UV-I 23 W/m² 0,2 °C 4,8 °C 8,0 km/h (2 Bft)
06.03.2017 16:49 5,6 °C 5,7 °C 68 % 999,3 hPa 0,0 mm 3,9 km/h (1 Bft) N 350 ° 0 min 0,000 mm 0,0 UV-I 21 W/m² 0,2 °C 5,6 °C 4,8 km/h (1 Bft)
06.03.2017 16:50 5,6 °C 5,6 °C 68 % 999,4 hPa 0,0 mm 1,9 km/h (1 Bft) N 350 ° 0 min 0,000 mm 0,0 UV-I 21 W/m² 0,2 °C 5,6 °C 3,2 km/h (1 Bft)
06.03.2017 16:51 5,6 °C 5,7 °C 69 % 999,4 hPa 0,0 mm 3,1 km/h (1 Bft) N 350 ° 0 min 0,000 mm 0,0 UV-I 21 W/m² 0,4 °C 5,6 °C 4,8 km/h (1 Bft)
06.03.2017 16:52 5,6 °C 5,7 °C 68 % 999,4 hPa 0,0 mm 2,9 km/h (1 Bft) N 350 ° 0 min 0,000 mm 0,0 UV-I 21 W/m² 0,2 °C 5,6 °C 4,8 km/h (1 Bft)
06.03.2017 16:53 5,7 °C 5,7 °C 69 % 999,4 hPa 0,0 mm 2,3 km/h (1 Bft) N 355 ° 0 min 0,000 mm 0,0 UV-I 19 W/m² 0,5 °C 5,7 °C 3,2 km/h (1 Bft)
06.03.2017 16:54 5,7 °C 5,7 °C 68 % 999,4 hPa 0,0 mm 2,5 km/h (1 Bft) N-NO 32 ° 0 min 0,000 mm 0,0 UV-I 19 W/m² 0,3 °C 5,7 °C 4,8 km/h (1 Bft)
06.03.2017 16:55 5,7 °C 5,7 °C 68 % 999,5 hPa 0,0 mm 2,1 km/h (1 Bft) N-NO 32 ° 0 min 0,000 mm 0,0 UV-I 19 W/m² 0,3 °C 5,7 °C 4,8 km/h (1 Bft)
06.03.2017 16:56 5,6 °C 5,7 °C 71 % 999,5 hPa 0,0 mm 2,2 km/h (1 Bft) N-NO 32 ° 0 min 0,000 mm 0,0 UV-I 18 W/m² 0,8 °C 5,6 °C 3,2 km/h (1 Bft)
06.03.2017 16:57 5,5 °C 5,6 °C 71 % 999,6 hPa 0,0 mm 1,9 km/h (1 Bft) O 89 ° 0 min 0,000 mm 0,0 UV-I 18 W/m² 0,7 °C 5,5 °C 3,2 km/h (1 Bft)
06.03.2017 16:58 5,4 °C 5,5 °C 71 % 999,6 hPa 0,0 mm 0,8 km/h (0 Bft) O 89 ° 0 min 0,000 mm 0,0 UV-I 16 W/m² 0,6 °C 5,4 °C 3,2 km/h (1 Bft)
06.03.2017 16:59 5,3 °C 5,4 °C 70 % 999,7 hPa 0,0 mm 3,1 km/h (1 Bft) W-NW 300 ° 0 min 0,000 mm 0,0 UV-I 14 W/m² 0,3 °C 5,3 °C 4,8 km/h (1 Bft)
06.03.2017 17:00 5,2 °C 5,3 °C 71 % 999,7 hPa 0,0 mm 2,7 km/h (1 Bft) W-NW 291 ° 0 min 0,000 mm 0,0 UV-I 14 W/m² 0,4 °C 5,2 °C 4,8 km/h (1 Bft)
06.03.2017 17:01 5,2 °C 5,3 °C 71 % 999,7 hPa 0,0 mm 3,3 km/h (1 Bft) W 277 ° 0 min 0,025 mm 0,0 UV-I 12 W/m² 0,4 °C 5,2 °C 6,4 km/h (2 Bft)
06.03.2017 17:02 5,2 °C 5,2 °C 71 % 999,7 hPa 0,0 mm 2,6 km/h (1 Bft) W 277 ° 0 min 0,000 mm 0,0 UV-I 12 W/m² 0,4 °C 5,2 °C 3,2 km/h (1 Bft)
06.03.2017 17:03 5,1 °C 5,2 °C 71 % 999,7 hPa 0,0 mm 0,9 km/h (0 Bft) W 277 ° 0 min 0,000 mm 0,0 UV-I 12 W/m² 0,3 °C 5,1 °C 1,6 km/h (1 Bft)
06.03.2017 17:04 5,1 °C 5,1 °C 72 % 999,8 hPa 0,0 mm 0,1 km/h (0 Bft) W 277 ° 0 min 0,000 mm 0,0 UV-I 11 W/m² 0,5 °C 5,1 °C 1,6 km/h (1 Bft)
06.03.2017 17:05 5,1 °C 5,1 °C 72 % 999,8 hPa 0,0 mm 0,8 km/h (0 Bft) W 277 ° 0 min 0,000 mm 0,0 UV-I 11 W/m² 0,5 °C 5,1 °C 1,6 km/h (1 Bft)
06.03.2017 17:06 4,9 °C 5,1 °C 74 % 999,8 hPa 0,0 mm 2,0 km/h (1 Bft) W 277 ° 0 min 0,000 mm 0,0 UV-I 11 W/m² 0,7 °C 4,9 °C 3,2 km/h (1 Bft)
06.03.2017 17:07 4,9 °C 4,9 °C 73 % 999,8 hPa 0,0 mm 1,5 km/h (1 Bft) W-NW 295 ° 0 min 0,000 mm 0,0 UV-I 11 W/m² 0,5 °C 4,9 °C 3,2 km/h (1 Bft)
06.03.2017 17:08 4,8 °C 4,9 °C 76 % 999,9 hPa 0,0 mm 2,8 km/h (1 Bft) W-NW 302 ° 0 min 0,000 mm 0,0 UV-I 11 W/m² 0,9 °C 4,8 °C 4,8 km/h (1 Bft)
06.03.2017 17:09 4,8 °C 4,8 °C 75 % 999,9 hPa 0,0 mm 3,9 km/h (1 Bft) NO 44 ° 0 min 0,000 mm 0,0 UV-I 11 W/m² 0,8 °C 4,8 °C 4,8 km/h (1 Bft)
06.03.2017 17:10 4,7 °C 4,8 °C 77 % 999,9 hPa 0,0 mm 3,5 km/h (1 Bft) NO 44 ° 0 min 0,000 mm 0,0 UV-I 9 W/m² 1,0 °C 4,7 °C 4,8 km/h (1 Bft)
06.03.2017 17:11 4,7 °C 4,7 °C 74 % 999,9 hPa 0,0 mm 2,4 km/h (1 Bft) NO 44 ° 0 min 0,000 mm 0,0 UV-I 9 W/m² 0,5 °C 4,7 °C 3,2 km/h (1 Bft)
06.03.2017 17:12 4,7 °C 4,7 °C 76 % 1000,0 hPa 0,0 mm 0,5 km/h (0 Bft) NO 44 ° 0 min 0,000 mm 0,0 UV-I 9 W/m² 0,8 °C 4,7 °C 1,6 km/h (1 Bft)
06.03.2017 17:13 4,7 °C 4,7 °C 76 % 1000,0 hPa 0,0 mm 1,6 km/h (1 Bft) NO 44 ° 0 min 0,000 mm 0,0 UV-I 9 W/m² 0,8 °C 4,7 °C 3,2 km/h (1 Bft)
06.03.2017 17:14 4,7 °C 4,7 °C 75 % 1000,0 hPa 0,0 mm 1,8 km/h (1 Bft) NO 44 ° 0 min 0,000 mm 0,0 UV-I 9 W/m² 0,7 °C 4,7 °C 3,2 km/h (1 Bft)
06.03.2017 17:15 4,7 °C 4,7 °C 75 % 1000,0 hPa 0,0 mm 0,0 km/h (0 Bft) NO 44 ° 0 min 0,000 mm 0,0 UV-I 9 W/m² 0,7 °C 4,7 °C 0,0 km/h (0 Bft)
06.03.2017 17:16 4,7 °C 4,7 °C 76 % 1000,0 hPa 0,0 mm 1,3 km/h (1 Bft) NO 44 ° 0 min 0,000 mm 0,0 UV-I 9 W/m² 0,8 °C 4,7 °C 3,2 km/h (1 Bft)
06.03.2017 17:17 4,7 °C 4,7 °C 76 % 1000,0 hPa 0,0 mm 0,6 km/h (0 Bft) NO 44 ° 0 min 0,000 mm 0,0 UV-I 9 W/m² 0,8 °C 4,7 °C 1,6 km/h (1 Bft)
06.03.2017 17:18 4,6 °C 4,7 °C 76 % 1000,0 hPa 0,0 mm 0,1 km/h (0 Bft) NO 44 ° 0 min 0,000 mm 0,0 UV-I 9 W/m² 0,7 °C 4,6 °C 1,6 km/h (1 Bft)
06.03.2017 17:19 4,6 °C 4,6 °C 77 % 1000,0 hPa 0,0 mm 1,1 km/h (1 Bft) NO 44 ° 0 min 0,000 mm 0,0 UV-I 9 W/m² 0,9 °C 4,6 °C 3,2 km/h (1 Bft)
06.03.2017 17:20 4,6 °C 4,6 °C 76 % 1000,0 hPa 0,0 mm 2,8 km/h (1 Bft) NO 44 ° 0 min 0,000 mm 0,0 UV-I 9 W/m² 0,7 °C 4,6 °C 4,8 km/h (1 Bft)
06.03.2017 17:21 4,5 °C 4,6 °C 76 % 1000,0 hPa 0,0 mm 4,9 km/h (1 Bft) O-NO 60 ° 0 min 0,000 mm 0,0 UV-I 9 W/m² 0,6 °C 3,6 °C 8,0 km/h (2 Bft)
06.03.2017 17:22 4,6 °C 4,6 °C 75 % 1000,0 hPa 0,0 mm 5,1 km/h (1 Bft) O-NO 60 ° 0 min 0,000 mm 0,0 UV-I 7 W/m² 0,6 °C 3,6 °C 6,4 km/h (2 Bft)
06.03.2017 17:23 4,6 °C 4,6 °C 76 % 1000,0 hPa 0,0 mm 6,0 km/h (2 Bft) O 94 ° 0 min 0,000 mm 0,0 UV-I 7 W/m² 0,7 °C 3,3 °C 9,7 km/h (2 Bft)
06.03.2017 17:24 4,5 °C 4,6 °C 76 % 1000,1 hPa 0,2 mm 6,4 km/h (2 Bft) O-SO 111 ° 0 min 0,000 mm 0,0 UV-I 7 W/m² 0,6 °C 3,0 °C 9,7 km/h (2 Bft)
06.03.2017 17:25 4,4 °C 4,5 °C 76 % 1000,1 hPa 0,0 mm 3,1 km/h (1 Bft) O-SO 111 ° 0 min 0,000 mm 0,0 UV-I 7 W/m² 0,5 °C 4,4 °C 4,8 km/h (1 Bft)
06.03.2017 17:26 4,4 °C 4,4 °C 76 % 1000,1 hPa 0,0 mm 1,9 km/h (1 Bft) O-SO 111 ° 0 min 0,000 mm 0,0 UV-I 7 W/m² 0,5 °C 4,4 °C 3,2 km/h (1 Bft)
06.03.2017 17:27 4,3 °C 4,4 °C 76 % 1000,1 hPa 0,0 mm 1,5 km/h (1 Bft) O-SO 111 ° 0 min 0,000 mm 0,0 UV-I 7 W/m² 0,5 °C 4,3 °C 1,6 km/h (1 Bft)
06.03.2017 17:28 4,3 °C 4,3 °C 77 % 1000,1 hPa 0,0 mm 0,3 km/h (0 Bft) O-SO 111 ° 0 min 0,000 mm 0,0 UV-I 7 W/m² 0,6 °C 4,3 °C 1,6 km/h (1 Bft)
06.03.2017 17:29 4,3 °C 4,3 °C 78 % 1000,1 hPa 0,0 mm 0,1 km/h (0 Bft) O-SO 111 ° 0 min 0,000 mm 0,0 UV-I 7 W/m² 0,8 °C 4,3 °C 1,6 km/h (1 Bft)
06.03.2017 17:30 4,2 °C 4,3 °C 79 % 1000,1 hPa 0,0 mm 0,9 km/h (0 Bft) O-SO 111 ° 0 min 0,000 mm 0,0 UV-I 7 W/m² 0,9 °C 4,2 °C 1,6 km/h (1 Bft)
06.03.2017 17:31 4,1 °C 4,2 °C 81 % 1000,1 hPa 0,0 mm 0,5 km/h (0 Bft) O-SO 111 ° 0 min 0,000 mm 0,0 UV-I 7 W/m² 1,1 °C 4,1 °C 1,6 km/h (1 Bft)
06.03.2017 17:32 3,9 °C 4,1 °C 81 % 1000,0 hPa 0,2 mm 1,2 km/h (1 Bft) O-SO 111 ° 0 min 0,000 mm 0,0 UV-I 7 W/m² 0,9 °C 3,9 °C 3,2 km/h (1 Bft)
06.03.2017 17:33 3,9 °C 3,9 °C 83 % 1000,1 hPa 0,0 mm 2,7 km/h (1 Bft) O-SO 111 ° 0 min 0,000 mm 0,0 UV-I 7 W/m² 1,3 °C 3,9 °C 3,2 km/h (1 Bft)
06.03.2017 17:34 3,7 °C 3,9 °C 84 % 1000,1 hPa 0,0 mm 2,8 km/h (1 Bft) O-SO 111 ° 0 min 0,000 mm 0,0 UV-I 7 W/m² 1,3 °C 3,7 °C 3,2 km/h (1 Bft)
06.03.2017 17:35 3,7 °C 3,7 °C 85 % 1000,1 hPa 0,0 mm 2,7 km/h (1 Bft) O-SO 111 ° 0 min 0,000 mm 0,0 UV-I 5 W/m² 1,4 °C 3,7 °C 3,2 km/h (1 Bft)
06.03.2017 17:36 3,6 °C 3,7 °C 85 % 1000,1 hPa 0,0 mm 2,5 km/h (1 Bft) O-SO 111 ° 0 min 0,000 mm 0,0 UV-I 5 W/m² 1,3 °C 3,6 °C 3,2 km/h (1 Bft)
06.03.2017 17:37 3,5 °C 3,6 °C 86 % 1000,1 hPa 0,0 mm 3,0 km/h (1 Bft) O-SO 111 ° 0 min 0,000 mm 0,0 UV-I 5 W/m² 1,4 °C 3,5 °C 3,2 km/h (1 Bft)
06.03.2017 17:38 3,4 °C 3,5 °C 86 % 1000,1 hPa 0,0 mm 2,4 km/h (1 Bft) O-SO 111 ° 0 min 0,000 mm 0,0 UV-I 5 W/m² 1,3 °C 3,4 °C 3,2 km/h (1 Bft)
06.03.2017 17:39 3,4 °C 3,4 °C 87 % 1000,1 hPa 0,0 mm 2,8 km/h (1 Bft) O-SO 111 ° 0 min 0,000 mm 0,0 UV-I 5 W/m² 1,4 °C 3,4 °C 3,2 km/h (1 Bft)
06.03.2017 17:40 3,3 °C 3,4 °C 87 % 1000,1 hPa 0,2 mm 2,5 km/h (1 Bft) O-SO 111 ° 0 min 0,000 mm 0,0 UV-I 5 W/m² 1,3 °C 3,3 °C 3,2 km/h (1 Bft)
06.03.2017 17:41 3,3 °C 3,3 °C 87 % 1000,1 hPa 0,0 mm 1,7 km/h (1 Bft) O-SO 111 ° 0 min 0,000 mm 0,0 UV-I 5 W/m² 1,3 °C 3,3 °C 3,2 km/h (1 Bft)
06.03.2017 17:42 3,3 °C 3,3 °C 88 % 1000,1 hPa 0,0 mm 1,3 km/h (1 Bft) O-SO 111 ° 0 min 0,000 mm 0,0 UV-I 5 W/m² 1,5 °C 3,3 °C 1,6 km/h (1 Bft)
06.03.2017 17:43 3,3 °C 3,3 °C 88 % 1000,1 hPa 0,0 mm 1,1 km/h (1 Bft) O-SO 111 ° 0 min 0,000 mm 0,0 UV-I 0 W/m² 1,5 °C 3,3 °C 1,6 km/h (1 Bft)
06.03.2017 17:44 3,2 °C 3,3 °C 88 % 1000,2 hPa 0,0 mm 0,9 km/h (0 Bft) O-SO 111 ° 0 min 0,000 mm 0,0 UV-I 0 W/m² 1,4 °C 3,2 °C 1,6 km/h (1 Bft)
06.03.2017 17:45 3,2 °C 3,2 °C 88 % 1000,2 hPa 0,0 mm 0,5 km/h (0 Bft) O-SO 111 ° 0 min 0,000 mm 0,0 UV-I 0 W/m² 1,4 °C 3,2 °C 1,6 km/h (1 Bft)
06.03.2017 17:46 3,2 °C 3,2 °C 87 % 1000,2 hPa 0,0 mm 0,5 km/h (0 Bft) O-SO 111 ° 0 min 0,000 mm 0,0 UV-I 0 W/m² 1,2 °C 3,2 °C 1,6 km/h (1 Bft)
06.03.2017 17:47 3,2 °C 3,2 °C 88 % 1000,2 hPa 0,0 mm 0,0 km/h (0 Bft) O-SO 111 ° 0 min 0,000 mm 0,0 UV-I 0 W/m² 1,4 °C 3,2 °C 0,0 km/h (0 Bft)
06.03.2017 17:48 3,2 °C 3,2 °C 88 % 1000,2 hPa 0,0 mm 0,9 km/h (0 Bft) O-SO 111 ° 0 min 0,000 mm 0,0 UV-I 0 W/m² 1,4 °C 3,2 °C 3,2 km/h (1 Bft)
06.03.2017 17:49 3,2 °C 3,2 °C 88 % 1000,2 hPa 0,0 mm 1,7 km/h (1 Bft) O-SO 111 ° 0 min 0,000 mm 0,0 UV-I 0 W/m² 1,4 °C 3,2 °C 3,2 km/h (1 Bft)
06.03.2017 17:50 3,2 °C 3,2 °C 87 % 1000,2 hPa 0,0 mm 2,6 km/h (1 Bft) O-SO 111 ° 0 min 0,000 mm 0,0 UV-I 0 W/m² 1,2 °C 3,2 °C 3,2 km/h (1 Bft)
06.03.2017 17:51 3,2 °C 3,2 °C 87 % 1000,2 hPa 0,0 mm 2,5 km/h (1 Bft) O-SO 111 ° 0 min 0,000 mm 0,0 UV-I 0 W/m² 1,2 °C 3,2 °C 3,2 km/h (1 Bft)
06.03.2017 17:52 3,1 °C 3,2 °C 88 % 1000,3 hPa 0,0 mm 0,6 km/h (0 Bft) O-SO 111 ° 0 min 0,000 mm 0,0 UV-I 0 W/m² 1,3 °C 3,1 °C 1,6 km/h (1 Bft)
06.03.2017 17:53 3,1 °C 3,1 °C 88 % 1000,2 hPa 0,2 mm 0,5 km/h (0 Bft) O-SO 111 ° 0 min 0,000 mm 0,0 UV-I 0 W/m² 1,3 °C 3,1 °C 1,6 km/h (1 Bft)
06.03.2017 17:54 3,1 °C 3,1 °C 88 % 1000,2 hPa 0,0 mm 0,5 km/h (0 Bft) O-SO 111 ° 0 min 0,000 mm 0,0 UV-I 0 W/m² 1,3 °C 3,1 °C 1,6 km/h (1 Bft)
06.03.2017 17:55 3,1 °C 3,1 °C 88 % 1000,3 hPa 0,0 mm 0,0 km/h (0 Bft) O-SO 111 ° 0 min 0,000 mm 0,0 UV-I 0 W/m² 1,3 °C 3,1 °C 0,0 km/h (0 Bft)
06.03.2017 17:56 3,1 °C 3,1 °C 88 % 1000,2 hPa 0,0 mm 0,0 km/h (0 Bft) O-SO 111 ° 0 min 0,000 mm 0,0 UV-I 0 W/m² 1,3 °C 3,1 °C 0,0 km/h (0 Bft)
06.03.2017 17:57 3,0 °C 3,1 °C 89 % 1000,3 hPa 0,0 mm 0,0 km/h (0 Bft) O-SO 111 ° 0 min 0,000 mm 0,0 UV-I 0 W/m² 1,4 °C 3,0 °C 0,0 km/h (0 Bft)
06.03.2017 17:58 3,1 °C 3,1 °C 88 % 1000,2 hPa 0,0 mm 0,0 km/h (0 Bft) O-SO 111 ° 0 min 0,000 mm 0,0 UV-I 0 W/m² 1,3 °C 3,1 °C 0,0 km/h (0 Bft)
06.03.2017 17:59 3,1 °C 3,1 °C 88 % 1000,3 hPa 0,0 mm 0,0 km/h (0 Bft) O-SO 111 ° 0 min 0,000 mm 0,0 UV-I 0 W/m² 1,3 °C 3,1 °C 0,0 km/h (0 Bft)
06.03.2017 18:00 3,0 °C 3,1 °C 89 % 1000,3 hPa 0,0 mm 0,0 km/h (0 Bft) O-SO 111 ° 0 min 0,000 mm 0,0 UV-I 0 W/m² 1,4 °C 3,0 °C 0,0 km/h (0 Bft)
06.03.2017 18:01 3,0 °C 3,0 °C 89 % 1000,3 hPa 0,0 mm 0,0 km/h (0 Bft) O-SO 111 ° 0 min 0,000 mm 0,0 UV-I 0 W/m² 1,4 °C 3,0 °C 0,0 km/h (0 Bft)
06.03.2017 18:02 2,9 °C 3,0 °C 89 % 1000,4 hPa 0,0 mm 0,6 km/h (0 Bft) O-SO 111 ° 0 min 0,000 mm 0,0 UV-I 0 W/m² 1,3 °C 2,9 °C 1,6 km/h (1 Bft)
06.03.2017 18:03 3,0 °C 3,0 °C 89 % 1000,4 hPa 0,0 mm 1,7 km/h (1 Bft) O-SO 111 ° 0 min 0,000 mm 0,0 UV-I 0 W/m² 1,4 °C 3,0 °C 3,2 km/h (1 Bft)
06.03.2017 18:04 2,9 °C 3,0 °C 89 % 1000,4 hPa 0,2 mm 0,4 km/h (0 Bft) O-SO 111 ° 0 min 0,000 mm 0,0 UV-I 0 W/m² 1,3 °C 2,9 °C 1,6 km/h (1 Bft)
06.03.2017 18:05 2,9 °C 2,9 °C 89 % 1000,3 hPa 0,0 mm 0,3 km/h (0 Bft) O-SO 111 ° 0 min 0,000 mm 0,0 UV-I 0 W/m² 1,3 °C 2,9 °C 1,6 km/h (1 Bft)
06.03.2017 18:06 2,9 °C 2,9 °C 89 % 1000,3 hPa 0,0 mm 1,3 km/h (1 Bft) O-NO 65 ° 0 min 0,000 mm 0,0 UV-I 0 W/m² 1,3 °C 2,9 °C 3,2 km/h (1 Bft)
06.03.2017 18:07 2,9 °C 2,9 °C 89 % 1000,3 hPa 0,0 mm 0,1 km/h (0 Bft) O-NO 65 ° 0 min 0,000 mm 0,0 UV-I 0 W/m² 1,3 °C 2,9 °C 1,6 km/h (1 Bft)
06.03.2017 18:08 2,8 °C 2,9 °C 89 % 1000,3 hPa 0,0 mm 1,2 km/h (1 Bft) O-NO 65 ° 0 min 0,000 mm 0,0 UV-I 0 W/m² 1,2 °C 2,8 °C 3,2 km/h (1 Bft)
06.03.2017 18:09 2,8 °C 2,9 °C 89 % 1000,3 hPa 0,0 mm 1,1 km/h (1 Bft) O-NO 65 ° 0 min 0,000 mm 0,0 UV-I 0 W/m² 1,2 °C 2,8 °C 1,6 km/h (1 Bft)
06.03.2017 18:10 2,8 °C 2,8 °C 89 % 1000,4 hPa 0,0 mm 0,4 km/h (0 Bft) O-NO 65 ° 0 min 0,000 mm 0,0 UV-I 0 W/m² 1,2 °C 2,8 °C 1,6 km/h (1 Bft)
06.03.2017 18:11 2,8 °C 2,8 °C 89 % 1000,4 hPa 0,0 mm 1,0 km/h (0 Bft) O-NO 65 ° 0 min 0,000 mm 0,0 UV-I 0 W/m² 1,2 °C 2,8 °C 1,6 km/h (1 Bft)
06.03.2017 18:12 2,8 °C 2,8 °C 89 % 1000,3 hPa 0,0 mm 0,7 km/h (0 Bft) O-NO 65 ° 0 min 0,000 mm 0,0 UV-I 0 W/m² 1,2 °C 2,8 °C 1,6 km/h (1 Bft)
06.03.2017 18:13 2,8 °C 2,8 °C 90 % 1000,3 hPa 0,0 mm 0,8 km/h (0 Bft) O-NO 65 ° 0 min 0,000 mm 0,0 UV-I 0 W/m² 1,3 °C 2,8 °C 1,6 km/h (1 Bft)
06.03.2017 18:14 2,8 °C 2,8 °C 90 % 1000,3 hPa 0,0 mm 0,7 km/h (0 Bft) O-NO 65 ° 0 min 0,000 mm 0,0 UV-I 0 W/m² 1,3 °C 2,8 °C 1,6 km/h (1 Bft)
06.03.2017 18:15 2,8 °C 2,8 °C 90 % 1000,3 hPa 0,2 mm 0,0 km/h (0 Bft) O-NO 65 ° 0 min 0,000 mm 0,0 UV-I 0 W/m² 1,3 °C 2,8 °C 0,0 km/h (0 Bft)
06.03.2017 18:16 2,8 °C 2,8 °C 90 % 1000,3 hPa 0,0 mm 1,5 km/h (1 Bft) O-NO 65 ° 0 min 0,000 mm 0,0 UV-I 0 W/m² 1,3 °C 2,8 °C 1,6 km/h (1 Bft)
06.03.2017 18:17 2,8 °C 2,8 °C 91 % 1000,4 hPa 0,0 mm 0,9 km/h (0 Bft) O-NO 65 ° 0 min 0,000 mm 0,0 UV-I 0 W/m² 1,5 °C 2,8 °C 1,6 km/h (1 Bft)
06.03.2017 18:18 2,7 °C 2,8 °C 91 % 1000,4 hPa 0,0 mm 0,7 km/h (0 Bft) O-NO 65 ° 0 min 0,000 mm 0,0 UV-I 0 W/m² 1,4 °C 2,7 °C 1,6 km/h (1 Bft)
06.03.2017 18:19 2,7 °C 2,7 °C 91 % 1000,4 hPa 0,0 mm 1,0 km/h (0 Bft) O-NO 65 ° 0 min 0,000 mm 0,0 UV-I 0 W/m² 1,4 °C 2,7 °C 3,2 km/h (1 Bft)
06.03.2017 18:20 2,7 °C 2,7 °C 91 % 1000,4 hPa 0,0 mm 0,2 km/h (0 Bft) O-NO 65 ° 0 min 0,000 mm 0,0 UV-I 0 W/m² 1,4 °C 2,7 °C 1,6 km/h (1 Bft)
06.03.2017 18:21 2,7 °C 2,7 °C 91 % 1000,4 hPa 0,0 mm 0,2 km/h (0 Bft) O-NO 65 ° 0 min 0,000 mm 0,0 UV-I 0 W/m² 1,4 °C 2,7 °C 1,6 km/h (1 Bft)
06.03.2017 18:22 2,6 °C 2,7 °C 91 % 1000,4 hPa 0,0 mm 0,2 km/h (0 Bft) O-NO 65 ° 0 min 0,000 mm 0,0 UV-I 0 W/m² 1,3 °C 2,6 °C 1,6 km/h (1 Bft)
06.03.2017 18:23 2,6 °C 2,6 °C 91 % 1000,5 hPa 0,0 mm 0,7 km/h (0 Bft) O-NO 65 ° 0 min 0,000 mm 0,0 UV-I 0 W/m² 1,3 °C 2,6 °C 1,6 km/h (1 Bft)
06.03.2017 18:24 2,6 °C 2,6 °C 91 % 1000,5 hPa 0,2 mm 1,0 km/h (0 Bft) O-NO 65 ° 0 min 0,000 mm 0,0 UV-I 0 W/m² 1,3 °C 2,6 °C 1,6 km/h (1 Bft)
06.03.2017 18:25 2,6 °C 2,6 °C 91 % 1000,5 hPa 0,0 mm 0,4 km/h (0 Bft) O-NO 65 ° 0 min 0,000 mm 0,0 UV-I 0 W/m² 1,3 °C 2,6 °C 1,6 km/h (1 Bft)
06.03.2017 18:26 2,6 °C 2,6 °C 91 % 1000,5 hPa 0,0 mm 0,0 km/h (0 Bft) O-NO 65 ° 0 min 0,000 mm 0,0 UV-I 0 W/m² 1,3 °C 2,6 °C 0,0 km/h (0 Bft)
06.03.2017 18:27 2,5 °C 2,6 °C 91 % 1000,5 hPa 0,0 mm 0,0 km/h (0 Bft) O-NO 65 ° 0 min 0,000 mm 0,0 UV-I 0 W/m² 1,2 °C 2,5 °C 0,0 km/h (0 Bft)
06.03.2017 18:28 2,5 °C 2,5 °C 92 % 1000,5 hPa 0,2 mm 0,0 km/h (0 Bft) O-NO 65 ° 0 min 0,000 mm 0,0 UV-I 0 W/m² 1,3 °C 2,5 °C 0,0 km/h (0 Bft)
06.03.2017 18:29 2,5 °C 2,5 °C 92 % 1000,5 hPa 0,0 mm 0,1 km/h (0 Bft) O-NO 65 ° 0 min 0,000 mm 0,0 UV-I 0 W/m² 1,3 °C 2,5 °C 1,6 km/h (1 Bft)
06.03.2017 18:30 2,4 °C 2,5 °C 92 % 1000,5 hPa 0,0 mm 0,0 km/h (0 Bft) O-NO 65 ° 0 min 0,000 mm 0,0 UV-I 0 W/m² 1,2 °C 2,4 °C 0,0 km/h (0 Bft)
06.03.2017 18:31 2,4 °C 2,4 °C 92 % 1000,6 hPa 0,0 mm 0,0 km/h (0 Bft) O-NO 65 ° 0 min 0,000 mm 0,0 UV-I 0 W/m² 1,2 °C 2,4 °C 0,0 km/h (0 Bft)
06.03.2017 18:32 2,4 °C 2,4 °C 92 % 1000,6 hPa 0,0 mm 0,0 km/h (0 Bft) O-NO 65 ° 0 min 0,000 mm 0,0 UV-I 0 W/m² 1,2 °C 2,4 °C 0,0 km/h (0 Bft)
06.03.2017 18:33 2,4 °C 2,4 °C 92 % 1000,6 hPa 0,2 mm 0,0 km/h (0 Bft) O-NO 65 ° 0 min 0,000 mm 0,0 UV-I 0 W/m² 1,2 °C 2,4 °C 0,0 km/h (0 Bft)
06.03.2017 18:34 2,3 °C 2,4 °C 92 % 1000,6 hPa 0,0 mm 0,1 km/h (0 Bft) O-NO 65 ° 0 min 0,000 mm 0,0 UV-I 0 W/m² 1,1 °C 2,3 °C 1,6 km/h (1 Bft)
06.03.2017 18:35 2,3 °C 2,3 °C 92 % 1000,6 hPa 0,0 mm 0,0 km/h (0 Bft) O-NO 65 ° 0 min 0,000 mm 0,0 UV-I 0 W/m² 1,1 °C 2,3 °C 0,0 km/h (0 Bft)
06.03.2017 18:36 2,2 °C 2,3 °C 91 % 1000,6 hPa 0,0 mm 0,4 km/h (0 Bft) O-NO 65 ° 0 min 0,000 mm 0,0 UV-I 0 W/m² 0,9 °C 2,2 °C 1,6 km/h (1 Bft)
06.03.2017 18:37 2,2 °C 2,3 °C 91 % 1000,6 hPa 0,2 mm 0,2 km/h (0 Bft) O-NO 65 ° 0 min 0,000 mm 0,0 UV-I 0 W/m² 0,9 °C 2,2 °C 1,6 km/h (1 Bft)
06.03.2017 18:38 2,2 °C 2,2 °C 92 % 1000,6 hPa 0,0 mm 0,5 km/h (0 Bft) O-NO 65 ° 0 min 0,000 mm 0,0 UV-I 0 W/m² 1,0 °C 2,2 °C 1,6 km/h (1 Bft)
06.03.2017 18:39 2,2 °C 2,2 °C 92 % 1000,6 hPa 0,0 mm 0,6 km/h (0 Bft) O-NO 65 ° 0 min 0,000 mm 0,0 UV-I 0 W/m² 1,0 °C 2,2 °C 1,6 km/h (1 Bft)
06.03.2017 18:40 2,1 °C 2,2 °C 91 % 1000,6 hPa 0,2 mm 0,0 km/h (0 Bft) O-NO 65 ° 0 min 0,000 mm 0,0 UV-I 0 W/m² 0,8 °C 2,1 °C 0,0 km/h (0 Bft)
06.03.2017 18:41 2,1 °C 2,1 °C 91 % 1000,6 hPa 0,0 mm 0,2 km/h (0 Bft) O-NO 65 ° 0 min 0,000 mm 0,0 UV-I 0 W/m² 0,8 °C 2,1 °C 1,6 km/h (1 Bft)
06.03.2017 18:42 2,0 °C 2,1 °C 91 % 1000,6 hPa 0,0 mm 0,5 km/h (0 Bft) O-NO 65 ° 0 min 0,000 mm 0,0 UV-I 0 W/m² 0,7 °C 2,0 °C 1,6 km/h (1 Bft)
06.03.2017 18:43 2,0 °C 2,0 °C 91 % 1000,6 hPa 0,0 mm 0,1 km/h (0 Bft) O-NO 65 ° 0 min 0,000 mm 0,0 UV-I 0 W/m² 0,7 °C 2,0 °C 1,6 km/h (1 Bft)
06.03.2017 18:44 1,9 °C 2,0 °C 91 % 1000,5 hPa 0,2 mm 0,6 km/h (0 Bft) O-NO 65 ° 0 min 0,000 mm 0,0 UV-I 0 W/m² 0,6 °C 1,9 °C 1,6 km/h (1 Bft)
06.03.2017 18:45 1,9 °C 1,9 °C 91 % 1000,5 hPa 0,0 mm 1,2 km/h (1 Bft) O-NO 65 ° 0 min 0,000 mm 0,0 UV-I 0 W/m² 0,6 °C 1,9 °C 1,6 km/h (1 Bft)
06.03.2017 18:46 1,8 °C 1,9 °C 91 % 1000,5 hPa 0,0 mm 0,9 km/h (0 Bft) O-NO 65 ° 0 min 0,000 mm 0,0 UV-I 0 W/m² 0,5 °C 1,8 °C 1,6 km/h (1 Bft)
06.03.2017 18:47 1,8 °C 1,8 °C 91 % 1000,6 hPa 0,0 mm 1,1 km/h (1 Bft) O-NO 65 ° 0 min 0,000 mm 0,0 UV-I 0 W/m² 0,5 °C 1,8 °C 1,6 km/h (1 Bft)
06.03.2017 18:48 1,7 °C 1,8 °C 92 % 1000,5 hPa 0,2 mm 0,1 km/h (0 Bft) O-NO 65 ° 0 min 0,000 mm 0,0 UV-I 0 W/m² 0,5 °C 1,7 °C 1,6 km/h (1 Bft)
06.03.2017 18:49 1,7 °C 1,7 °C 92 % 1000,5 hPa 0,0 mm 0,7 km/h (0 Bft) O-NO 65 ° 0 min 0,000 mm 0,0 UV-I 0 W/m² 0,5 °C 1,7 °C 1,6 km/h (1 Bft)
06.03.2017 18:50 1,7 °C 1,7 °C 92 % 1000,5 hPa 0,0 mm 0,7 km/h (0 Bft) O-NO 65 ° 0 min 0,000 mm 0,0 UV-I 0 W/m² 0,5 °C 1,7 °C 1,6 km/h (1 Bft)
06.03.2017 18:51 1,6 °C 1,7 °C 92 % 1000,5 hPa 0,0 mm 0,4 km/h (0 Bft) O-NO 65 ° 0 min 0,000 mm 0,0 UV-I 0 W/m² 0,4 °C 1,6 °C 1,6 km/h (1 Bft)
06.03.2017 18:52 1,5 °C 1,6 °C 92 % 1000,5 hPa 0,0 mm 0,0 km/h (0 Bft) O-NO 65 ° 0 min 0,000 mm 0,0 UV-I 0 W/m² 0,3 °C 1,5 °C 0,0 km/h (0 Bft)
06.03.2017 18:53 1,4 °C 1,5 °C 92 % 1000,5 hPa 0,0 mm 0,0 km/h (0 Bft) O-NO 65 ° 0 min 0,000 mm 0,0 UV-I 0 W/m² 0,2 °C 1,4 °C 0,0 km/h (0 Bft)
06.03.2017 18:54 1,4 °C 1,5 °C 92 % 1000,5 hPa 0,2 mm 0,1 km/h (0 Bft) O-NO 65 ° 0 min 0,000 mm 0,0 UV-I 0 W/m² 0,2 °C 1,4 °C 1,6 km/h (1 Bft)
06.03.2017 18:55 1,4 °C 1,4 °C 92 % 1000,5 hPa 0,0 mm 0,0 km/h (0 Bft) O-NO 65 ° 0 min 0,000 mm 0,0 UV-I 0 W/m² 0,2 °C 1,4 °C 0,0 km/h (0 Bft)
06.03.2017 18:56 1,3 °C 1,4 °C 92 % 1000,5 hPa 0,0 mm 0,4 km/h (0 Bft) O-NO 65 ° 0 min 0,000 mm 0,0 UV-I 0 W/m² 0,1 °C 1,3 °C 1,6 km/h (1 Bft)
06.03.2017 18:57 1,3 °C 1,3 °C 92 % 1000,5 hPa 0,0 mm 0,4 km/h (0 Bft) O-NO 65 ° 0 min 0,000 mm 0,0 UV-I 0 W/m² 0,1 °C 1,3 °C 1,6 km/h (1 Bft)
06.03.2017 18:58 1,2 °C 1,3 °C 92 % 1000,5 hPa 0,0 mm 0,1 km/h (0 Bft) O-NO 65 ° 0 min 0,000 mm 0,0 UV-I 0 W/m² 0,0 °C 1,2 °C 1,6 km/h (1 Bft)
06.03.2017 18:59 1,2 °C 1,2 °C 92 % 1000,5 hPa 0,2 mm 0,3 km/h (0 Bft) O-NO 65 ° 0 min 0,000 mm 0,0 UV-I 0 W/m² 0,0 °C 1,2 °C 1,6 km/h (1 Bft)
06.03.2017 19:00 1,2 °C 1,2 °C 92 % 1000,5 hPa 0,0 mm 0,1 km/h (0 Bft) O-NO 65 ° 0 min 0,000 mm 0,0 UV-I 0 W/m² 0,0 °C 1,2 °C 1,6 km/h (1 Bft)
06.03.2017 19:01 1,1 °C 1,2 °C 92 % 1000,6 hPa 0,0 mm 0,0 km/h (0 Bft) O-NO 65 ° 0 min 0,000 mm 0,0 UV-I 0 W/m² -0,1 °C 1,1 °C 0,0 km/h (0 Bft)
06.03.2017 19:02 1,1 °C 1,1 °C 92 % 1000,6 hPa 0,0 mm 0,0 km/h (0 Bft) O-NO 65 ° 0 min 0,000 mm 0,0 UV-I 0 W/m² -0,1 °C 1,1 °C 0,0 km/h (0 Bft)
06.03.2017 19:03 1,1 °C 1,1 °C 92 % 1000,6 hPa 0,0 mm 0,0 km/h (0 Bft) O-NO 65 ° 0 min 0,000 mm 0,0 UV-I 0 W/m² -0,1 °C 1,1 °C 0,0 km/h (0 Bft)
06.03.2017 19:04 1,0 °C 1,1 °C 92 % 1000,6 hPa 0,0 mm 0,0 km/h (0 Bft) O-NO 65 ° 0 min 0,000 mm 0,0 UV-I 0 W/m² -0,2 °C 1,0 °C 0,0 km/h (0 Bft)
06.03.2017 19:05 1,0 °C 1,0 °C 93 % 1000,6 hPa 0,0 mm 0,0 km/h (0 Bft) O-NO 65 ° 0 min 0,000 mm 0,0 UV-I 0 W/m² -0,0 °C 1,0 °C 0,0 km/h (0 Bft)
06.03.2017 19:06 0,9 °C 1,0 °C 93 % 1000,7 hPa 0,0 mm 0,0 km/h (0 Bft) O-NO 65 ° 0 min 0,000 mm 0,0 UV-I 0 W/m² -0,1 °C 0,9 °C 0,0 km/h (0 Bft)
06.03.2017 19:07 0,9 °C 0,9 °C 93 % 1000,7 hPa 0,2 mm 0,0 km/h (0 Bft) O-NO 65 ° 0 min 0,000 mm 0,0 UV-I 0 W/m² -0,1 °C 0,9 °C 0,0 km/h (0 Bft)
06.03.2017 19:08 0,9 °C 0,9 °C 93 % 1000,7 hPa 0,0 mm 0,0 km/h (0 Bft) O-NO 65 ° 0 min 0,000 mm 0,0 UV-I 0 W/m² -0,1 °C 0,9 °C 0,0 km/h (0 Bft)
06.03.2017 19:09 0,9 °C 0,9 °C 93 % 1000,7 hPa 0,0 mm 0,0 km/h (0 Bft) O-NO 65 ° 0 min 0,000 mm 0,0 UV-I 0 W/m² -0,1 °C 0,9 °C 0,0 km/h (0 Bft)
06.03.2017 19:10 0,9 °C 0,9 °C 93 % 1000,7 hPa 0,0 mm 0,0 km/h (0 Bft) O-NO 65 ° 0 min 0,000 mm 0,0 UV-I 0 W/m² -0,1 °C 0,9 °C 0,0 km/h (0 Bft)
06.03.2017 19:11 0,9 °C 0,9 °C 93 % 1000,8 hPa 0,0 mm 0,0 km/h (0 Bft) O-NO 65 ° 0 min 0,000 mm 0,0 UV-I 0 W/m² -0,1 °C 0,9 °C 0,0 km/h (0 Bft)
06.03.2017 19:12 0,9 °C 0,9 °C 93 % 1000,8 hPa 0,0 mm 0,0 km/h (0 Bft) O-NO 65 ° 0 min 0,000 mm 0,0 UV-I 0 W/m² -0,1 °C 0,9 °C 0,0 km/h (0 Bft)
06.03.2017 19:13 0,9 °C 0,9 °C 93 % 1000,8 hPa 0,0 mm 0,0 km/h (0 Bft) O-NO 65 ° 0 min 0,000 mm 0,0 UV-I 0 W/m² -0,1 °C 0,9 °C 0,0 km/h (0 Bft)
06.03.2017 19:14 0,9 °C 0,9 °C 93 % 1000,8 hPa 0,0 mm 0,0 km/h (0 Bft) O-NO 65 ° 0 min 0,000 mm 0,0 UV-I 0 W/m² -0,1 °C 0,9 °C 0,0 km/h (0 Bft)
06.03.2017 19:15 0,9 °C 0,9 °C 93 % 1000,9 hPa 0,0 mm 0,0 km/h (0 Bft) O-NO 65 ° 0 min 0,000 mm 0,0 UV-I 0 W/m² -0,1 °C 0,9 °C 0,0 km/h (0 Bft)
06.03.2017 19:16 0,8 °C 0,9 °C 93 % 1000,9 hPa 0,0 mm 0,0 km/h (0 Bft) O-NO 65 ° 0 min 0,000 mm 0,0 UV-I 0 W/m² -0,2 °C 0,8 °C 0,0 km/h (0 Bft)
06.03.2017 19:17 0,8 °C 0,9 °C 93 % 1000,9 hPa 0,0 mm 0,0 km/h (0 Bft) O-NO 65 ° 0 min 0,000 mm 0,0 UV-I 0 W/m² -0,2 °C 0,8 °C 0,0 km/h (0 Bft)
06.03.2017 19:18 0,8 °C 0,9 °C 93 % 1000,9 hPa 0,0 mm 0,0 km/h (0 Bft) O-NO 65 ° 0 min 0,000 mm 0,0 UV-I 0 W/m² -0,2 °C 0,8 °C 0,0 km/h (0 Bft)
06.03.2017 19:19 0,9 °C 0,9 °C 93 % 1000,9 hPa 0,0 mm 0,0 km/h (0 Bft) O-NO 65 ° 0 min 0,000 mm 0,0 UV-I 0 W/m² -0,1 °C 0,9 °C 0,0 km/h (0 Bft)
06.03.2017 19:20 0,8 °C 0,9 °C 93 % 1000,9 hPa 0,0 mm 0,0 km/h (0 Bft) O-NO 65 ° 0 min 0,000 mm 0,0 UV-I 0 W/m² -0,2 °C 0,8 °C 0,0 km/h (0 Bft)
06.03.2017 19:21 0,8 °C 0,9 °C 93 % 1001,0 hPa 0,0 mm 0,0 km/h (0 Bft) O-NO 65 ° 0 min 0,000 mm 0,0 UV-I 0 W/m² -0,2 °C 0,8 °C 0,0 km/h (0 Bft)
06.03.2017 19:22 0,8 °C 0,8 °C 93 % 1000,9 hPa 0,0 mm 0,0 km/h (0 Bft) O-NO 65 ° 0 min 0,000 mm 0,0 UV-I 0 W/m² -0,2 °C 0,8 °C 0,0 km/h (0 Bft)
06.03.2017 19:23 0,8 °C 0,8 °C 93 % 1001,0 hPa 0,0 mm 0,0 km/h (0 Bft) O-NO 65 ° 0 min 0,000 mm 0,0 UV-I 0 W/m² -0,2 °C 0,8 °C 0,0 km/h (0 Bft)
06.03.2017 19:24 0,8 °C 0,8 °C 93 % 1001,0 hPa 0,0 mm 0,0 km/h (0 Bft) O-NO 65 ° 0 min 0,000 mm 0,0 UV-I 0 W/m² -0,2 °C 0,8 °C 0,0 km/h (0 Bft)
06.03.2017 19:25 0,8 °C 0,8 °C 93 % 1001,0 hPa 0,0 mm 0,0 km/h (0 Bft) O-NO 65 ° 0 min 0,000 mm 0,0 UV-I 0 W/m² -0,2 °C 0,8 °C 0,0 km/h (0 Bft)
06.03.2017 19:26 0,8 °C 0,8 °C 93 % 1001,0 hPa 0,0 mm 0,0 km/h (0 Bft) O-NO 65 ° 0 min 0,000 mm 0,0 UV-I 0 W/m² -0,2 °C 0,8 °C 0,0 km/h (0 Bft)
06.03.2017 19:27 0,7 °C 0,8 °C 93 % 1001,0 hPa 0,0 mm 0,0 km/h (0 Bft) O-NO 65 ° 0 min 0,000 mm 0,0 UV-I 0 W/m² -0,3 °C 0,7 °C 0,0 km/h (0 Bft)
06.03.2017 19:28 0,7 °C 0,7 °C 93 % 1001,0 hPa 0,0 mm 0,0 km/h (0 Bft) O-NO 65 ° 0 min 0,000 mm 0,0 UV-I 0 W/m² -0,3 °C 0,7 °C 0,0 km/h (0 Bft)
06.03.2017 19:29 0,7 °C 0,7 °C 93 % 1001,1 hPa 0,0 mm 0,0 km/h (0 Bft) O-NO 65 ° 0 min 0,000 mm 0,0 UV-I 0 W/m² -0,3 °C 0,7 °C 0,0 km/h (0 Bft)
06.03.2017 19:30 0,7 °C 0,7 °C 93 % 1001,1 hPa 0,0 mm 0,0 km/h (0 Bft) O-NO 65 ° 0 min 0,000 mm 0,0 UV-I 0 W/m² -0,3 °C 0,7 °C 0,0 km/h (0 Bft)
06.03.2017 19:31 0,7 °C 0,7 °C 93 % 1001,1 hPa 0,0 mm 0,1 km/h (0 Bft) O-NO 65 ° 0 min 0,000 mm 0,0 UV-I 0 W/m² -0,3 °C 0,7 °C 1,6 km/h (1 Bft)
06.03.2017 19:32 0,6 °C 0,7 °C 93 % 1001,2 hPa 0,0 mm 0,1 km/h (0 Bft) O-NO 65 ° 0 min 0,000 mm 0,0 UV-I 0 W/m² -0,4 °C 0,6 °C 1,6 km/h (1 Bft)
06.03.2017 19:33 0,6 °C 0,7 °C 93 % 1001,2 hPa 0,0 mm 0,0 km/h (0 Bft) O-NO 65 ° 0 min 0,000 mm 0,0 UV-I 0 W/m² -0,4 °C 0,6 °C 0,0 km/h (0 Bft)
06.03.2017 19:34 0,6 °C 0,6 °C 93 % 1001,2 hPa 0,0 mm 0,0 km/h (0 Bft) O-NO 65 ° 0 min 0,000 mm 0,0 UV-I 0 W/m² -0,4 °C 0,6 °C 0,0 km/h (0 Bft)
06.03.2017 19:35 0,6 °C 0,6 °C 93 % 1001,2 hPa 0,0 mm 0,0 km/h (0 Bft) O-NO 65 ° 0 min 0,000 mm 0,0 UV-I 0 W/m² -0,4 °C 0,6 °C 0,0 km/h (0 Bft)
06.03.2017 19:36 0,6 °C 0,6 °C 93 % 1001,2 hPa 0,0 mm 0,0 km/h (0 Bft) O-NO 65 ° 0 min 0,000 mm 0,0 UV-I 0 W/m² -0,4 °C 0,6 °C 0,0 km/h (0 Bft)
06.03.2017 19:37 0,6 °C 0,6 °C 93 % 1001,2 hPa 0,0 mm 0,0 km/h (0 Bft) O-NO 65 ° 0 min 0,000 mm 0,0 UV-I 0 W/m² -0,4 °C 0,6 °C 0,0 km/h (0 Bft)
06.03.2017 19:38 0,5 °C 0,6 °C 93 % 1001,2 hPa 0,0 mm 0,0 km/h (0 Bft) O-NO 65 ° 0 min 0,000 mm 0,0 UV-I 0 W/m² -0,5 °C 0,5 °C 0,0 km/h (0 Bft)
06.03.2017 19:39 0,5 °C 0,6 °C 93 % 1001,2 hPa 0,0 mm 0,0 km/h (0 Bft) O-NO 65 ° 0 min 0,000 mm 0,0 UV-I 0 W/m² -0,5 °C 0,5 °C 0,0 km/h (0 Bft)
06.03.2017 19:40 0,4 °C 0,5 °C 93 % 1001,2 hPa 0,0 mm 0,0 km/h (0 Bft) O-NO 65 ° 0 min 0,000 mm 0,0 UV-I 0 W/m² -0,6 °C 0,4 °C 0,0 km/h (0 Bft)
06.03.2017 19:41 0,4 °C 0,4 °C 93 % 1001,2 hPa 0,0 mm 0,0 km/h (0 Bft) O-NO 65 ° 0 min 0,000 mm 0,0 UV-I 0 W/m² -0,6 °C 0,4 °C 0,0 km/h (0 Bft)
06.03.2017 19:42 0,4 °C 0,4 °C 93 % 1001,2 hPa 0,0 mm 0,0 km/h (0 Bft) O-NO 65 ° 0 min 0,000 mm 0,0 UV-I 0 W/m² -0,6 °C 0,4 °C 0,0 km/h (0 Bft)
06.03.2017 19:43 0,4 °C 0,4 °C 93 % 1001,2 hPa 0,0 mm 0,0 km/h (0 Bft) O-NO 65 ° 0 min 0,000 mm 0,0 UV-I 0 W/m² -0,6 °C 0,4 °C 0,0 km/h (0 Bft)
06.03.2017 19:44 0,4 °C 0,4 °C 93 % 1001,3 hPa 0,0 mm 0,1 km/h (0 Bft) O-NO 65 ° 0 min 0,000 mm 0,0 UV-I 0 W/m² -0,6 °C 0,4 °C 1,6 km/h (1 Bft)
06.03.2017 19:45 0,4 °C 0,4 °C 93 % 1001,3 hPa 0,0 mm 1,3 km/h (1 Bft) O-NO 65 ° 0 min 0,000 mm 0,0 UV-I 0 W/m² -0,6 °C 0,4 °C 1,6 km/h (1 Bft)
06.03.2017 19:46 0,3 °C 0,4 °C 93 % 1001,3 hPa 0,0 mm 1,1 km/h (1 Bft) O-NO 65 ° 0 min 0,000 mm 0,0 UV-I 0 W/m² -0,7 °C 0,3 °C 1,6 km/h (1 Bft)
06.03.2017 19:47 0,3 °C 0,4 °C 93 % 1001,3 hPa 0,0 mm 1,3 km/h (1 Bft) O-NO 65 ° 0 min 0,000 mm 0,0 UV-I 0 W/m² -0,7 °C 0,3 °C 1,6 km/h (1 Bft)
06.03.2017 19:48 0,3 °C 0,3 °C 94 % 1001,3 hPa 0,0 mm 1,7 km/h (1 Bft) O-NO 65 ° 0 min 0,000 mm 0,0 UV-I 0 W/m² -0,5 °C 0,3 °C 3,2 km/h (1 Bft)
06.03.2017 19:49 0,3 °C 0,3 °C 94 % 1001,3 hPa 0,0 mm 1,1 km/h (1 Bft) O-NO 65 ° 0 min 0,000 mm 0,0 UV-I 0 W/m² -0,5 °C 0,3 °C 1,6 km/h (1 Bft)
06.03.2017 19:50 0,3 °C 0,3 °C 94 % 1001,4 hPa 0,0 mm 1,1 km/h (1 Bft) O-NO 65 ° 0 min 0,000 mm 0,0 UV-I 0 W/m² -0,5 °C 0,3 °C 1,6 km/h (1 Bft)
06.03.2017 19:51 0,3 °C 0,3 °C 94 % 1001,4 hPa 0,0 mm 1,9 km/h (1 Bft) O-NO 65 ° 0 min 0,000 mm 0,0 UV-I 0 W/m² -0,5 °C 0,3 °C 3,2 km/h (1 Bft)
06.03.2017 19:52 0,3 °C 0,3 °C 94 % 1001,4 hPa 0,0 mm 1,8 km/h (1 Bft) O-NO 65 ° 0 min 0,000 mm 0,0 UV-I 0 W/m² -0,5 °C 0,3 °C 3,2 km/h (1 Bft)
06.03.2017 19:53 0,3 °C 0,3 °C 94 % 1001,4 hPa 0,0 mm 1,3 km/h (1 Bft) O-NO 65 ° 0 min 0,000 mm 0,0 UV-I 0 W/m² -0,5 °C 0,3 °C 3,2 km/h (1 Bft)
06.03.2017 19:54 0,3 °C 0,3 °C 94 % 1001,4 hPa 0,0 mm 1,5 km/h (1 Bft) O-NO 65 ° 0 min 0,000 mm 0,0 UV-I 0 W/m² -0,5 °C 0,3 °C 1,6 km/h (1 Bft)
06.03.2017 19:55 0,3 °C 0,3 °C 94 % 1001,4 hPa 0,0 mm 0,6 km/h (0 Bft) O-NO 65 ° 0 min 0,000 mm 0,0 UV-I 0 W/m² -0,5 °C 0,3 °C 1,6 km/h (1 Bft)
06.03.2017 19:56 0,3 °C 0,3 °C 94 % 1001,4 hPa 0,0 mm 0,0 km/h (0 Bft) O-NO 65 ° 0 min 0,000 mm 0,0 UV-I 0 W/m² -0,5 °C 0,3 °C 0,0 km/h (0 Bft)
06.03.2017 19:57 0,3 °C 0,3 °C 94 % 1001,4 hPa 0,0 mm 1,6 km/h (1 Bft) O-NO 65 ° 0 min 0,000 mm 0,0 UV-I 0 W/m² -0,5 °C 0,3 °C 3,2 km/h (1 Bft)
06.03.2017 19:58 0,3 °C 0,3 °C 94 % 1001,5 hPa 0,0 mm 1,7 km/h (1 Bft) O-NO 65 ° 0 min 0,000 mm 0,0 UV-I 0 W/m² -0,5 °C 0,3 °C 3,2 km/h (1 Bft)
06.03.2017 19:59 0,3 °C 0,3 °C 94 % 1001,5 hPa 0,0 mm 2,7 km/h (1 Bft) O-NO 65 ° 0 min 0,000 mm 0,0 UV-I 0 W/m² -0,5 °C 0,3 °C 3,2 km/h (1 Bft)
06.03.2017 20:00 0,3 °C 0,3 °C 94 % 1001,6 hPa 0,0 mm 1,6 km/h (1 Bft) O-NO 65 ° 0 min 0,000 mm 0,0 UV-I 0 W/m² -0,5 °C 0,3 °C 3,2 km/h (1 Bft)
06.03.2017 20:01 0,3 °C 0,3 °C 94 % 1001,6 hPa 0,0 mm 1,8 km/h (1 Bft) O-NO 65 ° 0 min 0,000 mm 0,0 UV-I 0 W/m² -0,5 °C 0,3 °C 3,2 km/h (1 Bft)
06.03.2017 20:02 0,3 °C 0,3 °C 94 % 1001,5 hPa 0,0 mm 1,3 km/h (1 Bft) O-NO 65 ° 0 min 0,000 mm 0,0 UV-I 0 W/m² -0,5 °C 0,3 °C 1,6 km/h (1 Bft)
06.03.2017 20:03 0,2 °C 0,3 °C 94 % 1001,6 hPa 0,0 mm 1,7 km/h (1 Bft) O-NO 65 ° 0 min 0,000 mm 0,0 UV-I 0 W/m² -0,6 °C 0,2 °C 3,2 km/h (1 Bft)
06.03.2017 20:04 0,2 °C 0,3 °C 94 % 1001,6 hPa 0,0 mm 2,2 km/h (1 Bft) O-NO 65 ° 0 min 0,000 mm 0,0 UV-I 0 W/m² -0,6 °C 0,2 °C 3,2 km/h (1 Bft)
06.03.2017 20:05 0,2 °C 0,3 °C 94 % 1001,6 hPa 0,0 mm 1,7 km/h (1 Bft) O-NO 65 ° 0 min 0,000 mm 0,0 UV-I 0 W/m² -0,6 °C 0,2 °C 3,2 km/h (1 Bft)
06.03.2017 20:06 0,2 °C 0,2 °C 94 % 1001,6 hPa 0,0 mm 1,4 km/h (1 Bft) O-NO 65 ° 0 min 0,000 mm 0,0 UV-I 0 W/m² -0,6 °C 0,2 °C 1,6 km/h (1 Bft)
06.03.2017 20:07 0,2 °C 0,3 °C 94 % 1001,7 hPa 0,0 mm 1,5 km/h (1 Bft) O-NO 65 ° 0 min 0,000 mm 0,0 UV-I 0 W/m² -0,6 °C 0,2 °C 1,6 km/h (1 Bft)
06.03.2017 20:08 0,2 °C 0,3 °C 94 % 1001,7 hPa 0,0 mm 0,3 km/h (0 Bft) O-NO 65 ° 0 min 0,000 mm 0,0 UV-I 0 W/m² -0,6 °C 0,2 °C 1,6 km/h (1 Bft)
06.03.2017 20:09 0,2 °C 0,2 °C 94 % 1001,7 hPa 0,0 mm 0,0 km/h (0 Bft) O-NO 65 ° 0 min 0,000 mm 0,0 UV-I 0 W/m² -0,6 °C 0,2 °C 0,0 km/h (0 Bft)
06.03.2017 20:10 0,2 °C 0,3 °C 94 % 1001,7 hPa 0,0 mm 0,0 km/h (0 Bft) O-NO 65 ° 0 min 0,000 mm 0,0 UV-I 0 W/m² -0,6 °C 0,2 °C 0,0 km/h (0 Bft)
06.03.2017 20:11 0,3 °C 0,3 °C 94 % 1001,7 hPa 0,0 mm 0,0 km/h (0 Bft) O-NO 65 ° 0 min 0,000 mm 0,0 UV-I 0 W/m² -0,5 °C 0,3 °C 0,0 km/h (0 Bft)
06.03.2017 20:12 0,3 °C 0,3 °C 94 % 1001,7 hPa 0,0 mm 0,0 km/h (0 Bft) O-NO 65 ° 0 min 0,000 mm 0,0 UV-I 0 W/m² -0,5 °C 0,3 °C 0,0 km/h (0 Bft)
06.03.2017 20:13 0,3 °C 0,3 °C 94 % 1001,7 hPa 0,0 mm 0,0 km/h (0 Bft) O-NO 65 ° 0 min 0,000 mm 0,0 UV-I 0 W/m² -0,5 °C 0,3 °C 0,0 km/h (0 Bft)
06.03.2017 20:14 0,3 °C 0,3 °C 94 % 1001,7 hPa 0,0 mm 0,0 km/h (0 Bft) O-NO 65 ° 0 min 0,000 mm 0,0 UV-I 0 W/m² -0,5 °C 0,3 °C 0,0 km/h (0 Bft)
06.03.2017 20:15 0,3 °C 0,3 °C 94 % 1001,7 hPa 0,0 mm 0,0 km/h (0 Bft) O-NO 65 ° 0 min 0,000 mm 0,0 UV-I 0 W/m² -0,5 °C 0,3 °C 0,0 km/h (0 Bft)
06.03.2017 20:16 0,3 °C 0,3 °C 94 % 1001,7 hPa 0,0 mm 0,0 km/h (0 Bft) O-NO 65 ° 0 min 0,000 mm 0,0 UV-I 0 W/m² -0,5 °C 0,3 °C 0,0 km/h (0 Bft)
06.03.2017 20:17 0,3 °C 0,3 °C 94 % 1001,7 hPa 0,0 mm 0,0 km/h (0 Bft) O-NO 65 ° 0 min 0,000 mm 0,0 UV-I 0 W/m² -0,5 °C 0,3 °C 0,0 km/h (0 Bft)
06.03.2017 20:18 0,3 °C 0,3 °C 94 % 1001,8 hPa 0,0 mm 0,0 km/h (0 Bft) O-NO 65 ° 0 min 0,000 mm 0,0 UV-I 0 W/m² -0,5 °C 0,3 °C 0,0 km/h (0 Bft)
06.03.2017 20:19 0,3 °C 0,3 °C 94 % 1001,8 hPa 0,0 mm 0,0 km/h (0 Bft) O-NO 65 ° 0 min 0,000 mm 0,0 UV-I 0 W/m² -0,5 °C 0,3 °C 0,0 km/h (0 Bft)
06.03.2017 20:20 0,3 °C 0,3 °C 94 % 1001,7 hPa 0,0 mm 0,0 km/h (0 Bft) O-NO 65 ° 0 min 0,000 mm 0,0 UV-I 0 W/m² -0,5 °C 0,3 °C 0,0 km/h (0 Bft)
06.03.2017 20:21 0,3 °C 0,3 °C 94 % 1001,7 hPa 0,0 mm 0,0 km/h (0 Bft) O-NO 65 ° 0 min 0,000 mm 0,0 UV-I 0 W/m² -0,5 °C 0,3 °C 0,0 km/h (0 Bft)
06.03.2017 20:22 0,3 °C 0,3 °C 94 % 1001,8 hPa 0,0 mm 0,0 km/h (0 Bft) O-NO 65 ° 0 min 0,000 mm 0,0 UV-I 0 W/m² -0,5 °C 0,3 °C 0,0 km/h (0 Bft)
06.03.2017 20:23 0,3 °C 0,3 °C 94 % 1001,8 hPa 0,0 mm 0,0 km/h (0 Bft) O-NO 65 ° 0 min 0,000 mm 0,0 UV-I 0 W/m² -0,5 °C 0,3 °C 0,0 km/h (0 Bft)
06.03.2017 20:24 0,3 °C 0,3 °C 94 % 1001,8 hPa 0,0 mm 0,0 km/h (0 Bft) O-NO 65 ° 0 min 0,000 mm 0,0 UV-I 0 W/m² -0,5 °C 0,3 °C 0,0 km/h (0 Bft)
06.03.2017 20:25 0,3 °C 0,3 °C 94 % 1001,8 hPa 0,0 mm 0,0 km/h (0 Bft) O-NO 65 ° 0 min 0,000 mm 0,0 UV-I 0 W/m² -0,5 °C 0,3 °C 0,0 km/h (0 Bft)
06.03.2017 20:26 0,3 °C 0,3 °C 94 % 1001,8 hPa 0,0 mm 0,0 km/h (0 Bft) O-NO 65 ° 0 min 0,000 mm 0,0 UV-I 0 W/m² -0,5 °C 0,3 °C 0,0 km/h (0 Bft)
06.03.2017 20:27 0,3 °C 0,3 °C 94 % 1001,9 hPa 0,0 mm 0,0 km/h (0 Bft) O-NO 65 ° 0 min 0,000 mm 0,0 UV-I 0 W/m² -0,5 °C 0,3 °C 0,0 km/h (0 Bft)
06.03.2017 20:28 0,3 °C 0,3 °C 94 % 1001,9 hPa 0,0 mm 0,0 km/h (0 Bft) O-NO 65 ° 0 min 0,000 mm 0,0 UV-I 0 W/m² -0,5 °C 0,3 °C 0,0 km/h (0 Bft)
06.03.2017 20:29 0,3 °C 0,3 °C 94 % 1001,9 hPa 0,0 mm 0,0 km/h (0 Bft) O-NO 65 ° 0 min 0,000 mm 0,0 UV-I 0 W/m² -0,5 °C 0,3 °C 0,0 km/h (0 Bft)
06.03.2017 20:30 0,3 °C 0,3 °C 94 % 1002,0 hPa 0,0 mm 0,0 km/h (0 Bft) O-NO 65 ° 0 min 0,000 mm 0,0 UV-I 0 W/m² -0,5 °C 0,3 °C 0,0 km/h (0 Bft)
06.03.2017 20:31 0,3 °C 0,3 °C 94 % 1002,0 hPa 0,0 mm 0,0 km/h (0 Bft) O-NO 65 ° 0 min 0,000 mm 0,0 UV-I 0 W/m² -0,5 °C 0,3 °C 0,0 km/h (0 Bft)
06.03.2017 20:32 0,3 °C 0,3 °C 94 % 1002,0 hPa 0,0 mm 0,0 km/h (0 Bft) O-NO 65 ° 0 min 0,000 mm 0,0 UV-I 0 W/m² -0,5 °C 0,3 °C 0,0 km/h (0 Bft)
06.03.2017 20:33 0,3 °C 0,3 °C 94 % 1002,0 hPa 0,0 mm 0,0 km/h (0 Bft) O-NO 65 ° 0 min 0,000 mm 0,0 UV-I 0 W/m² -0,5 °C 0,3 °C 0,0 km/h (0 Bft)
06.03.2017 20:34 0,3 °C 0,3 °C 94 % 1002,0 hPa 0,0 mm 0,0 km/h (0 Bft) O-NO 65 ° 0 min 0,000 mm 0,0 UV-I 0 W/m² -0,5 °C 0,3 °C 0,0 km/h (0 Bft)
06.03.2017 20:35 0,3 °C 0,3 °C 94 % 1002,1 hPa 0,0 mm 0,0 km/h (0 Bft) O-NO 65 ° 0 min 0,000 mm 0,0 UV-I 0 W/m² -0,5 °C 0,3 °C 0,0 km/h (0 Bft)
06.03.2017 20:36 0,3 °C 0,3 °C 94 % 1002,1 hPa 0,0 mm 0,0 km/h (0 Bft) O-NO 65 ° 0 min 0,000 mm 0,0 UV-I 0 W/m² -0,5 °C 0,3 °C 0,0 km/h (0 Bft)
06.03.2017 20:37 0,3 °C 0,3 °C 94 % 1002,1 hPa 0,0 mm 0,0 km/h (0 Bft) O-NO 65 ° 0 min 0,000 mm 0,0 UV-I 0 W/m² -0,5 °C 0,3 °C 0,0 km/h (0 Bft)
06.03.2017 20:38 0,3 °C 0,3 °C 94 % 1002,2 hPa 0,0 mm 0,0 km/h (0 Bft) O-NO 65 ° 0 min 0,000 mm 0,0 UV-I 0 W/m² -0,5 °C 0,3 °C 0,0 km/h (0 Bft)
06.03.2017 20:39 0,3 °C 0,3 °C 94 % 1002,2 hPa 0,0 mm 0,0 km/h (0 Bft) O-NO 65 ° 0 min 0,000 mm 0,0 UV-I 0 W/m² -0,5 °C 0,3 °C 0,0 km/h (0 Bft)
06.03.2017 20:40 0,3 °C 0,3 °C 94 % 1002,2 hPa 0,0 mm 0,0 km/h (0 Bft) O-NO 65 ° 0 min 0,000 mm 0,0 UV-I 0 W/m² -0,5 °C 0,3 °C 0,0 km/h (0 Bft)
06.03.2017 20:41 0,3 °C 0,3 °C 94 % 1002,3 hPa 0,0 mm 0,0 km/h (0 Bft) O-NO 65 ° 0 min 0,000 mm 0,0 UV-I 0 W/m² -0,5 °C 0,3 °C 0,0 km/h (0 Bft)
06.03.2017 20:42 0,3 °C 0,3 °C 94 % 1002,3 hPa 0,0 mm 0,0 km/h (0 Bft) O-NO 65 ° 0 min 0,000 mm 0,0 UV-I 0 W/m² -0,5 °C 0,3 °C 0,0 km/h (0 Bft)
06.03.2017 20:43 0,3 °C 0,3 °C 94 % 1002,3 hPa 0,0 mm 0,0 km/h (0 Bft) O-NO 65 ° 0 min 0,000 mm 0,0 UV-I 0 W/m² -0,5 °C 0,3 °C 0,0 km/h (0 Bft)
06.03.2017 20:44 0,3 °C 0,3 °C 94 % 1002,3 hPa 0,0 mm 0,0 km/h (0 Bft) O-NO 65 ° 0 min 0,000 mm 0,0 UV-I 0 W/m² -0,5 °C 0,3 °C 0,0 km/h (0 Bft)
06.03.2017 20:45 0,2 °C 0,3 °C 94 % 1002,3 hPa 0,0 mm 0,0 km/h (0 Bft) O-NO 65 ° 0 min 0,000 mm 0,0 UV-I 0 W/m² -0,6 °C 0,2 °C 0,0 km/h (0 Bft)
06.03.2017 20:46 0,2 °C 0,3 °C 94 % 1002,3 hPa 0,0 mm 0,0 km/h (0 Bft) O-NO 65 ° 0 min 0,000 mm 0,0 UV-I 0 W/m² -0,6 °C 0,2 °C 0,0 km/h (0 Bft)
06.03.2017 20:47 0,2 °C 0,2 °C 94 % 1002,4 hPa 0,0 mm 0,0 km/h (0 Bft) O-NO 65 ° 0 min 0,000 mm 0,0 UV-I 0 W/m² -0,6 °C 0,2 °C 0,0 km/h (0 Bft)
06.03.2017 20:48 0,2 °C 0,2 °C 94 % 1002,4 hPa 0,0 mm 0,0 km/h (0 Bft) O-NO 65 ° 0 min 0,000 mm 0,0 UV-I 0 W/m² -0,6 °C 0,2 °C 0,0 km/h (0 Bft)
06.03.2017 20:49 0,2 °C 0,2 °C 94 % 1002,4 hPa 0,0 mm 0,0 km/h (0 Bft) O-NO 65 ° 0 min 0,000 mm 0,0 UV-I 0 W/m² -0,6 °C 0,2 °C 0,0 km/h (0 Bft)
06.03.2017 20:50 0,2 °C 0,2 °C 94 % 1002,4 hPa 0,0 mm 0,0 km/h (0 Bft) O-NO 65 ° 0 min 0,000 mm 0,0 UV-I 0 W/m² -0,6 °C 0,2 °C 0,0 km/h (0 Bft)
06.03.2017 20:51 0,2 °C 0,2 °C 94 % 1002,4 hPa 0,0 mm 0,0 km/h (0 Bft) O-NO 65 ° 0 min 0,000 mm 0,0 UV-I 0 W/m² -0,6 °C 0,2 °C 0,0 km/h (0 Bft)
06.03.2017 20:52 0,2 °C 0,2 °C 94 % 1002,4 hPa 0,0 mm 0,0 km/h (0 Bft) O-NO 65 ° 0 min 0,000 mm 0,0 UV-I 0 W/m² -0,6 °C 0,2 °C 0,0 km/h (0 Bft)
06.03.2017 20:53 0,2 °C 0,2 °C 94 % 1002,4 hPa 0,0 mm 0,0 km/h (0 Bft) O-NO 65 ° 0 min 0,000 mm 0,0 UV-I 0 W/m² -0,6 °C 0,2 °C 0,0 km/h (0 Bft)
06.03.2017 20:54 0,2 °C 0,2 °C 94 % 1002,4 hPa 0,0 mm 0,0 km/h (0 Bft) O-NO 65 ° 0 min 0,000 mm 0,0 UV-I 0 W/m² -0,6 °C 0,2 °C 0,0 km/h (0 Bft)
06.03.2017 20:55 0,2 °C 0,2 °C 94 % 1002,5 hPa 0,0 mm 0,0 km/h (0 Bft) O-NO 65 ° 0 min 0,000 mm 0,0 UV-I 0 W/m² -0,6 °C 0,2 °C 0,0 km/h (0 Bft)
06.03.2017 20:56 0,2 °C 0,2 °C 94 % 1002,6 hPa 0,0 mm 0,0 km/h (0 Bft) O-NO 65 ° 0 min 0,000 mm 0,0 UV-I 0 W/m² -0,6 °C 0,2 °C 0,0 km/h (0 Bft)
06.03.2017 20:57 0,2 °C 0,2 °C 94 % 1002,6 hPa 0,0 mm 0,0 km/h (0 Bft) O-NO 65 ° 0 min 0,000 mm 0,0 UV-I 0 W/m² -0,6 °C 0,2 °C 0,0 km/h (0 Bft)
06.03.2017 20:58 0,2 °C 0,2 °C 94 % 1002,6 hPa 0,0 mm 0,0 km/h (0 Bft) O-NO 65 ° 0 min 0,000 mm 0,0 UV-I 0 W/m² -0,6 °C 0,2 °C 0,0 km/h (0 Bft)
06.03.2017 20:59 0,2 °C 0,2 °C 95 % 1002,6 hPa 0,0 mm 0,0 km/h (0 Bft) O-NO 65 ° 0 min 0,000 mm 0,0 UV-I 0 W/m² -0,5 °C 0,2 °C 0,0 km/h (0 Bft)
06.03.2017 21:00 0,2 °C 0,2 °C 95 % 1002,6 hPa 0,0 mm 0,0 km/h (0 Bft) O-NO 65 ° 0 min 0,000 mm 0,0 UV-I 0 W/m² -0,5 °C 0,2 °C 0,0 km/h (0 Bft)
06.03.2017 21:01 0,2 °C 0,2 °C 95 % 1002,6 hPa 0,0 mm 0,0 km/h (0 Bft) O-NO 65 ° 0 min 0,000 mm 0,0 UV-I 0 W/m² -0,5 °C 0,2 °C 0,0 km/h (0 Bft)
06.03.2017 21:02 0,2 °C 0,3 °C 95 % 1002,6 hPa 0,0 mm 0,0 km/h (0 Bft) O-NO 65 ° 0 min 0,000 mm 0,0 UV-I 0 W/m² -0,5 °C 0,2 °C 0,0 km/h (0 Bft)
06.03.2017 21:03 0,3 °C 0,3 °C 95 % 1002,7 hPa 0,0 mm 0,0 km/h (0 Bft) O-NO 65 ° 0 min 0,000 mm 0,0 UV-I 0 W/m² -0,4 °C 0,3 °C 0,0 km/h (0 Bft)
06.03.2017 21:04 0,3 °C 0,3 °C 95 % 1002,7 hPa 0,0 mm 0,0 km/h (0 Bft) O-NO 65 ° 0 min 0,000 mm 0,0 UV-I 0 W/m² -0,4 °C 0,3 °C 0,0 km/h (0 Bft)
06.03.2017 21:05 0,3 °C 0,3 °C 95 % 1002,7 hPa 0,0 mm 0,0 km/h (0 Bft) O-NO 65 ° 0 min 0,000 mm 0,0 UV-I 0 W/m² -0,4 °C 0,3 °C 0,0 km/h (0 Bft)
06.03.2017 21:06 0,3 °C 0,3 °C 95 % 1002,7 hPa 0,0 mm 0,0 km/h (0 Bft) O-NO 65 ° 0 min 0,000 mm 0,0 UV-I 0 W/m² -0,4 °C 0,3 °C 0,0 km/h (0 Bft)
06.03.2017 21:07 0,3 °C 0,3 °C 95 % 1002,8 hPa 0,0 mm 0,0 km/h (0 Bft) O-NO 65 ° 0 min 0,000 mm 0,0 UV-I 0 W/m² -0,4 °C 0,3 °C 0,0 km/h (0 Bft)
06.03.2017 21:08 0,3 °C 0,3 °C 95 % 1002,7 hPa 0,0 mm 0,0 km/h (0 Bft) O-NO 65 ° 0 min 0,000 mm 0,0 UV-I 0 W/m² -0,4 °C 0,3 °C 0,0 km/h (0 Bft)
06.03.2017 21:09 0,3 °C 0,3 °C 95 % 1002,8 hPa 0,0 mm 0,0 km/h (0 Bft) O-NO 65 ° 0 min 0,000 mm 0,0 UV-I 0 W/m² -0,4 °C 0,3 °C 0,0 km/h (0 Bft)
06.03.2017 21:10 0,3 °C 0,3 °C 95 % 1002,8 hPa 0,0 mm 0,0 km/h (0 Bft) O-NO 65 ° 0 min 0,000 mm 0,0 UV-I 0 W/m² -0,4 °C 0,3 °C 0,0 km/h (0 Bft)
06.03.2017 21:11 0,3 °C 0,3 °C 95 % 1002,8 hPa 0,0 mm 0,0 km/h (0 Bft) O-NO 65 ° 0 min 0,000 mm 0,0 UV-I 0 W/m² -0,4 °C 0,3 °C 0,0 km/h (0 Bft)
06.03.2017 21:12 0,3 °C 0,3 °C 95 % 1002,9 hPa 0,0 mm 0,0 km/h (0 Bft) O-NO 65 ° 0 min 0,000 mm 0,0 UV-I 0 W/m² -0,4 °C 0,3 °C 0,0 km/h (0 Bft)
06.03.2017 21:13 0,3 °C 0,3 °C 95 % 1002,9 hPa 0,0 mm 0,0 km/h (0 Bft) O-NO 65 ° 0 min 0,000 mm 0,0 UV-I 0 W/m² -0,4 °C 0,3 °C 0,0 km/h (0 Bft)
06.03.2017 21:14 0,3 °C 0,3 °C 95 % 1002,9 hPa 0,0 mm 0,0 km/h (0 Bft) O-NO 65 ° 0 min 0,000 mm 0,0 UV-I 0 W/m² -0,4 °C 0,3 °C 0,0 km/h (0 Bft)
06.03.2017 21:15 0,3 °C 0,3 °C 95 % 1002,9 hPa 0,0 mm 0,0 km/h (0 Bft) O-NO 64 ° 0 min 0,000 mm 0,0 UV-I 0 W/m² -0,4 °C 0,3 °C 0,0 km/h (0 Bft)
06.03.2017 21:16 0,3 °C 0,3 °C 95 % 1002,9 hPa 0,0 mm 0,0 km/h (0 Bft) O-NO 64 ° 0 min 0,000 mm 0,0 UV-I 0 W/m² -0,4 °C 0,3 °C 0,0 km/h (0 Bft)
06.03.2017 21:17 0,3 °C 0,3 °C 95 % 1003,0 hPa 0,0 mm 0,0 km/h (0 Bft) O-NO 64 ° 0 min 0,000 mm 0,0 UV-I 0 W/m² -0,4 °C 0,3 °C 0,0 km/h (0 Bft)
06.03.2017 21:18 0,3 °C 0,3 °C 95 % 1003,0 hPa 0,0 mm 0,0 km/h (0 Bft) O-NO 64 ° 0 min 0,000 mm 0,0 UV-I 0 W/m² -0,4 °C 0,3 °C 0,0 km/h (0 Bft)
06.03.2017 21:19 0,3 °C 0,3 °C 95 % 1003,0 hPa 0,0 mm 0,1 km/h (0 Bft) N-NW 344 ° 0 min 0,000 mm 0,0 UV-I 0 W/m² -0,4 °C 0,3 °C 1,6 km/h (1 Bft)
06.03.2017 21:20 0,3 °C 0,3 °C 95 % 1003,1 hPa 0,0 mm 0,1 km/h (0 Bft) N-NW 344 ° 0 min 0,000 mm 0,0 UV-I 0 W/m² -0,4 °C 0,3 °C 1,6 km/h (1 Bft)
06.03.2017 21:21 0,3 °C 0,3 °C 95 % 1003,1 hPa 0,0 mm 0,6 km/h (0 Bft) N-NW 344 ° 0 min 0,000 mm 0,0 UV-I 0 W/m² -0,4 °C 0,3 °C 1,6 km/h (1 Bft)
06.03.2017 21:22 0,3 °C 0,3 °C 95 % 1003,1 hPa 0,0 mm 0,0 km/h (0 Bft) N-NW 344 ° 0 min 0,000 mm 0,0 UV-I 0 W/m² -0,4 °C 0,3 °C 0,0 km/h (0 Bft)
06.03.2017 21:23 0,3 °C 0,3 °C 95 % 1003,2 hPa 0,0 mm 0,0 km/h (0 Bft) N-NW 344 ° 0 min 0,000 mm 0,0 UV-I 0 W/m² -0,4 °C 0,3 °C 0,0 km/h (0 Bft)
06.03.2017 21:24 0,3 °C 0,3 °C 95 % 1003,2 hPa 0,0 mm 0,0 km/h (0 Bft) N-NW 344 ° 0 min 0,000 mm 0,0 UV-I 0 W/m² -0,4 °C 0,3 °C 0,0 km/h (0 Bft)
06.03.2017 21:25 0,3 °C 0,3 °C 95 % 1003,2 hPa 0,0 mm 0,0 km/h (0 Bft) N-NW 344 ° 0 min 0,000 mm 0,0 UV-I 0 W/m² -0,4 °C 0,3 °C 0,0 km/h (0 Bft)
06.03.2017 21:26 0,3 °C 0,3 °C 95 % 1003,3 hPa 0,0 mm 0,3 km/h (0 Bft) NW 313 ° 0 min 0,000 mm 0,0 UV-I 0 W/m² -0,4 °C 0,3 °C 1,6 km/h (1 Bft)
06.03.2017 21:27 0,3 °C 0,4 °C 95 % 1003,3 hPa 0,0 mm 1,7 km/h (1 Bft) W 276 ° 0 min 0,000 mm 0,0 UV-I 0 W/m² -0,4 °C 0,3 °C 3,2 km/h (1 Bft)
06.03.2017 21:28 0,3 °C 0,4 °C 95 % 1003,3 hPa 0,0 mm 1,1 km/h (1 Bft) W 276 ° 0 min 0,000 mm 0,0 UV-I 0 W/m² -0,4 °C 0,3 °C 3,2 km/h (1 Bft)
06.03.2017 21:29 0,3 °C 0,4 °C 95 % 1003,3 hPa 0,0 mm 0,0 km/h (0 Bft) W 276 ° 0 min 0,000 mm 0,0 UV-I 0 W/m² -0,4 °C 0,3 °C 0,0 km/h (0 Bft)
06.03.2017 21:30 0,4 °C 0,4 °C 95 % 1003,3 hPa 0,0 mm 0,2 km/h (0 Bft) W 276 ° 0 min 0,000 mm 0,0 UV-I 0 W/m² -0,3 °C 0,4 °C 1,6 km/h (1 Bft)
06.03.2017 21:31 0,4 °C 0,4 °C 95 % 1003,3 hPa 0,0 mm 0,7 km/h (0 Bft) W 276 ° 0 min 0,000 mm 0,0 UV-I 0 W/m² -0,3 °C 0,4 °C 1,6 km/h (1 Bft)
06.03.2017 21:32 0,4 °C 0,4 °C 95 % 1003,3 hPa 0,0 mm 0,6 km/h (0 Bft) W 276 ° 0 min 0,000 mm 0,0 UV-I 0 W/m² -0,3 °C 0,4 °C 1,6 km/h (1 Bft)
06.03.2017 21:33 0,4 °C 0,4 °C 95 % 1003,4 hPa 0,0 mm 0,0 km/h (0 Bft) W 276 ° 0 min 0,000 mm 0,0 UV-I 0 W/m² -0,3 °C 0,4 °C 0,0 km/h (0 Bft)
06.03.2017 21:34 0,4 °C 0,4 °C 95 % 1003,4 hPa 0,0 mm 0,4 km/h (0 Bft) W 276 ° 0 min 0,000 mm 0,0 UV-I 0 W/m² -0,3 °C 0,4 °C 1,6 km/h (1 Bft)
06.03.2017 21:35 0,4 °C 0,4 °C 95 % 1003,4 hPa 0,0 mm 0,7 km/h (0 Bft) W 276 ° 0 min 0,000 mm 0,0 UV-I 0 W/m² -0,3 °C 0,4 °C 1,6 km/h (1 Bft)
06.03.2017 21:36 0,4 °C 0,4 °C 95 % 1003,4 hPa 0,0 mm 0,0 km/h (0 Bft) W 276 ° 0 min 0,000 mm 0,0 UV-I 0 W/m² -0,3 °C 0,4 °C 0,0 km/h (0 Bft)
06.03.2017 21:37 0,4 °C 0,4 °C 95 % 1003,5 hPa 0,0 mm 1,2 km/h (1 Bft) W 274 ° 0 min 0,000 mm 0,0 UV-I 0 W/m² -0,3 °C 0,4 °C 3,2 km/h (1 Bft)
06.03.2017 21:38 0,4 °C 0,4 °C 95 % 1003,5 hPa 0,0 mm 1,0 km/h (0 Bft) W 274 ° 0 min 0,000 mm 0,0 UV-I 0 W/m² -0,3 °C 0,4 °C 1,6 km/h (1 Bft)
06.03.2017 21:39 0,4 °C 0,4 °C 95 % 1003,5 hPa 0,0 mm 0,3 km/h (0 Bft) W 274 ° 0 min 0,000 mm 0,0 UV-I 0 W/m² -0,3 °C 0,4 °C 1,6 km/h (1 Bft)
06.03.2017 21:40 0,4 °C 0,4 °C 95 % 1003,5 hPa 0,0 mm 0,0 km/h (0 Bft) W 274 ° 0 min 0,000 mm 0,0 UV-I 0 W/m² -0,3 °C 0,4 °C 0,0 km/h (0 Bft)
06.03.2017 21:41 0,4 °C 0,4 °C 95 % 1003,5 hPa 0,0 mm 0,7 km/h (0 Bft) W 274 ° 0 min 0,000 mm 0,0 UV-I 0 W/m² -0,3 °C 0,4 °C 1,6 km/h (1 Bft)
06.03.2017 21:42 0,4 °C 0,4 °C 95 % 1003,5 hPa 0,0 mm 0,0 km/h (0 Bft) W 274 ° 0 min 0,000 mm 0,0 UV-I 0 W/m² -0,3 °C 0,4 °C 0,0 km/h (0 Bft)
06.03.2017 21:43 0,4 °C 0,4 °C 95 % 1003,5 hPa 0,0 mm 0,0 km/h (0 Bft) W 274 ° 0 min 0,000 mm 0,0 UV-I 0 W/m² -0,3 °C 0,4 °C 0,0 km/h (0 Bft)
06.03.2017 21:44 0,4 °C 0,4 °C 95 % 1003,6 hPa 0,0 mm 0,1 km/h (0 Bft) W 274 ° 0 min 0,000 mm 0,0 UV-I 0 W/m² -0,3 °C 0,4 °C 1,6 km/h (1 Bft)
06.03.2017 21:45 0,4 °C 0,4 °C 95 % 1003,6 hPa 0,0 mm 0,0 km/h (0 Bft) W 274 ° 0 min 0,000 mm 0,0 UV-I 0 W/m² -0,3 °C 0,4 °C 0,0 km/h (0 Bft)
06.03.2017 21:46 0,4 °C 0,4 °C 95 % 1003,6 hPa 0,0 mm 0,5 km/h (0 Bft) W 274 ° 0 min 0,000 mm 0,0 UV-I 0 W/m² -0,3 °C 0,4 °C 1,6 km/h (1 Bft)
06.03.2017 21:47 0,4 °C 0,4 °C 94 % 1003,7 hPa 0,0 mm 1,1 km/h (1 Bft) W 274 ° 0 min 0,000 mm 0,0 UV-I 0 W/m² -0,5 °C 0,4 °C 1,6 km/h (1 Bft)
06.03.2017 21:48 0,4 °C 0,4 °C 94 % 1003,7 hPa 0,0 mm 1,1 km/h (1 Bft) W 274 ° 0 min 0,000 mm 0,0 UV-I 0 W/m² -0,5 °C 0,4 °C 3,2 km/h (1 Bft)
06.03.2017 21:49 0,4 °C 0,4 °C 94 % 1003,7 hPa 0,0 mm 0,0 km/h (0 Bft) W 274 ° 0 min 0,000 mm 0,0 UV-I 0 W/m² -0,5 °C 0,4 °C 0,0 km/h (0 Bft)
06.03.2017 21:50 0,4 °C 0,4 °C 94 % 1003,7 hPa 0,0 mm 0,1 km/h (0 Bft) W 274 ° 0 min 0,000 mm 0,0 UV-I 0 W/m² -0,5 °C 0,4 °C 1,6 km/h (1 Bft)
06.03.2017 21:51 0,4 °C 0,4 °C 94 % 1003,7 hPa 0,0 mm 1,7 km/h (1 Bft) W 267 ° 0 min 0,000 mm 0,0 UV-I 0 W/m² -0,5 °C 0,4 °C 3,2 km/h (1 Bft)
06.03.2017 21:52 0,4 °C 0,4 °C 95 % 1003,7 hPa 0,0 mm 1,7 km/h (1 Bft) W 272 ° 0 min 0,000 mm 0,0 UV-I 0 W/m² -0,3 °C 0,4 °C 3,2 km/h (1 Bft)
06.03.2017 21:53 0,4 °C 0,4 °C 95 % 1003,7 hPa 0,0 mm 1,3 km/h (1 Bft) W 272 ° 0 min 0,000 mm 0,0 UV-I 0 W/m² -0,3 °C 0,4 °C 1,6 km/h (1 Bft)
06.03.2017 21:54 0,4 °C 0,4 °C 95 % 1003,8 hPa 0,0 mm 1,9 km/h (1 Bft) W 261 ° 0 min 0,000 mm 0,0 UV-I 0 W/m² -0,3 °C 0,4 °C 3,2 km/h (1 Bft)
06.03.2017 21:55 0,4 °C 0,4 °C 95 % 1003,8 hPa 0,0 mm 1,8 km/h (1 Bft) W 261 ° 0 min 0,000 mm 0,0 UV-I 0 W/m² -0,3 °C 0,4 °C 3,2 km/h (1 Bft)
06.03.2017 21:56 0,4 °C 0,4 °C 95 % 1003,8 hPa 0,0 mm 0,1 km/h (0 Bft) W 261 ° 0 min 0,000 mm 0,0 UV-I 0 W/m² -0,3 °C 0,4 °C 1,6 km/h (1 Bft)
06.03.2017 21:57 0,4 °C 0,4 °C 95 % 1003,9 hPa 0,0 mm 0,7 km/h (0 Bft) W 261 ° 0 min 0,000 mm 0,0 UV-I 0 W/m² -0,3 °C 0,4 °C 3,2 km/h (1 Bft)
06.03.2017 21:58 0,4 °C 0,4 °C 95 % 1003,9 hPa 0,0 mm 1,5 km/h (1 Bft) W 261 ° 0 min 0,000 mm 0,0 UV-I 0 W/m² -0,3 °C 0,4 °C 1,6 km/h (1 Bft)
06.03.2017 21:59 0,4 °C 0,4 °C 95 % 1003,9 hPa 0,0 mm 2,3 km/h (1 Bft) W-SW 257 ° 0 min 0,000 mm 0,0 UV-I 0 W/m² -0,3 °C 0,4 °C 4,8 km/h (1 Bft)
06.03.2017 22:00 0,4 °C 0,4 °C 95 % 1004,0 hPa 0,0 mm 1,3 km/h (1 Bft) W-SW 257 ° 0 min 0,000 mm 0,0 UV-I 0 W/m² -0,3 °C 0,4 °C 1,6 km/h (1 Bft)
06.03.2017 22:01 0,4 °C 0,4 °C 94 % 1004,0 hPa 0,0 mm 2,1 km/h (1 Bft) W 269 ° 0 min 0,000 mm 0,0 UV-I 0 W/m² -0,5 °C 0,4 °C 3,2 km/h (1 Bft)
06.03.2017 22:02 0,4 °C 0,4 °C 95 % 1004,0 hPa 0,0 mm 1,7 km/h (1 Bft) W-SW 251 ° 0 min 0,000 mm 0,0 UV-I 0 W/m² -0,3 °C 0,4 °C 3,2 km/h (1 Bft)
06.03.2017 22:03 0,4 °C 0,4 °C 94 % 1004,0 hPa 0,0 mm 0,7 km/h (0 Bft) W 269 ° 0 min 0,000 mm 0,0 UV-I 0 W/m² -0,5 °C 0,4 °C 1,6 km/h (1 Bft)
06.03.2017 22:04 0,4 °C 0,4 °C 94 % 1004,1 hPa 0,0 mm 1,4 km/h (1 Bft) W-SW 255 ° 0 min 0,000 mm 0,0 UV-I 0 W/m² -0,5 °C 0,4 °C 3,2 km/h (1 Bft)
06.03.2017 22:05 0,4 °C 0,4 °C 94 % 1004,1 hPa 0,0 mm 0,6 km/h (0 Bft) W-SW 255 ° 0 min 0,000 mm 0,0 UV-I 0 W/m² -0,5 °C 0,4 °C 1,6 km/h (1 Bft)
06.03.2017 22:06 0,4 °C 0,4 °C 94 % 1004,1 hPa 0,0 mm 1,8 km/h (1 Bft) W 267 ° 0 min 0,000 mm 0,0 UV-I 0 W/m² -0,5 °C 0,4 °C 3,2 km/h (1 Bft)
06.03.2017 22:07 0,4 °C 0,4 °C 94 % 1004,1 hPa 0,0 mm 2,0 km/h (1 Bft) W 267 ° 0 min 0,000 mm 0,0 UV-I 0 W/m² -0,5 °C 0,4 °C 3,2 km/h (1 Bft)
06.03.2017 22:08 0,4 °C 0,4 °C 94 % 1004,1 hPa 0,0 mm 1,6 km/h (1 Bft) W 267 ° 0 min 0,000 mm 0,0 UV-I 0 W/m² -0,5 °C 0,4 °C 3,2 km/h (1 Bft)
06.03.2017 22:09 0,4 °C 0,4 °C 94 % 1004,1 hPa 0,0 mm 0,9 km/h (0 Bft) W 267 ° 0 min 0,000 mm 0,0 UV-I 0 W/m² -0,5 °C 0,4 °C 1,6 km/h (1 Bft)
06.03.2017 22:10 0,4 °C 0,4 °C 94 % 1004,2 hPa 0,0 mm 1,9 km/h (1 Bft) W 267 ° 0 min 0,000 mm 0,0 UV-I 0 W/m² -0,5 °C 0,4 °C 3,2 km/h (1 Bft)
06.03.2017 22:11 0,4 °C 0,4 °C 94 % 1004,2 hPa 0,0 mm 2,4 km/h (1 Bft) W 268 ° 0 min 0,000 mm 0,0 UV-I 0 W/m² -0,5 °C 0,4 °C 3,2 km/h (1 Bft)
06.03.2017 22:12 0,4 °C 0,4 °C 94 % 1004,2 hPa 0,0 mm 1,5 km/h (1 Bft) W-SW 257 ° 0 min 0,000 mm 0,0 UV-I 0 W/m² -0,5 °C 0,4 °C 3,2 km/h (1 Bft)
06.03.2017 22:13 0,4 °C 0,4 °C 94 % 1004,2 hPa 0,0 mm 2,2 km/h (1 Bft) W-SW 244 ° 0 min 0,000 mm 0,0 UV-I 0 W/m² -0,5 °C 0,4 °C 4,8 km/h (1 Bft)
06.03.2017 22:14 0,4 °C 0,4 °C 94 % 1004,2 hPa 0,0 mm 2,7 km/h (1 Bft) W 279 ° 0 min 0,000 mm 0,0 UV-I 0 W/m² -0,5 °C 0,4 °C 4,8 km/h (1 Bft)
06.03.2017 22:15 0,4 °C 0,4 °C 94 % 1004,3 hPa 0,0 mm 2,5 km/h (1 Bft) SW 236 ° 0 min 0,000 mm 0,0 UV-I 0 W/m² -0,5 °C 0,4 °C 4,8 km/h (1 Bft)
06.03.2017 22:16 0,4 °C 0,4 °C 94 % 1004,2 hPa 0,0 mm 3,0 km/h (1 Bft) S 185 ° 0 min 0,000 mm 0,0 UV-I 0 W/m² -0,5 °C 0,4 °C 4,8 km/h (1 Bft)
06.03.2017 22:17 0,4 °C 0,4 °C 94 % 1004,2 hPa 0,0 mm 3,6 km/h (1 Bft) W 264 ° 0 min 0,000 mm 0,0 UV-I 0 W/m² -0,5 °C 0,4 °C 6,4 km/h (2 Bft)
06.03.2017 22:18 0,4 °C 0,4 °C 94 % 1004,3 hPa 0,0 mm 2,4 km/h (1 Bft) W-SW 250 ° 0 min 0,000 mm 0,0 UV-I 0 W/m² -0,5 °C 0,4 °C 4,8 km/h (1 Bft)
06.03.2017 22:19 0,4 °C 0,4 °C 94 % 1004,3 hPa 0,0 mm 1,8 km/h (1 Bft) W-SW 256 ° 0 min 0,000 mm 0,0 UV-I 0 W/m² -0,5 °C 0,4 °C 3,2 km/h (1 Bft)
06.03.2017 22:20 0,4 °C 0,4 °C 94 % 1004,4 hPa 0,0 mm 2,7 km/h (1 Bft) W 259 ° 0 min 0,000 mm 0,0 UV-I 0 W/m² -0,5 °C 0,4 °C 4,8 km/h (1 Bft)
06.03.2017 22:21 0,4 °C 0,4 °C 94 % 1004,4 hPa 0,0 mm 1,8 km/h (1 Bft) W-SW 257 ° 0 min 0,000 mm 0,0 UV-I 0 W/m² -0,5 °C 0,4 °C 4,8 km/h (1 Bft)
06.03.2017 22:22 0,4 °C 0,4 °C 94 % 1004,4 hPa 0,0 mm 2,9 km/h (1 Bft) W-SW 238 ° 0 min 0,000 mm 0,0 UV-I 0 W/m² -0,5 °C 0,4 °C 4,8 km/h (1 Bft)
06.03.2017 22:23 0,4 °C 0,4 °C 94 % 1004,4 hPa 0,0 mm 2,6 km/h (1 Bft) W-SW 252 ° 0 min 0,000 mm 0,0 UV-I 0 W/m² -0,5 °C 0,4 °C 3,2 km/h (1 Bft)
06.03.2017 22:24 0,4 °C 0,4 °C 94 % 1004,4 hPa 0,0 mm 2,7 km/h (1 Bft) W 270 ° 0 min 0,000 mm 0,0 UV-I 0 W/m² -0,5 °C 0,4 °C 4,8 km/h (1 Bft)
06.03.2017 22:25 0,4 °C 0,4 °C 94 % 1004,5 hPa 0,0 mm 3,0 km/h (1 Bft) W 269 ° 0 min 0,000 mm 0,0 UV-I 0 W/m² -0,5 °C 0,4 °C 4,8 km/h (1 Bft)
06.03.2017 22:26 0,4 °C 0,4 °C 94 % 1004,5 hPa 0,0 mm 3,4 km/h (1 Bft) W-SW 246 ° 0 min 0,000 mm 0,0 UV-I 0 W/m² -0,5 °C 0,4 °C 4,8 km/h (1 Bft)
06.03.2017 22:27 0,4 °C 0,4 °C 94 % 1004,5 hPa 0,0 mm 2,7 km/h (1 Bft) SW 232 ° 0 min 0,000 mm 0,0 UV-I 0 W/m² -0,5 °C 0,4 °C 4,8 km/h (1 Bft)
06.03.2017 22:28 0,4 °C 0,4 °C 94 % 1004,6 hPa 0,0 mm 1,2 km/h (1 Bft) W-SW 254 ° 0 min 0,000 mm 0,0 UV-I 0 W/m² -0,5 °C 0,4 °C 3,2 km/h (1 Bft)
06.03.2017 22:29 0,4 °C 0,4 °C 94 % 1004,6 hPa 0,0 mm 2,6 km/h (1 Bft) W-SW 244 ° 0 min 0,000 mm 0,0 UV-I 0 W/m² -0,5 °C 0,4 °C 3,2 km/h (1 Bft)
06.03.2017 22:30 0,4 °C 0,4 °C 94 % 1004,6 hPa 0,0 mm 2,7 km/h (1 Bft) W-SW 240 ° 0 min 0,000 mm 0,0 UV-I 0 W/m² -0,5 °C 0,4 °C 4,8 km/h (1 Bft)
06.03.2017 22:31 0,4 °C 0,4 °C 94 % 1004,7 hPa 0,0 mm 2,6 km/h (1 Bft) W-SW 254 ° 0 min 0,000 mm 0,0 UV-I 0 W/m² -0,5 °C 0,4 °C 3,2 km/h (1 Bft)
06.03.2017 22:32 0,4 °C 0,4 °C 94 % 1004,7 hPa 0,0 mm 2,7 km/h (1 Bft) S-SW 211 ° 0 min 0,000 mm 0,0 UV-I 0 W/m² -0,5 °C 0,4 °C 4,8 km/h (1 Bft)
06.03.2017 22:33 0,4 °C 0,4 °C 94 % 1004,7 hPa 0,0 mm 1,9 km/h (1 Bft) SW 235 ° 0 min 0,000 mm 0,0 UV-I 0 W/m² -0,5 °C 0,4 °C 3,2 km/h (1 Bft)
06.03.2017 22:34 0,4 °C 0,4 °C 94 % 1004,7 hPa 0,0 mm 1,7 km/h (1 Bft) W-SW 253 ° 0 min 0,000 mm 0,0 UV-I 0 W/m² -0,5 °C 0,4 °C 3,2 km/h (1 Bft)
06.03.2017 22:35 0,4 °C 0,4 °C 94 % 1004,8 hPa 0,0 mm 1,5 km/h (1 Bft) W-SW 254 ° 0 min 0,000 mm 0,0 UV-I 0 W/m² -0,5 °C 0,4 °C 3,2 km/h (1 Bft)
06.03.2017 22:36 0,4 °C 0,4 °C 94 % 1004,8 hPa 0,0 mm 0,8 km/h (0 Bft) W-SW 255 ° 0 min 0,000 mm 0,0 UV-I 0 W/m² -0,5 °C 0,4 °C 1,6 km/h (1 Bft)
06.03.2017 22:37 0,4 °C 0,4 °C 94 % 1004,8 hPa 0,0 mm 1,4 km/h (1 Bft) W-SW 253 ° 0 min 0,000 mm 0,0 UV-I 0 W/m² -0,5 °C 0,4 °C 3,2 km/h (1 Bft)
06.03.2017 22:38 0,4 °C 0,4 °C 94 % 1004,9 hPa 0,0 mm 1,3 km/h (1 Bft) W-SW 252 ° 0 min 0,000 mm 0,0 UV-I 0 W/m² -0,5 °C 0,4 °C 3,2 km/h (1 Bft)
06.03.2017 22:39 0,4 °C 0,4 °C 94 % 1004,9 hPa 0,0 mm 1,8 km/h (1 Bft) W 259 ° 0 min 0,000 mm 0,0 UV-I 0 W/m² -0,5 °C 0,4 °C 3,2 km/h (1 Bft)
06.03.2017 22:40 0,4 °C 0,4 °C 94 % 1004,9 hPa 0,0 mm 2,9 km/h (1 Bft) W-SW 251 ° 0 min 0,000 mm 0,0 UV-I 0 W/m² -0,5 °C 0,4 °C 4,8 km/h (1 Bft)
06.03.2017 22:41 0,4 °C 0,4 °C 94 % 1004,9 hPa 0,0 mm 3,1 km/h (1 Bft) W 271 ° 0 min 0,000 mm 0,0 UV-I 0 W/m² -0,5 °C 0,4 °C 4,8 km/h (1 Bft)
06.03.2017 22:42 0,4 °C 0,4 °C 94 % 1005,0 hPa 0,0 mm 1,8 km/h (1 Bft) W-SW 250 ° 0 min 0,000 mm 0,0 UV-I 0 W/m² -0,5 °C 0,4 °C 3,2 km/h (1 Bft)
06.03.2017 22:43 0,4 °C 0,4 °C 94 % 1005,0 hPa 0,0 mm 2,5 km/h (1 Bft) W-SW 251 ° 0 min 0,000 mm 0,0 UV-I 0 W/m² -0,5 °C 0,4 °C 3,2 km/h (1 Bft)
06.03.2017 22:44 0,4 °C 0,4 °C 94 % 1005,0 hPa 0,0 mm 3,0 km/h (1 Bft) W-SW 250 ° 0 min 0,000 mm 0,0 UV-I 0 W/m² -0,5 °C 0,4 °C 4,8 km/h (1 Bft)
06.03.2017 22:45 0,4 °C 0,4 °C 94 % 1005,0 hPa 0,0 mm 1,9 km/h (1 Bft) SW 219 ° 0 min 0,000 mm 0,0 UV-I 0 W/m² -0,5 °C 0,4 °C 3,2 km/h (1 Bft)
06.03.2017 22:46 0,4 °C 0,4 °C 94 % 1005,0 hPa 0,0 mm 1,8 km/h (1 Bft) W-SW 254 ° 0 min 0,000 mm 0,0 UV-I 0 W/m² -0,5 °C 0,4 °C 3,2 km/h (1 Bft)
06.03.2017 22:47 0,4 °C 0,4 °C 94 % 1005,0 hPa 0,0 mm 3,4 km/h (1 Bft) SW 223 ° 0 min 0,000 mm 0,0 UV-I 0 W/m² -0,5 °C 0,4 °C 6,4 km/h (2 Bft)
06.03.2017 22:48 0,4 °C 0,4 °C 94 % 1005,0 hPa 0,0 mm 1,8 km/h (1 Bft) S-SW 209 ° 0 min 0,000 mm 0,0 UV-I 0 W/m² -0,5 °C 0,4 °C 3,2 km/h (1 Bft)
06.03.2017 22:49 0,4 °C 0,4 °C 94 % 1005,0 hPa 0,0 mm 2,6 km/h (1 Bft) S-SW 200 ° 0 min 0,000 mm 0,0 UV-I 0 W/m² -0,5 °C 0,4 °C 3,2 km/h (1 Bft)
06.03.2017 22:50 0,4 °C 0,4 °C 94 % 1005,0 hPa 0,0 mm 2,7 km/h (1 Bft) SW 219 ° 0 min 0,000 mm 0,0 UV-I 0 W/m² -0,5 °C 0,4 °C 3,2 km/h (1 Bft)
06.03.2017 22:51 0,4 °C 0,5 °C 94 % 1005,0 hPa 0,0 mm 3,4 km/h (1 Bft) W 264 ° 0 min 0,000 mm 0,0 UV-I 0 W/m² -0,5 °C 0,4 °C 4,8 km/h (1 Bft)
06.03.2017 22:52 0,5 °C 0,5 °C 94 % 1005,0 hPa 0,0 mm 2,3 km/h (1 Bft) SW 228 ° 0 min 0,000 mm 0,0 UV-I 0 W/m² -0,4 °C 0,5 °C 3,2 km/h (1 Bft)
06.03.2017 22:53 0,5 °C 0,5 °C 94 % 1005,0 hPa 0,0 mm 5,2 km/h (1 Bft) W-SW 249 ° 0 min 0,000 mm 0,0 UV-I 0 W/m² -0,4 °C -1,1 °C 8,0 km/h (2 Bft)
06.03.2017 22:54 0,6 °C 0,6 °C 94 % 1005,0 hPa 0,0 mm 4,4 km/h (1 Bft) W-SW 241 ° 0 min 0,000 mm 0,0 UV-I 0 W/m² -0,3 °C 0,6 °C 6,4 km/h (2 Bft)
06.03.2017 22:55 0,6 °C 0,6 °C 94 % 1005,0 hPa 0,0 mm 4,7 km/h (1 Bft) S 188 ° 0 min 0,000 mm 0,0 UV-I 0 W/m² -0,3 °C -0,8 °C 6,4 km/h (2 Bft)
06.03.2017 22:56 0,6 °C 0,6 °C 94 % 1005,0 hPa 0,0 mm 4,3 km/h (1 Bft) W-SW 257 ° 0 min 0,000 mm 0,0 UV-I 0 W/m² -0,3 °C 0,6 °C 6,4 km/h (2 Bft)
06.03.2017 22:57 0,6 °C 0,6 °C 94 % 1005,1 hPa 0,0 mm 4,0 km/h (1 Bft) SW 221 ° 0 min 0,000 mm 0,0 UV-I 0 W/m² -0,3 °C 0,6 °C 6,4 km/h (2 Bft)
06.03.2017 22:58 0,6 °C 0,6 °C 94 % 1005,1 hPa 0,0 mm 4,9 km/h (1 Bft) SW 222 ° 0 min 0,000 mm 0,0 UV-I 0 W/m² -0,3 °C -0,9 °C 8,0 km/h (2 Bft)
06.03.2017 22:59 0,6 °C 0,7 °C 94 % 1005,2 hPa 0,0 mm 3,6 km/h (1 Bft) SW 216 ° 0 min 0,000 mm 0,0 UV-I 0 W/m² -0,3 °C 0,6 °C 4,8 km/h (1 Bft)
06.03.2017 23:00 0,7 °C 0,7 °C 94 % 1005,2 hPa 0,0 mm 2,2 km/h (1 Bft) SW 235 ° 0 min 0,000 mm 0,0 UV-I 0 W/m² -0,2 °C 0,7 °C 4,8 km/h (1 Bft)
06.03.2017 23:01 0,7 °C 0,7 °C 94 % 1005,2 hPa 0,0 mm 2,9 km/h (1 Bft) SW 234 ° 0 min 0,000 mm 0,0 UV-I 0 W/m² -0,2 °C 0,7 °C 3,2 km/h (1 Bft)
06.03.2017 23:02 0,7 °C 0,7 °C 94 % 1005,3 hPa 0,0 mm 2,1 km/h (1 Bft) W 265 ° 0 min 0,000 mm 0,0 UV-I 0 W/m² -0,2 °C 0,7 °C 3,2 km/h (1 Bft)
06.03.2017 23:03 0,7 °C 0,7 °C 94 % 1005,3 hPa 0,0 mm 5,5 km/h (1 Bft) W-SW 254 ° 0 min 0,000 mm 0,0 UV-I 0 W/m² -0,2 °C -1,0 °C 6,4 km/h (2 Bft)
06.03.2017 23:04 0,7 °C 0,7 °C 94 % 1005,3 hPa 0,0 mm 3,5 km/h (1 Bft) SW 215 ° 0 min 0,000 mm 0,0 UV-I 0 W/m² -0,2 °C 0,7 °C 4,8 km/h (1 Bft)
06.03.2017 23:05 0,7 °C 0,7 °C 94 % 1005,3 hPa 0,0 mm 3,8 km/h (1 Bft) SW 227 ° 0 min 0,000 mm 0,0 UV-I 0 W/m² -0,2 °C 0,7 °C 4,8 km/h (1 Bft)
06.03.2017 23:06 0,7 °C 0,7 °C 94 % 1005,4 hPa 0,0 mm 4,2 km/h (1 Bft) W-SW 252 ° 0 min 0,000 mm 0,0 UV-I 0 W/m² -0,2 °C 0,7 °C 6,4 km/h (2 Bft)
06.03.2017 23:07 0,7 °C 0,7 °C 94 % 1005,5 hPa 0,0 mm 4,6 km/h (1 Bft) W-SW 255 ° 0 min 0,000 mm 0,0 UV-I 0 W/m² -0,2 °C -0,6 °C 6,4 km/h (2 Bft)
06.03.2017 23:08 0,7 °C 0,7 °C 94 % 1005,5 hPa 0,0 mm 5,8 km/h (2 Bft) W-SW 244 ° 0 min 0,000 mm 0,0 UV-I 0 W/m² -0,2 °C -1,1 °C 9,7 km/h (2 Bft)
06.03.2017 23:09 0,7 °C 0,7 °C 94 % 1005,6 hPa 0,0 mm 6,0 km/h (2 Bft) W 272 ° 0 min 0,000 mm 0,0 UV-I 0 W/m² -0,2 °C -1,2 °C 11,3 km/h (2 Bft)
06.03.2017 23:10 0,7 °C 0,7 °C 94 % 1005,6 hPa 0,0 mm 5,2 km/h (1 Bft) SW 235 ° 0 min 0,000 mm 0,0 UV-I 0 W/m² -0,2 °C -0,9 °C 6,4 km/h (2 Bft)
06.03.2017 23:11 0,6 °C 0,7 °C 94 % 1005,6 hPa 0,0 mm 5,4 km/h (1 Bft) W 278 ° 0 min 0,000 mm 0,0 UV-I 0 W/m² -0,3 °C -1,1 °C 8,0 km/h (2 Bft)
06.03.2017 23:12 0,6 °C 0,7 °C 94 % 1005,6 hPa 0,0 mm 4,5 km/h (1 Bft) W 261 ° 0 min 0,000 mm 0,0 UV-I 0 W/m² -0,3 °C 0,6 °C 6,4 km/h (2 Bft)
06.03.2017 23:13 0,7 °C 0,7 °C 94 % 1005,7 hPa 0,0 mm 5,2 km/h (1 Bft) W-SW 246 ° 0 min 0,000 mm 0,0 UV-I 0 W/m² -0,2 °C -0,9 °C 9,7 km/h (2 Bft)
06.03.2017 23:14 0,7 °C 0,7 °C 94 % 1005,7 hPa 0,0 mm 1,1 km/h (1 Bft) W 279 ° 0 min 0,000 mm 0,0 UV-I 0 W/m² -0,2 °C 0,7 °C 3,2 km/h (1 Bft)
06.03.2017 23:15 0,7 °C 0,7 °C 94 % 1005,7 hPa 0,0 mm 0,0 km/h (0 Bft) W-SW 244 ° 0 min 0,000 mm 0,0 UV-I 0 W/m² -0,2 °C 0,7 °C 0,0 km/h (0 Bft)
06.03.2017 23:16 0,7 °C 0,7 °C 94 % 1005,7 hPa 0,0 mm 0,5 km/h (0 Bft) W-SW 253 ° 0 min 0,000 mm 0,0 UV-I 0 W/m² -0,2 °C 0,7 °C 1,6 km/h (1 Bft)
06.03.2017 23:17 0,7 °C 0,7 °C 94 % 1005,7 hPa 0,0 mm 1,1 km/h (1 Bft) W-SW 249 ° 0 min 0,000 mm 0,0 UV-I 0 W/m² -0,2 °C 0,7 °C 3,2 km/h (1 Bft)
06.03.2017 23:18 0,7 °C 0,7 °C 94 % 1005,8 hPa 0,0 mm 2,8 km/h (1 Bft) SW 225 ° 0 min 0,000 mm 0,0 UV-I 0 W/m² -0,2 °C 0,7 °C 6,4 km/h (2 Bft)
06.03.2017 23:19 0,7 °C 0,7 °C 94 % 1005,8 hPa 0,0 mm 1,5 km/h (1 Bft) W 265 ° 0 min 0,000 mm 0,0 UV-I 0 W/m² -0,2 °C 0,7 °C 4,8 km/h (1 Bft)
06.03.2017 23:20 0,6 °C 0,7 °C 94 % 1005,7 hPa 0,0 mm 1,1 km/h (1 Bft) W-SW 252 ° 0 min 0,000 mm 0,0 UV-I 0 W/m² -0,3 °C 0,6 °C 6,4 km/h (2 Bft)
06.03.2017 23:21 0,6 °C 0,6 °C 94 % 1005,9 hPa 0,0 mm 4,5 km/h (1 Bft) W-SW 250 ° 0 min 0,000 mm 0,0 UV-I 0 W/m² -0,3 °C 0,6 °C 11,3 km/h (2 Bft)
06.03.2017 23:22 0,6 °C 0,6 °C 94 % 1005,9 hPa 0,0 mm 2,4 km/h (1 Bft) W-SW 250 ° 0 min 0,000 mm 0,0 UV-I 0 W/m² -0,3 °C 0,6 °C 4,8 km/h (1 Bft)
06.03.2017 23:23 0,6 °C 0,7 °C 94 % 1005,8 hPa 0,0 mm 2,1 km/h (1 Bft) W 280 ° 0 min 0,000 mm 0,0 UV-I 0 W/m² -0,3 °C 0,6 °C 4,8 km/h (1 Bft)
06.03.2017 23:24 0,6 °C 0,6 °C 94 % 1005,9 hPa 0,0 mm 2,1 km/h (1 Bft) W-SW 252 ° 0 min 0,000 mm 0,0 UV-I 0 W/m² -0,3 °C 0,6 °C 6,4 km/h (2 Bft)
06.03.2017 23:25 0,6 °C 0,6 °C 94 % 1005,9 hPa 0,0 mm 2,9 km/h (1 Bft) SW 227 ° 0 min 0,000 mm 0,0 UV-I 0 W/m² -0,3 °C 0,6 °C 4,8 km/h (1 Bft)
06.03.2017 23:26 0,6 °C 0,7 °C 94 % 1005,9 hPa 0,0 mm 1,9 km/h (1 Bft) SW 234 ° 0 min 0,000 mm 0,0 UV-I 0 W/m² -0,3 °C 0,6 °C 3,2 km/h (1 Bft)
06.03.2017 23:27 0,7 °C 0,7 °C 94 % 1006,0 hPa 0,0 mm 1,2 km/h (1 Bft) W-SW 238 ° 0 min 0,000 mm 0,0 UV-I 0 W/m² -0,2 °C 0,7 °C 3,2 km/h (1 Bft)
06.03.2017 23:28 0,7 °C 0,7 °C 94 % 1006,0 hPa 0,0 mm 3,4 km/h (1 Bft) SW 225 ° 0 min 0,000 mm 0,0 UV-I 0 W/m² -0,2 °C 0,7 °C 6,4 km/h (2 Bft)
06.03.2017 23:29 0,7 °C 0,7 °C 94 % 1006,0 hPa 0,0 mm 3,0 km/h (1 Bft) SW 217 ° 0 min 0,000 mm 0,0 UV-I 0 W/m² -0,2 °C 0,7 °C 4,8 km/h (1 Bft)
06.03.2017 23:30 0,7 °C 0,7 °C 94 % 1006,0 hPa 0,0 mm 4,9 km/h (1 Bft) W-SW 245 ° 0 min 0,000 mm 0,0 UV-I 0 W/m² -0,2 °C -0,7 °C 12,9 km/h (3 Bft)
06.03.2017 23:31 0,7 °C 0,7 °C 94 % 1006,0 hPa 0,0 mm 5,8 km/h (2 Bft) S 180 ° 0 min 0,000 mm 0,0 UV-I 0 W/m² -0,2 °C -1,1 °C 12,9 km/h (3 Bft)
06.03.2017 23:32 0,7 °C 0,7 °C 93 % 1006,0 hPa 0,2 mm 5,6 km/h (1 Bft) SW 230 ° 0 min 0,000 mm 0,0 UV-I 0 W/m² -0,3 °C -1,1 °C 11,3 km/h (2 Bft)
06.03.2017 23:33 0,7 °C 0,7 °C 93 % 1006,0 hPa 0,0 mm 6,6 km/h (2 Bft) SW 234 ° 0 min 0,000 mm 0,0 UV-I 0 W/m² -0,3 °C -1,4 °C 12,9 km/h (3 Bft)
06.03.2017 23:34 0,8 °C 0,8 °C 93 % 1006,0 hPa 0,0 mm 6,4 km/h (2 Bft) W-SW 250 ° 0 min 0,000 mm 0,0 UV-I 0 W/m² -0,2 °C -1,3 °C 11,3 km/h (2 Bft)
06.03.2017 23:35 0,8 °C 0,8 °C 93 % 1006,0 hPa 0,0 mm 7,2 km/h (2 Bft) SW 214 ° 0 min 0,000 mm 0,0 UV-I 0 W/m² -0,2 °C -1,5 °C 11,3 km/h (2 Bft)
06.03.2017 23:36 0,8 °C 0,8 °C 93 % 1006,0 hPa 0,0 mm 6,7 km/h (2 Bft) S 181 ° 0 min 0,000 mm 0,0 UV-I 0 W/m² -0,2 °C -1,4 °C 11,3 km/h (2 Bft)
06.03.2017 23:37 0,8 °C 0,8 °C 93 % 1006,1 hPa 0,0 mm 5,2 km/h (1 Bft) W-SW 238 ° 0 min 0,000 mm 0,0 UV-I 0 W/m² -0,2 °C -0,8 °C 6,4 km/h (2 Bft)
06.03.2017 23:38 0,8 °C 0,8 °C 93 % 1006,1 hPa 0,0 mm 5,5 km/h (1 Bft) S-SW 193 ° 0 min 0,000 mm 0,0 UV-I 0 W/m² -0,2 °C -0,9 °C 9,7 km/h (2 Bft)
06.03.2017 23:39 0,8 °C 0,8 °C 93 % 1006,1 hPa 0,0 mm 6,5 km/h (2 Bft) W-SW 240 ° 0 min 0,000 mm 0,0 UV-I 0 W/m² -0,2 °C -1,3 °C 9,7 km/h (2 Bft)
06.03.2017 23:40 0,8 °C 0,8 °C 93 % 1006,2 hPa 0,0 mm 6,0 km/h (2 Bft) W-SW 243 ° 0 min 0,000 mm 0,0 UV-I 0 W/m² -0,2 °C -1,1 °C 11,3 km/h (2 Bft)
06.03.2017 23:41 0,8 °C 0,8 °C 93 % 1006,1 hPa 0,0 mm 4,3 km/h (1 Bft) SW 232 ° 0 min 0,000 mm 0,0 UV-I 0 W/m² -0,2 °C 0,8 °C 6,4 km/h (2 Bft)
06.03.2017 23:42 0,8 °C 0,8 °C 93 % 1006,2 hPa 0,0 mm 7,9 km/h (2 Bft) SW 236 ° 0 min 0,000 mm 0,0 UV-I 0 W/m² -0,2 °C -1,8 °C 11,3 km/h (2 Bft)
06.03.2017 23:43 0,8 °C 0,8 °C 93 % 1006,3 hPa 0,0 mm 10,3 km/h (2 Bft) W 263 ° 0 min 0,000 mm 0,0 UV-I 0 W/m² -0,2 °C -2,4 °C 16,1 km/h (3 Bft)
06.03.2017 23:44 0,8 °C 0,9 °C 93 % 1006,2 hPa 0,0 mm 11,7 km/h (2 Bft) W 259 ° 0 min 0,000 mm 0,0 UV-I 0 W/m² -0,2 °C -2,8 °C 19,3 km/h (3 Bft)
06.03.2017 23:45 0,9 °C 0,9 °C 93 % 1006,3 hPa 0,0 mm 14,3 km/h (3 Bft) W-SW 257 ° 0 min 0,000 mm 0,0 UV-I 0 W/m² -0,1 °C -3,2 °C 19,3 km/h (3 Bft)
06.03.2017 23:46 0,9 °C 0,9 °C 93 % 1006,4 hPa 0,0 mm 8,5 km/h (2 Bft) W-SW 250 ° 0 min 0,000 mm 0,0 UV-I 0 W/m² -0,1 °C -1,8 °C 11,3 km/h (2 Bft)
06.03.2017 23:47 0,9 °C 0,9 °C 93 % 1006,3 hPa 0,0 mm 7,9 km/h (2 Bft) SW 229 ° 0 min 0,000 mm 0,0 UV-I 0 W/m² -0,1 °C -1,7 °C 11,3 km/h (2 Bft)
06.03.2017 23:48 0,9 °C 0,9 °C 93 % 1006,3 hPa 0,0 mm 6,3 km/h (2 Bft) W-SW 242 ° 0 min 0,000 mm 0,0 UV-I 0 W/m² -0,1 °C -1,1 °C 9,7 km/h (2 Bft)
06.03.2017 23:49 1,0 °C 1,0 °C 93 % 1006,4 hPa 0,0 mm 9,4 km/h (2 Bft) W 264 ° 0 min 0,000 mm 0,0 UV-I 0 W/m² -0,0 °C -2,0 °C 17,7 km/h (3 Bft)
06.03.2017 23:50 1,0 °C 1,0 °C 93 % 1006,3 hPa 0,0 mm 13,6 km/h (3 Bft) W 271 ° 0 min 0,000 mm 0,0 UV-I 0 W/m² -0,0 °C -2,9 °C 16,1 km/h (3 Bft)
06.03.2017 23:51 1,0 °C 1,1 °C 93 % 1006,4 hPa 0,0 mm 8,4 km/h (2 Bft) SW 230 ° 0 min 0,000 mm 0,0 UV-I 0 W/m² -0,0 °C -1,7 °C 12,9 km/h (3 Bft)
06.03.2017 23:52 1,0 °C 1,1 °C 93 % 1006,4 hPa 0,0 mm 9,9 km/h (2 Bft) W 266 ° 0 min 0,000 mm 0,0 UV-I 0 W/m² -0,0 °C -2,1 °C 16,1 km/h (3 Bft)
06.03.2017 23:53 1,0 °C 1,1 °C 93 % 1006,4 hPa 0,0 mm 9,5 km/h (2 Bft) SW 228 ° 0 min 0,000 mm 0,0 UV-I 0 W/m² -0,0 °C -2,0 °C 12,9 km/h (3 Bft)
06.03.2017 23:54 1,1 °C 1,1 °C 93 % 1006,5 hPa 0,0 mm 9,2 km/h (2 Bft) W-SW 248 ° 0 min 0,000 mm 0,0 UV-I 0 W/m² 0,1 °C -1,8 °C 12,9 km/h (3 Bft)
06.03.2017 23:55 1,1 °C 1,1 °C 92 % 1006,5 hPa 0,0 mm 11,1 km/h (2 Bft) W-SW 238 ° 0 min 0,000 mm 0,0 UV-I 0 W/m² -0,1 °C -2,3 °C 16,1 km/h (3 Bft)
06.03.2017 23:56 1,1 °C 1,1 °C 92 % 1006,5 hPa 0,0 mm 9,0 km/h (2 Bft) W 274 ° 0 min 0,000 mm 0,0 UV-I 0 W/m² -0,1 °C -1,7 °C 14,5 km/h (3 Bft)
06.03.2017 23:57 1,1 °C 1,1 °C 92 % 1006,6 hPa 0,0 mm 8,6 km/h (2 Bft) W-SW 257 ° 0 min 0,000 mm 0,0 UV-I 0 W/m² -0,1 °C -1,6 °C 12,9 km/h (3 Bft)
06.03.2017 23:58 1,1 °C 1,1 °C 92 % 1006,6 hPa 0,0 mm 11,4 km/h (2 Bft) W 278 ° 0 min 0,000 mm 0,0 UV-I 0 W/m² -0,1 °C -2,3 °C 17,7 km/h (3 Bft)
06.03.2017 23:59 1,1 °C 1,1 °C 92 % 1006,6 hPa 0,0 mm 13,3 km/h (3 Bft) W-SW 248 ° 0 min 0,000 mm 0,0 UV-I 0 W/m² -0,1 °C -2,7 °C 19,3 km/h (3 Bft)
_ Min-Zeit 21:02 21:01 13:30 16:43 - 23:15 - - - - - - 13:30 01:28 23:15
Minimum _ 0,2 °C 0,2 °C 44 % 999,2 hPa - 0,0 km/h (0 Bft) - - - - - - -3,1 °C -4,2 °C 0,0 km/h (0 Bft)
_ Max-Zeit 13:26 13:27 22:02 05:37 23:32 01:28 - - 14:55 12:01 12:54 10:54 17:43 13:13 01:28
Maximum _ 8,7 °C 8,7 °C 95 % 1007,6 hPa 0,2 mm 29,2 km/h
W (5 Bft)
- - 1 min 0,280 mm 3,5 UV-I 693 W/m² 1,5 °C 8,2 °C 54,7 km/h
W-SW (7 Bft)
Durchschnitt _ 3,1 °C 3,1 °C 79 % 1003,9 hPa #3,8 mm 8,0 km/h (2 Bft) W-SW - #4:45 h #1,473 mm 1,9 UV-I 109 W/m² -0,5 °C 1,2 °C 12,2 km/h (2 Bft)